<?xml version="1.0" encoding="UTF-8" standalone="no" ?>
<gpx xmlns="http://www.topografix.com/GPX/1/1" xmlns:xsi="http://www.w3.org/2001/XMLSchema-instance" xsi:schemaLocation="http://www.topografix.com/GPX/1/1 http://www.topografix.com/GPX/1/1/gpx.xsd" version="1.1" creator="VisuGPX - https://www.visugpx.com">
  <metadata>
    <name>Autour de la Roque sur pernes</name>
  </metadata>
  <trk>
    <name><![CDATA[Autour de la Roque sur pernes]]></name>
    <trkseg>
      <trkpt lat="43.96418" lon="5.0904">
        <ele>271.9</ele>
        <time>2016-02-21T08:53:51Z</time>
      </trkpt>
      <trkpt lat="43.96418" lon="5.0904">
        <ele>271.9</ele>
        <time>2016-02-21T08:53:51Z</time>
      </trkpt>
      <trkpt lat="43.96419" lon="5.0904">
        <ele>272</ele>
        <time>2016-02-21T08:53:52Z</time>
      </trkpt>
      <trkpt lat="43.96428" lon="5.0904">
        <ele>272.1</ele>
        <time>2016-02-21T08:54:00Z</time>
      </trkpt>
      <trkpt lat="43.96436" lon="5.09047">
        <ele>271.8</ele>
        <time>2016-02-21T08:54:07Z</time>
      </trkpt>
      <trkpt lat="43.96446" lon="5.09053">
        <ele>271.8</ele>
        <time>2016-02-21T08:54:13Z</time>
      </trkpt>
      <trkpt lat="43.96455" lon="5.09058">
        <ele>271.8</ele>
        <time>2016-02-21T08:54:19Z</time>
      </trkpt>
      <trkpt lat="43.96456" lon="5.09074">
        <ele>271.8</ele>
        <time>2016-02-21T08:54:27Z</time>
      </trkpt>
      <trkpt lat="43.96464" lon="5.09082">
        <ele>271.9</ele>
        <time>2016-02-21T08:54:38Z</time>
      </trkpt>
      <trkpt lat="43.96471" lon="5.0909">
        <ele>271.9</ele>
        <time>2016-02-21T08:54:48Z</time>
      </trkpt>
      <trkpt lat="43.96476" lon="5.09102">
        <ele>271.9</ele>
        <time>2016-02-21T08:54:56Z</time>
      </trkpt>
      <trkpt lat="43.96485" lon="5.09105">
        <ele>272</ele>
        <time>2016-02-21T08:55:13Z</time>
      </trkpt>
      <trkpt lat="43.96494" lon="5.09109">
        <ele>272</ele>
        <time>2016-02-21T08:55:22Z</time>
      </trkpt>
      <trkpt lat="43.96503" lon="5.09108">
        <ele>272.1</ele>
        <time>2016-02-21T08:55:37Z</time>
      </trkpt>
      <trkpt lat="43.96512" lon="5.09103">
        <ele>272.2</ele>
        <time>2016-02-21T08:56:36Z</time>
      </trkpt>
      <trkpt lat="43.96521" lon="5.091">
        <ele>272</ele>
        <time>2016-02-21T08:56:41Z</time>
      </trkpt>
      <trkpt lat="43.96531" lon="5.091">
        <ele>270.7</ele>
        <time>2016-02-21T08:57:45Z</time>
      </trkpt>
      <trkpt lat="43.9654" lon="5.09101">
        <ele>270.3</ele>
        <time>2016-02-21T08:57:51Z</time>
      </trkpt>
      <trkpt lat="43.9655" lon="5.09101">
        <ele>269.6</ele>
        <time>2016-02-21T08:58:02Z</time>
      </trkpt>
      <trkpt lat="43.9656" lon="5.09098">
        <ele>269.1</ele>
        <time>2016-02-21T08:58:11Z</time>
      </trkpt>
      <trkpt lat="43.96568" lon="5.09095">
        <ele>268.6</ele>
        <time>2016-02-21T08:58:19Z</time>
      </trkpt>
      <trkpt lat="43.96578" lon="5.09092">
        <ele>268.4</ele>
        <time>2016-02-21T08:58:24Z</time>
      </trkpt>
      <trkpt lat="43.96587" lon="5.09086">
        <ele>268.1</ele>
        <time>2016-02-21T08:58:31Z</time>
      </trkpt>
      <trkpt lat="43.96589" lon="5.09073">
        <ele>267.8</ele>
        <time>2016-02-21T08:58:39Z</time>
      </trkpt>
      <trkpt lat="43.96585" lon="5.0906">
        <ele>267.3</ele>
        <time>2016-02-21T08:58:46Z</time>
      </trkpt>
      <trkpt lat="43.9658" lon="5.09047">
        <ele>267.1</ele>
        <time>2016-02-21T08:58:51Z</time>
      </trkpt>
      <trkpt lat="43.96576" lon="5.09035">
        <ele>266.7</ele>
        <time>2016-02-21T08:58:58Z</time>
      </trkpt>
      <trkpt lat="43.96577" lon="5.09021">
        <ele>266.3</ele>
        <time>2016-02-21T08:59:07Z</time>
      </trkpt>
      <trkpt lat="43.96579" lon="5.09008">
        <ele>266</ele>
        <time>2016-02-21T08:59:16Z</time>
      </trkpt>
      <trkpt lat="43.96575" lon="5.08994">
        <ele>265.6</ele>
        <time>2016-02-21T08:59:37Z</time>
      </trkpt>
      <trkpt lat="43.96567" lon="5.08989">
        <ele>265.5</ele>
        <time>2016-02-21T08:59:48Z</time>
      </trkpt>
      <trkpt lat="43.96559" lon="5.08983">
        <ele>265.3</ele>
        <time>2016-02-21T08:59:54Z</time>
      </trkpt>
      <trkpt lat="43.96549" lon="5.08981">
        <ele>264.8</ele>
        <time>2016-02-21T09:00:00Z</time>
      </trkpt>
      <trkpt lat="43.96538" lon="5.08977">
        <ele>264.3</ele>
        <time>2016-02-21T09:00:06Z</time>
      </trkpt>
      <trkpt lat="43.96529" lon="5.08975">
        <ele>263.8</ele>
        <time>2016-02-21T09:00:11Z</time>
      </trkpt>
      <trkpt lat="43.96519" lon="5.08974">
        <ele>262.8</ele>
        <time>2016-02-21T09:00:18Z</time>
      </trkpt>
      <trkpt lat="43.96509" lon="5.08976">
        <ele>262</ele>
        <time>2016-02-21T09:00:24Z</time>
      </trkpt>
      <trkpt lat="43.965" lon="5.08979">
        <ele>261.2</ele>
        <time>2016-02-21T09:00:30Z</time>
      </trkpt>
      <trkpt lat="43.9649" lon="5.08976">
        <ele>260.6</ele>
        <time>2016-02-21T09:00:36Z</time>
      </trkpt>
      <trkpt lat="43.96484" lon="5.08964">
        <ele>260.3</ele>
        <time>2016-02-21T09:00:41Z</time>
      </trkpt>
      <trkpt lat="43.96488" lon="5.08951">
        <ele>259.9</ele>
        <time>2016-02-21T09:00:47Z</time>
      </trkpt>
      <trkpt lat="43.96498" lon="5.08947">
        <ele>259.5</ele>
        <time>2016-02-21T09:00:51Z</time>
      </trkpt>
      <trkpt lat="43.96507" lon="5.08948">
        <ele>259.3</ele>
        <time>2016-02-21T09:00:55Z</time>
      </trkpt>
      <trkpt lat="43.96516" lon="5.0895">
        <ele>258.9</ele>
        <time>2016-02-21T09:01:02Z</time>
      </trkpt>
      <trkpt lat="43.96526" lon="5.0895">
        <ele>258.3</ele>
        <time>2016-02-21T09:01:09Z</time>
      </trkpt>
      <trkpt lat="43.96535" lon="5.08947">
        <ele>257.7</ele>
        <time>2016-02-21T09:01:16Z</time>
      </trkpt>
      <trkpt lat="43.96545" lon="5.08947">
        <ele>257.3</ele>
        <time>2016-02-21T09:01:23Z</time>
      </trkpt>
      <trkpt lat="43.96555" lon="5.08949">
        <ele>257.1</ele>
        <time>2016-02-21T09:01:28Z</time>
      </trkpt>
      <trkpt lat="43.96564" lon="5.08947">
        <ele>256.9</ele>
        <time>2016-02-21T09:01:33Z</time>
      </trkpt>
      <trkpt lat="43.96573" lon="5.08948">
        <ele>256.6</ele>
        <time>2016-02-21T09:01:38Z</time>
      </trkpt>
      <trkpt lat="43.96583" lon="5.08947">
        <ele>256.3</ele>
        <time>2016-02-21T09:01:43Z</time>
      </trkpt>
      <trkpt lat="43.96592" lon="5.08946">
        <ele>256.1</ele>
        <time>2016-02-21T09:01:49Z</time>
      </trkpt>
      <trkpt lat="43.96602" lon="5.08944">
        <ele>255.8</ele>
        <time>2016-02-21T09:01:56Z</time>
      </trkpt>
      <trkpt lat="43.9661" lon="5.08939">
        <ele>255.5</ele>
        <time>2016-02-21T09:02:01Z</time>
      </trkpt>
      <trkpt lat="43.96619" lon="5.08942">
        <ele>255.2</ele>
        <time>2016-02-21T09:02:07Z</time>
      </trkpt>
      <trkpt lat="43.96628" lon="5.08948">
        <ele>254.7</ele>
        <time>2016-02-21T09:02:15Z</time>
      </trkpt>
      <trkpt lat="43.96638" lon="5.08954">
        <ele>254.2</ele>
        <time>2016-02-21T09:02:27Z</time>
      </trkpt>
      <trkpt lat="43.96648" lon="5.08956">
        <ele>254.1</ele>
        <time>2016-02-21T09:02:31Z</time>
      </trkpt>
      <trkpt lat="43.96657" lon="5.08951">
        <ele>253.7</ele>
        <time>2016-02-21T09:02:38Z</time>
      </trkpt>
      <trkpt lat="43.96652" lon="5.08938">
        <ele>253.3</ele>
        <time>2016-02-21T09:02:46Z</time>
      </trkpt>
      <trkpt lat="43.96643" lon="5.08932">
        <ele>253.2</ele>
        <time>2016-02-21T09:02:52Z</time>
      </trkpt>
      <trkpt lat="43.96634" lon="5.08929">
        <ele>253</ele>
        <time>2016-02-21T09:03:00Z</time>
      </trkpt>
      <trkpt lat="43.96625" lon="5.08925">
        <ele>252.9</ele>
        <time>2016-02-21T09:03:06Z</time>
      </trkpt>
      <trkpt lat="43.96616" lon="5.08924">
        <ele>252.7</ele>
        <time>2016-02-21T09:03:22Z</time>
      </trkpt>
      <trkpt lat="43.96607" lon="5.08921">
        <ele>252.5</ele>
        <time>2016-02-21T09:04:06Z</time>
      </trkpt>
      <trkpt lat="43.966" lon="5.08912">
        <ele>252.4</ele>
        <time>2016-02-21T09:04:15Z</time>
      </trkpt>
      <trkpt lat="43.96595" lon="5.089">
        <ele>252.4</ele>
        <time>2016-02-21T09:04:22Z</time>
      </trkpt>
      <trkpt lat="43.96588" lon="5.08886">
        <ele>252.3</ele>
        <time>2016-02-21T09:04:29Z</time>
      </trkpt>
      <trkpt lat="43.96582" lon="5.08876">
        <ele>252.3</ele>
        <time>2016-02-21T09:04:34Z</time>
      </trkpt>
      <trkpt lat="43.96577" lon="5.08865">
        <ele>252.3</ele>
        <time>2016-02-21T09:04:42Z</time>
      </trkpt>
      <trkpt lat="43.96575" lon="5.08852">
        <ele>252.3</ele>
        <time>2016-02-21T09:04:49Z</time>
      </trkpt>
      <trkpt lat="43.9657" lon="5.08841">
        <ele>252.3</ele>
        <time>2016-02-21T09:04:56Z</time>
      </trkpt>
      <trkpt lat="43.96565" lon="5.0883">
        <ele>252.2</ele>
        <time>2016-02-21T09:05:02Z</time>
      </trkpt>
      <trkpt lat="43.96559" lon="5.08822">
        <ele>252.1</ele>
        <time>2016-02-21T09:05:08Z</time>
      </trkpt>
      <trkpt lat="43.96551" lon="5.08815">
        <ele>252</ele>
        <time>2016-02-21T09:05:15Z</time>
      </trkpt>
      <trkpt lat="43.96545" lon="5.08803">
        <ele>251.7</ele>
        <time>2016-02-21T09:05:23Z</time>
      </trkpt>
      <trkpt lat="43.96541" lon="5.0879">
        <ele>251.5</ele>
        <time>2016-02-21T09:05:30Z</time>
      </trkpt>
      <trkpt lat="43.96549" lon="5.08781">
        <ele>251.4</ele>
        <time>2016-02-21T09:05:39Z</time>
      </trkpt>
      <trkpt lat="43.96558" lon="5.08779">
        <ele>251.4</ele>
        <time>2016-02-21T09:05:46Z</time>
      </trkpt>
      <trkpt lat="43.96568" lon="5.08777">
        <ele>252</ele>
        <time>2016-02-21T09:05:56Z</time>
      </trkpt>
      <trkpt lat="43.96578" lon="5.08777">
        <ele>252.5</ele>
        <time>2016-02-21T09:06:02Z</time>
      </trkpt>
      <trkpt lat="43.96588" lon="5.08777">
        <ele>252.8</ele>
        <time>2016-02-21T09:06:06Z</time>
      </trkpt>
      <trkpt lat="43.96597" lon="5.08773">
        <ele>253.5</ele>
        <time>2016-02-21T09:06:14Z</time>
      </trkpt>
      <trkpt lat="43.96607" lon="5.08771">
        <ele>254</ele>
        <time>2016-02-21T09:06:21Z</time>
      </trkpt>
      <trkpt lat="43.96616" lon="5.08767">
        <ele>254.5</ele>
        <time>2016-02-21T09:06:27Z</time>
      </trkpt>
      <trkpt lat="43.96626" lon="5.08764">
        <ele>254.9</ele>
        <time>2016-02-21T09:06:33Z</time>
      </trkpt>
      <trkpt lat="43.96636" lon="5.08764">
        <ele>255.3</ele>
        <time>2016-02-21T09:06:39Z</time>
      </trkpt>
      <trkpt lat="43.96644" lon="5.0877">
        <ele>256.1</ele>
        <time>2016-02-21T09:06:50Z</time>
      </trkpt>
      <trkpt lat="43.9665" lon="5.08782">
        <ele>256.8</ele>
        <time>2016-02-21T09:06:59Z</time>
      </trkpt>
      <trkpt lat="43.96653" lon="5.08794">
        <ele>257.5</ele>
        <time>2016-02-21T09:07:05Z</time>
      </trkpt>
      <trkpt lat="43.96654" lon="5.08808">
        <ele>258.5</ele>
        <time>2016-02-21T09:07:13Z</time>
      </trkpt>
      <trkpt lat="43.96656" lon="5.08822">
        <ele>259.5</ele>
        <time>2016-02-21T09:07:20Z</time>
      </trkpt>
      <trkpt lat="43.96663" lon="5.0883">
        <ele>260.7</ele>
        <time>2016-02-21T09:07:30Z</time>
      </trkpt>
      <trkpt lat="43.96671" lon="5.08835">
        <ele>261.5</ele>
        <time>2016-02-21T09:07:37Z</time>
      </trkpt>
      <trkpt lat="43.96681" lon="5.0884">
        <ele>261.9</ele>
        <time>2016-02-21T09:07:41Z</time>
      </trkpt>
      <trkpt lat="43.96689" lon="5.08848">
        <ele>262.4</ele>
        <time>2016-02-21T09:07:46Z</time>
      </trkpt>
      <trkpt lat="43.96698" lon="5.08855">
        <ele>262.9</ele>
        <time>2016-02-21T09:07:56Z</time>
      </trkpt>
      <trkpt lat="43.96706" lon="5.08861">
        <ele>263.1</ele>
        <time>2016-02-21T09:08:02Z</time>
      </trkpt>
      <trkpt lat="43.96715" lon="5.08866">
        <ele>263.3</ele>
        <time>2016-02-21T09:08:09Z</time>
      </trkpt>
      <trkpt lat="43.96722" lon="5.08876">
        <ele>263.5</ele>
        <time>2016-02-21T09:08:14Z</time>
      </trkpt>
      <trkpt lat="43.9673" lon="5.08883">
        <ele>263.5</ele>
        <time>2016-02-21T09:08:20Z</time>
      </trkpt>
      <trkpt lat="43.96741" lon="5.08884">
        <ele>263.6</ele>
        <time>2016-02-21T09:08:25Z</time>
      </trkpt>
      <trkpt lat="43.96751" lon="5.08887">
        <ele>263.6</ele>
        <time>2016-02-21T09:08:31Z</time>
      </trkpt>
      <trkpt lat="43.96759" lon="5.08894">
        <ele>263.7</ele>
        <time>2016-02-21T09:08:37Z</time>
      </trkpt>
      <trkpt lat="43.96766" lon="5.08903">
        <ele>263.7</ele>
        <time>2016-02-21T09:08:44Z</time>
      </trkpt>
      <trkpt lat="43.96775" lon="5.08912">
        <ele>263.7</ele>
        <time>2016-02-21T09:08:50Z</time>
      </trkpt>
      <trkpt lat="43.96784" lon="5.08917">
        <ele>263.7</ele>
        <time>2016-02-21T09:08:55Z</time>
      </trkpt>
      <trkpt lat="43.96793" lon="5.08924">
        <ele>263.9</ele>
        <time>2016-02-21T09:09:02Z</time>
      </trkpt>
      <trkpt lat="43.96803" lon="5.08927">
        <ele>264</ele>
        <time>2016-02-21T09:09:08Z</time>
      </trkpt>
      <trkpt lat="43.96811" lon="5.0892">
        <ele>263.9</ele>
        <time>2016-02-21T09:09:20Z</time>
      </trkpt>
      <trkpt lat="43.96819" lon="5.08913">
        <ele>263.2</ele>
        <time>2016-02-21T09:09:25Z</time>
      </trkpt>
      <trkpt lat="43.96828" lon="5.08906">
        <ele>262.6</ele>
        <time>2016-02-21T09:09:33Z</time>
      </trkpt>
      <trkpt lat="43.96825" lon="5.08893">
        <ele>262.1</ele>
        <time>2016-02-21T09:09:43Z</time>
      </trkpt>
      <trkpt lat="43.96826" lon="5.0888">
        <ele>261.6</ele>
        <time>2016-02-21T09:09:53Z</time>
      </trkpt>
      <trkpt lat="43.96834" lon="5.08874">
        <ele>261.2</ele>
        <time>2016-02-21T09:09:58Z</time>
      </trkpt>
      <trkpt lat="43.96837" lon="5.08862">
        <ele>260.6</ele>
        <time>2016-02-21T09:10:05Z</time>
      </trkpt>
      <trkpt lat="43.96847" lon="5.08859">
        <ele>260</ele>
        <time>2016-02-21T09:10:13Z</time>
      </trkpt>
      <trkpt lat="43.96856" lon="5.08864">
        <ele>259.6</ele>
        <time>2016-02-21T09:10:21Z</time>
      </trkpt>
      <trkpt lat="43.96864" lon="5.08855">
        <ele>259.8</ele>
        <time>2016-02-21T09:10:25Z</time>
      </trkpt>
      <trkpt lat="43.9687" lon="5.08845">
        <ele>260.4</ele>
        <time>2016-02-21T09:10:30Z</time>
      </trkpt>
      <trkpt lat="43.96872" lon="5.08832">
        <ele>260.9</ele>
        <time>2016-02-21T09:10:36Z</time>
      </trkpt>
      <trkpt lat="43.96877" lon="5.0882">
        <ele>260.7</ele>
        <time>2016-02-21T09:10:47Z</time>
      </trkpt>
      <trkpt lat="43.96884" lon="5.08812">
        <ele>259</ele>
        <time>2016-02-21T09:10:58Z</time>
      </trkpt>
      <trkpt lat="43.96893" lon="5.08812">
        <ele>257.9</ele>
        <time>2016-02-21T09:11:03Z</time>
      </trkpt>
      <trkpt lat="43.96904" lon="5.08812">
        <ele>256.9</ele>
        <time>2016-02-21T09:11:09Z</time>
      </trkpt>
      <trkpt lat="43.96914" lon="5.0881">
        <ele>255.9</ele>
        <time>2016-02-21T09:11:15Z</time>
      </trkpt>
      <trkpt lat="43.96924" lon="5.08809">
        <ele>255.2</ele>
        <time>2016-02-21T09:11:22Z</time>
      </trkpt>
      <trkpt lat="43.96933" lon="5.08801">
        <ele>254.4</ele>
        <time>2016-02-21T09:11:30Z</time>
      </trkpt>
      <trkpt lat="43.96938" lon="5.0879">
        <ele>253.7</ele>
        <time>2016-02-21T09:11:36Z</time>
      </trkpt>
      <trkpt lat="43.96946" lon="5.08785">
        <ele>252.7</ele>
        <time>2016-02-21T09:11:43Z</time>
      </trkpt>
      <trkpt lat="43.96956" lon="5.08781">
        <ele>252</ele>
        <time>2016-02-21T09:11:52Z</time>
      </trkpt>
      <trkpt lat="43.96964" lon="5.08775">
        <ele>251.5</ele>
        <time>2016-02-21T09:12:00Z</time>
      </trkpt>
      <trkpt lat="43.96974" lon="5.08771">
        <ele>251.6</ele>
        <time>2016-02-21T09:12:08Z</time>
      </trkpt>
      <trkpt lat="43.96982" lon="5.08777">
        <ele>252.1</ele>
        <time>2016-02-21T09:12:15Z</time>
      </trkpt>
      <trkpt lat="43.96992" lon="5.08772">
        <ele>252.9</ele>
        <time>2016-02-21T09:12:24Z</time>
      </trkpt>
      <trkpt lat="43.96998" lon="5.08764">
        <ele>253.3</ele>
        <time>2016-02-21T09:12:31Z</time>
      </trkpt>
      <trkpt lat="43.97" lon="5.0875">
        <ele>253.5</ele>
        <time>2016-02-21T09:12:38Z</time>
      </trkpt>
      <trkpt lat="43.97006" lon="5.0874">
        <ele>253.6</ele>
        <time>2016-02-21T09:12:45Z</time>
      </trkpt>
      <trkpt lat="43.97015" lon="5.08735">
        <ele>253.3</ele>
        <time>2016-02-21T09:12:51Z</time>
      </trkpt>
      <trkpt lat="43.97023" lon="5.08731">
        <ele>252.2</ele>
        <time>2016-02-21T09:12:59Z</time>
      </trkpt>
      <trkpt lat="43.97032" lon="5.08731">
        <ele>250.5</ele>
        <time>2016-02-21T09:13:09Z</time>
      </trkpt>
      <trkpt lat="43.97041" lon="5.08736">
        <ele>249.4</ele>
        <time>2016-02-21T09:13:15Z</time>
      </trkpt>
      <trkpt lat="43.9705" lon="5.08734">
        <ele>248.3</ele>
        <time>2016-02-21T09:13:20Z</time>
      </trkpt>
      <trkpt lat="43.97059" lon="5.08728">
        <ele>246.6</ele>
        <time>2016-02-21T09:13:27Z</time>
      </trkpt>
      <trkpt lat="43.97068" lon="5.0873">
        <ele>244.8</ele>
        <time>2016-02-21T09:13:35Z</time>
      </trkpt>
      <trkpt lat="43.97077" lon="5.08734">
        <ele>243.7</ele>
        <time>2016-02-21T09:13:42Z</time>
      </trkpt>
      <trkpt lat="43.97088" lon="5.08736">
        <ele>243.2</ele>
        <time>2016-02-21T09:13:49Z</time>
      </trkpt>
      <trkpt lat="43.97097" lon="5.08741">
        <ele>243.3</ele>
        <time>2016-02-21T09:13:53Z</time>
      </trkpt>
      <trkpt lat="43.97106" lon="5.08747">
        <ele>244.1</ele>
        <time>2016-02-21T09:14:02Z</time>
      </trkpt>
      <trkpt lat="43.97116" lon="5.08761">
        <ele>245.3</ele>
        <time>2016-02-21T09:14:10Z</time>
      </trkpt>
      <trkpt lat="43.97123" lon="5.0877">
        <ele>246.6</ele>
        <time>2016-02-21T09:14:17Z</time>
      </trkpt>
      <trkpt lat="43.9713" lon="5.0878">
        <ele>247.5</ele>
        <time>2016-02-21T09:14:25Z</time>
      </trkpt>
      <trkpt lat="43.97137" lon="5.08789">
        <ele>247.8</ele>
        <time>2016-02-21T09:14:29Z</time>
      </trkpt>
      <trkpt lat="43.97141" lon="5.08801">
        <ele>248.4</ele>
        <time>2016-02-21T09:14:38Z</time>
      </trkpt>
      <trkpt lat="43.97144" lon="5.08814">
        <ele>248.8</ele>
        <time>2016-02-21T09:14:46Z</time>
      </trkpt>
      <trkpt lat="43.9715" lon="5.08825">
        <ele>248.6</ele>
        <time>2016-02-21T09:14:55Z</time>
      </trkpt>
      <trkpt lat="43.97157" lon="5.08834">
        <ele>248.2</ele>
        <time>2016-02-21T09:15:00Z</time>
      </trkpt>
      <trkpt lat="43.97167" lon="5.08833">
        <ele>247.9</ele>
        <time>2016-02-21T09:15:06Z</time>
      </trkpt>
      <trkpt lat="43.97176" lon="5.08831">
        <ele>247.6</ele>
        <time>2016-02-21T09:15:14Z</time>
      </trkpt>
      <trkpt lat="43.97184" lon="5.08839">
        <ele>248.4</ele>
        <time>2016-02-21T09:15:23Z</time>
      </trkpt>
      <trkpt lat="43.97195" lon="5.08833">
        <ele>249.9</ele>
        <time>2016-02-21T09:15:31Z</time>
      </trkpt>
      <trkpt lat="43.97203" lon="5.08827">
        <ele>251.1</ele>
        <time>2016-02-21T09:15:37Z</time>
      </trkpt>
      <trkpt lat="43.97212" lon="5.08823">
        <ele>252.3</ele>
        <time>2016-02-21T09:15:45Z</time>
      </trkpt>
      <trkpt lat="43.97221" lon="5.08826">
        <ele>253.2</ele>
        <time>2016-02-21T09:15:53Z</time>
      </trkpt>
      <trkpt lat="43.9723" lon="5.08826">
        <ele>253.8</ele>
        <time>2016-02-21T09:15:59Z</time>
      </trkpt>
      <trkpt lat="43.97239" lon="5.08829">
        <ele>254.1</ele>
        <time>2016-02-21T09:16:02Z</time>
      </trkpt>
      <trkpt lat="43.97248" lon="5.08833">
        <ele>254.6</ele>
        <time>2016-02-21T09:16:08Z</time>
      </trkpt>
      <trkpt lat="43.97259" lon="5.08835">
        <ele>255</ele>
        <time>2016-02-21T09:16:15Z</time>
      </trkpt>
      <trkpt lat="43.97269" lon="5.08836">
        <ele>255.4</ele>
        <time>2016-02-21T09:16:25Z</time>
      </trkpt>
      <trkpt lat="43.97278" lon="5.08838">
        <ele>255.5</ele>
        <time>2016-02-21T09:16:33Z</time>
      </trkpt>
      <trkpt lat="43.97287" lon="5.08839">
        <ele>255.7</ele>
        <time>2016-02-21T09:16:40Z</time>
      </trkpt>
      <trkpt lat="43.97297" lon="5.08841">
        <ele>255.9</ele>
        <time>2016-02-21T09:16:47Z</time>
      </trkpt>
      <trkpt lat="43.97306" lon="5.08845">
        <ele>256.1</ele>
        <time>2016-02-21T09:16:55Z</time>
      </trkpt>
      <trkpt lat="43.97316" lon="5.08846">
        <ele>256.4</ele>
        <time>2016-02-21T09:17:03Z</time>
      </trkpt>
      <trkpt lat="43.97326" lon="5.08844">
        <ele>256.7</ele>
        <time>2016-02-21T09:17:11Z</time>
      </trkpt>
      <trkpt lat="43.97336" lon="5.08845">
        <ele>256.8</ele>
        <time>2016-02-21T09:17:17Z</time>
      </trkpt>
      <trkpt lat="43.97345" lon="5.08847">
        <ele>256.9</ele>
        <time>2016-02-21T09:17:23Z</time>
      </trkpt>
      <trkpt lat="43.97354" lon="5.08844">
        <ele>256.9</ele>
        <time>2016-02-21T09:17:28Z</time>
      </trkpt>
      <trkpt lat="43.97363" lon="5.08837">
        <ele>256.8</ele>
        <time>2016-02-21T09:17:34Z</time>
      </trkpt>
      <trkpt lat="43.9737" lon="5.08826">
        <ele>256.7</ele>
        <time>2016-02-21T09:17:41Z</time>
      </trkpt>
      <trkpt lat="43.97376" lon="5.08814">
        <ele>256.4</ele>
        <time>2016-02-21T09:17:49Z</time>
      </trkpt>
      <trkpt lat="43.97383" lon="5.08805">
        <ele>256.2</ele>
        <time>2016-02-21T09:17:54Z</time>
      </trkpt>
      <trkpt lat="43.97389" lon="5.08795">
        <ele>255.8</ele>
        <time>2016-02-21T09:18:02Z</time>
      </trkpt>
      <trkpt lat="43.97397" lon="5.08804">
        <ele>255.4</ele>
        <time>2016-02-21T09:18:12Z</time>
      </trkpt>
      <trkpt lat="43.97401" lon="5.08816">
        <ele>255.2</ele>
        <time>2016-02-21T09:18:17Z</time>
      </trkpt>
      <trkpt lat="43.97405" lon="5.08829">
        <ele>255.2</ele>
        <time>2016-02-21T09:18:24Z</time>
      </trkpt>
      <trkpt lat="43.97408" lon="5.08841">
        <ele>255.1</ele>
        <time>2016-02-21T09:18:32Z</time>
      </trkpt>
      <trkpt lat="43.97405" lon="5.08854">
        <ele>255.1</ele>
        <time>2016-02-21T09:18:42Z</time>
      </trkpt>
      <trkpt lat="43.97406" lon="5.08867">
        <ele>255.2</ele>
        <time>2016-02-21T09:18:48Z</time>
      </trkpt>
      <trkpt lat="43.97412" lon="5.0888">
        <ele>255.3</ele>
        <time>2016-02-21T09:18:54Z</time>
      </trkpt>
      <trkpt lat="43.97415" lon="5.08891">
        <ele>255.5</ele>
        <time>2016-02-21T09:19:00Z</time>
      </trkpt>
      <trkpt lat="43.97414" lon="5.08904">
        <ele>256.1</ele>
        <time>2016-02-21T09:19:11Z</time>
      </trkpt>
      <trkpt lat="43.97419" lon="5.08916">
        <ele>256.5</ele>
        <time>2016-02-21T09:19:20Z</time>
      </trkpt>
      <trkpt lat="43.97426" lon="5.08929">
        <ele>256.8</ele>
        <time>2016-02-21T09:19:25Z</time>
      </trkpt>
      <trkpt lat="43.9743" lon="5.08943">
        <ele>257.1</ele>
        <time>2016-02-21T09:19:31Z</time>
      </trkpt>
      <trkpt lat="43.97433" lon="5.08955">
        <ele>257.4</ele>
        <time>2016-02-21T09:19:40Z</time>
      </trkpt>
      <trkpt lat="43.97437" lon="5.08968">
        <ele>257.6</ele>
        <time>2016-02-21T09:19:50Z</time>
      </trkpt>
      <trkpt lat="43.97441" lon="5.08979">
        <ele>258</ele>
        <time>2016-02-21T09:19:59Z</time>
      </trkpt>
      <trkpt lat="43.97444" lon="5.08992">
        <ele>258.2</ele>
        <time>2016-02-21T09:20:04Z</time>
      </trkpt>
      <trkpt lat="43.97445" lon="5.09006">
        <ele>258.4</ele>
        <time>2016-02-21T09:20:08Z</time>
      </trkpt>
      <trkpt lat="43.97447" lon="5.09019">
        <ele>258.6</ele>
        <time>2016-02-21T09:20:14Z</time>
      </trkpt>
      <trkpt lat="43.97452" lon="5.09031">
        <ele>258.9</ele>
        <time>2016-02-21T09:20:20Z</time>
      </trkpt>
      <trkpt lat="43.97454" lon="5.09043">
        <ele>259</ele>
        <time>2016-02-21T09:20:25Z</time>
      </trkpt>
      <trkpt lat="43.97464" lon="5.09045">
        <ele>259.1</ele>
        <time>2016-02-21T09:20:32Z</time>
      </trkpt>
      <trkpt lat="43.97474" lon="5.09046">
        <ele>258.8</ele>
        <time>2016-02-21T09:20:40Z</time>
      </trkpt>
      <trkpt lat="43.97483" lon="5.09051">
        <ele>258.5</ele>
        <time>2016-02-21T09:20:46Z</time>
      </trkpt>
      <trkpt lat="43.97492" lon="5.09053">
        <ele>258.2</ele>
        <time>2016-02-21T09:20:51Z</time>
      </trkpt>
      <trkpt lat="43.97501" lon="5.09057">
        <ele>257.8</ele>
        <time>2016-02-21T09:20:58Z</time>
      </trkpt>
      <trkpt lat="43.9751" lon="5.09061">
        <ele>257.1</ele>
        <time>2016-02-21T09:21:07Z</time>
      </trkpt>
      <trkpt lat="43.97518" lon="5.09066">
        <ele>256.7</ele>
        <time>2016-02-21T09:21:12Z</time>
      </trkpt>
      <trkpt lat="43.97527" lon="5.09071">
        <ele>256.3</ele>
        <time>2016-02-21T09:21:17Z</time>
      </trkpt>
      <trkpt lat="43.97534" lon="5.09079">
        <ele>255.8</ele>
        <time>2016-02-21T09:21:24Z</time>
      </trkpt>
      <trkpt lat="43.97543" lon="5.09086">
        <ele>255</ele>
        <time>2016-02-21T09:21:32Z</time>
      </trkpt>
      <trkpt lat="43.97551" lon="5.09093">
        <ele>254.5</ele>
        <time>2016-02-21T09:21:38Z</time>
      </trkpt>
      <trkpt lat="43.9756" lon="5.09101">
        <ele>253.8</ele>
        <time>2016-02-21T09:21:45Z</time>
      </trkpt>
      <trkpt lat="43.97566" lon="5.09112">
        <ele>253.2</ele>
        <time>2016-02-21T09:21:50Z</time>
      </trkpt>
      <trkpt lat="43.97573" lon="5.09121">
        <ele>252.2</ele>
        <time>2016-02-21T09:21:57Z</time>
      </trkpt>
      <trkpt lat="43.97581" lon="5.09129">
        <ele>251.3</ele>
        <time>2016-02-21T09:22:06Z</time>
      </trkpt>
      <trkpt lat="43.97591" lon="5.09125">
        <ele>250.5</ele>
        <time>2016-02-21T09:22:13Z</time>
      </trkpt>
      <trkpt lat="43.97597" lon="5.09116">
        <ele>249.7</ele>
        <time>2016-02-21T09:22:20Z</time>
      </trkpt>
      <trkpt lat="43.97601" lon="5.09104">
        <ele>248.7</ele>
        <time>2016-02-21T09:22:28Z</time>
      </trkpt>
      <trkpt lat="43.97602" lon="5.09091">
        <ele>247.8</ele>
        <time>2016-02-21T09:22:34Z</time>
      </trkpt>
      <trkpt lat="43.97604" lon="5.09078">
        <ele>246.6</ele>
        <time>2016-02-21T09:22:42Z</time>
      </trkpt>
      <trkpt lat="43.97605" lon="5.09064">
        <ele>246</ele>
        <time>2016-02-21T09:22:47Z</time>
      </trkpt>
      <trkpt lat="43.97607" lon="5.09049">
        <ele>244</ele>
        <time>2016-02-21T09:22:58Z</time>
      </trkpt>
      <trkpt lat="43.97611" lon="5.09037">
        <ele>242.9</ele>
        <time>2016-02-21T09:23:03Z</time>
      </trkpt>
      <trkpt lat="43.97613" lon="5.09024">
        <ele>241.6</ele>
        <time>2016-02-21T09:23:09Z</time>
      </trkpt>
      <trkpt lat="43.97617" lon="5.09013">
        <ele>240</ele>
        <time>2016-02-21T09:23:18Z</time>
      </trkpt>
      <trkpt lat="43.9762" lon="5.09001">
        <ele>239.2</ele>
        <time>2016-02-21T09:23:24Z</time>
      </trkpt>
      <trkpt lat="43.97624" lon="5.08989">
        <ele>238.3</ele>
        <time>2016-02-21T09:23:30Z</time>
      </trkpt>
      <trkpt lat="43.97628" lon="5.08977">
        <ele>237.4</ele>
        <time>2016-02-21T09:23:37Z</time>
      </trkpt>
      <trkpt lat="43.97633" lon="5.08966">
        <ele>236.3</ele>
        <time>2016-02-21T09:23:44Z</time>
      </trkpt>
      <trkpt lat="43.9764" lon="5.08958">
        <ele>235</ele>
        <time>2016-02-21T09:23:52Z</time>
      </trkpt>
      <trkpt lat="43.97648" lon="5.08951">
        <ele>233.9</ele>
        <time>2016-02-21T09:23:59Z</time>
      </trkpt>
      <trkpt lat="43.97658" lon="5.08948">
        <ele>232.8</ele>
        <time>2016-02-21T09:24:05Z</time>
      </trkpt>
      <trkpt lat="43.97669" lon="5.08946">
        <ele>231.8</ele>
        <time>2016-02-21T09:24:12Z</time>
      </trkpt>
      <trkpt lat="43.97677" lon="5.08941">
        <ele>231.1</ele>
        <time>2016-02-21T09:24:18Z</time>
      </trkpt>
      <trkpt lat="43.97684" lon="5.08932">
        <ele>230.5</ele>
        <time>2016-02-21T09:24:25Z</time>
      </trkpt>
      <trkpt lat="43.97682" lon="5.08919">
        <ele>230.1</ele>
        <time>2016-02-21T09:24:31Z</time>
      </trkpt>
      <trkpt lat="43.97678" lon="5.08906">
        <ele>229.9</ele>
        <time>2016-02-21T09:24:36Z</time>
      </trkpt>
      <trkpt lat="43.97676" lon="5.08892">
        <ele>229.7</ele>
        <time>2016-02-21T09:24:42Z</time>
      </trkpt>
      <trkpt lat="43.97676" lon="5.08879">
        <ele>229.6</ele>
        <time>2016-02-21T09:24:48Z</time>
      </trkpt>
      <trkpt lat="43.97676" lon="5.08866">
        <ele>229.6</ele>
        <time>2016-02-21T09:24:54Z</time>
      </trkpt>
      <trkpt lat="43.97681" lon="5.08855">
        <ele>229.7</ele>
        <time>2016-02-21T09:25:01Z</time>
      </trkpt>
      <trkpt lat="43.97685" lon="5.08844">
        <ele>229.8</ele>
        <time>2016-02-21T09:25:17Z</time>
      </trkpt>
      <trkpt lat="43.97692" lon="5.08834">
        <ele>229.4</ele>
        <time>2016-02-21T09:25:24Z</time>
      </trkpt>
      <trkpt lat="43.97699" lon="5.08826">
        <ele>229</ele>
        <time>2016-02-21T09:25:29Z</time>
      </trkpt>
      <trkpt lat="43.97705" lon="5.08815">
        <ele>227.8</ele>
        <time>2016-02-21T09:25:37Z</time>
      </trkpt>
      <trkpt lat="43.97712" lon="5.08806">
        <ele>226.5</ele>
        <time>2016-02-21T09:25:45Z</time>
      </trkpt>
      <trkpt lat="43.97719" lon="5.08797">
        <ele>225</ele>
        <time>2016-02-21T09:25:53Z</time>
      </trkpt>
      <trkpt lat="43.97727" lon="5.08788">
        <ele>223.9</ele>
        <time>2016-02-21T09:26:00Z</time>
      </trkpt>
      <trkpt lat="43.97733" lon="5.08776">
        <ele>222.4</ele>
        <time>2016-02-21T09:26:09Z</time>
      </trkpt>
      <trkpt lat="43.97737" lon="5.08763">
        <ele>220.8</ele>
        <time>2016-02-21T09:26:18Z</time>
      </trkpt>
      <trkpt lat="43.97739" lon="5.08751">
        <ele>219.6</ele>
        <time>2016-02-21T09:26:25Z</time>
      </trkpt>
      <trkpt lat="43.97742" lon="5.08738">
        <ele>218.9</ele>
        <time>2016-02-21T09:26:29Z</time>
      </trkpt>
      <trkpt lat="43.97746" lon="5.08726">
        <ele>218.2</ele>
        <time>2016-02-21T09:26:35Z</time>
      </trkpt>
      <trkpt lat="43.97755" lon="5.08726">
        <ele>217.7</ele>
        <time>2016-02-21T09:26:40Z</time>
      </trkpt>
      <trkpt lat="43.97765" lon="5.08728">
        <ele>217.2</ele>
        <time>2016-02-21T09:26:48Z</time>
      </trkpt>
      <trkpt lat="43.97774" lon="5.0873">
        <ele>217.1</ele>
        <time>2016-02-21T09:26:54Z</time>
      </trkpt>
      <trkpt lat="43.97786" lon="5.08737">
        <ele>217.1</ele>
        <time>2016-02-21T09:27:00Z</time>
      </trkpt>
      <trkpt lat="43.97795" lon="5.0874">
        <ele>217.1</ele>
        <time>2016-02-21T09:27:05Z</time>
      </trkpt>
      <trkpt lat="43.97804" lon="5.08742">
        <ele>217</ele>
        <time>2016-02-21T09:27:12Z</time>
      </trkpt>
      <trkpt lat="43.97813" lon="5.08746">
        <ele>217</ele>
        <time>2016-02-21T09:27:19Z</time>
      </trkpt>
      <trkpt lat="43.97822" lon="5.08749">
        <ele>216.9</ele>
        <time>2016-02-21T09:27:26Z</time>
      </trkpt>
      <trkpt lat="43.97833" lon="5.08743">
        <ele>217</ele>
        <time>2016-02-21T09:27:33Z</time>
      </trkpt>
      <trkpt lat="43.97842" lon="5.08736">
        <ele>217</ele>
        <time>2016-02-21T09:27:38Z</time>
      </trkpt>
      <trkpt lat="43.97849" lon="5.08727">
        <ele>217</ele>
        <time>2016-02-21T09:27:45Z</time>
      </trkpt>
      <trkpt lat="43.97855" lon="5.08717">
        <ele>215.9</ele>
        <time>2016-02-21T09:27:56Z</time>
      </trkpt>
      <trkpt lat="43.97864" lon="5.08715">
        <ele>214.6</ele>
        <time>2016-02-21T09:28:03Z</time>
      </trkpt>
      <trkpt lat="43.97874" lon="5.08716">
        <ele>212.9</ele>
        <time>2016-02-21T09:28:11Z</time>
      </trkpt>
      <trkpt lat="43.97881" lon="5.08725">
        <ele>211.6</ele>
        <time>2016-02-21T09:28:20Z</time>
      </trkpt>
      <trkpt lat="43.97891" lon="5.08728">
        <ele>210.7</ele>
        <time>2016-02-21T09:28:33Z</time>
      </trkpt>
      <trkpt lat="43.97901" lon="5.08738">
        <ele>210.4</ele>
        <time>2016-02-21T09:28:37Z</time>
      </trkpt>
      <trkpt lat="43.9791" lon="5.0874">
        <ele>210.2</ele>
        <time>2016-02-21T09:28:41Z</time>
      </trkpt>
      <trkpt lat="43.97918" lon="5.0875">
        <ele>208.3</ele>
        <time>2016-02-21T09:28:55Z</time>
      </trkpt>
      <trkpt lat="43.97925" lon="5.08757">
        <ele>207.2</ele>
        <time>2016-02-21T09:29:06Z</time>
      </trkpt>
      <trkpt lat="43.97932" lon="5.08766">
        <ele>206.8</ele>
        <time>2016-02-21T09:29:14Z</time>
      </trkpt>
      <trkpt lat="43.97936" lon="5.08778">
        <ele>206.5</ele>
        <time>2016-02-21T09:29:21Z</time>
      </trkpt>
      <trkpt lat="43.97937" lon="5.0879">
        <ele>206.4</ele>
        <time>2016-02-21T09:29:29Z</time>
      </trkpt>
      <trkpt lat="43.97947" lon="5.08795">
        <ele>206.6</ele>
        <time>2016-02-21T09:29:42Z</time>
      </trkpt>
      <trkpt lat="43.97957" lon="5.08793">
        <ele>206.7</ele>
        <time>2016-02-21T09:29:48Z</time>
      </trkpt>
      <trkpt lat="43.97967" lon="5.08794">
        <ele>206.7</ele>
        <time>2016-02-21T09:29:53Z</time>
      </trkpt>
      <trkpt lat="43.97975" lon="5.08785">
        <ele>206.7</ele>
        <time>2016-02-21T09:30:01Z</time>
      </trkpt>
      <trkpt lat="43.97984" lon="5.0878">
        <ele>206.5</ele>
        <time>2016-02-21T09:30:11Z</time>
      </trkpt>
      <trkpt lat="43.97993" lon="5.08779">
        <ele>206.4</ele>
        <time>2016-02-21T09:30:17Z</time>
      </trkpt>
      <trkpt lat="43.98003" lon="5.08775">
        <ele>206.3</ele>
        <time>2016-02-21T09:30:21Z</time>
      </trkpt>
      <trkpt lat="43.98013" lon="5.08777">
        <ele>206.2</ele>
        <time>2016-02-21T09:30:27Z</time>
      </trkpt>
      <trkpt lat="43.98019" lon="5.08768">
        <ele>206.2</ele>
        <time>2016-02-21T09:30:34Z</time>
      </trkpt>
      <trkpt lat="43.98027" lon="5.0876">
        <ele>205.8</ele>
        <time>2016-02-21T09:30:42Z</time>
      </trkpt>
      <trkpt lat="43.98039" lon="5.08755">
        <ele>205.3</ele>
        <time>2016-02-21T09:30:49Z</time>
      </trkpt>
      <trkpt lat="43.98048" lon="5.08753">
        <ele>204.8</ele>
        <time>2016-02-21T09:30:56Z</time>
      </trkpt>
      <trkpt lat="43.98057" lon="5.08755">
        <ele>204.6</ele>
        <time>2016-02-21T09:31:02Z</time>
      </trkpt>
      <trkpt lat="43.98066" lon="5.08759">
        <ele>204.2</ele>
        <time>2016-02-21T09:31:10Z</time>
      </trkpt>
      <trkpt lat="43.98073" lon="5.08766">
        <ele>203.8</ele>
        <time>2016-02-21T09:31:16Z</time>
      </trkpt>
      <trkpt lat="43.98081" lon="5.08772">
        <ele>203.5</ele>
        <time>2016-02-21T09:31:21Z</time>
      </trkpt>
      <trkpt lat="43.9809" lon="5.08781">
        <ele>203.2</ele>
        <time>2016-02-21T09:31:27Z</time>
      </trkpt>
      <trkpt lat="43.98098" lon="5.08787">
        <ele>202.4</ele>
        <time>2016-02-21T09:31:35Z</time>
      </trkpt>
      <trkpt lat="43.98104" lon="5.08798">
        <ele>201.6</ele>
        <time>2016-02-21T09:31:44Z</time>
      </trkpt>
      <trkpt lat="43.98115" lon="5.08803">
        <ele>201</ele>
        <time>2016-02-21T09:31:51Z</time>
      </trkpt>
      <trkpt lat="43.98124" lon="5.08809">
        <ele>200.4</ele>
        <time>2016-02-21T09:31:56Z</time>
      </trkpt>
      <trkpt lat="43.98132" lon="5.08814">
        <ele>199.5</ele>
        <time>2016-02-21T09:32:05Z</time>
      </trkpt>
      <trkpt lat="43.98141" lon="5.08815">
        <ele>198.1</ele>
        <time>2016-02-21T09:32:13Z</time>
      </trkpt>
      <trkpt lat="43.98146" lon="5.08826">
        <ele>196.6</ele>
        <time>2016-02-21T09:32:21Z</time>
      </trkpt>
      <trkpt lat="43.98149" lon="5.08839">
        <ele>195.8</ele>
        <time>2016-02-21T09:32:26Z</time>
      </trkpt>
      <trkpt lat="43.98151" lon="5.08854">
        <ele>195.1</ele>
        <time>2016-02-21T09:32:31Z</time>
      </trkpt>
      <trkpt lat="43.98152" lon="5.08866">
        <ele>194.8</ele>
        <time>2016-02-21T09:32:35Z</time>
      </trkpt>
      <trkpt lat="43.98153" lon="5.08879">
        <ele>194.4</ele>
        <time>2016-02-21T09:32:40Z</time>
      </trkpt>
      <trkpt lat="43.98147" lon="5.08889">
        <ele>194.1</ele>
        <time>2016-02-21T09:32:48Z</time>
      </trkpt>
      <trkpt lat="43.98138" lon="5.08894">
        <ele>194.3</ele>
        <time>2016-02-21T09:32:55Z</time>
      </trkpt>
      <trkpt lat="43.98134" lon="5.08907">
        <ele>194.8</ele>
        <time>2016-02-21T09:33:03Z</time>
      </trkpt>
      <trkpt lat="43.98133" lon="5.08919">
        <ele>195.1</ele>
        <time>2016-02-21T09:33:09Z</time>
      </trkpt>
      <trkpt lat="43.98129" lon="5.08931">
        <ele>195.6</ele>
        <time>2016-02-21T09:33:16Z</time>
      </trkpt>
      <trkpt lat="43.98125" lon="5.08944">
        <ele>196.1</ele>
        <time>2016-02-21T09:33:22Z</time>
      </trkpt>
      <trkpt lat="43.98121" lon="5.08956">
        <ele>196.6</ele>
        <time>2016-02-21T09:33:28Z</time>
      </trkpt>
      <trkpt lat="43.98117" lon="5.08969">
        <ele>197.3</ele>
        <time>2016-02-21T09:33:35Z</time>
      </trkpt>
      <trkpt lat="43.98116" lon="5.08983">
        <ele>198</ele>
        <time>2016-02-21T09:33:42Z</time>
      </trkpt>
      <trkpt lat="43.98115" lon="5.08996">
        <ele>198.8</ele>
        <time>2016-02-21T09:33:50Z</time>
      </trkpt>
      <trkpt lat="43.98108" lon="5.09006">
        <ele>199.1</ele>
        <time>2016-02-21T09:33:56Z</time>
      </trkpt>
      <trkpt lat="43.98109" lon="5.09018">
        <ele>199.4</ele>
        <time>2016-02-21T09:34:03Z</time>
      </trkpt>
      <trkpt lat="43.98109" lon="5.09031">
        <ele>199.5</ele>
        <time>2016-02-21T09:34:10Z</time>
      </trkpt>
      <trkpt lat="43.98112" lon="5.09045">
        <ele>199.7</ele>
        <time>2016-02-21T09:34:15Z</time>
      </trkpt>
      <trkpt lat="43.98108" lon="5.09059">
        <ele>200.2</ele>
        <time>2016-02-21T09:34:19Z</time>
      </trkpt>
      <trkpt lat="43.98106" lon="5.09075">
        <ele>201</ele>
        <time>2016-02-21T09:34:23Z</time>
      </trkpt>
      <trkpt lat="43.98104" lon="5.09092">
        <ele>201.7</ele>
        <time>2016-02-21T09:34:26Z</time>
      </trkpt>
      <trkpt lat="43.98114" lon="5.09101">
        <ele>202.6</ele>
        <time>2016-02-21T09:34:30Z</time>
      </trkpt>
      <trkpt lat="43.98125" lon="5.091">
        <ele>203.9</ele>
        <time>2016-02-21T09:34:36Z</time>
      </trkpt>
      <trkpt lat="43.98134" lon="5.09097">
        <ele>204.7</ele>
        <time>2016-02-21T09:34:41Z</time>
      </trkpt>
      <trkpt lat="43.98145" lon="5.09093">
        <ele>205.3</ele>
        <time>2016-02-21T09:34:45Z</time>
      </trkpt>
      <trkpt lat="43.98156" lon="5.0909">
        <ele>205.7</ele>
        <time>2016-02-21T09:34:48Z</time>
      </trkpt>
      <trkpt lat="43.98167" lon="5.09085">
        <ele>206.1</ele>
        <time>2016-02-21T09:34:51Z</time>
      </trkpt>
      <trkpt lat="43.98177" lon="5.0908">
        <ele>206.4</ele>
        <time>2016-02-21T09:34:54Z</time>
      </trkpt>
      <trkpt lat="43.98187" lon="5.09076">
        <ele>206.6</ele>
        <time>2016-02-21T09:34:57Z</time>
      </trkpt>
      <trkpt lat="43.98199" lon="5.09073">
        <ele>206.8</ele>
        <time>2016-02-21T09:35:00Z</time>
      </trkpt>
      <trkpt lat="43.98209" lon="5.09074">
        <ele>206.9</ele>
        <time>2016-02-21T09:35:03Z</time>
      </trkpt>
      <trkpt lat="43.98219" lon="5.09077">
        <ele>207.1</ele>
        <time>2016-02-21T09:35:07Z</time>
      </trkpt>
      <trkpt lat="43.98229" lon="5.09081">
        <ele>207.2</ele>
        <time>2016-02-21T09:35:11Z</time>
      </trkpt>
      <trkpt lat="43.98238" lon="5.09088">
        <ele>207.3</ele>
        <time>2016-02-21T09:35:16Z</time>
      </trkpt>
      <trkpt lat="43.98246" lon="5.09098">
        <ele>207.5</ele>
        <time>2016-02-21T09:35:20Z</time>
      </trkpt>
      <trkpt lat="43.98254" lon="5.09105">
        <ele>207.9</ele>
        <time>2016-02-21T09:35:23Z</time>
      </trkpt>
      <trkpt lat="43.98264" lon="5.09111">
        <ele>208.2</ele>
        <time>2016-02-21T09:35:25Z</time>
      </trkpt>
      <trkpt lat="43.98276" lon="5.09116">
        <ele>208.8</ele>
        <time>2016-02-21T09:35:28Z</time>
      </trkpt>
      <trkpt lat="43.98286" lon="5.09119">
        <ele>209.7</ele>
        <time>2016-02-21T09:35:32Z</time>
      </trkpt>
      <trkpt lat="43.98297" lon="5.09121">
        <ele>210.6</ele>
        <time>2016-02-21T09:35:36Z</time>
      </trkpt>
      <trkpt lat="43.98306" lon="5.09126">
        <ele>211.5</ele>
        <time>2016-02-21T09:35:40Z</time>
      </trkpt>
      <trkpt lat="43.98314" lon="5.09134">
        <ele>212.5</ele>
        <time>2016-02-21T09:35:44Z</time>
      </trkpt>
      <trkpt lat="43.98319" lon="5.09146">
        <ele>213.3</ele>
        <time>2016-02-21T09:35:48Z</time>
      </trkpt>
      <trkpt lat="43.98322" lon="5.09159">
        <ele>214.6</ele>
        <time>2016-02-21T09:35:53Z</time>
      </trkpt>
      <trkpt lat="43.98326" lon="5.0917">
        <ele>215.8</ele>
        <time>2016-02-21T09:35:59Z</time>
      </trkpt>
      <trkpt lat="43.98335" lon="5.09177">
        <ele>217.4</ele>
        <time>2016-02-21T09:36:15Z</time>
      </trkpt>
      <trkpt lat="43.98342" lon="5.09185">
        <ele>218.1</ele>
        <time>2016-02-21T09:36:54Z</time>
      </trkpt>
      <trkpt lat="43.98346" lon="5.09197">
        <ele>218.1</ele>
        <time>2016-02-21T09:37:00Z</time>
      </trkpt>
      <trkpt lat="43.98337" lon="5.09203">
        <ele>218.1</ele>
        <time>2016-02-21T09:37:03Z</time>
      </trkpt>
      <trkpt lat="43.98332" lon="5.09214">
        <ele>218.5</ele>
        <time>2016-02-21T09:37:10Z</time>
      </trkpt>
      <trkpt lat="43.98326" lon="5.09225">
        <ele>219.3</ele>
        <time>2016-02-21T09:37:17Z</time>
      </trkpt>
      <trkpt lat="43.9832" lon="5.09236">
        <ele>220.5</ele>
        <time>2016-02-21T09:37:25Z</time>
      </trkpt>
      <trkpt lat="43.98313" lon="5.09247">
        <ele>221.3</ele>
        <time>2016-02-21T09:37:30Z</time>
      </trkpt>
      <trkpt lat="43.9831" lon="5.0926">
        <ele>222.3</ele>
        <time>2016-02-21T09:37:36Z</time>
      </trkpt>
      <trkpt lat="43.98303" lon="5.09271">
        <ele>223.4</ele>
        <time>2016-02-21T09:37:43Z</time>
      </trkpt>
      <trkpt lat="43.98298" lon="5.09282">
        <ele>224.4</ele>
        <time>2016-02-21T09:37:49Z</time>
      </trkpt>
      <trkpt lat="43.9829" lon="5.0929">
        <ele>225.3</ele>
        <time>2016-02-21T09:37:55Z</time>
      </trkpt>
      <trkpt lat="43.98281" lon="5.09296">
        <ele>226.4</ele>
        <time>2016-02-21T09:38:01Z</time>
      </trkpt>
      <trkpt lat="43.98273" lon="5.09302">
        <ele>227</ele>
        <time>2016-02-21T09:38:05Z</time>
      </trkpt>
      <trkpt lat="43.98267" lon="5.09312">
        <ele>228</ele>
        <time>2016-02-21T09:38:10Z</time>
      </trkpt>
      <trkpt lat="43.98262" lon="5.09323">
        <ele>228.9</ele>
        <time>2016-02-21T09:38:17Z</time>
      </trkpt>
      <trkpt lat="43.98254" lon="5.0933">
        <ele>229.7</ele>
        <time>2016-02-21T09:38:23Z</time>
      </trkpt>
      <trkpt lat="43.98248" lon="5.0934">
        <ele>230.5</ele>
        <time>2016-02-21T09:38:31Z</time>
      </trkpt>
      <trkpt lat="43.98245" lon="5.09354">
        <ele>231.4</ele>
        <time>2016-02-21T09:38:38Z</time>
      </trkpt>
      <trkpt lat="43.98243" lon="5.09366">
        <ele>232.3</ele>
        <time>2016-02-21T09:38:44Z</time>
      </trkpt>
      <trkpt lat="43.98242" lon="5.09379">
        <ele>233</ele>
        <time>2016-02-21T09:38:48Z</time>
      </trkpt>
      <trkpt lat="43.9824" lon="5.09392">
        <ele>234.4</ele>
        <time>2016-02-21T09:38:55Z</time>
      </trkpt>
      <trkpt lat="43.98241" lon="5.09404">
        <ele>235.7</ele>
        <time>2016-02-21T09:39:01Z</time>
      </trkpt>
      <trkpt lat="43.98246" lon="5.09417">
        <ele>238.2</ele>
        <time>2016-02-21T09:39:11Z</time>
      </trkpt>
      <trkpt lat="43.9824" lon="5.09429">
        <ele>240.3</ele>
        <time>2016-02-21T09:39:19Z</time>
      </trkpt>
      <trkpt lat="43.9823" lon="5.09433">
        <ele>242.3</ele>
        <time>2016-02-21T09:39:27Z</time>
      </trkpt>
      <trkpt lat="43.98222" lon="5.09439">
        <ele>243.2</ele>
        <time>2016-02-21T09:39:33Z</time>
      </trkpt>
      <trkpt lat="43.98213" lon="5.09445">
        <ele>244</ele>
        <time>2016-02-21T09:39:39Z</time>
      </trkpt>
      <trkpt lat="43.98205" lon="5.09451">
        <ele>244.9</ele>
        <time>2016-02-21T09:39:45Z</time>
      </trkpt>
      <trkpt lat="43.98209" lon="5.0949">
        <ele>246</ele>
        <time>2016-02-21T09:40:22Z</time>
      </trkpt>
      <trkpt lat="43.98208" lon="5.09504">
        <ele>246.6</ele>
        <time>2016-02-21T09:40:28Z</time>
      </trkpt>
      <trkpt lat="43.98207" lon="5.09518">
        <ele>246</ele>
        <time>2016-02-21T09:40:34Z</time>
      </trkpt>
      <trkpt lat="43.98207" lon="5.09533">
        <ele>245.2</ele>
        <time>2016-02-21T09:40:40Z</time>
      </trkpt>
      <trkpt lat="43.98205" lon="5.0955">
        <ele>244.6</ele>
        <time>2016-02-21T09:40:45Z</time>
      </trkpt>
      <trkpt lat="43.98204" lon="5.09564">
        <ele>244</ele>
        <time>2016-02-21T09:40:50Z</time>
      </trkpt>
      <trkpt lat="43.98204" lon="5.09579">
        <ele>243.3</ele>
        <time>2016-02-21T09:40:56Z</time>
      </trkpt>
      <trkpt lat="43.98203" lon="5.09592">
        <ele>242.9</ele>
        <time>2016-02-21T09:41:01Z</time>
      </trkpt>
      <trkpt lat="43.98202" lon="5.09607">
        <ele>242.5</ele>
        <time>2016-02-21T09:41:06Z</time>
      </trkpt>
      <trkpt lat="43.98204" lon="5.09619">
        <ele>241.8</ele>
        <time>2016-02-21T09:41:17Z</time>
      </trkpt>
      <trkpt lat="43.98216" lon="5.09628">
        <ele>241.5</ele>
        <time>2016-02-21T09:41:23Z</time>
      </trkpt>
      <trkpt lat="43.98225" lon="5.09635">
        <ele>241.1</ele>
        <time>2016-02-21T09:41:28Z</time>
      </trkpt>
      <trkpt lat="43.9823" lon="5.09646">
        <ele>240.8</ele>
        <time>2016-02-21T09:41:32Z</time>
      </trkpt>
      <trkpt lat="43.98235" lon="5.09658">
        <ele>240</ele>
        <time>2016-02-21T09:41:40Z</time>
      </trkpt>
      <trkpt lat="43.98234" lon="5.0967">
        <ele>239.4</ele>
        <time>2016-02-21T09:41:47Z</time>
      </trkpt>
      <trkpt lat="43.98226" lon="5.09678">
        <ele>238.5</ele>
        <time>2016-02-21T09:41:55Z</time>
      </trkpt>
      <trkpt lat="43.98219" lon="5.09687">
        <ele>237.6</ele>
        <time>2016-02-21T09:42:03Z</time>
      </trkpt>
      <trkpt lat="43.9821" lon="5.09696">
        <ele>237.2</ele>
        <time>2016-02-21T09:42:09Z</time>
      </trkpt>
      <trkpt lat="43.98204" lon="5.09708">
        <ele>236.8</ele>
        <time>2016-02-21T09:42:18Z</time>
      </trkpt>
      <trkpt lat="43.98197" lon="5.09717">
        <ele>236.4</ele>
        <time>2016-02-21T09:42:26Z</time>
      </trkpt>
      <trkpt lat="43.98188" lon="5.09725">
        <ele>235.8</ele>
        <time>2016-02-21T09:42:35Z</time>
      </trkpt>
      <trkpt lat="43.98179" lon="5.0973">
        <ele>235</ele>
        <time>2016-02-21T09:42:41Z</time>
      </trkpt>
      <trkpt lat="43.98175" lon="5.09741">
        <ele>233.8</ele>
        <time>2016-02-21T09:42:49Z</time>
      </trkpt>
      <trkpt lat="43.98169" lon="5.09752">
        <ele>232.6</ele>
        <time>2016-02-21T09:42:55Z</time>
      </trkpt>
      <trkpt lat="43.98163" lon="5.09763">
        <ele>231.4</ele>
        <time>2016-02-21T09:43:01Z</time>
      </trkpt>
      <trkpt lat="43.98156" lon="5.09773">
        <ele>230.4</ele>
        <time>2016-02-21T09:43:07Z</time>
      </trkpt>
      <trkpt lat="43.98151" lon="5.09783">
        <ele>228.6</ele>
        <time>2016-02-21T09:43:17Z</time>
      </trkpt>
      <trkpt lat="43.98143" lon="5.09793">
        <ele>226.6</ele>
        <time>2016-02-21T09:43:28Z</time>
      </trkpt>
      <trkpt lat="43.98135" lon="5.09797">
        <ele>224.4</ele>
        <time>2016-02-21T09:43:43Z</time>
      </trkpt>
      <trkpt lat="43.98128" lon="5.09807">
        <ele>222.6</ele>
        <time>2016-02-21T09:43:51Z</time>
      </trkpt>
      <trkpt lat="43.98123" lon="5.0982">
        <ele>221.7</ele>
        <time>2016-02-21T09:43:55Z</time>
      </trkpt>
      <trkpt lat="43.98128" lon="5.09829">
        <ele>219.7</ele>
        <time>2016-02-21T09:44:04Z</time>
      </trkpt>
      <trkpt lat="43.98134" lon="5.0984">
        <ele>217.5</ele>
        <time>2016-02-21T09:44:12Z</time>
      </trkpt>
      <trkpt lat="43.98139" lon="5.09852">
        <ele>215.1</ele>
        <time>2016-02-21T09:44:20Z</time>
      </trkpt>
      <trkpt lat="43.98146" lon="5.09862">
        <ele>213.7</ele>
        <time>2016-02-21T09:44:25Z</time>
      </trkpt>
      <trkpt lat="43.98151" lon="5.09873">
        <ele>212.2</ele>
        <time>2016-02-21T09:44:30Z</time>
      </trkpt>
      <trkpt lat="43.98152" lon="5.09886">
        <ele>210.4</ele>
        <time>2016-02-21T09:44:36Z</time>
      </trkpt>
      <trkpt lat="43.98156" lon="5.09899">
        <ele>208.6</ele>
        <time>2016-02-21T09:44:43Z</time>
      </trkpt>
      <trkpt lat="43.98158" lon="5.09912">
        <ele>206.9</ele>
        <time>2016-02-21T09:44:50Z</time>
      </trkpt>
      <trkpt lat="43.98164" lon="5.09924">
        <ele>205.2</ele>
        <time>2016-02-21T09:44:57Z</time>
      </trkpt>
      <trkpt lat="43.98171" lon="5.09934">
        <ele>203.1</ele>
        <time>2016-02-21T09:45:05Z</time>
      </trkpt>
      <trkpt lat="43.98176" lon="5.09947">
        <ele>201.2</ele>
        <time>2016-02-21T09:45:11Z</time>
      </trkpt>
      <trkpt lat="43.98178" lon="5.0996">
        <ele>199.3</ele>
        <time>2016-02-21T09:45:18Z</time>
      </trkpt>
      <trkpt lat="43.98184" lon="5.0997">
        <ele>197</ele>
        <time>2016-02-21T09:45:26Z</time>
      </trkpt>
      <trkpt lat="43.98189" lon="5.09983">
        <ele>195.4</ele>
        <time>2016-02-21T09:45:33Z</time>
      </trkpt>
      <trkpt lat="43.98194" lon="5.09994">
        <ele>193.8</ele>
        <time>2016-02-21T09:45:39Z</time>
      </trkpt>
      <trkpt lat="43.98196" lon="5.10007">
        <ele>192.1</ele>
        <time>2016-02-21T09:45:46Z</time>
      </trkpt>
      <trkpt lat="43.98199" lon="5.1002">
        <ele>190.3</ele>
        <time>2016-02-21T09:45:53Z</time>
      </trkpt>
      <trkpt lat="43.982" lon="5.10034">
        <ele>187.5</ele>
        <time>2016-02-21T09:46:02Z</time>
      </trkpt>
      <trkpt lat="43.98195" lon="5.10046">
        <ele>186</ele>
        <time>2016-02-21T09:46:08Z</time>
      </trkpt>
      <trkpt lat="43.98189" lon="5.10057">
        <ele>184.9</ele>
        <time>2016-02-21T09:46:14Z</time>
      </trkpt>
      <trkpt lat="43.98183" lon="5.10067">
        <ele>184.4</ele>
        <time>2016-02-21T09:46:18Z</time>
      </trkpt>
      <trkpt lat="43.98173" lon="5.10062">
        <ele>184.3</ele>
        <time>2016-02-21T09:46:24Z</time>
      </trkpt>
      <trkpt lat="43.98171" lon="5.1005">
        <ele>184.7</ele>
        <time>2016-02-21T09:46:29Z</time>
      </trkpt>
      <trkpt lat="43.98164" lon="5.1006">
        <ele>186.6</ele>
        <time>2016-02-21T09:46:42Z</time>
      </trkpt>
      <trkpt lat="43.98158" lon="5.1007">
        <ele>187.4</ele>
        <time>2016-02-21T09:46:46Z</time>
      </trkpt>
      <trkpt lat="43.98152" lon="5.10081">
        <ele>188.2</ele>
        <time>2016-02-21T09:46:50Z</time>
      </trkpt>
      <trkpt lat="43.98148" lon="5.10098">
        <ele>190.9</ele>
        <time>2016-02-21T09:47:01Z</time>
      </trkpt>
      <trkpt lat="43.98141" lon="5.10107">
        <ele>191.9</ele>
        <time>2016-02-21T09:47:06Z</time>
      </trkpt>
      <trkpt lat="43.98134" lon="5.10121">
        <ele>192.5</ele>
        <time>2016-02-21T09:47:10Z</time>
      </trkpt>
      <trkpt lat="43.98125" lon="5.10131">
        <ele>192.9</ele>
        <time>2016-02-21T09:47:14Z</time>
      </trkpt>
      <trkpt lat="43.98116" lon="5.10142">
        <ele>193.4</ele>
        <time>2016-02-21T09:47:18Z</time>
      </trkpt>
      <trkpt lat="43.98107" lon="5.10153">
        <ele>193.9</ele>
        <time>2016-02-21T09:47:21Z</time>
      </trkpt>
      <trkpt lat="43.98099" lon="5.10165">
        <ele>194.4</ele>
        <time>2016-02-21T09:47:24Z</time>
      </trkpt>
      <trkpt lat="43.98092" lon="5.10177">
        <ele>195.1</ele>
        <time>2016-02-21T09:47:27Z</time>
      </trkpt>
      <trkpt lat="43.98086" lon="5.10188">
        <ele>196.2</ele>
        <time>2016-02-21T09:47:31Z</time>
      </trkpt>
      <trkpt lat="43.98086" lon="5.10204">
        <ele>197.6</ele>
        <time>2016-02-21T09:47:35Z</time>
      </trkpt>
      <trkpt lat="43.98082" lon="5.10218">
        <ele>205.5</ele>
        <time>2016-02-21T09:48:09Z</time>
      </trkpt>
      <trkpt lat="43.98075" lon="5.10229">
        <ele>205.7</ele>
        <time>2016-02-21T09:48:12Z</time>
      </trkpt>
      <trkpt lat="43.98069" lon="5.10238">
        <ele>205.7</ele>
        <time>2016-02-21T09:48:14Z</time>
      </trkpt>
      <trkpt lat="43.98061" lon="5.10248">
        <ele>205.6</ele>
        <time>2016-02-21T09:48:16Z</time>
      </trkpt>
      <trkpt lat="43.98052" lon="5.10256">
        <ele>205.6</ele>
        <time>2016-02-21T09:48:18Z</time>
      </trkpt>
      <trkpt lat="43.98044" lon="5.10263">
        <ele>205.7</ele>
        <time>2016-02-21T09:48:20Z</time>
      </trkpt>
      <trkpt lat="43.98037" lon="5.10273">
        <ele>205.9</ele>
        <time>2016-02-21T09:48:22Z</time>
      </trkpt>
      <trkpt lat="43.98029" lon="5.10284">
        <ele>206.5</ele>
        <time>2016-02-21T09:48:25Z</time>
      </trkpt>
      <trkpt lat="43.98025" lon="5.10296">
        <ele>207</ele>
        <time>2016-02-21T09:48:27Z</time>
      </trkpt>
      <trkpt lat="43.98019" lon="5.10314">
        <ele>207.8</ele>
        <time>2016-02-21T09:48:30Z</time>
      </trkpt>
      <trkpt lat="43.98014" lon="5.10327">
        <ele>208.8</ele>
        <time>2016-02-21T09:48:33Z</time>
      </trkpt>
      <trkpt lat="43.98013" lon="5.10343">
        <ele>210.4</ele>
        <time>2016-02-21T09:48:37Z</time>
      </trkpt>
      <trkpt lat="43.98008" lon="5.10356">
        <ele>212.1</ele>
        <time>2016-02-21T09:48:41Z</time>
      </trkpt>
      <trkpt lat="43.98002" lon="5.10365">
        <ele>214.2</ele>
        <time>2016-02-21T09:48:47Z</time>
      </trkpt>
      <trkpt lat="43.97996" lon="5.10377">
        <ele>216.7</ele>
        <time>2016-02-21T09:48:55Z</time>
      </trkpt>
      <trkpt lat="43.97991" lon="5.10388">
        <ele>218.1</ele>
        <time>2016-02-21T09:49:00Z</time>
      </trkpt>
      <trkpt lat="43.97985" lon="5.10399">
        <ele>219.2</ele>
        <time>2016-02-21T09:49:05Z</time>
      </trkpt>
      <trkpt lat="43.97991" lon="5.1041">
        <ele>236.7</ele>
        <time>2016-02-21T09:51:14Z</time>
      </trkpt>
      <trkpt lat="43.98" lon="5.10414">
        <ele>236.4</ele>
        <time>2016-02-21T09:51:20Z</time>
      </trkpt>
      <trkpt lat="43.98025" lon="5.10457">
        <ele>235</ele>
        <time>2016-02-21T09:51:31Z</time>
      </trkpt>
      <trkpt lat="43.9802" lon="5.10484">
        <ele>234.9</ele>
        <time>2016-02-21T09:51:36Z</time>
      </trkpt>
      <trkpt lat="43.9803" lon="5.1048">
        <ele>234.2</ele>
        <time>2016-02-21T09:51:43Z</time>
      </trkpt>
      <trkpt lat="43.98035" lon="5.10469">
        <ele>233.7</ele>
        <time>2016-02-21T09:51:49Z</time>
      </trkpt>
      <trkpt lat="43.98042" lon="5.1046">
        <ele>233.2</ele>
        <time>2016-02-21T09:51:54Z</time>
      </trkpt>
      <trkpt lat="43.98049" lon="5.1045">
        <ele>232.7</ele>
        <time>2016-02-21T09:52:00Z</time>
      </trkpt>
      <trkpt lat="43.98057" lon="5.10443">
        <ele>232.2</ele>
        <time>2016-02-21T09:52:06Z</time>
      </trkpt>
      <trkpt lat="43.98062" lon="5.10431">
        <ele>231.4</ele>
        <time>2016-02-21T09:52:14Z</time>
      </trkpt>
      <trkpt lat="43.98069" lon="5.10424">
        <ele>230.8</ele>
        <time>2016-02-21T09:52:21Z</time>
      </trkpt>
      <trkpt lat="43.98078" lon="5.10419">
        <ele>230.3</ele>
        <time>2016-02-21T09:52:26Z</time>
      </trkpt>
      <trkpt lat="43.98085" lon="5.10409">
        <ele>229.7</ele>
        <time>2016-02-21T09:52:32Z</time>
      </trkpt>
      <trkpt lat="43.98089" lon="5.10398">
        <ele>229.2</ele>
        <time>2016-02-21T09:52:38Z</time>
      </trkpt>
      <trkpt lat="43.98096" lon="5.10389">
        <ele>228.6</ele>
        <time>2016-02-21T09:52:44Z</time>
      </trkpt>
      <trkpt lat="43.98105" lon="5.1038">
        <ele>227.4</ele>
        <time>2016-02-21T09:52:59Z</time>
      </trkpt>
      <trkpt lat="43.98111" lon="5.10369">
        <ele>227.1</ele>
        <time>2016-02-21T09:53:04Z</time>
      </trkpt>
      <trkpt lat="43.98117" lon="5.10359">
        <ele>226.5</ele>
        <time>2016-02-21T09:53:11Z</time>
      </trkpt>
      <trkpt lat="43.98125" lon="5.1035">
        <ele>225.7</ele>
        <time>2016-02-21T09:53:19Z</time>
      </trkpt>
      <trkpt lat="43.98129" lon="5.10336">
        <ele>225.1</ele>
        <time>2016-02-21T09:53:25Z</time>
      </trkpt>
      <trkpt lat="43.98128" lon="5.10321">
        <ele>224.4</ele>
        <time>2016-02-21T09:53:31Z</time>
      </trkpt>
      <trkpt lat="43.98127" lon="5.10306">
        <ele>223.8</ele>
        <time>2016-02-21T09:53:36Z</time>
      </trkpt>
      <trkpt lat="43.98126" lon="5.10291">
        <ele>223.2</ele>
        <time>2016-02-21T09:53:41Z</time>
      </trkpt>
      <trkpt lat="43.98124" lon="5.10276">
        <ele>222.6</ele>
        <time>2016-02-21T09:53:46Z</time>
      </trkpt>
      <trkpt lat="43.98125" lon="5.10263">
        <ele>221.6</ele>
        <time>2016-02-21T09:53:53Z</time>
      </trkpt>
      <trkpt lat="43.98125" lon="5.10249">
        <ele>220.8</ele>
        <time>2016-02-21T09:53:59Z</time>
      </trkpt>
      <trkpt lat="43.98128" lon="5.10236">
        <ele>220</ele>
        <time>2016-02-21T09:54:05Z</time>
      </trkpt>
      <trkpt lat="43.98136" lon="5.10229">
        <ele>219.1</ele>
        <time>2016-02-21T09:54:12Z</time>
      </trkpt>
      <trkpt lat="43.98144" lon="5.10224">
        <ele>218.3</ele>
        <time>2016-02-21T09:54:19Z</time>
      </trkpt>
      <trkpt lat="43.98152" lon="5.10216">
        <ele>217.6</ele>
        <time>2016-02-21T09:54:25Z</time>
      </trkpt>
      <trkpt lat="43.9816" lon="5.10208">
        <ele>217</ele>
        <time>2016-02-21T09:54:31Z</time>
      </trkpt>
      <trkpt lat="43.98168" lon="5.102">
        <ele>216.2</ele>
        <time>2016-02-21T09:54:38Z</time>
      </trkpt>
      <trkpt lat="43.98174" lon="5.1019">
        <ele>215.4</ele>
        <time>2016-02-21T09:54:44Z</time>
      </trkpt>
      <trkpt lat="43.98182" lon="5.10182">
        <ele>214.7</ele>
        <time>2016-02-21T09:54:50Z</time>
      </trkpt>
      <trkpt lat="43.9819" lon="5.10174">
        <ele>213.8</ele>
        <time>2016-02-21T09:54:57Z</time>
      </trkpt>
      <trkpt lat="43.98196" lon="5.10165">
        <ele>213.1</ele>
        <time>2016-02-21T09:55:03Z</time>
      </trkpt>
      <trkpt lat="43.98197" lon="5.10152">
        <ele>211.9</ele>
        <time>2016-02-21T09:55:11Z</time>
      </trkpt>
      <trkpt lat="43.9819" lon="5.10144">
        <ele>210.1</ele>
        <time>2016-02-21T09:55:48Z</time>
      </trkpt>
      <trkpt lat="43.98187" lon="5.10158">
        <ele>209.2</ele>
        <time>2016-02-21T09:58:36Z</time>
      </trkpt>
      <trkpt lat="43.98179" lon="5.10165">
        <ele>209.2</ele>
        <time>2016-02-21T09:58:42Z</time>
      </trkpt>
      <trkpt lat="43.98169" lon="5.10173">
        <ele>209.2</ele>
        <time>2016-02-21T09:58:51Z</time>
      </trkpt>
      <trkpt lat="43.9816" lon="5.10179">
        <ele>209.2</ele>
        <time>2016-02-21T09:58:58Z</time>
      </trkpt>
      <trkpt lat="43.98153" lon="5.10188">
        <ele>209.2</ele>
        <time>2016-02-21T09:59:04Z</time>
      </trkpt>
      <trkpt lat="43.98145" lon="5.10194">
        <ele>209.1</ele>
        <time>2016-02-21T09:59:10Z</time>
      </trkpt>
      <trkpt lat="43.98137" lon="5.10203">
        <ele>209</ele>
        <time>2016-02-21T09:59:14Z</time>
      </trkpt>
      <trkpt lat="43.98127" lon="5.10209">
        <ele>208.9</ele>
        <time>2016-02-21T09:59:19Z</time>
      </trkpt>
      <trkpt lat="43.98119" lon="5.10215">
        <ele>208.6</ele>
        <time>2016-02-21T09:59:27Z</time>
      </trkpt>
      <trkpt lat="43.9811" lon="5.10221">
        <ele>208.4</ele>
        <time>2016-02-21T09:59:32Z</time>
      </trkpt>
      <trkpt lat="43.981" lon="5.10223">
        <ele>207.8</ele>
        <time>2016-02-21T09:59:42Z</time>
      </trkpt>
      <trkpt lat="43.9809" lon="5.10224">
        <ele>206.6</ele>
        <time>2016-02-21T09:59:50Z</time>
      </trkpt>
      <trkpt lat="43.98082" lon="5.10219">
        <ele>205.5</ele>
        <time>2016-02-21T09:59:57Z</time>
      </trkpt>
      <trkpt lat="43.9808" lon="5.10203">
        <ele>204.1</ele>
        <time>2016-02-21T10:00:05Z</time>
      </trkpt>
      <trkpt lat="43.98086" lon="5.10194">
        <ele>202.8</ele>
        <time>2016-02-21T10:00:13Z</time>
      </trkpt>
      <trkpt lat="43.98093" lon="5.10184">
        <ele>201.9</ele>
        <time>2016-02-21T10:00:19Z</time>
      </trkpt>
      <trkpt lat="43.98099" lon="5.10173">
        <ele>201</ele>
        <time>2016-02-21T10:00:24Z</time>
      </trkpt>
      <trkpt lat="43.98107" lon="5.10165">
        <ele>200.5</ele>
        <time>2016-02-21T10:00:27Z</time>
      </trkpt>
      <trkpt lat="43.98114" lon="5.10154">
        <ele>199.7</ele>
        <time>2016-02-21T10:00:32Z</time>
      </trkpt>
      <trkpt lat="43.98122" lon="5.10147">
        <ele>198.8</ele>
        <time>2016-02-21T10:00:40Z</time>
      </trkpt>
      <trkpt lat="43.98129" lon="5.10138">
        <ele>198.2</ele>
        <time>2016-02-21T10:00:47Z</time>
      </trkpt>
      <trkpt lat="43.98136" lon="5.10128">
        <ele>197.5</ele>
        <time>2016-02-21T10:00:54Z</time>
      </trkpt>
      <trkpt lat="43.98146" lon="5.10122">
        <ele>197.2</ele>
        <time>2016-02-21T10:00:58Z</time>
      </trkpt>
      <trkpt lat="43.98147" lon="5.10109">
        <ele>195.9</ele>
        <time>2016-02-21T10:01:09Z</time>
      </trkpt>
      <trkpt lat="43.98154" lon="5.10099">
        <ele>194.2</ele>
        <time>2016-02-21T10:01:19Z</time>
      </trkpt>
      <trkpt lat="43.9816" lon="5.10089">
        <ele>192.8</ele>
        <time>2016-02-21T10:01:26Z</time>
      </trkpt>
      <trkpt lat="43.98165" lon="5.10077">
        <ele>191.3</ele>
        <time>2016-02-21T10:01:33Z</time>
      </trkpt>
      <trkpt lat="43.98173" lon="5.10069">
        <ele>189.9</ele>
        <time>2016-02-21T10:01:39Z</time>
      </trkpt>
      <trkpt lat="43.98181" lon="5.10065">
        <ele>188.2</ele>
        <time>2016-02-21T10:01:47Z</time>
      </trkpt>
      <trkpt lat="43.98187" lon="5.10054">
        <ele>186.7</ele>
        <time>2016-02-21T10:01:54Z</time>
      </trkpt>
      <trkpt lat="43.98196" lon="5.10047">
        <ele>185.4</ele>
        <time>2016-02-21T10:02:04Z</time>
      </trkpt>
      <trkpt lat="43.982" lon="5.10034">
        <ele>185.2</ele>
        <time>2016-02-21T10:02:10Z</time>
      </trkpt>
      <trkpt lat="43.98201" lon="5.10021">
        <ele>185.8</ele>
        <time>2016-02-21T10:02:14Z</time>
      </trkpt>
      <trkpt lat="43.98199" lon="5.10008">
        <ele>186.7</ele>
        <time>2016-02-21T10:02:18Z</time>
      </trkpt>
      <trkpt lat="43.98193" lon="5.09994">
        <ele>187.5</ele>
        <time>2016-02-21T10:02:21Z</time>
      </trkpt>
      <trkpt lat="43.98185" lon="5.09979">
        <ele>188.2</ele>
        <time>2016-02-21T10:02:23Z</time>
      </trkpt>
      <trkpt lat="43.98177" lon="5.09968">
        <ele>189</ele>
        <time>2016-02-21T10:02:26Z</time>
      </trkpt>
      <trkpt lat="43.9817" lon="5.09959">
        <ele>190.2</ele>
        <time>2016-02-21T10:02:30Z</time>
      </trkpt>
      <trkpt lat="43.98167" lon="5.09946">
        <ele>191.2</ele>
        <time>2016-02-21T10:02:33Z</time>
      </trkpt>
      <trkpt lat="43.98175" lon="5.0994">
        <ele>194.1</ele>
        <time>2016-02-21T10:02:42Z</time>
      </trkpt>
      <trkpt lat="43.98169" lon="5.09931">
        <ele>198.3</ele>
        <time>2016-02-21T10:02:56Z</time>
      </trkpt>
      <trkpt lat="43.98164" lon="5.09918">
        <ele>200.1</ele>
        <time>2016-02-21T10:03:02Z</time>
      </trkpt>
      <trkpt lat="43.98162" lon="5.09904">
        <ele>202.1</ele>
        <time>2016-02-21T10:03:10Z</time>
      </trkpt>
      <trkpt lat="43.98161" lon="5.0989">
        <ele>204.3</ele>
        <time>2016-02-21T10:03:18Z</time>
      </trkpt>
      <trkpt lat="43.98158" lon="5.09878">
        <ele>205.9</ele>
        <time>2016-02-21T10:03:25Z</time>
      </trkpt>
      <trkpt lat="43.98151" lon="5.09864">
        <ele>207.2</ele>
        <time>2016-02-21T10:03:30Z</time>
      </trkpt>
      <trkpt lat="43.98147" lon="5.09853">
        <ele>208.8</ele>
        <time>2016-02-21T10:03:37Z</time>
      </trkpt>
      <trkpt lat="43.98141" lon="5.0984">
        <ele>210.5</ele>
        <time>2016-02-21T10:03:44Z</time>
      </trkpt>
      <trkpt lat="43.98136" lon="5.0983">
        <ele>213.3</ele>
        <time>2016-02-21T10:03:54Z</time>
      </trkpt>
      <trkpt lat="43.98131" lon="5.0982">
        <ele>215.6</ele>
        <time>2016-02-21T10:04:03Z</time>
      </trkpt>
      <trkpt lat="43.98137" lon="5.0981">
        <ele>219.2</ele>
        <time>2016-02-21T10:04:17Z</time>
      </trkpt>
      <trkpt lat="43.98146" lon="5.09806">
        <ele>222.2</ele>
        <time>2016-02-21T10:04:28Z</time>
      </trkpt>
      <trkpt lat="43.98155" lon="5.09798">
        <ele>225.2</ele>
        <time>2016-02-21T10:04:38Z</time>
      </trkpt>
      <trkpt lat="43.98164" lon="5.09791">
        <ele>226.7</ele>
        <time>2016-02-21T10:04:43Z</time>
      </trkpt>
      <trkpt lat="43.9817" lon="5.09781">
        <ele>227.6</ele>
        <time>2016-02-21T10:04:47Z</time>
      </trkpt>
      <trkpt lat="43.98175" lon="5.09771">
        <ele>228.9</ele>
        <time>2016-02-21T10:04:53Z</time>
      </trkpt>
      <trkpt lat="43.98181" lon="5.0976">
        <ele>230.3</ele>
        <time>2016-02-21T10:05:00Z</time>
      </trkpt>
      <trkpt lat="43.98187" lon="5.09748">
        <ele>231.5</ele>
        <time>2016-02-21T10:05:05Z</time>
      </trkpt>
      <trkpt lat="43.98192" lon="5.09737">
        <ele>233</ele>
        <time>2016-02-21T10:05:12Z</time>
      </trkpt>
      <trkpt lat="43.982" lon="5.09728">
        <ele>234.5</ele>
        <time>2016-02-21T10:05:20Z</time>
      </trkpt>
      <trkpt lat="43.98206" lon="5.09718">
        <ele>235.5</ele>
        <time>2016-02-21T10:05:27Z</time>
      </trkpt>
      <trkpt lat="43.98215" lon="5.09708">
        <ele>236.3</ele>
        <time>2016-02-21T10:05:35Z</time>
      </trkpt>
      <trkpt lat="43.98222" lon="5.09699">
        <ele>236.7</ele>
        <time>2016-02-21T10:05:42Z</time>
      </trkpt>
      <trkpt lat="43.98231" lon="5.09692">
        <ele>237</ele>
        <time>2016-02-21T10:05:48Z</time>
      </trkpt>
      <trkpt lat="43.98236" lon="5.09679">
        <ele>237.6</ele>
        <time>2016-02-21T10:05:54Z</time>
      </trkpt>
      <trkpt lat="43.98226" lon="5.0968">
        <ele>240.2</ele>
        <time>2016-02-21T10:06:25Z</time>
      </trkpt>
      <trkpt lat="43.98217" lon="5.09687">
        <ele>240.5</ele>
        <time>2016-02-21T10:06:29Z</time>
      </trkpt>
      <trkpt lat="43.98207" lon="5.09693">
        <ele>241</ele>
        <time>2016-02-21T10:06:34Z</time>
      </trkpt>
      <trkpt lat="43.98201" lon="5.09704">
        <ele>241.8</ele>
        <time>2016-02-21T10:06:42Z</time>
      </trkpt>
      <trkpt lat="43.98192" lon="5.09709">
        <ele>242.8</ele>
        <time>2016-02-21T10:06:47Z</time>
      </trkpt>
      <trkpt lat="43.98183" lon="5.09707">
        <ele>244.9</ele>
        <time>2016-02-21T10:06:55Z</time>
      </trkpt>
      <trkpt lat="43.98173" lon="5.09709">
        <ele>247.1</ele>
        <time>2016-02-21T10:07:04Z</time>
      </trkpt>
      <trkpt lat="43.98164" lon="5.09717">
        <ele>248.2</ele>
        <time>2016-02-21T10:07:10Z</time>
      </trkpt>
      <trkpt lat="43.98159" lon="5.09727">
        <ele>248.9</ele>
        <time>2016-02-21T10:07:15Z</time>
      </trkpt>
      <trkpt lat="43.98149" lon="5.09727">
        <ele>249.7</ele>
        <time>2016-02-21T10:07:20Z</time>
      </trkpt>
      <trkpt lat="43.98144" lon="5.09716">
        <ele>251</ele>
        <time>2016-02-21T10:07:26Z</time>
      </trkpt>
      <trkpt lat="43.98135" lon="5.09718">
        <ele>253.2</ele>
        <time>2016-02-21T10:07:34Z</time>
      </trkpt>
      <trkpt lat="43.98124" lon="5.09719">
        <ele>254.2</ele>
        <time>2016-02-21T10:07:38Z</time>
      </trkpt>
      <trkpt lat="43.98115" lon="5.09716">
        <ele>257.1</ele>
        <time>2016-02-21T10:07:48Z</time>
      </trkpt>
      <trkpt lat="43.98105" lon="5.09717">
        <ele>259.3</ele>
        <time>2016-02-21T10:07:59Z</time>
      </trkpt>
      <trkpt lat="43.98095" lon="5.09718">
        <ele>260.1</ele>
        <time>2016-02-21T10:08:05Z</time>
      </trkpt>
      <trkpt lat="43.98086" lon="5.09717">
        <ele>261.2</ele>
        <time>2016-02-21T10:08:14Z</time>
      </trkpt>
      <trkpt lat="43.98078" lon="5.0971">
        <ele>262.4</ele>
        <time>2016-02-21T10:08:21Z</time>
      </trkpt>
      <trkpt lat="43.98069" lon="5.09705">
        <ele>263.6</ele>
        <time>2016-02-21T10:08:28Z</time>
      </trkpt>
      <trkpt lat="43.9806" lon="5.09708">
        <ele>264.6</ele>
        <time>2016-02-21T10:08:36Z</time>
      </trkpt>
      <trkpt lat="43.98053" lon="5.09699">
        <ele>265.7</ele>
        <time>2016-02-21T10:08:48Z</time>
      </trkpt>
      <trkpt lat="43.98046" lon="5.0969">
        <ele>266.1</ele>
        <time>2016-02-21T10:08:57Z</time>
      </trkpt>
      <trkpt lat="43.98037" lon="5.09684">
        <ele>266.2</ele>
        <time>2016-02-21T10:09:04Z</time>
      </trkpt>
      <trkpt lat="43.98025" lon="5.09688">
        <ele>266.3</ele>
        <time>2016-02-21T10:09:08Z</time>
      </trkpt>
      <trkpt lat="43.98013" lon="5.09689">
        <ele>266.3</ele>
        <time>2016-02-21T10:09:10Z</time>
      </trkpt>
      <trkpt lat="43.98004" lon="5.09685">
        <ele>266.5</ele>
        <time>2016-02-21T10:09:13Z</time>
      </trkpt>
      <trkpt lat="43.97994" lon="5.09687">
        <ele>266.7</ele>
        <time>2016-02-21T10:09:16Z</time>
      </trkpt>
      <trkpt lat="43.97985" lon="5.09688">
        <ele>266.9</ele>
        <time>2016-02-21T10:09:19Z</time>
      </trkpt>
      <trkpt lat="43.97973" lon="5.09685">
        <ele>267.2</ele>
        <time>2016-02-21T10:09:22Z</time>
      </trkpt>
      <trkpt lat="43.97963" lon="5.09685">
        <ele>267.5</ele>
        <time>2016-02-21T10:09:25Z</time>
      </trkpt>
      <trkpt lat="43.97954" lon="5.09685">
        <ele>267.8</ele>
        <time>2016-02-21T10:09:27Z</time>
      </trkpt>
      <trkpt lat="43.97941" lon="5.09678">
        <ele>268.2</ele>
        <time>2016-02-21T10:09:30Z</time>
      </trkpt>
      <trkpt lat="43.9793" lon="5.09669">
        <ele>268.4</ele>
        <time>2016-02-21T10:09:32Z</time>
      </trkpt>
      <trkpt lat="43.97922" lon="5.09661">
        <ele>268.7</ele>
        <time>2016-02-21T10:09:34Z</time>
      </trkpt>
      <trkpt lat="43.97914" lon="5.09648">
        <ele>269.1</ele>
        <time>2016-02-21T10:09:37Z</time>
      </trkpt>
      <trkpt lat="43.97902" lon="5.09633">
        <ele>269.2</ele>
        <time>2016-02-21T10:09:39Z</time>
      </trkpt>
      <trkpt lat="43.9789" lon="5.09625">
        <ele>269.4</ele>
        <time>2016-02-21T10:09:41Z</time>
      </trkpt>
      <trkpt lat="43.97878" lon="5.09617">
        <ele>269.6</ele>
        <time>2016-02-21T10:09:43Z</time>
      </trkpt>
      <trkpt lat="43.97865" lon="5.096">
        <ele>269.8</ele>
        <time>2016-02-21T10:09:45Z</time>
      </trkpt>
      <trkpt lat="43.97855" lon="5.09589">
        <ele>270</ele>
        <time>2016-02-21T10:09:47Z</time>
      </trkpt>
      <trkpt lat="43.97849" lon="5.09577">
        <ele>270.2</ele>
        <time>2016-02-21T10:09:49Z</time>
      </trkpt>
      <trkpt lat="43.97844" lon="5.09567">
        <ele>270.7</ele>
        <time>2016-02-21T10:09:53Z</time>
      </trkpt>
      <trkpt lat="43.97836" lon="5.09554">
        <ele>271.1</ele>
        <time>2016-02-21T10:09:58Z</time>
      </trkpt>
      <trkpt lat="43.97825" lon="5.09551">
        <ele>272.4</ele>
        <time>2016-02-21T10:10:29Z</time>
      </trkpt>
      <trkpt lat="43.97816" lon="5.09551">
        <ele>272.5</ele>
        <time>2016-02-21T10:10:37Z</time>
      </trkpt>
      <trkpt lat="43.97807" lon="5.09553">
        <ele>272.6</ele>
        <time>2016-02-21T10:10:43Z</time>
      </trkpt>
      <trkpt lat="43.97795" lon="5.09558">
        <ele>272.9</ele>
        <time>2016-02-21T10:10:59Z</time>
      </trkpt>
      <trkpt lat="43.97787" lon="5.09553">
        <ele>273.4</ele>
        <time>2016-02-21T10:11:20Z</time>
      </trkpt>
      <trkpt lat="43.97777" lon="5.09558">
        <ele>274</ele>
        <time>2016-02-21T10:11:30Z</time>
      </trkpt>
      <trkpt lat="43.97768" lon="5.09559">
        <ele>275</ele>
        <time>2016-02-21T10:11:41Z</time>
      </trkpt>
      <trkpt lat="43.9776" lon="5.09568">
        <ele>275.9</ele>
        <time>2016-02-21T10:11:51Z</time>
      </trkpt>
      <trkpt lat="43.97753" lon="5.09577">
        <ele>276.5</ele>
        <time>2016-02-21T10:12:00Z</time>
      </trkpt>
      <trkpt lat="43.97746" lon="5.09585">
        <ele>276.7</ele>
        <time>2016-02-21T10:12:05Z</time>
      </trkpt>
      <trkpt lat="43.97738" lon="5.09592">
        <ele>276.9</ele>
        <time>2016-02-21T10:12:13Z</time>
      </trkpt>
      <trkpt lat="43.97733" lon="5.09604">
        <ele>277</ele>
        <time>2016-02-21T10:12:16Z</time>
      </trkpt>
      <trkpt lat="43.97724" lon="5.09612">
        <ele>277.1</ele>
        <time>2016-02-21T10:12:23Z</time>
      </trkpt>
      <trkpt lat="43.97715" lon="5.09615">
        <ele>277.2</ele>
        <time>2016-02-21T10:12:30Z</time>
      </trkpt>
      <trkpt lat="43.97705" lon="5.09618">
        <ele>277.4</ele>
        <time>2016-02-21T10:12:36Z</time>
      </trkpt>
      <trkpt lat="43.97696" lon="5.09618">
        <ele>277.6</ele>
        <time>2016-02-21T10:12:42Z</time>
      </trkpt>
      <trkpt lat="43.97687" lon="5.09615">
        <ele>277.8</ele>
        <time>2016-02-21T10:12:49Z</time>
      </trkpt>
      <trkpt lat="43.97678" lon="5.09613">
        <ele>278.3</ele>
        <time>2016-02-21T10:12:56Z</time>
      </trkpt>
      <trkpt lat="43.9767" lon="5.09607">
        <ele>279.4</ele>
        <time>2016-02-21T10:13:06Z</time>
      </trkpt>
      <trkpt lat="43.9766" lon="5.09608">
        <ele>279.9</ele>
        <time>2016-02-21T10:13:13Z</time>
      </trkpt>
      <trkpt lat="43.9765" lon="5.09605">
        <ele>279.9</ele>
        <time>2016-02-21T10:13:19Z</time>
      </trkpt>
      <trkpt lat="43.97641" lon="5.09605">
        <ele>279.4</ele>
        <time>2016-02-21T10:13:24Z</time>
      </trkpt>
      <trkpt lat="43.97632" lon="5.09612">
        <ele>279</ele>
        <time>2016-02-21T10:13:29Z</time>
      </trkpt>
      <trkpt lat="43.97622" lon="5.09611">
        <ele>278.6</ele>
        <time>2016-02-21T10:13:38Z</time>
      </trkpt>
      <trkpt lat="43.97613" lon="5.09606">
        <ele>278.5</ele>
        <time>2016-02-21T10:13:48Z</time>
      </trkpt>
      <trkpt lat="43.97604" lon="5.09604">
        <ele>279.8</ele>
        <time>2016-02-21T10:14:20Z</time>
      </trkpt>
      <trkpt lat="43.97596" lon="5.09613">
        <ele>280.2</ele>
        <time>2016-02-21T10:14:33Z</time>
      </trkpt>
      <trkpt lat="43.97592" lon="5.09601">
        <ele>280.5</ele>
        <time>2016-02-21T10:15:05Z</time>
      </trkpt>
      <trkpt lat="43.97599" lon="5.09592">
        <ele>280.8</ele>
        <time>2016-02-21T10:16:08Z</time>
      </trkpt>
      <trkpt lat="43.97604" lon="5.09582">
        <ele>280.8</ele>
        <time>2016-02-21T10:16:17Z</time>
      </trkpt>
      <trkpt lat="43.97595" lon="5.09589">
        <ele>280.8</ele>
        <time>2016-02-21T10:16:31Z</time>
      </trkpt>
      <trkpt lat="43.97586" lon="5.09597">
        <ele>281.1</ele>
        <time>2016-02-21T10:16:36Z</time>
      </trkpt>
      <trkpt lat="43.97577" lon="5.09598">
        <ele>281.6</ele>
        <time>2016-02-21T10:16:43Z</time>
      </trkpt>
      <trkpt lat="43.97571" lon="5.09588">
        <ele>282.5</ele>
        <time>2016-02-21T10:16:54Z</time>
      </trkpt>
      <trkpt lat="43.97554" lon="5.09569">
        <ele>283</ele>
        <time>2016-02-21T10:17:03Z</time>
      </trkpt>
      <trkpt lat="43.97541" lon="5.09567">
        <ele>283.4</ele>
        <time>2016-02-21T10:17:08Z</time>
      </trkpt>
      <trkpt lat="43.97532" lon="5.09564">
        <ele>283.7</ele>
        <time>2016-02-21T10:17:15Z</time>
      </trkpt>
      <trkpt lat="43.97523" lon="5.09568">
        <ele>284.3</ele>
        <time>2016-02-21T10:17:24Z</time>
      </trkpt>
      <trkpt lat="43.97514" lon="5.09565">
        <ele>284.8</ele>
        <time>2016-02-21T10:17:30Z</time>
      </trkpt>
      <trkpt lat="43.97504" lon="5.09563">
        <ele>285.4</ele>
        <time>2016-02-21T10:17:37Z</time>
      </trkpt>
      <trkpt lat="43.97493" lon="5.09559">
        <ele>285.9</ele>
        <time>2016-02-21T10:17:45Z</time>
      </trkpt>
      <trkpt lat="43.97483" lon="5.09562">
        <ele>286.4</ele>
        <time>2016-02-21T10:17:54Z</time>
      </trkpt>
      <trkpt lat="43.97479" lon="5.09551">
        <ele>286.9</ele>
        <time>2016-02-21T10:17:58Z</time>
      </trkpt>
      <trkpt lat="43.9747" lon="5.09544">
        <ele>288</ele>
        <time>2016-02-21T10:18:04Z</time>
      </trkpt>
      <trkpt lat="43.97462" lon="5.09537">
        <ele>289.3</ele>
        <time>2016-02-21T10:18:10Z</time>
      </trkpt>
      <trkpt lat="43.97455" lon="5.09528">
        <ele>290.9</ele>
        <time>2016-02-21T10:18:18Z</time>
      </trkpt>
      <trkpt lat="43.97447" lon="5.09519">
        <ele>292.1</ele>
        <time>2016-02-21T10:18:25Z</time>
      </trkpt>
      <trkpt lat="43.97438" lon="5.09511">
        <ele>292.8</ele>
        <time>2016-02-21T10:18:30Z</time>
      </trkpt>
      <trkpt lat="43.9743" lon="5.09507">
        <ele>293.2</ele>
        <time>2016-02-21T10:18:34Z</time>
      </trkpt>
      <trkpt lat="43.9742" lon="5.09502">
        <ele>293.9</ele>
        <time>2016-02-21T10:18:46Z</time>
      </trkpt>
      <trkpt lat="43.97409" lon="5.09504">
        <ele>293.9</ele>
        <time>2016-02-21T10:18:53Z</time>
      </trkpt>
      <trkpt lat="43.97401" lon="5.09508">
        <ele>293.8</ele>
        <time>2016-02-21T10:18:58Z</time>
      </trkpt>
      <trkpt lat="43.97392" lon="5.09501">
        <ele>293.7</ele>
        <time>2016-02-21T10:19:02Z</time>
      </trkpt>
      <trkpt lat="43.97384" lon="5.09512">
        <ele>293.2</ele>
        <time>2016-02-21T10:19:21Z</time>
      </trkpt>
      <trkpt lat="43.97374" lon="5.09516">
        <ele>293.2</ele>
        <time>2016-02-21T10:19:24Z</time>
      </trkpt>
      <trkpt lat="43.97365" lon="5.09519">
        <ele>293.5</ele>
        <time>2016-02-21T10:19:29Z</time>
      </trkpt>
      <trkpt lat="43.97355" lon="5.09519">
        <ele>293.8</ele>
        <time>2016-02-21T10:19:34Z</time>
      </trkpt>
      <trkpt lat="43.97344" lon="5.09515">
        <ele>294.1</ele>
        <time>2016-02-21T10:19:39Z</time>
      </trkpt>
      <trkpt lat="43.97337" lon="5.09505">
        <ele>294.6</ele>
        <time>2016-02-21T10:19:45Z</time>
      </trkpt>
      <trkpt lat="43.9733" lon="5.09493">
        <ele>294.9</ele>
        <time>2016-02-21T10:19:51Z</time>
      </trkpt>
      <trkpt lat="43.97325" lon="5.09481">
        <ele>295.1</ele>
        <time>2016-02-21T10:19:57Z</time>
      </trkpt>
      <trkpt lat="43.97319" lon="5.0947">
        <ele>295.7</ele>
        <time>2016-02-21T10:20:01Z</time>
      </trkpt>
      <trkpt lat="43.97314" lon="5.09459">
        <ele>295.7</ele>
        <time>2016-02-21T10:20:04Z</time>
      </trkpt>
      <trkpt lat="43.97309" lon="5.09447">
        <ele>295.7</ele>
        <time>2016-02-21T10:20:11Z</time>
      </trkpt>
      <trkpt lat="43.97302" lon="5.09436">
        <ele>295.5</ele>
        <time>2016-02-21T10:20:15Z</time>
      </trkpt>
      <trkpt lat="43.97296" lon="5.09425">
        <ele>295.4</ele>
        <time>2016-02-21T10:20:20Z</time>
      </trkpt>
      <trkpt lat="43.97289" lon="5.09415">
        <ele>295.3</ele>
        <time>2016-02-21T10:20:26Z</time>
      </trkpt>
      <trkpt lat="43.97281" lon="5.09409">
        <ele>295.2</ele>
        <time>2016-02-21T10:20:34Z</time>
      </trkpt>
      <trkpt lat="43.97276" lon="5.09398">
        <ele>295.2</ele>
        <time>2016-02-21T10:20:40Z</time>
      </trkpt>
      <trkpt lat="43.97269" lon="5.09388">
        <ele>295.3</ele>
        <time>2016-02-21T10:20:46Z</time>
      </trkpt>
      <trkpt lat="43.97268" lon="5.09374">
        <ele>295.3</ele>
        <time>2016-02-21T10:20:53Z</time>
      </trkpt>
      <trkpt lat="43.97265" lon="5.0936">
        <ele>295</ele>
        <time>2016-02-21T10:21:00Z</time>
      </trkpt>
      <trkpt lat="43.97258" lon="5.09352">
        <ele>294.6</ele>
        <time>2016-02-21T10:21:04Z</time>
      </trkpt>
      <trkpt lat="43.9725" lon="5.09345">
        <ele>294.2</ele>
        <time>2016-02-21T10:21:08Z</time>
      </trkpt>
      <trkpt lat="43.97243" lon="5.09337">
        <ele>293.8</ele>
        <time>2016-02-21T10:21:12Z</time>
      </trkpt>
      <trkpt lat="43.97234" lon="5.09336">
        <ele>292.9</ele>
        <time>2016-02-21T10:21:20Z</time>
      </trkpt>
      <trkpt lat="43.97225" lon="5.09338">
        <ele>292.3</ele>
        <time>2016-02-21T10:21:25Z</time>
      </trkpt>
      <trkpt lat="43.97215" lon="5.0934">
        <ele>291.7</ele>
        <time>2016-02-21T10:21:30Z</time>
      </trkpt>
      <trkpt lat="43.97207" lon="5.09345">
        <ele>291</ele>
        <time>2016-02-21T10:21:36Z</time>
      </trkpt>
      <trkpt lat="43.97199" lon="5.09352">
        <ele>290.2</ele>
        <time>2016-02-21T10:21:42Z</time>
      </trkpt>
      <trkpt lat="43.9719" lon="5.0936">
        <ele>289.4</ele>
        <time>2016-02-21T10:21:48Z</time>
      </trkpt>
      <trkpt lat="43.97179" lon="5.09365">
        <ele>288.9</ele>
        <time>2016-02-21T10:21:52Z</time>
      </trkpt>
      <trkpt lat="43.9717" lon="5.09368">
        <ele>288.4</ele>
        <time>2016-02-21T10:21:55Z</time>
      </trkpt>
      <trkpt lat="43.97159" lon="5.09372">
        <ele>287.9</ele>
        <time>2016-02-21T10:21:58Z</time>
      </trkpt>
      <trkpt lat="43.97151" lon="5.09376">
        <ele>287.3</ele>
        <time>2016-02-21T10:22:01Z</time>
      </trkpt>
      <trkpt lat="43.9714" lon="5.09379">
        <ele>286.4</ele>
        <time>2016-02-21T10:22:05Z</time>
      </trkpt>
      <trkpt lat="43.97131" lon="5.09379">
        <ele>285.5</ele>
        <time>2016-02-21T10:22:10Z</time>
      </trkpt>
      <trkpt lat="43.97122" lon="5.09384">
        <ele>284.5</ele>
        <time>2016-02-21T10:22:16Z</time>
      </trkpt>
      <trkpt lat="43.97112" lon="5.09389">
        <ele>283.5</ele>
        <time>2016-02-21T10:22:23Z</time>
      </trkpt>
      <trkpt lat="43.97101" lon="5.09389">
        <ele>282.8</ele>
        <time>2016-02-21T10:22:29Z</time>
      </trkpt>
      <trkpt lat="43.97091" lon="5.0939">
        <ele>282.3</ele>
        <time>2016-02-21T10:22:34Z</time>
      </trkpt>
      <trkpt lat="43.97083" lon="5.09382">
        <ele>281.6</ele>
        <time>2016-02-21T10:22:41Z</time>
      </trkpt>
      <trkpt lat="43.97075" lon="5.09375">
        <ele>281.1</ele>
        <time>2016-02-21T10:22:49Z</time>
      </trkpt>
      <trkpt lat="43.97066" lon="5.09371">
        <ele>280.8</ele>
        <time>2016-02-21T10:22:57Z</time>
      </trkpt>
      <trkpt lat="43.97055" lon="5.09369">
        <ele>280.6</ele>
        <time>2016-02-21T10:23:06Z</time>
      </trkpt>
      <trkpt lat="43.97046" lon="5.0936">
        <ele>280.5</ele>
        <time>2016-02-21T10:23:13Z</time>
      </trkpt>
      <trkpt lat="43.97038" lon="5.09351">
        <ele>280.4</ele>
        <time>2016-02-21T10:23:25Z</time>
      </trkpt>
      <trkpt lat="43.97026" lon="5.09345">
        <ele>280.4</ele>
        <time>2016-02-21T10:23:31Z</time>
      </trkpt>
      <trkpt lat="43.97013" lon="5.0934">
        <ele>280.4</ele>
        <time>2016-02-21T10:23:33Z</time>
      </trkpt>
      <trkpt lat="43.97003" lon="5.09339">
        <ele>280.4</ele>
        <time>2016-02-21T10:23:35Z</time>
      </trkpt>
      <trkpt lat="43.96993" lon="5.09337">
        <ele>280.4</ele>
        <time>2016-02-21T10:23:37Z</time>
      </trkpt>
      <trkpt lat="43.96985" lon="5.09334">
        <ele>280.5</ele>
        <time>2016-02-21T10:23:39Z</time>
      </trkpt>
      <trkpt lat="43.96974" lon="5.09332">
        <ele>280.4</ele>
        <time>2016-02-21T10:23:41Z</time>
      </trkpt>
      <trkpt lat="43.9696" lon="5.09327">
        <ele>280.1</ele>
        <time>2016-02-21T10:23:43Z</time>
      </trkpt>
      <trkpt lat="43.96946" lon="5.09326">
        <ele>279.8</ele>
        <time>2016-02-21T10:23:45Z</time>
      </trkpt>
      <trkpt lat="43.96932" lon="5.09329">
        <ele>279.6</ele>
        <time>2016-02-21T10:23:47Z</time>
      </trkpt>
      <trkpt lat="43.96919" lon="5.09329">
        <ele>279.4</ele>
        <time>2016-02-21T10:23:49Z</time>
      </trkpt>
      <trkpt lat="43.96908" lon="5.09327">
        <ele>279.1</ele>
        <time>2016-02-21T10:23:51Z</time>
      </trkpt>
      <trkpt lat="43.96898" lon="5.09324">
        <ele>278.8</ele>
        <time>2016-02-21T10:23:53Z</time>
      </trkpt>
      <trkpt lat="43.96888" lon="5.09322">
        <ele>278.6</ele>
        <time>2016-02-21T10:23:55Z</time>
      </trkpt>
      <trkpt lat="43.96878" lon="5.09319">
        <ele>278.2</ele>
        <time>2016-02-21T10:23:57Z</time>
      </trkpt>
      <trkpt lat="43.96868" lon="5.09316">
        <ele>277.8</ele>
        <time>2016-02-21T10:23:59Z</time>
      </trkpt>
      <trkpt lat="43.96858" lon="5.09314">
        <ele>277.4</ele>
        <time>2016-02-21T10:24:01Z</time>
      </trkpt>
      <trkpt lat="43.96847" lon="5.09317">
        <ele>276.9</ele>
        <time>2016-02-21T10:24:04Z</time>
      </trkpt>
      <trkpt lat="43.96838" lon="5.09316">
        <ele>275.7</ele>
        <time>2016-02-21T10:24:10Z</time>
      </trkpt>
      <trkpt lat="43.96829" lon="5.09309">
        <ele>274.5</ele>
        <time>2016-02-21T10:24:18Z</time>
      </trkpt>
      <trkpt lat="43.96819" lon="5.09307">
        <ele>273.9</ele>
        <time>2016-02-21T10:24:25Z</time>
      </trkpt>
      <trkpt lat="43.96809" lon="5.093">
        <ele>273.7</ele>
        <time>2016-02-21T10:24:28Z</time>
      </trkpt>
      <trkpt lat="43.968" lon="5.09296">
        <ele>273.4</ele>
        <time>2016-02-21T10:24:31Z</time>
      </trkpt>
      <trkpt lat="43.96788" lon="5.09296">
        <ele>273</ele>
        <time>2016-02-21T10:24:35Z</time>
      </trkpt>
      <trkpt lat="43.96778" lon="5.09296">
        <ele>272.6</ele>
        <time>2016-02-21T10:24:38Z</time>
      </trkpt>
      <trkpt lat="43.96767" lon="5.09293">
        <ele>272.3</ele>
        <time>2016-02-21T10:24:41Z</time>
      </trkpt>
      <trkpt lat="43.96755" lon="5.09294">
        <ele>271.9</ele>
        <time>2016-02-21T10:24:44Z</time>
      </trkpt>
      <trkpt lat="43.96746" lon="5.09287">
        <ele>271.4</ele>
        <time>2016-02-21T10:24:48Z</time>
      </trkpt>
      <trkpt lat="43.96737" lon="5.09289">
        <ele>270.1</ele>
        <time>2016-02-21T10:24:56Z</time>
      </trkpt>
      <trkpt lat="43.96728" lon="5.09295">
        <ele>269.4</ele>
        <time>2016-02-21T10:25:00Z</time>
      </trkpt>
      <trkpt lat="43.9672" lon="5.09301">
        <ele>268.3</ele>
        <time>2016-02-21T10:25:08Z</time>
      </trkpt>
      <trkpt lat="43.96711" lon="5.0931">
        <ele>267.5</ele>
        <time>2016-02-21T10:25:14Z</time>
      </trkpt>
      <trkpt lat="43.96704" lon="5.0932">
        <ele>266.7</ele>
        <time>2016-02-21T10:25:19Z</time>
      </trkpt>
      <trkpt lat="43.96696" lon="5.09329">
        <ele>265.5</ele>
        <time>2016-02-21T10:25:26Z</time>
      </trkpt>
      <trkpt lat="43.96688" lon="5.09338">
        <ele>264.7</ele>
        <time>2016-02-21T10:25:31Z</time>
      </trkpt>
      <trkpt lat="43.9668" lon="5.09348">
        <ele>263.9</ele>
        <time>2016-02-21T10:25:35Z</time>
      </trkpt>
      <trkpt lat="43.96672" lon="5.09358">
        <ele>262.9</ele>
        <time>2016-02-21T10:25:40Z</time>
      </trkpt>
      <trkpt lat="43.96664" lon="5.09366">
        <ele>261.3</ele>
        <time>2016-02-21T10:25:49Z</time>
      </trkpt>
      <trkpt lat="43.96659" lon="5.09378">
        <ele>259.3</ele>
        <time>2016-02-21T10:26:03Z</time>
      </trkpt>
      <trkpt lat="43.96651" lon="5.09386">
        <ele>258.7</ele>
        <time>2016-02-21T10:26:09Z</time>
      </trkpt>
      <trkpt lat="43.96642" lon="5.09392">
        <ele>258.1</ele>
        <time>2016-02-21T10:26:15Z</time>
      </trkpt>
      <trkpt lat="43.96633" lon="5.09392">
        <ele>258</ele>
        <time>2016-02-21T10:26:27Z</time>
      </trkpt>
      <trkpt lat="43.9663" lon="5.09404">
        <ele>258.4</ele>
        <time>2016-02-21T10:26:38Z</time>
      </trkpt>
      <trkpt lat="43.96636" lon="5.09415">
        <ele>258.2</ele>
        <time>2016-02-21T10:26:46Z</time>
      </trkpt>
      <trkpt lat="43.96633" lon="5.09427">
        <ele>256.3</ele>
        <time>2016-02-21T10:27:01Z</time>
      </trkpt>
      <trkpt lat="43.96624" lon="5.09436">
        <ele>255.3</ele>
        <time>2016-02-21T10:27:09Z</time>
      </trkpt>
      <trkpt lat="43.96616" lon="5.09442">
        <ele>254.1</ele>
        <time>2016-02-21T10:27:17Z</time>
      </trkpt>
      <trkpt lat="43.96612" lon="5.09429">
        <ele>253.3</ele>
        <time>2016-02-21T10:27:22Z</time>
      </trkpt>
      <trkpt lat="43.96604" lon="5.09423">
        <ele>251.6</ele>
        <time>2016-02-21T10:27:33Z</time>
      </trkpt>
      <trkpt lat="43.96595" lon="5.09418">
        <ele>250.2</ele>
        <time>2016-02-21T10:27:40Z</time>
      </trkpt>
      <trkpt lat="43.96586" lon="5.0942">
        <ele>249.2</ele>
        <time>2016-02-21T10:27:46Z</time>
      </trkpt>
      <trkpt lat="43.96584" lon="5.09434">
        <ele>248.6</ele>
        <time>2016-02-21T10:27:50Z</time>
      </trkpt>
      <trkpt lat="43.96574" lon="5.09434">
        <ele>245.4</ele>
        <time>2016-02-21T10:28:31Z</time>
      </trkpt>
      <trkpt lat="43.96565" lon="5.09436">
        <ele>244.4</ele>
        <time>2016-02-21T10:28:37Z</time>
      </trkpt>
      <trkpt lat="43.96555" lon="5.09436">
        <ele>243</ele>
        <time>2016-02-21T10:28:45Z</time>
      </trkpt>
      <trkpt lat="43.96546" lon="5.09438">
        <ele>242.2</ele>
        <time>2016-02-21T10:28:51Z</time>
      </trkpt>
      <trkpt lat="43.96537" lon="5.09442">
        <ele>241.6</ele>
        <time>2016-02-21T10:28:57Z</time>
      </trkpt>
      <trkpt lat="43.96528" lon="5.09442">
        <ele>241.3</ele>
        <time>2016-02-21T10:29:03Z</time>
      </trkpt>
      <trkpt lat="43.96519" lon="5.09448">
        <ele>241.3</ele>
        <time>2016-02-21T10:29:10Z</time>
      </trkpt>
      <trkpt lat="43.9651" lon="5.09456">
        <ele>241.8</ele>
        <time>2016-02-21T10:29:19Z</time>
      </trkpt>
      <trkpt lat="43.96502" lon="5.0946">
        <ele>242.4</ele>
        <time>2016-02-21T10:29:25Z</time>
      </trkpt>
      <trkpt lat="43.96493" lon="5.09465">
        <ele>242.9</ele>
        <time>2016-02-21T10:29:31Z</time>
      </trkpt>
      <trkpt lat="43.96484" lon="5.09472">
        <ele>243.4</ele>
        <time>2016-02-21T10:29:37Z</time>
      </trkpt>
      <trkpt lat="43.96474" lon="5.09476">
        <ele>243.8</ele>
        <time>2016-02-21T10:29:44Z</time>
      </trkpt>
      <trkpt lat="43.96465" lon="5.09474">
        <ele>244</ele>
        <time>2016-02-21T10:29:50Z</time>
      </trkpt>
      <trkpt lat="43.96457" lon="5.09482">
        <ele>244.6</ele>
        <time>2016-02-21T10:30:01Z</time>
      </trkpt>
      <trkpt lat="43.96448" lon="5.09485">
        <ele>245.8</ele>
        <time>2016-02-21T10:30:16Z</time>
      </trkpt>
      <trkpt lat="43.96439" lon="5.09489">
        <ele>246.4</ele>
        <time>2016-02-21T10:30:28Z</time>
      </trkpt>
      <trkpt lat="43.9643" lon="5.09493">
        <ele>246.6</ele>
        <time>2016-02-21T10:30:41Z</time>
      </trkpt>
      <trkpt lat="43.9642" lon="5.09495">
        <ele>245.4</ele>
        <time>2016-02-21T10:30:58Z</time>
      </trkpt>
      <trkpt lat="43.96411" lon="5.09495">
        <ele>243.7</ele>
        <time>2016-02-21T10:31:09Z</time>
      </trkpt>
      <trkpt lat="43.964" lon="5.09493">
        <ele>241.5</ele>
        <time>2016-02-21T10:31:17Z</time>
      </trkpt>
      <trkpt lat="43.96391" lon="5.09493">
        <ele>239.9</ele>
        <time>2016-02-21T10:31:23Z</time>
      </trkpt>
      <trkpt lat="43.96382" lon="5.09494">
        <ele>238.5</ele>
        <time>2016-02-21T10:31:30Z</time>
      </trkpt>
      <trkpt lat="43.96373" lon="5.09491">
        <ele>237.5</ele>
        <time>2016-02-21T10:31:37Z</time>
      </trkpt>
      <trkpt lat="43.96364" lon="5.09492">
        <ele>236.8</ele>
        <time>2016-02-21T10:31:46Z</time>
      </trkpt>
      <trkpt lat="43.96354" lon="5.09495">
        <ele>236.4</ele>
        <time>2016-02-21T10:31:52Z</time>
      </trkpt>
      <trkpt lat="43.96345" lon="5.09502">
        <ele>236.2</ele>
        <time>2016-02-21T10:31:57Z</time>
      </trkpt>
      <trkpt lat="43.96335" lon="5.09509">
        <ele>236</ele>
        <time>2016-02-21T10:32:03Z</time>
      </trkpt>
      <trkpt lat="43.96325" lon="5.09515">
        <ele>235.8</ele>
        <time>2016-02-21T10:32:10Z</time>
      </trkpt>
      <trkpt lat="43.96316" lon="5.09517">
        <ele>235.6</ele>
        <time>2016-02-21T10:32:17Z</time>
      </trkpt>
      <trkpt lat="43.96306" lon="5.09517">
        <ele>235.2</ele>
        <time>2016-02-21T10:32:25Z</time>
      </trkpt>
      <trkpt lat="43.96297" lon="5.09518">
        <ele>234.6</ele>
        <time>2016-02-21T10:32:32Z</time>
      </trkpt>
      <trkpt lat="43.96288" lon="5.09523">
        <ele>233.8</ele>
        <time>2016-02-21T10:32:37Z</time>
      </trkpt>
      <trkpt lat="43.96279" lon="5.09521">
        <ele>232.3</ele>
        <time>2016-02-21T10:32:44Z</time>
      </trkpt>
      <trkpt lat="43.9627" lon="5.09527">
        <ele>230.8</ele>
        <time>2016-02-21T10:32:52Z</time>
      </trkpt>
      <trkpt lat="43.96263" lon="5.09537">
        <ele>230.1</ele>
        <time>2016-02-21T10:32:58Z</time>
      </trkpt>
      <trkpt lat="43.96254" lon="5.09543">
        <ele>229.9</ele>
        <time>2016-02-21T10:33:01Z</time>
      </trkpt>
      <trkpt lat="43.96244" lon="5.09546">
        <ele>229.9</ele>
        <time>2016-02-21T10:33:03Z</time>
      </trkpt>
      <trkpt lat="43.96235" lon="5.09542">
        <ele>230.3</ele>
        <time>2016-02-21T10:33:09Z</time>
      </trkpt>
      <trkpt lat="43.96229" lon="5.09533">
        <ele>230.8</ele>
        <time>2016-02-21T10:33:19Z</time>
      </trkpt>
      <trkpt lat="43.9622" lon="5.09528">
        <ele>231.2</ele>
        <time>2016-02-21T10:33:29Z</time>
      </trkpt>
      <trkpt lat="43.96211" lon="5.09525">
        <ele>231.3</ele>
        <time>2016-02-21T10:33:36Z</time>
      </trkpt>
      <trkpt lat="43.96201" lon="5.09521">
        <ele>231.1</ele>
        <time>2016-02-21T10:33:42Z</time>
      </trkpt>
      <trkpt lat="43.96193" lon="5.09515">
        <ele>230.5</ele>
        <time>2016-02-21T10:33:47Z</time>
      </trkpt>
      <trkpt lat="43.96191" lon="5.09502">
        <ele>229.6</ele>
        <time>2016-02-21T10:33:54Z</time>
      </trkpt>
      <trkpt lat="43.96187" lon="5.09489">
        <ele>228.9</ele>
        <time>2016-02-21T10:33:59Z</time>
      </trkpt>
      <trkpt lat="43.96182" lon="5.09477">
        <ele>228.3</ele>
        <time>2016-02-21T10:34:03Z</time>
      </trkpt>
      <trkpt lat="43.96175" lon="5.09468">
        <ele>227.4</ele>
        <time>2016-02-21T10:34:08Z</time>
      </trkpt>
      <trkpt lat="43.96172" lon="5.09455">
        <ele>226.5</ele>
        <time>2016-02-21T10:34:13Z</time>
      </trkpt>
      <trkpt lat="43.96166" lon="5.09445">
        <ele>225.8</ele>
        <time>2016-02-21T10:34:17Z</time>
      </trkpt>
      <trkpt lat="43.96157" lon="5.09441">
        <ele>225.1</ele>
        <time>2016-02-21T10:34:22Z</time>
      </trkpt>
      <trkpt lat="43.9615" lon="5.09433">
        <ele>224.5</ele>
        <time>2016-02-21T10:34:27Z</time>
      </trkpt>
      <trkpt lat="43.96146" lon="5.09419">
        <ele>223.9</ele>
        <time>2016-02-21T10:34:32Z</time>
      </trkpt>
      <trkpt lat="43.96137" lon="5.09408">
        <ele>223.4</ele>
        <time>2016-02-21T10:34:36Z</time>
      </trkpt>
      <trkpt lat="43.96128" lon="5.09396">
        <ele>223</ele>
        <time>2016-02-21T10:34:38Z</time>
      </trkpt>
      <trkpt lat="43.9612" lon="5.09384">
        <ele>222.8</ele>
        <time>2016-02-21T10:34:40Z</time>
      </trkpt>
      <trkpt lat="43.96112" lon="5.09373">
        <ele>222.5</ele>
        <time>2016-02-21T10:34:42Z</time>
      </trkpt>
      <trkpt lat="43.96106" lon="5.09362">
        <ele>222.3</ele>
        <time>2016-02-21T10:34:44Z</time>
      </trkpt>
      <trkpt lat="43.96097" lon="5.09354">
        <ele>222</ele>
        <time>2016-02-21T10:34:46Z</time>
      </trkpt>
      <trkpt lat="43.96085" lon="5.09347">
        <ele>221.3</ele>
        <time>2016-02-21T10:34:48Z</time>
      </trkpt>
      <trkpt lat="43.96071" lon="5.09338">
        <ele>220.7</ele>
        <time>2016-02-21T10:34:50Z</time>
      </trkpt>
      <trkpt lat="43.96063" lon="5.09331">
        <ele>220.4</ele>
        <time>2016-02-21T10:34:51Z</time>
      </trkpt>
      <trkpt lat="43.96049" lon="5.09318">
        <ele>219.8</ele>
        <time>2016-02-21T10:34:53Z</time>
      </trkpt>
      <trkpt lat="43.96034" lon="5.0931">
        <ele>219.2</ele>
        <time>2016-02-21T10:34:55Z</time>
      </trkpt>
      <trkpt lat="43.96017" lon="5.09302">
        <ele>218.5</ele>
        <time>2016-02-21T10:34:57Z</time>
      </trkpt>
      <trkpt lat="43.96009" lon="5.09297">
        <ele>218.3</ele>
        <time>2016-02-21T10:34:58Z</time>
      </trkpt>
      <trkpt lat="43.95999" lon="5.09291">
        <ele>217.9</ele>
        <time>2016-02-21T10:34:59Z</time>
      </trkpt>
      <trkpt lat="43.9599" lon="5.09284">
        <ele>217.6</ele>
        <time>2016-02-21T10:35:00Z</time>
      </trkpt>
      <trkpt lat="43.9598" lon="5.09277">
        <ele>217</ele>
        <time>2016-02-21T10:35:01Z</time>
      </trkpt>
      <trkpt lat="43.95971" lon="5.0927">
        <ele>216.5</ele>
        <time>2016-02-21T10:35:02Z</time>
      </trkpt>
      <trkpt lat="43.95962" lon="5.09263">
        <ele>216.1</ele>
        <time>2016-02-21T10:35:03Z</time>
      </trkpt>
      <trkpt lat="43.95954" lon="5.09255">
        <ele>215.8</ele>
        <time>2016-02-21T10:35:04Z</time>
      </trkpt>
      <trkpt lat="43.95939" lon="5.09244">
        <ele>215.2</ele>
        <time>2016-02-21T10:35:06Z</time>
      </trkpt>
      <trkpt lat="43.95926" lon="5.09236">
        <ele>214.6</ele>
        <time>2016-02-21T10:35:08Z</time>
      </trkpt>
      <trkpt lat="43.95914" lon="5.09239">
        <ele>214.1</ele>
        <time>2016-02-21T10:35:10Z</time>
      </trkpt>
      <trkpt lat="43.95902" lon="5.09243">
        <ele>213.4</ele>
        <time>2016-02-21T10:35:13Z</time>
      </trkpt>
      <trkpt lat="43.95912" lon="5.09239">
        <ele>211.2</ele>
        <time>2016-02-21T10:35:34Z</time>
      </trkpt>
      <trkpt lat="43.95916" lon="5.09228">
        <ele>210.8</ele>
        <time>2016-02-21T10:35:43Z</time>
      </trkpt>
      <trkpt lat="43.95915" lon="5.09215">
        <ele>210.6</ele>
        <time>2016-02-21T10:35:53Z</time>
      </trkpt>
      <trkpt lat="43.95915" lon="5.09202">
        <ele>210.3</ele>
        <time>2016-02-21T10:36:00Z</time>
      </trkpt>
      <trkpt lat="43.95914" lon="5.09186">
        <ele>210.1</ele>
        <time>2016-02-21T10:36:06Z</time>
      </trkpt>
      <trkpt lat="43.9591" lon="5.09173">
        <ele>210</ele>
        <time>2016-02-21T10:36:10Z</time>
      </trkpt>
      <trkpt lat="43.95903" lon="5.09163">
        <ele>209.8</ele>
        <time>2016-02-21T10:36:20Z</time>
      </trkpt>
      <trkpt lat="43.95894" lon="5.09158">
        <ele>209.5</ele>
        <time>2016-02-21T10:36:26Z</time>
      </trkpt>
      <trkpt lat="43.95886" lon="5.09147">
        <ele>209.3</ele>
        <time>2016-02-21T10:36:30Z</time>
      </trkpt>
      <trkpt lat="43.95879" lon="5.09139">
        <ele>209</ele>
        <time>2016-02-21T10:36:34Z</time>
      </trkpt>
      <trkpt lat="43.95871" lon="5.09127">
        <ele>208.7</ele>
        <time>2016-02-21T10:36:38Z</time>
      </trkpt>
      <trkpt lat="43.95864" lon="5.09119">
        <ele>208.5</ele>
        <time>2016-02-21T10:36:42Z</time>
      </trkpt>
      <trkpt lat="43.95857" lon="5.0911">
        <ele>208.2</ele>
        <time>2016-02-21T10:36:46Z</time>
      </trkpt>
      <trkpt lat="43.95849" lon="5.09104">
        <ele>208.1</ele>
        <time>2016-02-21T10:36:50Z</time>
      </trkpt>
      <trkpt lat="43.95842" lon="5.09095">
        <ele>207.7</ele>
        <time>2016-02-21T10:36:56Z</time>
      </trkpt>
      <trkpt lat="43.95834" lon="5.09085">
        <ele>207.3</ele>
        <time>2016-02-21T10:37:04Z</time>
      </trkpt>
      <trkpt lat="43.95826" lon="5.09079">
        <ele>207.1</ele>
        <time>2016-02-21T10:37:09Z</time>
      </trkpt>
      <trkpt lat="43.95817" lon="5.0907">
        <ele>206.8</ele>
        <time>2016-02-21T10:37:14Z</time>
      </trkpt>
      <trkpt lat="43.95809" lon="5.09059">
        <ele>206.7</ele>
        <time>2016-02-21T10:37:17Z</time>
      </trkpt>
      <trkpt lat="43.95801" lon="5.09051">
        <ele>206.6</ele>
        <time>2016-02-21T10:37:19Z</time>
      </trkpt>
      <trkpt lat="43.9579" lon="5.09044">
        <ele>206.5</ele>
        <time>2016-02-21T10:37:22Z</time>
      </trkpt>
      <trkpt lat="43.95784" lon="5.09033">
        <ele>206.5</ele>
        <time>2016-02-21T10:37:25Z</time>
      </trkpt>
      <trkpt lat="43.95777" lon="5.09023">
        <ele>206.3</ele>
        <time>2016-02-21T10:37:35Z</time>
      </trkpt>
      <trkpt lat="43.95768" lon="5.0902">
        <ele>206.3</ele>
        <time>2016-02-21T10:37:42Z</time>
      </trkpt>
      <trkpt lat="43.95759" lon="5.09011">
        <ele>206.4</ele>
        <time>2016-02-21T10:37:48Z</time>
      </trkpt>
      <trkpt lat="43.9575" lon="5.09006">
        <ele>206.6</ele>
        <time>2016-02-21T10:37:55Z</time>
      </trkpt>
      <trkpt lat="43.95742" lon="5.09002">
        <ele>207</ele>
        <time>2016-02-21T10:38:03Z</time>
      </trkpt>
      <trkpt lat="43.95734" lon="5.08995">
        <ele>207.5</ele>
        <time>2016-02-21T10:38:10Z</time>
      </trkpt>
      <trkpt lat="43.95726" lon="5.08989">
        <ele>207.8</ele>
        <time>2016-02-21T10:38:16Z</time>
      </trkpt>
      <trkpt lat="43.95716" lon="5.08982">
        <ele>208.8</ele>
        <time>2016-02-21T10:38:32Z</time>
      </trkpt>
      <trkpt lat="43.95708" lon="5.08974">
        <ele>209.1</ele>
        <time>2016-02-21T10:38:37Z</time>
      </trkpt>
      <trkpt lat="43.95701" lon="5.08966">
        <ele>209.3</ele>
        <time>2016-02-21T10:38:42Z</time>
      </trkpt>
      <trkpt lat="43.95694" lon="5.08958">
        <ele>209.5</ele>
        <time>2016-02-21T10:38:47Z</time>
      </trkpt>
      <trkpt lat="43.95685" lon="5.08953">
        <ele>209.8</ele>
        <time>2016-02-21T10:38:53Z</time>
      </trkpt>
      <trkpt lat="43.95676" lon="5.08948">
        <ele>210.2</ele>
        <time>2016-02-21T10:39:01Z</time>
      </trkpt>
      <trkpt lat="43.95667" lon="5.08947">
        <ele>210.4</ele>
        <time>2016-02-21T10:39:07Z</time>
      </trkpt>
      <trkpt lat="43.95658" lon="5.08944">
        <ele>210.5</ele>
        <time>2016-02-21T10:39:13Z</time>
      </trkpt>
      <trkpt lat="43.95649" lon="5.08941">
        <ele>210.6</ele>
        <time>2016-02-21T10:39:20Z</time>
      </trkpt>
      <trkpt lat="43.9564" lon="5.08936">
        <ele>210.8</ele>
        <time>2016-02-21T10:39:27Z</time>
      </trkpt>
      <trkpt lat="43.95631" lon="5.08932">
        <ele>211.1</ele>
        <time>2016-02-21T10:39:35Z</time>
      </trkpt>
      <trkpt lat="43.95622" lon="5.0893">
        <ele>211.3</ele>
        <time>2016-02-21T10:39:42Z</time>
      </trkpt>
      <trkpt lat="43.95612" lon="5.08925">
        <ele>211.8</ele>
        <time>2016-02-21T10:39:50Z</time>
      </trkpt>
      <trkpt lat="43.95608" lon="5.08913">
        <ele>213.3</ele>
        <time>2016-02-21T10:40:26Z</time>
      </trkpt>
      <trkpt lat="43.956" lon="5.08904">
        <ele>213.3</ele>
        <time>2016-02-21T10:40:29Z</time>
      </trkpt>
      <trkpt lat="43.9559" lon="5.08901">
        <ele>213.4</ele>
        <time>2016-02-21T10:40:37Z</time>
      </trkpt>
      <trkpt lat="43.95597" lon="5.08909">
        <ele>209.6</ele>
        <time>2016-02-21T10:41:17Z</time>
      </trkpt>
      <trkpt lat="43.95595" lon="5.08921">
        <ele>208.1</ele>
        <time>2016-02-21T10:41:29Z</time>
      </trkpt>
      <trkpt lat="43.95593" lon="5.08937">
        <ele>207.1</ele>
        <time>2016-02-21T10:41:35Z</time>
      </trkpt>
      <trkpt lat="43.95586" lon="5.08954">
        <ele>204.6</ele>
        <time>2016-02-21T10:41:48Z</time>
      </trkpt>
      <trkpt lat="43.95577" lon="5.08963">
        <ele>203</ele>
        <time>2016-02-21T10:41:54Z</time>
      </trkpt>
      <trkpt lat="43.9557" lon="5.08972">
        <ele>201.3</ele>
        <time>2016-02-21T10:42:00Z</time>
      </trkpt>
      <trkpt lat="43.95561" lon="5.08976">
        <ele>200.5</ele>
        <time>2016-02-21T10:42:04Z</time>
      </trkpt>
      <trkpt lat="43.95551" lon="5.08984">
        <ele>199.9</ele>
        <time>2016-02-21T10:42:07Z</time>
      </trkpt>
      <trkpt lat="43.95541" lon="5.08987">
        <ele>199.1</ele>
        <time>2016-02-21T10:42:12Z</time>
      </trkpt>
      <trkpt lat="43.95531" lon="5.08989">
        <ele>198.3</ele>
        <time>2016-02-21T10:42:16Z</time>
      </trkpt>
      <trkpt lat="43.95521" lon="5.08991">
        <ele>197.4</ele>
        <time>2016-02-21T10:42:22Z</time>
      </trkpt>
      <trkpt lat="43.95511" lon="5.08989">
        <ele>196.3</ele>
        <time>2016-02-21T10:42:31Z</time>
      </trkpt>
      <trkpt lat="43.95501" lon="5.08987">
        <ele>195.9</ele>
        <time>2016-02-21T10:42:36Z</time>
      </trkpt>
      <trkpt lat="43.9549" lon="5.08989">
        <ele>195.3</ele>
        <time>2016-02-21T10:42:43Z</time>
      </trkpt>
      <trkpt lat="43.95481" lon="5.08988">
        <ele>194.8</ele>
        <time>2016-02-21T10:42:51Z</time>
      </trkpt>
      <trkpt lat="43.95472" lon="5.08991">
        <ele>194.4</ele>
        <time>2016-02-21T10:42:58Z</time>
      </trkpt>
      <trkpt lat="43.95462" lon="5.08991">
        <ele>193.9</ele>
        <time>2016-02-21T10:43:05Z</time>
      </trkpt>
      <trkpt lat="43.95452" lon="5.08992">
        <ele>193.5</ele>
        <time>2016-02-21T10:43:11Z</time>
      </trkpt>
      <trkpt lat="43.95442" lon="5.08992">
        <ele>193</ele>
        <time>2016-02-21T10:43:20Z</time>
      </trkpt>
      <trkpt lat="43.95432" lon="5.08993">
        <ele>192.7</ele>
        <time>2016-02-21T10:43:26Z</time>
      </trkpt>
      <trkpt lat="43.95424" lon="5.08988">
        <ele>192.5</ele>
        <time>2016-02-21T10:43:32Z</time>
      </trkpt>
      <trkpt lat="43.95418" lon="5.08978">
        <ele>192.3</ele>
        <time>2016-02-21T10:43:40Z</time>
      </trkpt>
      <trkpt lat="43.95408" lon="5.08975">
        <ele>192.2</ele>
        <time>2016-02-21T10:43:46Z</time>
      </trkpt>
      <trkpt lat="43.95398" lon="5.08974">
        <ele>191.9</ele>
        <time>2016-02-21T10:43:53Z</time>
      </trkpt>
      <trkpt lat="43.95389" lon="5.08975">
        <ele>191.6</ele>
        <time>2016-02-21T10:44:00Z</time>
      </trkpt>
      <trkpt lat="43.9538" lon="5.08977">
        <ele>191.4</ele>
        <time>2016-02-21T10:44:06Z</time>
      </trkpt>
      <trkpt lat="43.9537" lon="5.08982">
        <ele>191.1</ele>
        <time>2016-02-21T10:44:11Z</time>
      </trkpt>
      <trkpt lat="43.9536" lon="5.08983">
        <ele>190.8</ele>
        <time>2016-02-21T10:44:17Z</time>
      </trkpt>
      <trkpt lat="43.9535" lon="5.08986">
        <ele>190.5</ele>
        <time>2016-02-21T10:44:24Z</time>
      </trkpt>
      <trkpt lat="43.95339" lon="5.08987">
        <ele>190.3</ele>
        <time>2016-02-21T10:44:32Z</time>
      </trkpt>
      <trkpt lat="43.9533" lon="5.08987">
        <ele>190.1</ele>
        <time>2016-02-21T10:44:38Z</time>
      </trkpt>
      <trkpt lat="43.9532" lon="5.08986">
        <ele>189.7</ele>
        <time>2016-02-21T10:44:44Z</time>
      </trkpt>
      <trkpt lat="43.95311" lon="5.08984">
        <ele>189.3</ele>
        <time>2016-02-21T10:44:52Z</time>
      </trkpt>
      <trkpt lat="43.95303" lon="5.0899">
        <ele>188.9</ele>
        <time>2016-02-21T10:45:03Z</time>
      </trkpt>
      <trkpt lat="43.95293" lon="5.08992">
        <ele>188.7</ele>
        <time>2016-02-21T10:45:08Z</time>
      </trkpt>
      <trkpt lat="43.95283" lon="5.08994">
        <ele>188.4</ele>
        <time>2016-02-21T10:45:11Z</time>
      </trkpt>
      <trkpt lat="43.95273" lon="5.08994">
        <ele>188.1</ele>
        <time>2016-02-21T10:45:14Z</time>
      </trkpt>
      <trkpt lat="43.95262" lon="5.08995">
        <ele>187.6</ele>
        <time>2016-02-21T10:45:18Z</time>
      </trkpt>
      <trkpt lat="43.95254" lon="5.08989">
        <ele>186.7</ele>
        <time>2016-02-21T10:45:28Z</time>
      </trkpt>
      <trkpt lat="43.95245" lon="5.08989">
        <ele>186.5</ele>
        <time>2016-02-21T10:45:32Z</time>
      </trkpt>
      <trkpt lat="43.95237" lon="5.08993">
        <ele>186</ele>
        <time>2016-02-21T10:45:44Z</time>
      </trkpt>
      <trkpt lat="43.95228" lon="5.08998">
        <ele>185.7</ele>
        <time>2016-02-21T10:45:57Z</time>
      </trkpt>
      <trkpt lat="43.95217" lon="5.08998">
        <ele>185.5</ele>
        <time>2016-02-21T10:46:02Z</time>
      </trkpt>
      <trkpt lat="43.95208" lon="5.08999">
        <ele>185.1</ele>
        <time>2016-02-21T10:46:10Z</time>
      </trkpt>
      <trkpt lat="43.95198" lon="5.08995">
        <ele>184.9</ele>
        <time>2016-02-21T10:46:17Z</time>
      </trkpt>
      <trkpt lat="43.95189" lon="5.08992">
        <ele>184.7</ele>
        <time>2016-02-21T10:46:24Z</time>
      </trkpt>
      <trkpt lat="43.95182" lon="5.0898">
        <ele>184.6</ele>
        <time>2016-02-21T10:46:29Z</time>
      </trkpt>
      <trkpt lat="43.95176" lon="5.0897">
        <ele>184.5</ele>
        <time>2016-02-21T10:46:33Z</time>
      </trkpt>
      <trkpt lat="43.95168" lon="5.08965">
        <ele>184.5</ele>
        <time>2016-02-21T10:46:37Z</time>
      </trkpt>
      <trkpt lat="43.95156" lon="5.08964">
        <ele>184.4</ele>
        <time>2016-02-21T10:46:41Z</time>
      </trkpt>
      <trkpt lat="43.95145" lon="5.08961">
        <ele>184.3</ele>
        <time>2016-02-21T10:46:46Z</time>
      </trkpt>
      <trkpt lat="43.95135" lon="5.08959">
        <ele>184.2</ele>
        <time>2016-02-21T10:46:49Z</time>
      </trkpt>
      <trkpt lat="43.95126" lon="5.08958">
        <ele>184.2</ele>
        <time>2016-02-21T10:46:52Z</time>
      </trkpt>
      <trkpt lat="43.95118" lon="5.08948">
        <ele>184.2</ele>
        <time>2016-02-21T10:47:00Z</time>
      </trkpt>
      <trkpt lat="43.95109" lon="5.0895">
        <ele>183.9</ele>
        <time>2016-02-21T10:47:10Z</time>
      </trkpt>
      <trkpt lat="43.95098" lon="5.0895">
        <ele>183.5</ele>
        <time>2016-02-21T10:47:19Z</time>
      </trkpt>
      <trkpt lat="43.95088" lon="5.08957">
        <ele>183.4</ele>
        <time>2016-02-21T10:47:23Z</time>
      </trkpt>
      <trkpt lat="43.9508" lon="5.08963">
        <ele>183.3</ele>
        <time>2016-02-21T10:47:26Z</time>
      </trkpt>
      <trkpt lat="43.95071" lon="5.08969">
        <ele>183.1</ele>
        <time>2016-02-21T10:47:31Z</time>
      </trkpt>
      <trkpt lat="43.95062" lon="5.0897">
        <ele>182.5</ele>
        <time>2016-02-21T10:47:38Z</time>
      </trkpt>
      <trkpt lat="43.95053" lon="5.08972">
        <ele>181.9</ele>
        <time>2016-02-21T10:47:46Z</time>
      </trkpt>
      <trkpt lat="43.95042" lon="5.0897">
        <ele>181.2</ele>
        <time>2016-02-21T10:47:56Z</time>
      </trkpt>
      <trkpt lat="43.95033" lon="5.0897">
        <ele>180.8</ele>
        <time>2016-02-21T10:48:00Z</time>
      </trkpt>
      <trkpt lat="43.95023" lon="5.08965">
        <ele>180.1</ele>
        <time>2016-02-21T10:48:08Z</time>
      </trkpt>
      <trkpt lat="43.95013" lon="5.08966">
        <ele>179.5</ele>
        <time>2016-02-21T10:48:16Z</time>
      </trkpt>
      <trkpt lat="43.95004" lon="5.08964">
        <ele>178.8</ele>
        <time>2016-02-21T10:48:26Z</time>
      </trkpt>
      <trkpt lat="43.94994" lon="5.08961">
        <ele>178.5</ele>
        <time>2016-02-21T10:48:34Z</time>
      </trkpt>
      <trkpt lat="43.94985" lon="5.08965">
        <ele>178.2</ele>
        <time>2016-02-21T10:48:44Z</time>
      </trkpt>
      <trkpt lat="43.94963" lon="5.08981">
        <ele>177</ele>
        <time>2016-02-21T10:48:50Z</time>
      </trkpt>
      <trkpt lat="43.94957" lon="5.08992">
        <ele>177.7</ele>
        <time>2016-02-21T10:48:56Z</time>
      </trkpt>
      <trkpt lat="43.94965" lon="5.08982">
        <ele>176.9</ele>
        <time>2016-02-21T10:49:13Z</time>
      </trkpt>
      <trkpt lat="43.94967" lon="5.0897">
        <ele>176.7</ele>
        <time>2016-02-21T10:49:19Z</time>
      </trkpt>
      <trkpt lat="43.94974" lon="5.08958">
        <ele>176.7</ele>
        <time>2016-02-21T10:49:23Z</time>
      </trkpt>
      <trkpt lat="43.94973" lon="5.08971">
        <ele>174.1</ele>
        <time>2016-02-21T10:49:53Z</time>
      </trkpt>
      <trkpt lat="43.94983" lon="5.08965">
        <ele>173.5</ele>
        <time>2016-02-21T10:50:00Z</time>
      </trkpt>
      <trkpt lat="43.94974" lon="5.08973">
        <ele>168.4</ele>
        <time>2016-02-21T10:50:44Z</time>
      </trkpt>
      <trkpt lat="43.94966" lon="5.08978">
        <ele>167.6</ele>
        <time>2016-02-21T10:50:50Z</time>
      </trkpt>
      <trkpt lat="43.94958" lon="5.08984">
        <ele>167.1</ele>
        <time>2016-02-21T10:50:54Z</time>
      </trkpt>
      <trkpt lat="43.9495" lon="5.08992">
        <ele>166.8</ele>
        <time>2016-02-21T10:50:58Z</time>
      </trkpt>
      <trkpt lat="43.94939" lon="5.09">
        <ele>166.4</ele>
        <time>2016-02-21T10:51:02Z</time>
      </trkpt>
      <trkpt lat="43.9493" lon="5.09005">
        <ele>166.1</ele>
        <time>2016-02-21T10:51:05Z</time>
      </trkpt>
      <trkpt lat="43.94921" lon="5.09013">
        <ele>165.9</ele>
        <time>2016-02-21T10:51:08Z</time>
      </trkpt>
      <trkpt lat="43.94913" lon="5.09019">
        <ele>165.7</ele>
        <time>2016-02-21T10:51:10Z</time>
      </trkpt>
      <trkpt lat="43.94905" lon="5.09026">
        <ele>165.5</ele>
        <time>2016-02-21T10:51:12Z</time>
      </trkpt>
      <trkpt lat="43.94896" lon="5.09031">
        <ele>165.3</ele>
        <time>2016-02-21T10:51:15Z</time>
      </trkpt>
      <trkpt lat="43.94887" lon="5.0904">
        <ele>165</ele>
        <time>2016-02-21T10:51:18Z</time>
      </trkpt>
      <trkpt lat="43.94876" lon="5.0905">
        <ele>164.8</ele>
        <time>2016-02-21T10:51:21Z</time>
      </trkpt>
      <trkpt lat="43.94867" lon="5.09059">
        <ele>164.7</ele>
        <time>2016-02-21T10:51:24Z</time>
      </trkpt>
      <trkpt lat="43.94858" lon="5.09066">
        <ele>164.5</ele>
        <time>2016-02-21T10:51:26Z</time>
      </trkpt>
      <trkpt lat="43.9485" lon="5.09076">
        <ele>164.5</ele>
        <time>2016-02-21T10:51:28Z</time>
      </trkpt>
      <trkpt lat="43.94835" lon="5.09095">
        <ele>164.4</ele>
        <time>2016-02-21T10:51:30Z</time>
      </trkpt>
      <trkpt lat="43.94814" lon="5.09128">
        <ele>164</ele>
        <time>2016-02-21T10:51:35Z</time>
      </trkpt>
      <trkpt lat="43.94814" lon="5.09145">
        <ele>164</ele>
        <time>2016-02-21T10:51:41Z</time>
      </trkpt>
      <trkpt lat="43.94818" lon="5.09162">
        <ele>164</ele>
        <time>2016-02-21T10:51:45Z</time>
      </trkpt>
      <trkpt lat="43.94811" lon="5.09171">
        <ele>164.3</ele>
        <time>2016-02-21T10:51:48Z</time>
      </trkpt>
      <trkpt lat="43.9482" lon="5.09172">
        <ele>165.2</ele>
        <time>2016-02-21T10:51:56Z</time>
      </trkpt>
      <trkpt lat="43.94828" lon="5.09178">
        <ele>165.7</ele>
        <time>2016-02-21T10:51:59Z</time>
      </trkpt>
      <trkpt lat="43.94836" lon="5.0917">
        <ele>168</ele>
        <time>2016-02-21T10:52:12Z</time>
      </trkpt>
      <trkpt lat="43.94841" lon="5.09182">
        <ele>169.3</ele>
        <time>2016-02-21T10:52:19Z</time>
      </trkpt>
      <trkpt lat="43.94844" lon="5.09194">
        <ele>170.3</ele>
        <time>2016-02-21T10:52:26Z</time>
      </trkpt>
      <trkpt lat="43.94854" lon="5.09195">
        <ele>171.1</ele>
        <time>2016-02-21T10:52:34Z</time>
      </trkpt>
      <trkpt lat="43.94864" lon="5.092">
        <ele>171.6</ele>
        <time>2016-02-21T10:52:42Z</time>
      </trkpt>
      <trkpt lat="43.94874" lon="5.09199">
        <ele>171.7</ele>
        <time>2016-02-21T10:52:45Z</time>
      </trkpt>
      <trkpt lat="43.94886" lon="5.09191">
        <ele>171.9</ele>
        <time>2016-02-21T10:52:50Z</time>
      </trkpt>
      <trkpt lat="43.94895" lon="5.09188">
        <ele>172.2</ele>
        <time>2016-02-21T10:52:56Z</time>
      </trkpt>
      <trkpt lat="43.94906" lon="5.09183">
        <ele>172.3</ele>
        <time>2016-02-21T10:53:01Z</time>
      </trkpt>
      <trkpt lat="43.94916" lon="5.09183">
        <ele>172.3</ele>
        <time>2016-02-21T10:53:04Z</time>
      </trkpt>
      <trkpt lat="43.94924" lon="5.09179">
        <ele>172.4</ele>
        <time>2016-02-21T10:53:11Z</time>
      </trkpt>
      <trkpt lat="43.94933" lon="5.09174">
        <ele>172.4</ele>
        <time>2016-02-21T10:53:19Z</time>
      </trkpt>
      <trkpt lat="43.94942" lon="5.09168">
        <ele>172.4</ele>
        <time>2016-02-21T10:53:24Z</time>
      </trkpt>
      <trkpt lat="43.94952" lon="5.09165">
        <ele>172.4</ele>
        <time>2016-02-21T10:53:30Z</time>
      </trkpt>
      <trkpt lat="43.94962" lon="5.09163">
        <ele>172.4</ele>
        <time>2016-02-21T10:53:36Z</time>
      </trkpt>
      <trkpt lat="43.94971" lon="5.09158">
        <ele>172.5</ele>
        <time>2016-02-21T10:53:41Z</time>
      </trkpt>
      <trkpt lat="43.9498" lon="5.09155">
        <ele>172.5</ele>
        <time>2016-02-21T10:53:44Z</time>
      </trkpt>
      <trkpt lat="43.94989" lon="5.09154">
        <ele>172.4</ele>
        <time>2016-02-21T10:53:51Z</time>
      </trkpt>
      <trkpt lat="43.94998" lon="5.09149">
        <ele>172.4</ele>
        <time>2016-02-21T10:53:55Z</time>
      </trkpt>
      <trkpt lat="43.95008" lon="5.09145">
        <ele>172.4</ele>
        <time>2016-02-21T10:53:59Z</time>
      </trkpt>
      <trkpt lat="43.95014" lon="5.09135">
        <ele>172.5</ele>
        <time>2016-02-21T10:54:08Z</time>
      </trkpt>
      <trkpt lat="43.95024" lon="5.09139">
        <ele>172.6</ele>
        <time>2016-02-21T10:54:13Z</time>
      </trkpt>
      <trkpt lat="43.95035" lon="5.09142">
        <ele>172.8</ele>
        <time>2016-02-21T10:54:18Z</time>
      </trkpt>
      <trkpt lat="43.95033" lon="5.09156">
        <ele>173.3</ele>
        <time>2016-02-21T10:54:26Z</time>
      </trkpt>
      <trkpt lat="43.95032" lon="5.0917">
        <ele>173.8</ele>
        <time>2016-02-21T10:54:39Z</time>
      </trkpt>
      <trkpt lat="43.95028" lon="5.09181">
        <ele>174</ele>
        <time>2016-02-21T10:54:42Z</time>
      </trkpt>
      <trkpt lat="43.95023" lon="5.09194">
        <ele>174.3</ele>
        <time>2016-02-21T10:54:45Z</time>
      </trkpt>
      <trkpt lat="43.95017" lon="5.09203">
        <ele>174.7</ele>
        <time>2016-02-21T10:54:50Z</time>
      </trkpt>
      <trkpt lat="43.95019" lon="5.09217">
        <ele>175.5</ele>
        <time>2016-02-21T10:54:59Z</time>
      </trkpt>
      <trkpt lat="43.95016" lon="5.09232">
        <ele>175.8</ele>
        <time>2016-02-21T10:55:02Z</time>
      </trkpt>
      <trkpt lat="43.95013" lon="5.09247">
        <ele>176.2</ele>
        <time>2016-02-21T10:55:05Z</time>
      </trkpt>
      <trkpt lat="43.95022" lon="5.0925">
        <ele>176.8</ele>
        <time>2016-02-21T10:55:09Z</time>
      </trkpt>
      <trkpt lat="43.9503" lon="5.09243">
        <ele>177.1</ele>
        <time>2016-02-21T10:55:11Z</time>
      </trkpt>
      <trkpt lat="43.95039" lon="5.09233">
        <ele>177.4</ele>
        <time>2016-02-21T10:55:14Z</time>
      </trkpt>
      <trkpt lat="43.95048" lon="5.09227">
        <ele>178</ele>
        <time>2016-02-21T10:55:19Z</time>
      </trkpt>
      <trkpt lat="43.95057" lon="5.09227">
        <ele>178.6</ele>
        <time>2016-02-21T10:55:26Z</time>
      </trkpt>
      <trkpt lat="43.95067" lon="5.09234">
        <ele>179</ele>
        <time>2016-02-21T10:55:31Z</time>
      </trkpt>
      <trkpt lat="43.95076" lon="5.09235">
        <ele>179.6</ele>
        <time>2016-02-21T10:55:39Z</time>
      </trkpt>
      <trkpt lat="43.95085" lon="5.09243">
        <ele>179.7</ele>
        <time>2016-02-21T10:55:44Z</time>
      </trkpt>
      <trkpt lat="43.95093" lon="5.09249">
        <ele>179.8</ele>
        <time>2016-02-21T10:55:48Z</time>
      </trkpt>
      <trkpt lat="43.95104" lon="5.09254">
        <ele>180</ele>
        <time>2016-02-21T10:55:52Z</time>
      </trkpt>
      <trkpt lat="43.95104" lon="5.09267">
        <ele>180.2</ele>
        <time>2016-02-21T10:56:00Z</time>
      </trkpt>
      <trkpt lat="43.95098" lon="5.09279">
        <ele>180.5</ele>
        <time>2016-02-21T10:56:04Z</time>
      </trkpt>
      <trkpt lat="43.95093" lon="5.0929">
        <ele>180.8</ele>
        <time>2016-02-21T10:56:07Z</time>
      </trkpt>
      <trkpt lat="43.95099" lon="5.093">
        <ele>182.3</ele>
        <time>2016-02-21T10:56:18Z</time>
      </trkpt>
      <trkpt lat="43.95118" lon="5.09295">
        <ele>182.8</ele>
        <time>2016-02-21T10:56:23Z</time>
      </trkpt>
      <trkpt lat="43.95114" lon="5.0931">
        <ele>183.1</ele>
        <time>2016-02-21T10:56:27Z</time>
      </trkpt>
      <trkpt lat="43.95118" lon="5.09323">
        <ele>183.7</ele>
        <time>2016-02-21T10:56:37Z</time>
      </trkpt>
      <trkpt lat="43.95115" lon="5.09339">
        <ele>183.9</ele>
        <time>2016-02-21T10:56:41Z</time>
      </trkpt>
      <trkpt lat="43.95122" lon="5.0935">
        <ele>184.2</ele>
        <time>2016-02-21T10:56:47Z</time>
      </trkpt>
      <trkpt lat="43.95131" lon="5.09343">
        <ele>184.4</ele>
        <time>2016-02-21T10:56:49Z</time>
      </trkpt>
      <trkpt lat="43.95141" lon="5.09347">
        <ele>184.9</ele>
        <time>2016-02-21T10:56:54Z</time>
      </trkpt>
      <trkpt lat="43.95154" lon="5.09349">
        <ele>185</ele>
        <time>2016-02-21T10:56:56Z</time>
      </trkpt>
      <trkpt lat="43.95168" lon="5.09348">
        <ele>185.2</ele>
        <time>2016-02-21T10:56:58Z</time>
      </trkpt>
      <trkpt lat="43.95179" lon="5.09351">
        <ele>185.3</ele>
        <time>2016-02-21T10:57:01Z</time>
      </trkpt>
      <trkpt lat="43.95185" lon="5.0936">
        <ele>185.5</ele>
        <time>2016-02-21T10:57:05Z</time>
      </trkpt>
      <trkpt lat="43.95177" lon="5.09365">
        <ele>185.9</ele>
        <time>2016-02-21T10:57:13Z</time>
      </trkpt>
      <trkpt lat="43.95168" lon="5.0937">
        <ele>186.8</ele>
        <time>2016-02-21T10:57:20Z</time>
      </trkpt>
      <trkpt lat="43.95164" lon="5.09384">
        <ele>187.3</ele>
        <time>2016-02-21T10:57:23Z</time>
      </trkpt>
      <trkpt lat="43.95159" lon="5.09395">
        <ele>187.9</ele>
        <time>2016-02-21T10:57:26Z</time>
      </trkpt>
      <trkpt lat="43.95157" lon="5.09408">
        <ele>188.9</ele>
        <time>2016-02-21T10:57:30Z</time>
      </trkpt>
      <trkpt lat="43.95161" lon="5.0942">
        <ele>191.3</ele>
        <time>2016-02-21T10:57:39Z</time>
      </trkpt>
      <trkpt lat="43.9517" lon="5.09421">
        <ele>193.4</ele>
        <time>2016-02-21T10:57:49Z</time>
      </trkpt>
      <trkpt lat="43.95177" lon="5.09432">
        <ele>194.9</ele>
        <time>2016-02-21T10:58:01Z</time>
      </trkpt>
      <trkpt lat="43.95186" lon="5.09435">
        <ele>195.3</ele>
        <time>2016-02-21T10:58:05Z</time>
      </trkpt>
      <trkpt lat="43.95195" lon="5.09442">
        <ele>195.6</ele>
        <time>2016-02-21T10:58:14Z</time>
      </trkpt>
      <trkpt lat="43.95202" lon="5.0945">
        <ele>195.5</ele>
        <time>2016-02-21T10:58:22Z</time>
      </trkpt>
      <trkpt lat="43.9521" lon="5.09461">
        <ele>196.1</ele>
        <time>2016-02-21T10:58:29Z</time>
      </trkpt>
      <trkpt lat="43.95217" lon="5.09469">
        <ele>196.6</ele>
        <time>2016-02-21T10:58:33Z</time>
      </trkpt>
      <trkpt lat="43.95225" lon="5.09478">
        <ele>197.4</ele>
        <time>2016-02-21T10:58:39Z</time>
      </trkpt>
      <trkpt lat="43.95234" lon="5.09484">
        <ele>198.7</ele>
        <time>2016-02-21T10:58:50Z</time>
      </trkpt>
      <trkpt lat="43.95242" lon="5.09491">
        <ele>199.2</ele>
        <time>2016-02-21T10:58:56Z</time>
      </trkpt>
      <trkpt lat="43.95249" lon="5.095">
        <ele>199.5</ele>
        <time>2016-02-21T10:59:00Z</time>
      </trkpt>
      <trkpt lat="43.95256" lon="5.09508">
        <ele>199.8</ele>
        <time>2016-02-21T10:59:04Z</time>
      </trkpt>
      <trkpt lat="43.95254" lon="5.09522">
        <ele>200.3</ele>
        <time>2016-02-21T10:59:11Z</time>
      </trkpt>
      <trkpt lat="43.95252" lon="5.09535">
        <ele>201.6</ele>
        <time>2016-02-21T10:59:19Z</time>
      </trkpt>
      <trkpt lat="43.95248" lon="5.09549">
        <ele>202.6</ele>
        <time>2016-02-21T10:59:24Z</time>
      </trkpt>
      <trkpt lat="43.95247" lon="5.09562">
        <ele>203.3</ele>
        <time>2016-02-21T10:59:28Z</time>
      </trkpt>
      <trkpt lat="43.95244" lon="5.09574">
        <ele>203.7</ele>
        <time>2016-02-21T10:59:31Z</time>
      </trkpt>
      <trkpt lat="43.95253" lon="5.09578">
        <ele>205.3</ele>
        <time>2016-02-21T10:59:37Z</time>
      </trkpt>
      <trkpt lat="43.9526" lon="5.09587">
        <ele>206.9</ele>
        <time>2016-02-21T10:59:43Z</time>
      </trkpt>
      <trkpt lat="43.9527" lon="5.09594">
        <ele>208.3</ele>
        <time>2016-02-21T10:59:50Z</time>
      </trkpt>
      <trkpt lat="43.95278" lon="5.096">
        <ele>209.1</ele>
        <time>2016-02-21T10:59:56Z</time>
      </trkpt>
      <trkpt lat="43.95278" lon="5.09614">
        <ele>209.8</ele>
        <time>2016-02-21T11:00:05Z</time>
      </trkpt>
      <trkpt lat="43.9528" lon="5.09627">
        <ele>209.9</ele>
        <time>2016-02-21T11:00:08Z</time>
      </trkpt>
      <trkpt lat="43.95288" lon="5.09639">
        <ele>210.1</ele>
        <time>2016-02-21T11:00:11Z</time>
      </trkpt>
      <trkpt lat="43.9529" lon="5.09653">
        <ele>210.5</ele>
        <time>2016-02-21T11:00:17Z</time>
      </trkpt>
      <trkpt lat="43.95289" lon="5.09666">
        <ele>212.3</ele>
        <time>2016-02-21T11:00:29Z</time>
      </trkpt>
      <trkpt lat="43.95293" lon="5.09678">
        <ele>213.3</ele>
        <time>2016-02-21T11:00:36Z</time>
      </trkpt>
      <trkpt lat="43.95295" lon="5.09694">
        <ele>214.5</ele>
        <time>2016-02-21T11:00:41Z</time>
      </trkpt>
      <trkpt lat="43.95301" lon="5.09705">
        <ele>215.3</ele>
        <time>2016-02-21T11:00:45Z</time>
      </trkpt>
      <trkpt lat="43.95307" lon="5.09717">
        <ele>216</ele>
        <time>2016-02-21T11:00:49Z</time>
      </trkpt>
      <trkpt lat="43.9531" lon="5.09729">
        <ele>217.6</ele>
        <time>2016-02-21T11:01:15Z</time>
      </trkpt>
      <trkpt lat="43.95311" lon="5.09744">
        <ele>217.7</ele>
        <time>2016-02-21T11:01:26Z</time>
      </trkpt>
      <trkpt lat="43.95315" lon="5.09756">
        <ele>218.2</ele>
        <time>2016-02-21T11:01:38Z</time>
      </trkpt>
      <trkpt lat="43.95323" lon="5.09763">
        <ele>219</ele>
        <time>2016-02-21T11:01:44Z</time>
      </trkpt>
      <trkpt lat="43.95318" lon="5.09774">
        <ele>219.7</ele>
        <time>2016-02-21T11:01:54Z</time>
      </trkpt>
      <trkpt lat="43.95317" lon="5.09787">
        <ele>220.6</ele>
        <time>2016-02-21T11:02:03Z</time>
      </trkpt>
      <trkpt lat="43.95323" lon="5.09797">
        <ele>221.3</ele>
        <time>2016-02-21T11:02:10Z</time>
      </trkpt>
      <trkpt lat="43.95328" lon="5.0981">
        <ele>222.4</ele>
        <time>2016-02-21T11:02:18Z</time>
      </trkpt>
      <trkpt lat="43.95336" lon="5.09818">
        <ele>223.3</ele>
        <time>2016-02-21T11:02:28Z</time>
      </trkpt>
      <trkpt lat="43.95345" lon="5.09821">
        <ele>224.8</ele>
        <time>2016-02-21T11:02:41Z</time>
      </trkpt>
      <trkpt lat="43.95355" lon="5.09827">
        <ele>226</ele>
        <time>2016-02-21T11:02:52Z</time>
      </trkpt>
      <trkpt lat="43.95362" lon="5.09835">
        <ele>227.4</ele>
        <time>2016-02-21T11:03:02Z</time>
      </trkpt>
      <trkpt lat="43.9537" lon="5.09842">
        <ele>228.4</ele>
        <time>2016-02-21T11:03:11Z</time>
      </trkpt>
      <trkpt lat="43.95379" lon="5.09846">
        <ele>229.2</ele>
        <time>2016-02-21T11:03:18Z</time>
      </trkpt>
      <trkpt lat="43.95388" lon="5.09849">
        <ele>230</ele>
        <time>2016-02-21T11:03:26Z</time>
      </trkpt>
      <trkpt lat="43.95397" lon="5.09852">
        <ele>230.5</ele>
        <time>2016-02-21T11:03:31Z</time>
      </trkpt>
      <trkpt lat="43.95407" lon="5.09857">
        <ele>231.3</ele>
        <time>2016-02-21T11:03:37Z</time>
      </trkpt>
      <trkpt lat="43.95411" lon="5.09869">
        <ele>235.6</ele>
        <time>2016-02-21T11:04:17Z</time>
      </trkpt>
      <trkpt lat="43.95413" lon="5.09883">
        <ele>236.5</ele>
        <time>2016-02-21T11:04:21Z</time>
      </trkpt>
      <trkpt lat="43.95414" lon="5.09897">
        <ele>237.4</ele>
        <time>2016-02-21T11:04:25Z</time>
      </trkpt>
      <trkpt lat="43.95419" lon="5.09909">
        <ele>239.2</ele>
        <time>2016-02-21T11:04:34Z</time>
      </trkpt>
      <trkpt lat="43.95428" lon="5.09915">
        <ele>240.6</ele>
        <time>2016-02-21T11:04:43Z</time>
      </trkpt>
      <trkpt lat="43.95437" lon="5.09914">
        <ele>242</ele>
        <time>2016-02-21T11:04:52Z</time>
      </trkpt>
      <trkpt lat="43.95446" lon="5.09912">
        <ele>243.2</ele>
        <time>2016-02-21T11:05:00Z</time>
      </trkpt>
      <trkpt lat="43.95457" lon="5.09916">
        <ele>244.4</ele>
        <time>2016-02-21T11:05:08Z</time>
      </trkpt>
      <trkpt lat="43.95468" lon="5.09924">
        <ele>244.7</ele>
        <time>2016-02-21T11:05:11Z</time>
      </trkpt>
      <trkpt lat="43.95474" lon="5.09934">
        <ele>245.5</ele>
        <time>2016-02-21T11:05:17Z</time>
      </trkpt>
      <trkpt lat="43.95473" lon="5.09947">
        <ele>247.6</ele>
        <time>2016-02-21T11:05:29Z</time>
      </trkpt>
      <trkpt lat="43.95464" lon="5.09952">
        <ele>249.1</ele>
        <time>2016-02-21T11:05:37Z</time>
      </trkpt>
      <trkpt lat="43.95456" lon="5.09957">
        <ele>251.1</ele>
        <time>2016-02-21T11:05:47Z</time>
      </trkpt>
      <trkpt lat="43.95449" lon="5.09965">
        <ele>252.9</ele>
        <time>2016-02-21T11:05:55Z</time>
      </trkpt>
      <trkpt lat="43.95445" lon="5.09978">
        <ele>254.6</ele>
        <time>2016-02-21T11:06:03Z</time>
      </trkpt>
      <trkpt lat="43.95441" lon="5.0999">
        <ele>256.7</ele>
        <time>2016-02-21T11:06:13Z</time>
      </trkpt>
      <trkpt lat="43.95437" lon="5.10002">
        <ele>258</ele>
        <time>2016-02-21T11:06:20Z</time>
      </trkpt>
      <trkpt lat="43.95429" lon="5.1001">
        <ele>258.8</ele>
        <time>2016-02-21T11:06:25Z</time>
      </trkpt>
      <trkpt lat="43.95422" lon="5.10019">
        <ele>260.5</ele>
        <time>2016-02-21T11:06:36Z</time>
      </trkpt>
      <trkpt lat="43.95418" lon="5.1003">
        <ele>262.1</ele>
        <time>2016-02-21T11:06:46Z</time>
      </trkpt>
      <trkpt lat="43.95411" lon="5.10039">
        <ele>263</ele>
        <time>2016-02-21T11:06:51Z</time>
      </trkpt>
      <trkpt lat="43.95406" lon="5.10052">
        <ele>264.2</ele>
        <time>2016-02-21T11:06:57Z</time>
      </trkpt>
      <trkpt lat="43.95401" lon="5.10067">
        <ele>265.1</ele>
        <time>2016-02-21T11:07:01Z</time>
      </trkpt>
      <trkpt lat="43.95401" lon="5.10081">
        <ele>266.3</ele>
        <time>2016-02-21T11:07:06Z</time>
      </trkpt>
      <trkpt lat="43.95407" lon="5.10091">
        <ele>268.6</ele>
        <time>2016-02-21T11:07:15Z</time>
      </trkpt>
      <trkpt lat="43.95409" lon="5.10103">
        <ele>270.7</ele>
        <time>2016-02-21T11:07:24Z</time>
      </trkpt>
      <trkpt lat="43.95414" lon="5.10116">
        <ele>272.3</ele>
        <time>2016-02-21T11:07:31Z</time>
      </trkpt>
      <trkpt lat="43.95419" lon="5.10127">
        <ele>274.4</ele>
        <time>2016-02-21T11:07:39Z</time>
      </trkpt>
      <trkpt lat="43.95428" lon="5.10132">
        <ele>276.4</ele>
        <time>2016-02-21T11:07:48Z</time>
      </trkpt>
      <trkpt lat="43.95436" lon="5.10137">
        <ele>278.2</ele>
        <time>2016-02-21T11:07:56Z</time>
      </trkpt>
      <trkpt lat="43.95444" lon="5.10146">
        <ele>279.6</ele>
        <time>2016-02-21T11:08:03Z</time>
      </trkpt>
      <trkpt lat="43.95452" lon="5.10155">
        <ele>280.6</ele>
        <time>2016-02-21T11:08:08Z</time>
      </trkpt>
      <trkpt lat="43.95456" lon="5.10169">
        <ele>281.7</ele>
        <time>2016-02-21T11:08:14Z</time>
      </trkpt>
      <trkpt lat="43.95462" lon="5.1018">
        <ele>283.2</ele>
        <time>2016-02-21T11:08:22Z</time>
      </trkpt>
      <trkpt lat="43.95461" lon="5.10193">
        <ele>285.1</ele>
        <time>2016-02-21T11:08:34Z</time>
      </trkpt>
      <trkpt lat="43.95452" lon="5.102">
        <ele>286.5</ele>
        <time>2016-02-21T11:08:58Z</time>
      </trkpt>
      <trkpt lat="43.95445" lon="5.10188">
        <ele>286.6</ele>
        <time>2016-02-21T11:09:16Z</time>
      </trkpt>
      <trkpt lat="43.95437" lon="5.10192">
        <ele>286.4</ele>
        <time>2016-02-21T11:09:25Z</time>
      </trkpt>
      <trkpt lat="43.95428" lon="5.10198">
        <ele>286.2</ele>
        <time>2016-02-21T11:09:34Z</time>
      </trkpt>
      <trkpt lat="43.95419" lon="5.102">
        <ele>285.9</ele>
        <time>2016-02-21T11:09:42Z</time>
      </trkpt>
      <trkpt lat="43.95409" lon="5.10196">
        <ele>285.8</ele>
        <time>2016-02-21T11:09:48Z</time>
      </trkpt>
      <trkpt lat="43.95404" lon="5.10185">
        <ele>285.5</ele>
        <time>2016-02-21T11:09:55Z</time>
      </trkpt>
      <trkpt lat="43.95396" lon="5.10178">
        <ele>285.3</ele>
        <time>2016-02-21T11:10:02Z</time>
      </trkpt>
      <trkpt lat="43.95393" lon="5.10166">
        <ele>284.9</ele>
        <time>2016-02-21T11:10:12Z</time>
      </trkpt>
      <trkpt lat="43.95388" lon="5.10151">
        <ele>284.6</ele>
        <time>2016-02-21T11:10:21Z</time>
      </trkpt>
      <trkpt lat="43.95385" lon="5.10139">
        <ele>284.2</ele>
        <time>2016-02-21T11:10:27Z</time>
      </trkpt>
      <trkpt lat="43.95378" lon="5.10129">
        <ele>283.7</ele>
        <time>2016-02-21T11:10:35Z</time>
      </trkpt>
      <trkpt lat="43.9537" lon="5.10122">
        <ele>282.8</ele>
        <time>2016-02-21T11:10:47Z</time>
      </trkpt>
      <trkpt lat="43.9536" lon="5.10117">
        <ele>281.9</ele>
        <time>2016-02-21T11:10:57Z</time>
      </trkpt>
      <trkpt lat="43.95353" lon="5.10104">
        <ele>281.2</ele>
        <time>2016-02-21T11:11:04Z</time>
      </trkpt>
      <trkpt lat="43.95347" lon="5.10094">
        <ele>280.9</ele>
        <time>2016-02-21T11:11:08Z</time>
      </trkpt>
      <trkpt lat="43.95341" lon="5.10084">
        <ele>280.4</ele>
        <time>2016-02-21T11:11:14Z</time>
      </trkpt>
      <trkpt lat="43.95335" lon="5.10074">
        <ele>280.1</ele>
        <time>2016-02-21T11:11:21Z</time>
      </trkpt>
      <trkpt lat="43.95328" lon="5.10064">
        <ele>279.8</ele>
        <time>2016-02-21T11:11:28Z</time>
      </trkpt>
      <trkpt lat="43.9532" lon="5.10057">
        <ele>279.5</ele>
        <time>2016-02-21T11:11:35Z</time>
      </trkpt>
      <trkpt lat="43.95311" lon="5.10056">
        <ele>279.3</ele>
        <time>2016-02-21T11:11:41Z</time>
      </trkpt>
      <trkpt lat="43.95301" lon="5.10051">
        <ele>278.8</ele>
        <time>2016-02-21T11:11:48Z</time>
      </trkpt>
      <trkpt lat="43.9529" lon="5.10052">
        <ele>278.4</ele>
        <time>2016-02-21T11:11:55Z</time>
      </trkpt>
      <trkpt lat="43.9528" lon="5.10049">
        <ele>278.1</ele>
        <time>2016-02-21T11:12:02Z</time>
      </trkpt>
      <trkpt lat="43.95271" lon="5.10048">
        <ele>277.9</ele>
        <time>2016-02-21T11:12:08Z</time>
      </trkpt>
      <trkpt lat="43.95261" lon="5.10047">
        <ele>277.4</ele>
        <time>2016-02-21T11:12:16Z</time>
      </trkpt>
      <trkpt lat="43.95252" lon="5.10049">
        <ele>277.2</ele>
        <time>2016-02-21T11:12:23Z</time>
      </trkpt>
      <trkpt lat="43.95243" lon="5.10055">
        <ele>277.1</ele>
        <time>2016-02-21T11:12:29Z</time>
      </trkpt>
      <trkpt lat="43.95234" lon="5.1005">
        <ele>277</ele>
        <time>2016-02-21T11:12:35Z</time>
      </trkpt>
      <trkpt lat="43.95226" lon="5.10044">
        <ele>277.5</ele>
        <time>2016-02-21T11:12:55Z</time>
      </trkpt>
      <trkpt lat="43.95218" lon="5.10052">
        <ele>278.2</ele>
        <time>2016-02-21T11:13:38Z</time>
      </trkpt>
      <trkpt lat="43.95208" lon="5.10052">
        <ele>278.4</ele>
        <time>2016-02-21T11:13:56Z</time>
      </trkpt>
      <trkpt lat="43.95187" lon="5.1006">
        <ele>278</ele>
        <time>2016-02-21T11:14:10Z</time>
      </trkpt>
      <trkpt lat="43.95176" lon="5.10062">
        <ele>278.6</ele>
        <time>2016-02-21T11:14:15Z</time>
      </trkpt>
      <trkpt lat="43.95169" lon="5.10051">
        <ele>277.2</ele>
        <time>2016-02-21T11:14:38Z</time>
      </trkpt>
      <trkpt lat="43.95162" lon="5.10042">
        <ele>276.6</ele>
        <time>2016-02-21T11:14:44Z</time>
      </trkpt>
      <trkpt lat="43.95155" lon="5.10031">
        <ele>276</ele>
        <time>2016-02-21T11:14:50Z</time>
      </trkpt>
      <trkpt lat="43.95146" lon="5.10026">
        <ele>275.3</ele>
        <time>2016-02-21T11:14:57Z</time>
      </trkpt>
      <trkpt lat="43.95138" lon="5.10018">
        <ele>274.6</ele>
        <time>2016-02-21T11:15:04Z</time>
      </trkpt>
      <trkpt lat="43.95129" lon="5.10012">
        <ele>273.5</ele>
        <time>2016-02-21T11:15:14Z</time>
      </trkpt>
      <trkpt lat="43.9512" lon="5.10019">
        <ele>272</ele>
        <time>2016-02-21T11:15:28Z</time>
      </trkpt>
      <trkpt lat="43.95112" lon="5.10029">
        <ele>271.4</ele>
        <time>2016-02-21T11:15:34Z</time>
      </trkpt>
      <trkpt lat="43.95098" lon="5.10037">
        <ele>270.1</ele>
        <time>2016-02-21T11:15:45Z</time>
      </trkpt>
      <trkpt lat="43.95086" lon="5.10045">
        <ele>269.7</ele>
        <time>2016-02-21T11:15:48Z</time>
      </trkpt>
      <trkpt lat="43.95077" lon="5.10046">
        <ele>268.7</ele>
        <time>2016-02-21T11:15:56Z</time>
      </trkpt>
      <trkpt lat="43.95068" lon="5.10051">
        <ele>268.1</ele>
        <time>2016-02-21T11:16:01Z</time>
      </trkpt>
      <trkpt lat="43.95059" lon="5.10055">
        <ele>267.6</ele>
        <time>2016-02-21T11:16:06Z</time>
      </trkpt>
      <trkpt lat="43.95049" lon="5.1006">
        <ele>267.2</ele>
        <time>2016-02-21T11:16:12Z</time>
      </trkpt>
      <trkpt lat="43.95039" lon="5.10059">
        <ele>266.6</ele>
        <time>2016-02-21T11:16:18Z</time>
      </trkpt>
      <trkpt lat="43.9503" lon="5.10059">
        <ele>266.1</ele>
        <time>2016-02-21T11:16:24Z</time>
      </trkpt>
      <trkpt lat="43.95021" lon="5.10055">
        <ele>265.5</ele>
        <time>2016-02-21T11:16:30Z</time>
      </trkpt>
      <trkpt lat="43.95012" lon="5.10058">
        <ele>265.1</ele>
        <time>2016-02-21T11:16:36Z</time>
      </trkpt>
      <trkpt lat="43.95002" lon="5.10057">
        <ele>264.7</ele>
        <time>2016-02-21T11:16:41Z</time>
      </trkpt>
      <trkpt lat="43.94993" lon="5.10057">
        <ele>264.3</ele>
        <time>2016-02-21T11:16:47Z</time>
      </trkpt>
      <trkpt lat="43.94985" lon="5.1005">
        <ele>263.8</ele>
        <time>2016-02-21T11:16:53Z</time>
      </trkpt>
      <trkpt lat="43.94976" lon="5.10048">
        <ele>263.5</ele>
        <time>2016-02-21T11:16:59Z</time>
      </trkpt>
      <trkpt lat="43.94968" lon="5.10056">
        <ele>263.1</ele>
        <time>2016-02-21T11:17:05Z</time>
      </trkpt>
      <trkpt lat="43.94954" lon="5.10053">
        <ele>261.7</ele>
        <time>2016-02-21T11:17:18Z</time>
      </trkpt>
      <trkpt lat="43.94944" lon="5.10052">
        <ele>260.1</ele>
        <time>2016-02-21T11:17:33Z</time>
      </trkpt>
      <trkpt lat="43.94935" lon="5.10063">
        <ele>260</ele>
        <time>2016-02-21T11:17:35Z</time>
      </trkpt>
      <trkpt lat="43.94929" lon="5.10075">
        <ele>259.8</ele>
        <time>2016-02-21T11:17:37Z</time>
      </trkpt>
      <trkpt lat="43.94918" lon="5.10079">
        <ele>259.5</ele>
        <time>2016-02-21T11:17:40Z</time>
      </trkpt>
      <trkpt lat="43.94909" lon="5.1008">
        <ele>258.5</ele>
        <time>2016-02-21T11:17:48Z</time>
      </trkpt>
      <trkpt lat="43.94899" lon="5.10084">
        <ele>257.7</ele>
        <time>2016-02-21T11:17:55Z</time>
      </trkpt>
      <trkpt lat="43.94891" lon="5.10091">
        <ele>256.6</ele>
        <time>2016-02-21T11:18:06Z</time>
      </trkpt>
      <trkpt lat="43.94884" lon="5.10099">
        <ele>256.3</ele>
        <time>2016-02-21T11:18:10Z</time>
      </trkpt>
      <trkpt lat="43.94877" lon="5.10106">
        <ele>255.9</ele>
        <time>2016-02-21T11:18:14Z</time>
      </trkpt>
      <trkpt lat="43.94867" lon="5.10111">
        <ele>255.5</ele>
        <time>2016-02-21T11:18:19Z</time>
      </trkpt>
      <trkpt lat="43.94861" lon="5.1012">
        <ele>255</ele>
        <time>2016-02-21T11:18:27Z</time>
      </trkpt>
      <trkpt lat="43.94852" lon="5.10127">
        <ele>254.8</ele>
        <time>2016-02-21T11:18:33Z</time>
      </trkpt>
      <trkpt lat="43.94844" lon="5.10133">
        <ele>254.5</ele>
        <time>2016-02-21T11:18:38Z</time>
      </trkpt>
      <trkpt lat="43.94835" lon="5.10135">
        <ele>254.2</ele>
        <time>2016-02-21T11:18:44Z</time>
      </trkpt>
      <trkpt lat="43.94825" lon="5.10145">
        <ele>254.1</ele>
        <time>2016-02-21T11:18:47Z</time>
      </trkpt>
      <trkpt lat="43.94815" lon="5.10149">
        <ele>253.8</ele>
        <time>2016-02-21T11:18:55Z</time>
      </trkpt>
      <trkpt lat="43.94805" lon="5.1015">
        <ele>253.6</ele>
        <time>2016-02-21T11:19:00Z</time>
      </trkpt>
      <trkpt lat="43.94797" lon="5.10155">
        <ele>253.4</ele>
        <time>2016-02-21T11:19:07Z</time>
      </trkpt>
      <trkpt lat="43.94788" lon="5.10156">
        <ele>253.2</ele>
        <time>2016-02-21T11:19:14Z</time>
      </trkpt>
      <trkpt lat="43.94779" lon="5.10156">
        <ele>253.1</ele>
        <time>2016-02-21T11:19:20Z</time>
      </trkpt>
      <trkpt lat="43.94768" lon="5.10158">
        <ele>252.9</ele>
        <time>2016-02-21T11:19:27Z</time>
      </trkpt>
      <trkpt lat="43.94758" lon="5.10157">
        <ele>252.8</ele>
        <time>2016-02-21T11:19:34Z</time>
      </trkpt>
      <trkpt lat="43.94749" lon="5.10159">
        <ele>252.6</ele>
        <time>2016-02-21T11:19:39Z</time>
      </trkpt>
      <trkpt lat="43.9474" lon="5.10157">
        <ele>252.5</ele>
        <time>2016-02-21T11:19:47Z</time>
      </trkpt>
      <trkpt lat="43.94731" lon="5.10155">
        <ele>252.3</ele>
        <time>2016-02-21T11:19:54Z</time>
      </trkpt>
      <trkpt lat="43.94721" lon="5.1016">
        <ele>252.2</ele>
        <time>2016-02-21T11:20:01Z</time>
      </trkpt>
      <trkpt lat="43.94711" lon="5.10162">
        <ele>252</ele>
        <time>2016-02-21T11:20:09Z</time>
      </trkpt>
      <trkpt lat="43.94702" lon="5.10168">
        <ele>251.6</ele>
        <time>2016-02-21T11:20:16Z</time>
      </trkpt>
      <trkpt lat="43.94692" lon="5.10165">
        <ele>251.2</ele>
        <time>2016-02-21T11:20:23Z</time>
      </trkpt>
      <trkpt lat="43.94684" lon="5.10173">
        <ele>250.9</ele>
        <time>2016-02-21T11:20:30Z</time>
      </trkpt>
      <trkpt lat="43.94675" lon="5.10176">
        <ele>250.7</ele>
        <time>2016-02-21T11:20:35Z</time>
      </trkpt>
      <trkpt lat="43.94665" lon="5.10181">
        <ele>250.5</ele>
        <time>2016-02-21T11:20:39Z</time>
      </trkpt>
      <trkpt lat="43.94655" lon="5.10185">
        <ele>250.4</ele>
        <time>2016-02-21T11:20:44Z</time>
      </trkpt>
      <trkpt lat="43.94645" lon="5.10189">
        <ele>250.2</ele>
        <time>2016-02-21T11:20:51Z</time>
      </trkpt>
      <trkpt lat="43.94636" lon="5.10191">
        <ele>250</ele>
        <time>2016-02-21T11:20:58Z</time>
      </trkpt>
      <trkpt lat="43.94626" lon="5.10189">
        <ele>249.8</ele>
        <time>2016-02-21T11:21:06Z</time>
      </trkpt>
      <trkpt lat="43.94618" lon="5.10183">
        <ele>249.7</ele>
        <time>2016-02-21T11:21:12Z</time>
      </trkpt>
      <trkpt lat="43.9461" lon="5.10174">
        <ele>249.6</ele>
        <time>2016-02-21T11:21:18Z</time>
      </trkpt>
      <trkpt lat="43.94602" lon="5.10167">
        <ele>249.5</ele>
        <time>2016-02-21T11:21:25Z</time>
      </trkpt>
      <trkpt lat="43.94593" lon="5.10161">
        <ele>249.5</ele>
        <time>2016-02-21T11:21:35Z</time>
      </trkpt>
      <trkpt lat="43.94584" lon="5.1016">
        <ele>249.5</ele>
        <time>2016-02-21T11:21:44Z</time>
      </trkpt>
      <trkpt lat="43.94574" lon="5.10159">
        <ele>249.4</ele>
        <time>2016-02-21T11:21:52Z</time>
      </trkpt>
      <trkpt lat="43.94565" lon="5.10159">
        <ele>249.4</ele>
        <time>2016-02-21T11:22:01Z</time>
      </trkpt>
      <trkpt lat="43.94555" lon="5.10155">
        <ele>249.4</ele>
        <time>2016-02-21T11:22:09Z</time>
      </trkpt>
      <trkpt lat="43.94546" lon="5.10151">
        <ele>249.4</ele>
        <time>2016-02-21T11:22:13Z</time>
      </trkpt>
      <trkpt lat="43.94537" lon="5.10149">
        <ele>249.4</ele>
        <time>2016-02-21T11:22:17Z</time>
      </trkpt>
      <trkpt lat="43.94526" lon="5.10148">
        <ele>249.4</ele>
        <time>2016-02-21T11:22:24Z</time>
      </trkpt>
      <trkpt lat="43.94516" lon="5.10148">
        <ele>249.3</ele>
        <time>2016-02-21T11:22:30Z</time>
      </trkpt>
      <trkpt lat="43.94507" lon="5.10146">
        <ele>249.1</ele>
        <time>2016-02-21T11:22:36Z</time>
      </trkpt>
      <trkpt lat="43.94498" lon="5.10137">
        <ele>248.9</ele>
        <time>2016-02-21T11:22:40Z</time>
      </trkpt>
      <trkpt lat="43.9449" lon="5.10131">
        <ele>248.7</ele>
        <time>2016-02-21T11:22:44Z</time>
      </trkpt>
      <trkpt lat="43.9448" lon="5.10128">
        <ele>248.3</ele>
        <time>2016-02-21T11:22:50Z</time>
      </trkpt>
      <trkpt lat="43.9447" lon="5.10125">
        <ele>247.9</ele>
        <time>2016-02-21T11:22:56Z</time>
      </trkpt>
      <trkpt lat="43.94459" lon="5.10126">
        <ele>247.7</ele>
        <time>2016-02-21T11:23:02Z</time>
      </trkpt>
      <trkpt lat="43.94449" lon="5.10126">
        <ele>247.4</ele>
        <time>2016-02-21T11:23:08Z</time>
      </trkpt>
      <trkpt lat="43.94439" lon="5.10128">
        <ele>247</ele>
        <time>2016-02-21T11:23:13Z</time>
      </trkpt>
      <trkpt lat="43.9443" lon="5.10126">
        <ele>246.7</ele>
        <time>2016-02-21T11:23:18Z</time>
      </trkpt>
      <trkpt lat="43.9442" lon="5.10123">
        <ele>246.1</ele>
        <time>2016-02-21T11:23:25Z</time>
      </trkpt>
      <trkpt lat="43.94411" lon="5.1012">
        <ele>245.3</ele>
        <time>2016-02-21T11:23:31Z</time>
      </trkpt>
      <trkpt lat="43.94402" lon="5.10121">
        <ele>244.5</ele>
        <time>2016-02-21T11:23:38Z</time>
      </trkpt>
      <trkpt lat="43.94392" lon="5.1012">
        <ele>243.7</ele>
        <time>2016-02-21T11:23:46Z</time>
      </trkpt>
      <trkpt lat="43.94382" lon="5.10119">
        <ele>243</ele>
        <time>2016-02-21T11:23:53Z</time>
      </trkpt>
      <trkpt lat="43.94373" lon="5.10119">
        <ele>242.5</ele>
        <time>2016-02-21T11:23:59Z</time>
      </trkpt>
      <trkpt lat="43.94363" lon="5.10116">
        <ele>241.9</ele>
        <time>2016-02-21T11:24:06Z</time>
      </trkpt>
      <trkpt lat="43.94354" lon="5.10117">
        <ele>241.3</ele>
        <time>2016-02-21T11:24:12Z</time>
      </trkpt>
      <trkpt lat="43.94345" lon="5.10118">
        <ele>240.7</ele>
        <time>2016-02-21T11:24:18Z</time>
      </trkpt>
      <trkpt lat="43.94335" lon="5.10115">
        <ele>239.7</ele>
        <time>2016-02-21T11:24:30Z</time>
      </trkpt>
      <trkpt lat="43.94325" lon="5.10112">
        <ele>239</ele>
        <time>2016-02-21T11:24:37Z</time>
      </trkpt>
      <trkpt lat="43.94316" lon="5.10113">
        <ele>238.5</ele>
        <time>2016-02-21T11:24:43Z</time>
      </trkpt>
      <trkpt lat="43.94307" lon="5.10108">
        <ele>238.1</ele>
        <time>2016-02-21T11:24:48Z</time>
      </trkpt>
      <trkpt lat="43.94298" lon="5.10107">
        <ele>237.5</ele>
        <time>2016-02-21T11:24:54Z</time>
      </trkpt>
      <trkpt lat="43.94289" lon="5.10104">
        <ele>236.7</ele>
        <time>2016-02-21T11:25:02Z</time>
      </trkpt>
      <trkpt lat="43.9428" lon="5.10106">
        <ele>235.9</ele>
        <time>2016-02-21T11:25:13Z</time>
      </trkpt>
      <trkpt lat="43.9427" lon="5.10104">
        <ele>234.6</ele>
        <time>2016-02-21T11:28:35Z</time>
      </trkpt>
      <trkpt lat="43.94261" lon="5.10103">
        <ele>234.3</ele>
        <time>2016-02-21T11:28:55Z</time>
      </trkpt>
      <trkpt lat="43.94253" lon="5.10109">
        <ele>234.1</ele>
        <time>2016-02-21T11:29:08Z</time>
      </trkpt>
      <trkpt lat="43.94247" lon="5.10119">
        <ele>234.1</ele>
        <time>2016-02-21T11:29:16Z</time>
      </trkpt>
      <trkpt lat="43.9424" lon="5.10129">
        <ele>233.5</ele>
        <time>2016-02-21T11:29:25Z</time>
      </trkpt>
      <trkpt lat="43.94234" lon="5.10138">
        <ele>233.1</ele>
        <time>2016-02-21T11:29:40Z</time>
      </trkpt>
      <trkpt lat="43.94226" lon="5.10147">
        <ele>232.9</ele>
        <time>2016-02-21T11:29:56Z</time>
      </trkpt>
      <trkpt lat="43.94221" lon="5.10158">
        <ele>232.8</ele>
        <time>2016-02-21T11:30:22Z</time>
      </trkpt>
      <trkpt lat="43.94213" lon="5.10164">
        <ele>232.8</ele>
        <time>2016-02-21T11:30:35Z</time>
      </trkpt>
      <trkpt lat="43.94203" lon="5.10163">
        <ele>231.9</ele>
        <time>2016-02-21T11:31:00Z</time>
      </trkpt>
      <trkpt lat="43.94203" lon="5.10176">
        <ele>231.5</ele>
        <time>2016-02-21T11:31:10Z</time>
      </trkpt>
      <trkpt lat="43.94198" lon="5.10188">
        <ele>231.3</ele>
        <time>2016-02-21T11:31:14Z</time>
      </trkpt>
      <trkpt lat="43.94194" lon="5.102">
        <ele>231</ele>
        <time>2016-02-21T11:31:18Z</time>
      </trkpt>
      <trkpt lat="43.94189" lon="5.10211">
        <ele>229.7</ele>
        <time>2016-02-21T11:31:29Z</time>
      </trkpt>
      <trkpt lat="43.94187" lon="5.10196">
        <ele>228.3</ele>
        <time>2016-02-21T11:31:37Z</time>
      </trkpt>
      <trkpt lat="43.94188" lon="5.10183">
        <ele>227.5</ele>
        <time>2016-02-21T11:31:43Z</time>
      </trkpt>
      <trkpt lat="43.94188" lon="5.1017">
        <ele>226.4</ele>
        <time>2016-02-21T11:31:54Z</time>
      </trkpt>
      <trkpt lat="43.94185" lon="5.10155">
        <ele>226.1</ele>
        <time>2016-02-21T11:32:00Z</time>
      </trkpt>
      <trkpt lat="43.94189" lon="5.10143">
        <ele>225.7</ele>
        <time>2016-02-21T11:32:09Z</time>
      </trkpt>
      <trkpt lat="43.94179" lon="5.10143">
        <ele>225.5</ele>
        <time>2016-02-21T11:32:14Z</time>
      </trkpt>
      <trkpt lat="43.94178" lon="5.10163">
        <ele>225.3</ele>
        <time>2016-02-21T11:32:18Z</time>
      </trkpt>
      <trkpt lat="43.94179" lon="5.10178">
        <ele>225.1</ele>
        <time>2016-02-21T11:32:21Z</time>
      </trkpt>
      <trkpt lat="43.94179" lon="5.10196">
        <ele>224.7</ele>
        <time>2016-02-21T11:32:26Z</time>
      </trkpt>
      <trkpt lat="43.94182" lon="5.10208">
        <ele>224.3</ele>
        <time>2016-02-21T11:32:31Z</time>
      </trkpt>
      <trkpt lat="43.94189" lon="5.10219">
        <ele>222.1</ele>
        <time>2016-02-21T11:32:54Z</time>
      </trkpt>
      <trkpt lat="43.94194" lon="5.10231">
        <ele>219.3</ele>
        <time>2016-02-21T11:33:14Z</time>
      </trkpt>
      <trkpt lat="43.94195" lon="5.10245">
        <ele>217.5</ele>
        <time>2016-02-21T11:33:24Z</time>
      </trkpt>
      <trkpt lat="43.94185" lon="5.10252">
        <ele>213.7</ele>
        <time>2016-02-21T11:33:44Z</time>
      </trkpt>
      <trkpt lat="43.94177" lon="5.10256">
        <ele>212.1</ele>
        <time>2016-02-21T11:33:52Z</time>
      </trkpt>
      <trkpt lat="43.94167" lon="5.10262">
        <ele>210.3</ele>
        <time>2016-02-21T11:34:02Z</time>
      </trkpt>
      <trkpt lat="43.94159" lon="5.10269">
        <ele>209.2</ele>
        <time>2016-02-21T11:34:08Z</time>
      </trkpt>
      <trkpt lat="43.9415" lon="5.10267">
        <ele>207.1</ele>
        <time>2016-02-21T11:34:19Z</time>
      </trkpt>
      <trkpt lat="43.94143" lon="5.10277">
        <ele>206.1</ele>
        <time>2016-02-21T11:34:24Z</time>
      </trkpt>
      <trkpt lat="43.94134" lon="5.10282">
        <ele>205.2</ele>
        <time>2016-02-21T11:34:29Z</time>
      </trkpt>
      <trkpt lat="43.94126" lon="5.10288">
        <ele>204.5</ele>
        <time>2016-02-21T11:34:33Z</time>
      </trkpt>
      <trkpt lat="43.94116" lon="5.10293">
        <ele>202.1</ele>
        <time>2016-02-21T11:34:47Z</time>
      </trkpt>
      <trkpt lat="43.94106" lon="5.10296">
        <ele>201</ele>
        <time>2016-02-21T11:34:53Z</time>
      </trkpt>
      <trkpt lat="43.94114" lon="5.10286">
        <ele>200.2</ele>
        <time>2016-02-21T11:34:58Z</time>
      </trkpt>
      <trkpt lat="43.94105" lon="5.10289">
        <ele>199.3</ele>
        <time>2016-02-21T11:35:03Z</time>
      </trkpt>
      <trkpt lat="43.94113" lon="5.10281">
        <ele>197.5</ele>
        <time>2016-02-21T11:35:12Z</time>
      </trkpt>
      <trkpt lat="43.94103" lon="5.10289">
        <ele>195.1</ele>
        <time>2016-02-21T11:35:24Z</time>
      </trkpt>
      <trkpt lat="43.94096" lon="5.10296">
        <ele>194.5</ele>
        <time>2016-02-21T11:35:28Z</time>
      </trkpt>
      <trkpt lat="43.94104" lon="5.10301">
        <ele>193.5</ele>
        <time>2016-02-21T11:35:36Z</time>
      </trkpt>
      <trkpt lat="43.94114" lon="5.1029">
        <ele>192.1</ele>
        <time>2016-02-21T11:35:48Z</time>
      </trkpt>
      <trkpt lat="43.94105" lon="5.10299">
        <ele>190</ele>
        <time>2016-02-21T11:36:00Z</time>
      </trkpt>
      <trkpt lat="43.94097" lon="5.10305">
        <ele>188.7</ele>
        <time>2016-02-21T11:36:07Z</time>
      </trkpt>
      <trkpt lat="43.94089" lon="5.10312">
        <ele>185.3</ele>
        <time>2016-02-21T11:36:26Z</time>
      </trkpt>
      <trkpt lat="43.94099" lon="5.10309">
        <ele>184.9</ele>
        <time>2016-02-21T11:36:28Z</time>
      </trkpt>
      <trkpt lat="43.94094" lon="5.10321">
        <ele>183.4</ele>
        <time>2016-02-21T11:36:37Z</time>
      </trkpt>
      <trkpt lat="43.94085" lon="5.10327">
        <ele>180.6</ele>
        <time>2016-02-21T11:36:51Z</time>
      </trkpt>
      <trkpt lat="43.94077" lon="5.10335">
        <ele>180</ele>
        <time>2016-02-21T11:36:54Z</time>
      </trkpt>
      <trkpt lat="43.94067" lon="5.10343">
        <ele>179.4</ele>
        <time>2016-02-21T11:36:58Z</time>
      </trkpt>
      <trkpt lat="43.94059" lon="5.10354">
        <ele>178.5</ele>
        <time>2016-02-21T11:37:04Z</time>
      </trkpt>
      <trkpt lat="43.94049" lon="5.1036">
        <ele>177.8</ele>
        <time>2016-02-21T11:37:08Z</time>
      </trkpt>
      <trkpt lat="43.9404" lon="5.10367">
        <ele>176.2</ele>
        <time>2016-02-21T11:37:18Z</time>
      </trkpt>
      <trkpt lat="43.94032" lon="5.1037">
        <ele>174.3</ele>
        <time>2016-02-21T11:37:33Z</time>
      </trkpt>
      <trkpt lat="43.9404" lon="5.10377">
        <ele>172.1</ele>
        <time>2016-02-21T11:37:50Z</time>
      </trkpt>
      <trkpt lat="43.94033" lon="5.10388">
        <ele>170.1</ele>
        <time>2016-02-21T11:38:06Z</time>
      </trkpt>
      <trkpt lat="43.94023" lon="5.104">
        <ele>169.5</ele>
        <time>2016-02-21T11:38:12Z</time>
      </trkpt>
      <trkpt lat="43.94015" lon="5.10406">
        <ele>168.9</ele>
        <time>2016-02-21T11:38:16Z</time>
      </trkpt>
      <trkpt lat="43.94035" lon="5.10398">
        <ele>168</ele>
        <time>2016-02-21T11:38:21Z</time>
      </trkpt>
      <trkpt lat="43.94027" lon="5.10411">
        <ele>166</ele>
        <time>2016-02-21T11:38:34Z</time>
      </trkpt>
      <trkpt lat="43.94024" lon="5.10424">
        <ele>164</ele>
        <time>2016-02-21T11:38:46Z</time>
      </trkpt>
      <trkpt lat="43.94034" lon="5.10428">
        <ele>163.4</ele>
        <time>2016-02-21T11:38:50Z</time>
      </trkpt>
      <trkpt lat="43.94046" lon="5.10431">
        <ele>162.7</ele>
        <time>2016-02-21T11:38:56Z</time>
      </trkpt>
      <trkpt lat="43.94053" lon="5.10439">
        <ele>161.7</ele>
        <time>2016-02-21T11:39:03Z</time>
      </trkpt>
      <trkpt lat="43.94063" lon="5.10437">
        <ele>161.4</ele>
        <time>2016-02-21T11:39:05Z</time>
      </trkpt>
      <trkpt lat="43.94072" lon="5.10441">
        <ele>160.5</ele>
        <time>2016-02-21T11:39:11Z</time>
      </trkpt>
      <trkpt lat="43.94081" lon="5.10447">
        <ele>159.2</ele>
        <time>2016-02-21T11:39:19Z</time>
      </trkpt>
      <trkpt lat="43.94088" lon="5.10458">
        <ele>158.3</ele>
        <time>2016-02-21T11:39:25Z</time>
      </trkpt>
      <trkpt lat="43.9409" lon="5.1047">
        <ele>156.7</ele>
        <time>2016-02-21T11:39:34Z</time>
      </trkpt>
      <trkpt lat="43.94094" lon="5.10484">
        <ele>154.9</ele>
        <time>2016-02-21T11:39:44Z</time>
      </trkpt>
      <trkpt lat="43.94103" lon="5.10479">
        <ele>154.5</ele>
        <time>2016-02-21T11:39:46Z</time>
      </trkpt>
      <trkpt lat="43.94112" lon="5.10487">
        <ele>153.9</ele>
        <time>2016-02-21T11:39:50Z</time>
      </trkpt>
      <trkpt lat="43.9412" lon="5.10494">
        <ele>153.1</ele>
        <time>2016-02-21T11:39:55Z</time>
      </trkpt>
      <trkpt lat="43.94111" lon="5.10492">
        <ele>152.4</ele>
        <time>2016-02-21T11:40:01Z</time>
      </trkpt>
      <trkpt lat="43.94121" lon="5.1049">
        <ele>151.2</ele>
        <time>2016-02-21T11:40:33Z</time>
      </trkpt>
      <trkpt lat="43.94129" lon="5.105">
        <ele>151.1</ele>
        <time>2016-02-21T11:40:41Z</time>
      </trkpt>
      <trkpt lat="43.94142" lon="5.10508">
        <ele>150.8</ele>
        <time>2016-02-21T11:41:10Z</time>
      </trkpt>
      <trkpt lat="43.94149" lon="5.10501">
        <ele>150</ele>
        <time>2016-02-21T11:41:23Z</time>
      </trkpt>
      <trkpt lat="43.94158" lon="5.10514">
        <ele>150.5</ele>
        <time>2016-02-21T11:41:28Z</time>
      </trkpt>
      <trkpt lat="43.94167" lon="5.10519">
        <ele>150.4</ele>
        <time>2016-02-21T11:41:34Z</time>
      </trkpt>
      <trkpt lat="43.9412" lon="5.10494">
        <ele>149</ele>
        <time>2016-02-21T11:42:46Z</time>
      </trkpt>
      <trkpt lat="43.94129" lon="5.10501">
        <ele>149.8</ele>
        <time>2016-02-21T11:42:55Z</time>
      </trkpt>
      <trkpt lat="43.94119" lon="5.10497">
        <ele>149</ele>
        <time>2016-02-21T11:43:01Z</time>
      </trkpt>
      <trkpt lat="43.93977" lon="5.10421">
        <ele>149</ele>
        <time>2016-02-21T11:43:12Z</time>
      </trkpt>
      <trkpt lat="43.93955" lon="5.10388">
        <ele>148</ele>
        <time>2016-02-21T11:43:49Z</time>
      </trkpt>
      <trkpt lat="43.93891" lon="5.10389">
        <ele>148</ele>
        <time>2016-02-21T11:44:25Z</time>
      </trkpt>
      <trkpt lat="43.93882" lon="5.10396">
        <ele>148.6</ele>
        <time>2016-02-21T11:44:54Z</time>
      </trkpt>
      <trkpt lat="43.93873" lon="5.10401">
        <ele>148.6</ele>
        <time>2016-02-21T11:45:04Z</time>
      </trkpt>
      <trkpt lat="43.93863" lon="5.10392">
        <ele>148</ele>
        <time>2016-02-21T11:45:45Z</time>
      </trkpt>
      <trkpt lat="43.93907" lon="5.10361">
        <ele>148</ele>
        <time>2016-02-21T11:46:13Z</time>
      </trkpt>
      <trkpt lat="43.93904" lon="5.10379">
        <ele>148.6</ele>
        <time>2016-02-21T11:46:18Z</time>
      </trkpt>
      <trkpt lat="43.93895" lon="5.10396">
        <ele>148.5</ele>
        <time>2016-02-21T11:46:33Z</time>
      </trkpt>
      <trkpt lat="43.93912" lon="5.10372">
        <ele>148</ele>
        <time>2016-02-21T11:46:51Z</time>
      </trkpt>
      <trkpt lat="43.93902" lon="5.10375">
        <ele>148.9</ele>
        <time>2016-02-21T11:47:09Z</time>
      </trkpt>
      <trkpt lat="43.93895" lon="5.10385">
        <ele>149</ele>
        <time>2016-02-21T11:47:20Z</time>
      </trkpt>
      <trkpt lat="43.93913" lon="5.10387">
        <ele>149</ele>
        <time>2016-02-21T11:47:56Z</time>
      </trkpt>
      <trkpt lat="43.93925" lon="5.1039">
        <ele>149.6</ele>
        <time>2016-02-21T11:48:01Z</time>
      </trkpt>
      <trkpt lat="43.93937" lon="5.10389">
        <ele>149.7</ele>
        <time>2016-02-21T11:48:03Z</time>
      </trkpt>
      <trkpt lat="43.93947" lon="5.10387">
        <ele>149.8</ele>
        <time>2016-02-21T11:48:07Z</time>
      </trkpt>
      <trkpt lat="43.93939" lon="5.10394">
        <ele>149.9</ele>
        <time>2016-02-21T11:48:13Z</time>
      </trkpt>
      <trkpt lat="43.93949" lon="5.10396">
        <ele>150</ele>
        <time>2016-02-21T11:48:20Z</time>
      </trkpt>
      <trkpt lat="43.93959" lon="5.10394">
        <ele>150</ele>
        <time>2016-02-21T11:48:22Z</time>
      </trkpt>
      <trkpt lat="43.93944" lon="5.10409">
        <ele>150</ele>
        <time>2016-02-21T11:49:03Z</time>
      </trkpt>
      <trkpt lat="43.93934" lon="5.10404">
        <ele>150.2</ele>
        <time>2016-02-21T11:49:08Z</time>
      </trkpt>
      <trkpt lat="43.93929" lon="5.10394">
        <ele>150.3</ele>
        <time>2016-02-21T11:49:15Z</time>
      </trkpt>
      <trkpt lat="43.93932" lon="5.10382">
        <ele>150.3</ele>
        <time>2016-02-21T11:49:26Z</time>
      </trkpt>
      <trkpt lat="43.93941" lon="5.10379">
        <ele>150.3</ele>
        <time>2016-02-21T11:49:30Z</time>
      </trkpt>
      <trkpt lat="43.93951" lon="5.10385">
        <ele>150.3</ele>
        <time>2016-02-21T11:49:35Z</time>
      </trkpt>
      <trkpt lat="43.9396" lon="5.10391">
        <ele>150.3</ele>
        <time>2016-02-21T11:49:47Z</time>
      </trkpt>
      <trkpt lat="43.93969" lon="5.10394">
        <ele>150.3</ele>
        <time>2016-02-21T11:49:58Z</time>
      </trkpt>
      <trkpt lat="43.93976" lon="5.10403">
        <ele>150.3</ele>
        <time>2016-02-21T11:50:09Z</time>
      </trkpt>
      <trkpt lat="43.93985" lon="5.10407">
        <ele>150.4</ele>
        <time>2016-02-21T11:50:17Z</time>
      </trkpt>
      <trkpt lat="43.93994" lon="5.10403">
        <ele>150.5</ele>
        <time>2016-02-21T11:50:26Z</time>
      </trkpt>
      <trkpt lat="43.93985" lon="5.10399">
        <ele>150.5</ele>
        <time>2016-02-21T11:50:36Z</time>
      </trkpt>
      <trkpt lat="43.93974" lon="5.10393">
        <ele>150.6</ele>
        <time>2016-02-21T11:50:50Z</time>
      </trkpt>
      <trkpt lat="43.93966" lon="5.10397">
        <ele>150.7</ele>
        <time>2016-02-21T11:51:33Z</time>
      </trkpt>
      <trkpt lat="43.93953" lon="5.10386">
        <ele>150.7</ele>
        <time>2016-02-21T11:52:29Z</time>
      </trkpt>
      <trkpt lat="43.93945" lon="5.10392">
        <ele>150.7</ele>
        <time>2016-02-21T11:52:41Z</time>
      </trkpt>
      <trkpt lat="43.93954" lon="5.10393">
        <ele>150.7</ele>
        <time>2016-02-21T11:52:51Z</time>
      </trkpt>
      <trkpt lat="43.93968" lon="5.104">
        <ele>151</ele>
        <time>2016-02-21T11:53:56Z</time>
      </trkpt>
      <trkpt lat="43.93971" lon="5.10413">
        <ele>151.6</ele>
        <time>2016-02-21T11:54:04Z</time>
      </trkpt>
      <trkpt lat="43.93965" lon="5.10424">
        <ele>153.2</ele>
        <time>2016-02-21T11:54:16Z</time>
      </trkpt>
      <trkpt lat="43.93955" lon="5.10427">
        <ele>154.4</ele>
        <time>2016-02-21T11:54:23Z</time>
      </trkpt>
      <trkpt lat="43.93946" lon="5.1043">
        <ele>154.9</ele>
        <time>2016-02-21T11:54:26Z</time>
      </trkpt>
      <trkpt lat="43.93937" lon="5.10435">
        <ele>156.2</ele>
        <time>2016-02-21T11:54:33Z</time>
      </trkpt>
      <trkpt lat="43.93927" lon="5.1044">
        <ele>158.1</ele>
        <time>2016-02-21T11:54:43Z</time>
      </trkpt>
      <trkpt lat="43.93918" lon="5.10444">
        <ele>159.7</ele>
        <time>2016-02-21T11:54:50Z</time>
      </trkpt>
      <trkpt lat="43.93911" lon="5.10453">
        <ele>161</ele>
        <time>2016-02-21T11:54:58Z</time>
      </trkpt>
      <trkpt lat="43.93903" lon="5.10459">
        <ele>162.3</ele>
        <time>2016-02-21T11:55:08Z</time>
      </trkpt>
      <trkpt lat="43.93912" lon="5.10459">
        <ele>163.3</ele>
        <time>2016-02-21T11:55:14Z</time>
      </trkpt>
      <trkpt lat="43.93921" lon="5.10459">
        <ele>164.8</ele>
        <time>2016-02-21T11:55:22Z</time>
      </trkpt>
      <trkpt lat="43.93917" lon="5.10472">
        <ele>167.5</ele>
        <time>2016-02-21T11:55:38Z</time>
      </trkpt>
      <trkpt lat="43.93907" lon="5.10478">
        <ele>169.1</ele>
        <time>2016-02-21T11:55:50Z</time>
      </trkpt>
      <trkpt lat="43.93899" lon="5.10485">
        <ele>169.9</ele>
        <time>2016-02-21T11:55:59Z</time>
      </trkpt>
      <trkpt lat="43.9389" lon="5.1049">
        <ele>170.7</ele>
        <time>2016-02-21T11:56:08Z</time>
      </trkpt>
      <trkpt lat="43.9388" lon="5.10492">
        <ele>171.2</ele>
        <time>2016-02-21T11:56:13Z</time>
      </trkpt>
      <trkpt lat="43.93871" lon="5.10496">
        <ele>172.2</ele>
        <time>2016-02-21T11:56:24Z</time>
      </trkpt>
      <trkpt lat="43.93862" lon="5.10504">
        <ele>172.6</ele>
        <time>2016-02-21T11:56:30Z</time>
      </trkpt>
      <trkpt lat="43.93854" lon="5.10511">
        <ele>173</ele>
        <time>2016-02-21T11:56:36Z</time>
      </trkpt>
      <trkpt lat="43.93846" lon="5.10518">
        <ele>173.7</ele>
        <time>2016-02-21T11:56:46Z</time>
      </trkpt>
      <trkpt lat="43.93837" lon="5.10524">
        <ele>174.3</ele>
        <time>2016-02-21T11:56:53Z</time>
      </trkpt>
      <trkpt lat="43.93828" lon="5.10526">
        <ele>175.1</ele>
        <time>2016-02-21T11:57:01Z</time>
      </trkpt>
      <trkpt lat="43.93822" lon="5.10538">
        <ele>176.6</ele>
        <time>2016-02-21T11:57:12Z</time>
      </trkpt>
      <trkpt lat="43.93815" lon="5.10548">
        <ele>177.1</ele>
        <time>2016-02-21T11:57:16Z</time>
      </trkpt>
      <trkpt lat="43.93807" lon="5.10554">
        <ele>177.7</ele>
        <time>2016-02-21T11:57:22Z</time>
      </trkpt>
      <trkpt lat="43.93798" lon="5.10562">
        <ele>178.6</ele>
        <time>2016-02-21T11:57:32Z</time>
      </trkpt>
      <trkpt lat="43.93789" lon="5.10565">
        <ele>179.3</ele>
        <time>2016-02-21T11:57:40Z</time>
      </trkpt>
      <trkpt lat="43.93779" lon="5.10563">
        <ele>179.8</ele>
        <time>2016-02-21T11:57:45Z</time>
      </trkpt>
      <trkpt lat="43.93769" lon="5.10568">
        <ele>180.3</ele>
        <time>2016-02-21T11:57:50Z</time>
      </trkpt>
      <trkpt lat="43.9376" lon="5.1057">
        <ele>180.9</ele>
        <time>2016-02-21T11:57:56Z</time>
      </trkpt>
      <trkpt lat="43.9375" lon="5.10573">
        <ele>181.6</ele>
        <time>2016-02-21T11:58:03Z</time>
      </trkpt>
      <trkpt lat="43.93741" lon="5.10577">
        <ele>182.1</ele>
        <time>2016-02-21T11:58:09Z</time>
      </trkpt>
      <trkpt lat="43.93734" lon="5.10585">
        <ele>182.9</ele>
        <time>2016-02-21T11:58:18Z</time>
      </trkpt>
      <trkpt lat="43.93724" lon="5.10588">
        <ele>183.4</ele>
        <time>2016-02-21T11:58:24Z</time>
      </trkpt>
      <trkpt lat="43.93716" lon="5.10596">
        <ele>184.4</ele>
        <time>2016-02-21T11:58:31Z</time>
      </trkpt>
      <trkpt lat="43.93707" lon="5.10588">
        <ele>185.1</ele>
        <time>2016-02-21T11:58:36Z</time>
      </trkpt>
      <trkpt lat="43.93697" lon="5.10587">
        <ele>186.2</ele>
        <time>2016-02-21T11:58:48Z</time>
      </trkpt>
      <trkpt lat="43.93686" lon="5.1059">
        <ele>186.9</ele>
        <time>2016-02-21T11:58:56Z</time>
      </trkpt>
      <trkpt lat="43.93676" lon="5.10593">
        <ele>187.4</ele>
        <time>2016-02-21T11:59:02Z</time>
      </trkpt>
      <trkpt lat="43.93668" lon="5.10602">
        <ele>187.9</ele>
        <time>2016-02-21T11:59:08Z</time>
      </trkpt>
      <trkpt lat="43.93658" lon="5.10605">
        <ele>188.4</ele>
        <time>2016-02-21T11:59:15Z</time>
      </trkpt>
      <trkpt lat="43.93648" lon="5.1061">
        <ele>188.8</ele>
        <time>2016-02-21T11:59:21Z</time>
      </trkpt>
      <trkpt lat="43.93639" lon="5.10616">
        <ele>189.1</ele>
        <time>2016-02-21T11:59:26Z</time>
      </trkpt>
      <trkpt lat="43.93628" lon="5.1062">
        <ele>189.7</ele>
        <time>2016-02-21T11:59:34Z</time>
      </trkpt>
      <trkpt lat="43.93619" lon="5.10621">
        <ele>190.3</ele>
        <time>2016-02-21T11:59:43Z</time>
      </trkpt>
      <trkpt lat="43.9362" lon="5.10635">
        <ele>190.8</ele>
        <time>2016-02-21T11:59:55Z</time>
      </trkpt>
      <trkpt lat="43.93629" lon="5.10635">
        <ele>191.1</ele>
        <time>2016-02-21T12:00:16Z</time>
      </trkpt>
      <trkpt lat="43.93632" lon="5.1065">
        <ele>191.1</ele>
        <time>2016-02-21T12:00:33Z</time>
      </trkpt>
      <trkpt lat="43.93639" lon="5.10659">
        <ele>191.1</ele>
        <time>2016-02-21T12:00:37Z</time>
      </trkpt>
      <trkpt lat="43.93647" lon="5.10665">
        <ele>191.1</ele>
        <time>2016-02-21T12:00:42Z</time>
      </trkpt>
      <trkpt lat="43.93656" lon="5.10668">
        <ele>191.1</ele>
        <time>2016-02-21T12:00:45Z</time>
      </trkpt>
      <trkpt lat="43.93665" lon="5.10668">
        <ele>191.1</ele>
        <time>2016-02-21T12:00:47Z</time>
      </trkpt>
      <trkpt lat="43.93676" lon="5.1067">
        <ele>191.1</ele>
        <time>2016-02-21T12:00:55Z</time>
      </trkpt>
      <trkpt lat="43.93705" lon="5.10678">
        <ele>191</ele>
        <time>2016-02-21T12:01:06Z</time>
      </trkpt>
      <trkpt lat="43.93714" lon="5.10672">
        <ele>191.1</ele>
        <time>2016-02-21T12:01:19Z</time>
      </trkpt>
      <trkpt lat="43.93715" lon="5.10659">
        <ele>191.1</ele>
        <time>2016-02-21T12:01:26Z</time>
      </trkpt>
      <trkpt lat="43.93724" lon="5.10662">
        <ele>191.1</ele>
        <time>2016-02-21T12:01:32Z</time>
      </trkpt>
      <trkpt lat="43.93733" lon="5.10656">
        <ele>191.1</ele>
        <time>2016-02-21T12:01:42Z</time>
      </trkpt>
      <trkpt lat="43.93724" lon="5.10644">
        <ele>191.1</ele>
        <time>2016-02-21T12:01:46Z</time>
      </trkpt>
      <trkpt lat="43.93719" lon="5.10655">
        <ele>191.1</ele>
        <time>2016-02-21T12:02:08Z</time>
      </trkpt>
      <trkpt lat="43.93712" lon="5.10647">
        <ele>191.1</ele>
        <time>2016-02-21T12:02:13Z</time>
      </trkpt>
      <trkpt lat="43.93702" lon="5.10649">
        <ele>191.1</ele>
        <time>2016-02-21T12:02:25Z</time>
      </trkpt>
      <trkpt lat="43.93695" lon="5.1064">
        <ele>191.1</ele>
        <time>2016-02-21T12:02:32Z</time>
      </trkpt>
      <trkpt lat="43.93698" lon="5.10628">
        <ele>191.1</ele>
        <time>2016-02-21T12:03:13Z</time>
      </trkpt>
      <trkpt lat="43.93696" lon="5.10642">
        <ele>191.1</ele>
        <time>2016-02-21T12:03:33Z</time>
      </trkpt>
      <trkpt lat="43.93687" lon="5.10636">
        <ele>191.1</ele>
        <time>2016-02-21T12:03:51Z</time>
      </trkpt>
      <trkpt lat="43.93678" lon="5.10629">
        <ele>191.1</ele>
        <time>2016-02-21T12:04:04Z</time>
      </trkpt>
      <trkpt lat="43.93671" lon="5.1062">
        <ele>191.1</ele>
        <time>2016-02-21T12:04:11Z</time>
      </trkpt>
      <trkpt lat="43.93643" lon="5.10583">
        <ele>191</ele>
        <time>2016-02-21T12:04:18Z</time>
      </trkpt>
      <trkpt lat="43.93646" lon="5.1057">
        <ele>191.1</ele>
        <time>2016-02-21T12:04:26Z</time>
      </trkpt>
      <trkpt lat="43.93636" lon="5.10572">
        <ele>191.1</ele>
        <time>2016-02-21T12:04:38Z</time>
      </trkpt>
      <trkpt lat="43.93627" lon="5.10569">
        <ele>191.1</ele>
        <time>2016-02-21T12:04:41Z</time>
      </trkpt>
      <trkpt lat="43.93617" lon="5.10564">
        <ele>191</ele>
        <time>2016-02-21T12:04:44Z</time>
      </trkpt>
      <trkpt lat="43.93607" lon="5.10559">
        <ele>190.9</ele>
        <time>2016-02-21T12:04:49Z</time>
      </trkpt>
      <trkpt lat="43.93599" lon="5.10565">
        <ele>190.8</ele>
        <time>2016-02-21T12:04:54Z</time>
      </trkpt>
      <trkpt lat="43.93588" lon="5.10565">
        <ele>190.7</ele>
        <time>2016-02-21T12:04:58Z</time>
      </trkpt>
      <trkpt lat="43.93579" lon="5.10572">
        <ele>190.7</ele>
        <time>2016-02-21T12:05:00Z</time>
      </trkpt>
      <trkpt lat="43.93569" lon="5.10581">
        <ele>190.6</ele>
        <time>2016-02-21T12:05:03Z</time>
      </trkpt>
      <trkpt lat="43.9356" lon="5.10588">
        <ele>190.5</ele>
        <time>2016-02-21T12:05:06Z</time>
      </trkpt>
      <trkpt lat="43.93551" lon="5.10598">
        <ele>190.3</ele>
        <time>2016-02-21T12:05:10Z</time>
      </trkpt>
      <trkpt lat="43.93541" lon="5.10609">
        <ele>190.1</ele>
        <time>2016-02-21T12:05:13Z</time>
      </trkpt>
      <trkpt lat="43.93551" lon="5.10609">
        <ele>189.2</ele>
        <time>2016-02-21T12:05:23Z</time>
      </trkpt>
      <trkpt lat="43.9356" lon="5.10601">
        <ele>188.5</ele>
        <time>2016-02-21T12:05:30Z</time>
      </trkpt>
      <trkpt lat="43.93569" lon="5.10595">
        <ele>188.3</ele>
        <time>2016-02-21T12:05:33Z</time>
      </trkpt>
      <trkpt lat="43.93571" lon="5.10608">
        <ele>187.5</ele>
        <time>2016-02-21T12:05:50Z</time>
      </trkpt>
      <trkpt lat="43.93575" lon="5.10619">
        <ele>187.6</ele>
        <time>2016-02-21T12:05:54Z</time>
      </trkpt>
      <trkpt lat="43.93575" lon="5.10637">
        <ele>187.6</ele>
        <time>2016-02-21T12:05:59Z</time>
      </trkpt>
      <trkpt lat="43.93587" lon="5.10634">
        <ele>187.4</ele>
        <time>2016-02-21T12:06:10Z</time>
      </trkpt>
      <trkpt lat="43.93593" lon="5.10644">
        <ele>187</ele>
        <time>2016-02-21T12:06:17Z</time>
      </trkpt>
      <trkpt lat="43.93603" lon="5.10646">
        <ele>186.2</ele>
        <time>2016-02-21T12:06:27Z</time>
      </trkpt>
      <trkpt lat="43.9361" lon="5.10638">
        <ele>185.3</ele>
        <time>2016-02-21T12:06:40Z</time>
      </trkpt>
      <trkpt lat="43.93611" lon="5.10624">
        <ele>184.9</ele>
        <time>2016-02-21T12:06:46Z</time>
      </trkpt>
      <trkpt lat="43.93616" lon="5.10613">
        <ele>184.6</ele>
        <time>2016-02-21T12:06:51Z</time>
      </trkpt>
      <trkpt lat="43.93623" lon="5.10603">
        <ele>184.4</ele>
        <time>2016-02-21T12:06:56Z</time>
      </trkpt>
      <trkpt lat="43.9363" lon="5.10594">
        <ele>184.1</ele>
        <time>2016-02-21T12:07:05Z</time>
      </trkpt>
      <trkpt lat="43.9371" lon="5.10521">
        <ele>183</ele>
        <time>2016-02-21T12:07:15Z</time>
      </trkpt>
      <trkpt lat="43.93743" lon="5.10538">
        <ele>183.6</ele>
        <time>2016-02-21T12:07:21Z</time>
      </trkpt>
      <trkpt lat="43.93752" lon="5.10548">
        <ele>183.4</ele>
        <time>2016-02-21T12:07:25Z</time>
      </trkpt>
      <trkpt lat="43.93762" lon="5.10611">
        <ele>182</ele>
        <time>2016-02-21T12:07:39Z</time>
      </trkpt>
      <trkpt lat="43.93762" lon="5.10654">
        <ele>182.5</ele>
        <time>2016-02-21T12:07:45Z</time>
      </trkpt>
      <trkpt lat="43.93767" lon="5.10667">
        <ele>182.4</ele>
        <time>2016-02-21T12:07:49Z</time>
      </trkpt>
      <trkpt lat="43.93778" lon="5.10666">
        <ele>182.3</ele>
        <time>2016-02-21T12:07:53Z</time>
      </trkpt>
      <trkpt lat="43.93783" lon="5.10677">
        <ele>181.7</ele>
        <time>2016-02-21T12:08:04Z</time>
      </trkpt>
      <trkpt lat="43.93779" lon="5.10689">
        <ele>181</ele>
        <time>2016-02-21T12:08:10Z</time>
      </trkpt>
      <trkpt lat="43.93782" lon="5.10704">
        <ele>180.3</ele>
        <time>2016-02-21T12:08:14Z</time>
      </trkpt>
      <trkpt lat="43.93789" lon="5.10722">
        <ele>179.2</ele>
        <time>2016-02-21T12:08:20Z</time>
      </trkpt>
      <trkpt lat="43.93781" lon="5.10734">
        <ele>178.6</ele>
        <time>2016-02-21T12:08:23Z</time>
      </trkpt>
      <trkpt lat="43.93776" lon="5.10745">
        <ele>178</ele>
        <time>2016-02-21T12:08:27Z</time>
      </trkpt>
      <trkpt lat="43.93777" lon="5.10758">
        <ele>177.1</ele>
        <time>2016-02-21T12:08:33Z</time>
      </trkpt>
      <trkpt lat="43.93777" lon="5.10772">
        <ele>175.9</ele>
        <time>2016-02-21T12:08:40Z</time>
      </trkpt>
      <trkpt lat="43.93774" lon="5.10784">
        <ele>175.1</ele>
        <time>2016-02-21T12:08:45Z</time>
      </trkpt>
      <trkpt lat="43.93775" lon="5.10798">
        <ele>173.9</ele>
        <time>2016-02-21T12:08:51Z</time>
      </trkpt>
      <trkpt lat="43.93777" lon="5.10813">
        <ele>172.7</ele>
        <time>2016-02-21T12:08:57Z</time>
      </trkpt>
      <trkpt lat="43.93783" lon="5.10827">
        <ele>171.8</ele>
        <time>2016-02-21T12:09:02Z</time>
      </trkpt>
      <trkpt lat="43.93782" lon="5.10844">
        <ele>171.1</ele>
        <time>2016-02-21T12:09:06Z</time>
      </trkpt>
      <trkpt lat="43.93775" lon="5.10857">
        <ele>170.5</ele>
        <time>2016-02-21T12:09:09Z</time>
      </trkpt>
      <trkpt lat="43.93766" lon="5.10864">
        <ele>169.9</ele>
        <time>2016-02-21T12:09:12Z</time>
      </trkpt>
      <trkpt lat="43.93756" lon="5.10865">
        <ele>168.7</ele>
        <time>2016-02-21T12:09:17Z</time>
      </trkpt>
      <trkpt lat="43.93748" lon="5.10873">
        <ele>166.6</ele>
        <time>2016-02-21T12:09:26Z</time>
      </trkpt>
      <trkpt lat="43.93739" lon="5.10877">
        <ele>165.1</ele>
        <time>2016-02-21T12:09:33Z</time>
      </trkpt>
      <trkpt lat="43.93729" lon="5.10878">
        <ele>164</ele>
        <time>2016-02-21T12:09:39Z</time>
      </trkpt>
      <trkpt lat="43.93719" lon="5.10873">
        <ele>162.8</ele>
        <time>2016-02-21T12:09:47Z</time>
      </trkpt>
      <trkpt lat="43.93709" lon="5.10866">
        <ele>162.2</ele>
        <time>2016-02-21T12:09:53Z</time>
      </trkpt>
      <trkpt lat="43.937" lon="5.10872">
        <ele>162</ele>
        <time>2016-02-21T12:09:59Z</time>
      </trkpt>
      <trkpt lat="43.9369" lon="5.10871">
        <ele>162.3</ele>
        <time>2016-02-21T12:10:04Z</time>
      </trkpt>
      <trkpt lat="43.93681" lon="5.10875">
        <ele>163.2</ele>
        <time>2016-02-21T12:10:11Z</time>
      </trkpt>
      <trkpt lat="43.93671" lon="5.10875">
        <ele>165.1</ele>
        <time>2016-02-21T12:10:20Z</time>
      </trkpt>
      <trkpt lat="43.93662" lon="5.1087">
        <ele>166.1</ele>
        <time>2016-02-21T12:10:24Z</time>
      </trkpt>
      <trkpt lat="43.93654" lon="5.1086">
        <ele>167.3</ele>
        <time>2016-02-21T12:10:29Z</time>
      </trkpt>
      <trkpt lat="43.93645" lon="5.10858">
        <ele>168.6</ele>
        <time>2016-02-21T12:10:35Z</time>
      </trkpt>
      <trkpt lat="43.93636" lon="5.10854">
        <ele>170.4</ele>
        <time>2016-02-21T12:10:45Z</time>
      </trkpt>
      <trkpt lat="43.93626" lon="5.10851">
        <ele>172</ele>
        <time>2016-02-21T12:10:53Z</time>
      </trkpt>
      <trkpt lat="43.93616" lon="5.10851">
        <ele>173.6</ele>
        <time>2016-02-21T12:11:00Z</time>
      </trkpt>
      <trkpt lat="43.93607" lon="5.10859">
        <ele>174.8</ele>
        <time>2016-02-21T12:11:06Z</time>
      </trkpt>
      <trkpt lat="43.93601" lon="5.10869">
        <ele>176.5</ele>
        <time>2016-02-21T12:11:14Z</time>
      </trkpt>
      <trkpt lat="43.93587" lon="5.10872">
        <ele>181</ele>
        <time>2016-02-21T12:11:35Z</time>
      </trkpt>
      <trkpt lat="43.93577" lon="5.10869">
        <ele>182.4</ele>
        <time>2016-02-21T12:11:41Z</time>
      </trkpt>
      <trkpt lat="43.93568" lon="5.1087">
        <ele>184</ele>
        <time>2016-02-21T12:11:47Z</time>
      </trkpt>
      <trkpt lat="43.93558" lon="5.10865">
        <ele>186.4</ele>
        <time>2016-02-21T12:11:56Z</time>
      </trkpt>
      <trkpt lat="43.93549" lon="5.10864">
        <ele>187.5</ele>
        <time>2016-02-21T12:12:00Z</time>
      </trkpt>
      <trkpt lat="43.93546" lon="5.10877">
        <ele>189.2</ele>
        <time>2016-02-21T12:12:07Z</time>
      </trkpt>
      <trkpt lat="43.93536" lon="5.10876">
        <ele>193</ele>
        <time>2016-02-21T12:12:21Z</time>
      </trkpt>
      <trkpt lat="43.93527" lon="5.10877">
        <ele>195.1</ele>
        <time>2016-02-21T12:12:29Z</time>
      </trkpt>
      <trkpt lat="43.93516" lon="5.10877">
        <ele>196.5</ele>
        <time>2016-02-21T12:12:35Z</time>
      </trkpt>
      <trkpt lat="43.93509" lon="5.10886">
        <ele>198.8</ele>
        <time>2016-02-21T12:12:44Z</time>
      </trkpt>
      <trkpt lat="43.935" lon="5.10887">
        <ele>202</ele>
        <time>2016-02-21T12:12:56Z</time>
      </trkpt>
      <trkpt lat="43.93494" lon="5.10896">
        <ele>204.6</ele>
        <time>2016-02-21T12:13:09Z</time>
      </trkpt>
      <trkpt lat="43.93484" lon="5.10893">
        <ele>205.7</ele>
        <time>2016-02-21T12:13:15Z</time>
      </trkpt>
      <trkpt lat="43.93475" lon="5.10896">
        <ele>207.3</ele>
        <time>2016-02-21T12:13:24Z</time>
      </trkpt>
      <trkpt lat="43.93466" lon="5.10893">
        <ele>209.1</ele>
        <time>2016-02-21T12:13:34Z</time>
      </trkpt>
      <trkpt lat="43.93456" lon="5.10895">
        <ele>210.7</ele>
        <time>2016-02-21T12:13:41Z</time>
      </trkpt>
      <trkpt lat="43.93447" lon="5.1089">
        <ele>211.7</ele>
        <time>2016-02-21T12:13:46Z</time>
      </trkpt>
      <trkpt lat="43.93441" lon="5.10901">
        <ele>213.7</ele>
        <time>2016-02-21T12:13:58Z</time>
      </trkpt>
      <trkpt lat="43.93434" lon="5.10911">
        <ele>215.2</ele>
        <time>2016-02-21T12:14:06Z</time>
      </trkpt>
      <trkpt lat="43.93435" lon="5.10925">
        <ele>216.6</ele>
        <time>2016-02-21T12:14:15Z</time>
      </trkpt>
      <trkpt lat="43.9343" lon="5.10936">
        <ele>217.8</ele>
        <time>2016-02-21T12:14:23Z</time>
      </trkpt>
      <trkpt lat="43.93429" lon="5.10949">
        <ele>218.7</ele>
        <time>2016-02-21T12:14:29Z</time>
      </trkpt>
      <trkpt lat="43.93435" lon="5.1096">
        <ele>219.9</ele>
        <time>2016-02-21T12:14:35Z</time>
      </trkpt>
      <trkpt lat="43.93439" lon="5.10974">
        <ele>220.8</ele>
        <time>2016-02-21T12:14:41Z</time>
      </trkpt>
      <trkpt lat="43.9344" lon="5.10988">
        <ele>221.5</ele>
        <time>2016-02-21T12:14:47Z</time>
      </trkpt>
      <trkpt lat="43.93435" lon="5.10998">
        <ele>223</ele>
        <time>2016-02-21T12:15:01Z</time>
      </trkpt>
      <trkpt lat="43.93431" lon="5.1101">
        <ele>224.1</ele>
        <time>2016-02-21T12:15:11Z</time>
      </trkpt>
      <trkpt lat="43.93427" lon="5.11022">
        <ele>225</ele>
        <time>2016-02-21T12:15:21Z</time>
      </trkpt>
      <trkpt lat="43.93423" lon="5.11035">
        <ele>225.6</ele>
        <time>2016-02-21T12:15:30Z</time>
      </trkpt>
      <trkpt lat="43.93419" lon="5.11046">
        <ele>226.1</ele>
        <time>2016-02-21T12:15:37Z</time>
      </trkpt>
      <trkpt lat="43.93413" lon="5.11056">
        <ele>226.6</ele>
        <time>2016-02-21T12:15:46Z</time>
      </trkpt>
      <trkpt lat="43.93412" lon="5.11069">
        <ele>227</ele>
        <time>2016-02-21T12:15:55Z</time>
      </trkpt>
      <trkpt lat="43.9341" lon="5.11082">
        <ele>229</ele>
        <time>2016-02-21T12:16:11Z</time>
      </trkpt>
      <trkpt lat="43.93408" lon="5.11095">
        <ele>230.7</ele>
        <time>2016-02-21T12:16:28Z</time>
      </trkpt>
      <trkpt lat="43.93403" lon="5.11106">
        <ele>232.4</ele>
        <time>2016-02-21T12:16:41Z</time>
      </trkpt>
      <trkpt lat="43.93397" lon="5.11118">
        <ele>232.8</ele>
        <time>2016-02-21T12:16:49Z</time>
      </trkpt>
      <trkpt lat="43.9339" lon="5.11126">
        <ele>233.4</ele>
        <time>2016-02-21T12:16:56Z</time>
      </trkpt>
      <trkpt lat="43.93392" lon="5.11141">
        <ele>233.8</ele>
        <time>2016-02-21T12:17:01Z</time>
      </trkpt>
      <trkpt lat="43.93393" lon="5.11154">
        <ele>234.5</ele>
        <time>2016-02-21T12:17:09Z</time>
      </trkpt>
      <trkpt lat="43.9339" lon="5.11167">
        <ele>234.9</ele>
        <time>2016-02-21T12:17:15Z</time>
      </trkpt>
      <trkpt lat="43.93387" lon="5.11181">
        <ele>235.3</ele>
        <time>2016-02-21T12:17:20Z</time>
      </trkpt>
      <trkpt lat="43.93384" lon="5.11194">
        <ele>236.3</ele>
        <time>2016-02-21T12:17:29Z</time>
      </trkpt>
      <trkpt lat="43.93386" lon="5.11214">
        <ele>238.1</ele>
        <time>2016-02-21T12:17:44Z</time>
      </trkpt>
      <trkpt lat="43.93385" lon="5.11227">
        <ele>239.2</ele>
        <time>2016-02-21T12:17:51Z</time>
      </trkpt>
      <trkpt lat="43.93384" lon="5.11242">
        <ele>240.1</ele>
        <time>2016-02-21T12:17:57Z</time>
      </trkpt>
      <trkpt lat="43.93381" lon="5.11254">
        <ele>241.1</ele>
        <time>2016-02-21T12:18:03Z</time>
      </trkpt>
      <trkpt lat="43.93379" lon="5.11267">
        <ele>242.5</ele>
        <time>2016-02-21T12:18:11Z</time>
      </trkpt>
      <trkpt lat="43.93379" lon="5.11279">
        <ele>244.4</ele>
        <time>2016-02-21T12:18:22Z</time>
      </trkpt>
      <trkpt lat="43.9338" lon="5.11291">
        <ele>246.1</ele>
        <time>2016-02-21T12:18:29Z</time>
      </trkpt>
      <trkpt lat="43.93376" lon="5.11304">
        <ele>247.5</ele>
        <time>2016-02-21T12:18:36Z</time>
      </trkpt>
      <trkpt lat="43.93373" lon="5.11316">
        <ele>248.8</ele>
        <time>2016-02-21T12:18:41Z</time>
      </trkpt>
      <trkpt lat="43.9337" lon="5.11329">
        <ele>250.3</ele>
        <time>2016-02-21T12:18:46Z</time>
      </trkpt>
      <trkpt lat="43.93369" lon="5.11343">
        <ele>252.5</ele>
        <time>2016-02-21T12:18:54Z</time>
      </trkpt>
      <trkpt lat="43.93364" lon="5.11357">
        <ele>255.6</ele>
        <time>2016-02-21T12:19:09Z</time>
      </trkpt>
      <trkpt lat="43.93366" lon="5.1137">
        <ele>257.1</ele>
        <time>2016-02-21T12:19:20Z</time>
      </trkpt>
      <trkpt lat="43.93368" lon="5.11383">
        <ele>259.1</ele>
        <time>2016-02-21T12:19:44Z</time>
      </trkpt>
      <trkpt lat="43.93377" lon="5.11392">
        <ele>259.5</ele>
        <time>2016-02-21T12:20:02Z</time>
      </trkpt>
      <trkpt lat="43.93385" lon="5.114">
        <ele>259.1</ele>
        <time>2016-02-21T12:20:14Z</time>
      </trkpt>
      <trkpt lat="43.93394" lon="5.11405">
        <ele>258.1</ele>
        <time>2016-02-21T12:20:26Z</time>
      </trkpt>
      <trkpt lat="43.93402" lon="5.1141">
        <ele>257.2</ele>
        <time>2016-02-21T12:20:35Z</time>
      </trkpt>
      <trkpt lat="43.93411" lon="5.11415">
        <ele>256.2</ele>
        <time>2016-02-21T12:20:45Z</time>
      </trkpt>
      <trkpt lat="43.93419" lon="5.11422">
        <ele>255.2</ele>
        <time>2016-02-21T12:20:53Z</time>
      </trkpt>
      <trkpt lat="43.93428" lon="5.11426">
        <ele>253.9</ele>
        <time>2016-02-21T12:21:04Z</time>
      </trkpt>
      <trkpt lat="43.93436" lon="5.11434">
        <ele>252.8</ele>
        <time>2016-02-21T12:21:13Z</time>
      </trkpt>
      <trkpt lat="43.93445" lon="5.11443">
        <ele>251.6</ele>
        <time>2016-02-21T12:21:22Z</time>
      </trkpt>
      <trkpt lat="43.93452" lon="5.11452">
        <ele>250.6</ele>
        <time>2016-02-21T12:21:30Z</time>
      </trkpt>
      <trkpt lat="43.93458" lon="5.11461">
        <ele>249.5</ele>
        <time>2016-02-21T12:21:38Z</time>
      </trkpt>
      <trkpt lat="43.93465" lon="5.11469">
        <ele>248.6</ele>
        <time>2016-02-21T12:21:46Z</time>
      </trkpt>
      <trkpt lat="43.93471" lon="5.11479">
        <ele>247.5</ele>
        <time>2016-02-21T12:21:54Z</time>
      </trkpt>
      <trkpt lat="43.93479" lon="5.11486">
        <ele>246.7</ele>
        <time>2016-02-21T12:22:01Z</time>
      </trkpt>
      <trkpt lat="43.93485" lon="5.11495">
        <ele>245.9</ele>
        <time>2016-02-21T12:22:07Z</time>
      </trkpt>
      <trkpt lat="43.93492" lon="5.11505">
        <ele>244.3</ele>
        <time>2016-02-21T12:22:17Z</time>
      </trkpt>
      <trkpt lat="43.93494" lon="5.11518">
        <ele>243.2</ele>
        <time>2016-02-21T12:22:24Z</time>
      </trkpt>
      <trkpt lat="43.93497" lon="5.11532">
        <ele>242.2</ele>
        <time>2016-02-21T12:22:30Z</time>
      </trkpt>
      <trkpt lat="43.93499" lon="5.11545">
        <ele>241</ele>
        <time>2016-02-21T12:22:36Z</time>
      </trkpt>
      <trkpt lat="43.93499" lon="5.1156">
        <ele>239.8</ele>
        <time>2016-02-21T12:22:42Z</time>
      </trkpt>
      <trkpt lat="43.93496" lon="5.11572">
        <ele>238.8</ele>
        <time>2016-02-21T12:22:48Z</time>
      </trkpt>
      <trkpt lat="43.93485" lon="5.11565">
        <ele>238.2</ele>
        <time>2016-02-21T12:22:52Z</time>
      </trkpt>
      <trkpt lat="43.93479" lon="5.11555">
        <ele>237.7</ele>
        <time>2016-02-21T12:22:55Z</time>
      </trkpt>
      <trkpt lat="43.93471" lon="5.11549">
        <ele>237.4</ele>
        <time>2016-02-21T12:22:57Z</time>
      </trkpt>
      <trkpt lat="43.93461" lon="5.11545">
        <ele>237</ele>
        <time>2016-02-21T12:23:01Z</time>
      </trkpt>
      <trkpt lat="43.93451" lon="5.11545">
        <ele>236.5</ele>
        <time>2016-02-21T12:23:08Z</time>
      </trkpt>
      <trkpt lat="43.93442" lon="5.11548">
        <ele>236.3</ele>
        <time>2016-02-21T12:23:18Z</time>
      </trkpt>
      <trkpt lat="43.93436" lon="5.11557">
        <ele>236.6</ele>
        <time>2016-02-21T12:23:26Z</time>
      </trkpt>
      <trkpt lat="43.93425" lon="5.11562">
        <ele>236.9</ele>
        <time>2016-02-21T12:23:30Z</time>
      </trkpt>
      <trkpt lat="43.93417" lon="5.1157">
        <ele>237.6</ele>
        <time>2016-02-21T12:23:39Z</time>
      </trkpt>
      <trkpt lat="43.93407" lon="5.1157">
        <ele>238.2</ele>
        <time>2016-02-21T12:23:45Z</time>
      </trkpt>
      <trkpt lat="43.93398" lon="5.11572">
        <ele>238.8</ele>
        <time>2016-02-21T12:23:50Z</time>
      </trkpt>
      <trkpt lat="43.93391" lon="5.11584">
        <ele>239.9</ele>
        <time>2016-02-21T12:23:59Z</time>
      </trkpt>
      <trkpt lat="43.93386" lon="5.11594">
        <ele>241.5</ele>
        <time>2016-02-21T12:24:10Z</time>
      </trkpt>
      <trkpt lat="43.93379" lon="5.11604">
        <ele>242.7</ele>
        <time>2016-02-21T12:24:18Z</time>
      </trkpt>
      <trkpt lat="43.93372" lon="5.11613">
        <ele>243.8</ele>
        <time>2016-02-21T12:24:24Z</time>
      </trkpt>
      <trkpt lat="43.93367" lon="5.11624">
        <ele>244.7</ele>
        <time>2016-02-21T12:24:29Z</time>
      </trkpt>
      <trkpt lat="43.93358" lon="5.11629">
        <ele>246</ele>
        <time>2016-02-21T12:24:37Z</time>
      </trkpt>
      <trkpt lat="43.93349" lon="5.11634">
        <ele>247.3</ele>
        <time>2016-02-21T12:24:45Z</time>
      </trkpt>
      <trkpt lat="43.93341" lon="5.11642">
        <ele>249.1</ele>
        <time>2016-02-21T12:24:56Z</time>
      </trkpt>
      <trkpt lat="43.93333" lon="5.11647">
        <ele>250.3</ele>
        <time>2016-02-21T12:25:03Z</time>
      </trkpt>
      <trkpt lat="43.93328" lon="5.11659">
        <ele>251.7</ele>
        <time>2016-02-21T12:25:12Z</time>
      </trkpt>
      <trkpt lat="43.93318" lon="5.11662">
        <ele>252.8</ele>
        <time>2016-02-21T12:25:18Z</time>
      </trkpt>
      <trkpt lat="43.93308" lon="5.11666">
        <ele>253.8</ele>
        <time>2016-02-21T12:25:23Z</time>
      </trkpt>
      <trkpt lat="43.93307" lon="5.11678">
        <ele>254.9</ele>
        <time>2016-02-21T12:25:29Z</time>
      </trkpt>
      <trkpt lat="43.93297" lon="5.11685">
        <ele>256.4</ele>
        <time>2016-02-21T12:25:36Z</time>
      </trkpt>
      <trkpt lat="43.93288" lon="5.11693">
        <ele>258.6</ele>
        <time>2016-02-21T12:25:44Z</time>
      </trkpt>
      <trkpt lat="43.93283" lon="5.11705">
        <ele>260.8</ele>
        <time>2016-02-21T12:25:51Z</time>
      </trkpt>
      <trkpt lat="43.93276" lon="5.11713">
        <ele>264.5</ele>
        <time>2016-02-21T12:26:02Z</time>
      </trkpt>
      <trkpt lat="43.93267" lon="5.11718">
        <ele>266</ele>
        <time>2016-02-21T12:26:07Z</time>
      </trkpt>
      <trkpt lat="43.9326" lon="5.11727">
        <ele>267.6</ele>
        <time>2016-02-21T12:26:12Z</time>
      </trkpt>
      <trkpt lat="43.9325" lon="5.11734">
        <ele>269.5</ele>
        <time>2016-02-21T12:26:18Z</time>
      </trkpt>
      <trkpt lat="43.93242" lon="5.1174">
        <ele>271.7</ele>
        <time>2016-02-21T12:26:26Z</time>
      </trkpt>
      <trkpt lat="43.93237" lon="5.11752">
        <ele>274.6</ele>
        <time>2016-02-21T12:26:36Z</time>
      </trkpt>
      <trkpt lat="43.93245" lon="5.11746">
        <ele>276.2</ele>
        <time>2016-02-21T12:26:42Z</time>
      </trkpt>
      <trkpt lat="43.93254" lon="5.11741">
        <ele>278.5</ele>
        <time>2016-02-21T12:26:51Z</time>
      </trkpt>
      <trkpt lat="43.93264" lon="5.11761">
        <ele>282.1</ele>
        <time>2016-02-21T12:27:03Z</time>
      </trkpt>
      <trkpt lat="43.93273" lon="5.11755">
        <ele>283.8</ele>
        <time>2016-02-21T12:27:09Z</time>
      </trkpt>
      <trkpt lat="43.93286" lon="5.1176">
        <ele>284.8</ele>
        <time>2016-02-21T12:27:13Z</time>
      </trkpt>
      <trkpt lat="43.93294" lon="5.11766">
        <ele>286</ele>
        <time>2016-02-21T12:27:17Z</time>
      </trkpt>
      <trkpt lat="43.93303" lon="5.11766">
        <ele>289.5</ele>
        <time>2016-02-21T12:27:30Z</time>
      </trkpt>
      <trkpt lat="43.93312" lon="5.11767">
        <ele>293.4</ele>
        <time>2016-02-21T12:27:47Z</time>
      </trkpt>
      <trkpt lat="43.9332" lon="5.11774">
        <ele>295.7</ele>
        <time>2016-02-21T12:27:57Z</time>
      </trkpt>
      <trkpt lat="43.93319" lon="5.11787">
        <ele>297.7</ele>
        <time>2016-02-21T12:28:09Z</time>
      </trkpt>
      <trkpt lat="43.93313" lon="5.11797">
        <ele>299.4</ele>
        <time>2016-02-21T12:28:20Z</time>
      </trkpt>
      <trkpt lat="43.93306" lon="5.11806">
        <ele>300.3</ele>
        <time>2016-02-21T12:28:27Z</time>
      </trkpt>
      <trkpt lat="43.93298" lon="5.11813">
        <ele>301.4</ele>
        <time>2016-02-21T12:28:34Z</time>
      </trkpt>
      <trkpt lat="43.93296" lon="5.11826">
        <ele>303.3</ele>
        <time>2016-02-21T12:28:44Z</time>
      </trkpt>
      <trkpt lat="43.93299" lon="5.11839">
        <ele>305.1</ele>
        <time>2016-02-21T12:28:55Z</time>
      </trkpt>
      <trkpt lat="43.93304" lon="5.1185">
        <ele>306.8</ele>
        <time>2016-02-21T12:29:08Z</time>
      </trkpt>
      <trkpt lat="43.93312" lon="5.11857">
        <ele>308</ele>
        <time>2016-02-21T12:29:19Z</time>
      </trkpt>
      <trkpt lat="43.93319" lon="5.11866">
        <ele>308.9</ele>
        <time>2016-02-21T12:29:28Z</time>
      </trkpt>
      <trkpt lat="43.93324" lon="5.11877">
        <ele>309.7</ele>
        <time>2016-02-21T12:29:41Z</time>
      </trkpt>
      <trkpt lat="43.9333" lon="5.11888">
        <ele>310.1</ele>
        <time>2016-02-21T12:29:46Z</time>
      </trkpt>
      <trkpt lat="43.93338" lon="5.11897">
        <ele>310.6</ele>
        <time>2016-02-21T12:29:55Z</time>
      </trkpt>
      <trkpt lat="43.93343" lon="5.11909">
        <ele>311.1</ele>
        <time>2016-02-21T12:30:06Z</time>
      </trkpt>
      <trkpt lat="43.9335" lon="5.11916">
        <ele>311.6</ele>
        <time>2016-02-21T12:30:13Z</time>
      </trkpt>
      <trkpt lat="43.93359" lon="5.11919">
        <ele>312.4</ele>
        <time>2016-02-21T12:30:26Z</time>
      </trkpt>
      <trkpt lat="43.93368" lon="5.11931">
        <ele>312.8</ele>
        <time>2016-02-21T12:30:35Z</time>
      </trkpt>
      <trkpt lat="43.93376" lon="5.11941">
        <ele>312.9</ele>
        <time>2016-02-21T12:30:38Z</time>
      </trkpt>
      <trkpt lat="43.93384" lon="5.11949">
        <ele>313.2</ele>
        <time>2016-02-21T12:30:43Z</time>
      </trkpt>
      <trkpt lat="43.93391" lon="5.1196">
        <ele>313.4</ele>
        <time>2016-02-21T12:30:47Z</time>
      </trkpt>
      <trkpt lat="43.93401" lon="5.11961">
        <ele>313.9</ele>
        <time>2016-02-21T12:30:57Z</time>
      </trkpt>
      <trkpt lat="43.93411" lon="5.11964">
        <ele>314.7</ele>
        <time>2016-02-21T12:31:18Z</time>
      </trkpt>
      <trkpt lat="43.93414" lon="5.11976">
        <ele>314.8</ele>
        <time>2016-02-21T12:31:23Z</time>
      </trkpt>
      <trkpt lat="43.9342" lon="5.11988">
        <ele>314.8</ele>
        <time>2016-02-21T12:31:28Z</time>
      </trkpt>
      <trkpt lat="43.93428" lon="5.11999">
        <ele>314.6</ele>
        <time>2016-02-21T12:31:33Z</time>
      </trkpt>
      <trkpt lat="43.93435" lon="5.12008">
        <ele>314.5</ele>
        <time>2016-02-21T12:31:37Z</time>
      </trkpt>
      <trkpt lat="43.93442" lon="5.12016">
        <ele>314.4</ele>
        <time>2016-02-21T12:31:45Z</time>
      </trkpt>
      <trkpt lat="43.93449" lon="5.12027">
        <ele>314.5</ele>
        <time>2016-02-21T12:31:51Z</time>
      </trkpt>
      <trkpt lat="43.93457" lon="5.12035">
        <ele>314.7</ele>
        <time>2016-02-21T12:31:58Z</time>
      </trkpt>
      <trkpt lat="43.93462" lon="5.12045">
        <ele>315.2</ele>
        <time>2016-02-21T12:32:07Z</time>
      </trkpt>
      <trkpt lat="43.93465" lon="5.12058">
        <ele>315.6</ele>
        <time>2016-02-21T12:32:13Z</time>
      </trkpt>
      <trkpt lat="43.93467" lon="5.12072">
        <ele>315.9</ele>
        <time>2016-02-21T12:32:17Z</time>
      </trkpt>
      <trkpt lat="43.93469" lon="5.12085">
        <ele>316</ele>
        <time>2016-02-21T12:32:20Z</time>
      </trkpt>
      <trkpt lat="43.93471" lon="5.12098">
        <ele>316.3</ele>
        <time>2016-02-21T12:32:24Z</time>
      </trkpt>
      <trkpt lat="43.93471" lon="5.12111">
        <ele>316.9</ele>
        <time>2016-02-21T12:32:31Z</time>
      </trkpt>
      <trkpt lat="43.93466" lon="5.12122">
        <ele>317.5</ele>
        <time>2016-02-21T12:32:38Z</time>
      </trkpt>
      <trkpt lat="43.93461" lon="5.12134">
        <ele>318</ele>
        <time>2016-02-21T12:32:45Z</time>
      </trkpt>
      <trkpt lat="43.93454" lon="5.12144">
        <ele>318.6</ele>
        <time>2016-02-21T12:32:52Z</time>
      </trkpt>
      <trkpt lat="43.93448" lon="5.12154">
        <ele>319.3</ele>
        <time>2016-02-21T12:33:00Z</time>
      </trkpt>
      <trkpt lat="43.93444" lon="5.12165">
        <ele>320.2</ele>
        <time>2016-02-21T12:33:10Z</time>
      </trkpt>
      <trkpt lat="43.93445" lon="5.12178">
        <ele>321</ele>
        <time>2016-02-21T12:33:17Z</time>
      </trkpt>
      <trkpt lat="43.93447" lon="5.12194">
        <ele>321.4</ele>
        <time>2016-02-21T12:33:20Z</time>
      </trkpt>
      <trkpt lat="43.93446" lon="5.12208">
        <ele>322</ele>
        <time>2016-02-21T12:33:23Z</time>
      </trkpt>
      <trkpt lat="43.93455" lon="5.12212">
        <ele>322.7</ele>
        <time>2016-02-21T12:33:27Z</time>
      </trkpt>
      <trkpt lat="43.93464" lon="5.1221">
        <ele>323.4</ele>
        <time>2016-02-21T12:33:31Z</time>
      </trkpt>
      <trkpt lat="43.93474" lon="5.12212">
        <ele>324.4</ele>
        <time>2016-02-21T12:33:37Z</time>
      </trkpt>
      <trkpt lat="43.93482" lon="5.12217">
        <ele>325.3</ele>
        <time>2016-02-21T12:33:42Z</time>
      </trkpt>
      <trkpt lat="43.9349" lon="5.12227">
        <ele>326.3</ele>
        <time>2016-02-21T12:33:48Z</time>
      </trkpt>
      <trkpt lat="43.93498" lon="5.12237">
        <ele>327.5</ele>
        <time>2016-02-21T12:33:55Z</time>
      </trkpt>
      <trkpt lat="43.93504" lon="5.12248">
        <ele>328.7</ele>
        <time>2016-02-21T12:34:02Z</time>
      </trkpt>
      <trkpt lat="43.93507" lon="5.1226">
        <ele>329.7</ele>
        <time>2016-02-21T12:34:09Z</time>
      </trkpt>
      <trkpt lat="43.9351" lon="5.12274">
        <ele>330.8</ele>
        <time>2016-02-21T12:34:16Z</time>
      </trkpt>
      <trkpt lat="43.93512" lon="5.12287">
        <ele>331.9</ele>
        <time>2016-02-21T12:34:23Z</time>
      </trkpt>
      <trkpt lat="43.93516" lon="5.12301">
        <ele>332.9</ele>
        <time>2016-02-21T12:34:29Z</time>
      </trkpt>
      <trkpt lat="43.93524" lon="5.1231">
        <ele>333.7</ele>
        <time>2016-02-21T12:34:35Z</time>
      </trkpt>
      <trkpt lat="43.93528" lon="5.12322">
        <ele>334.4</ele>
        <time>2016-02-21T12:34:42Z</time>
      </trkpt>
      <trkpt lat="43.93533" lon="5.12333">
        <ele>335.2</ele>
        <time>2016-02-21T12:34:50Z</time>
      </trkpt>
      <trkpt lat="43.93534" lon="5.12346">
        <ele>335.7</ele>
        <time>2016-02-21T12:34:56Z</time>
      </trkpt>
      <trkpt lat="43.93537" lon="5.12358">
        <ele>336.1</ele>
        <time>2016-02-21T12:35:02Z</time>
      </trkpt>
      <trkpt lat="43.9354" lon="5.1237">
        <ele>336.2</ele>
        <time>2016-02-21T12:35:09Z</time>
      </trkpt>
      <trkpt lat="43.93544" lon="5.12382">
        <ele>336.3</ele>
        <time>2016-02-21T12:35:14Z</time>
      </trkpt>
      <trkpt lat="43.93547" lon="5.12394">
        <ele>336.3</ele>
        <time>2016-02-21T12:35:19Z</time>
      </trkpt>
      <trkpt lat="43.93552" lon="5.12407">
        <ele>336.4</ele>
        <time>2016-02-21T12:35:25Z</time>
      </trkpt>
      <trkpt lat="43.93561" lon="5.12413">
        <ele>336.3</ele>
        <time>2016-02-21T12:35:31Z</time>
      </trkpt>
      <trkpt lat="43.93568" lon="5.12422">
        <ele>335.9</ele>
        <time>2016-02-21T12:35:37Z</time>
      </trkpt>
      <trkpt lat="43.93573" lon="5.12432">
        <ele>335.5</ele>
        <time>2016-02-21T12:35:43Z</time>
      </trkpt>
      <trkpt lat="43.93575" lon="5.12446">
        <ele>335.1</ele>
        <time>2016-02-21T12:35:49Z</time>
      </trkpt>
      <trkpt lat="43.93578" lon="5.12458">
        <ele>334.7</ele>
        <time>2016-02-21T12:35:54Z</time>
      </trkpt>
      <trkpt lat="43.93579" lon="5.12471">
        <ele>334.4</ele>
        <time>2016-02-21T12:35:59Z</time>
      </trkpt>
      <trkpt lat="43.93577" lon="5.12484">
        <ele>334</ele>
        <time>2016-02-21T12:36:03Z</time>
      </trkpt>
      <trkpt lat="43.9358" lon="5.12496">
        <ele>333.5</ele>
        <time>2016-02-21T12:36:09Z</time>
      </trkpt>
      <trkpt lat="43.93578" lon="5.12509">
        <ele>333.1</ele>
        <time>2016-02-21T12:36:13Z</time>
      </trkpt>
      <trkpt lat="43.93579" lon="5.12522">
        <ele>332.3</ele>
        <time>2016-02-21T12:36:22Z</time>
      </trkpt>
      <trkpt lat="43.93588" lon="5.12518">
        <ele>331.4</ele>
        <time>2016-02-21T12:36:30Z</time>
      </trkpt>
      <trkpt lat="43.93586" lon="5.12535">
        <ele>330.8</ele>
        <time>2016-02-21T12:36:38Z</time>
      </trkpt>
      <trkpt lat="43.93591" lon="5.12547">
        <ele>330.6</ele>
        <time>2016-02-21T12:36:42Z</time>
      </trkpt>
      <trkpt lat="43.93599" lon="5.12556">
        <ele>330.4</ele>
        <time>2016-02-21T12:36:48Z</time>
      </trkpt>
      <trkpt lat="43.93608" lon="5.12562">
        <ele>330</ele>
        <time>2016-02-21T12:36:55Z</time>
      </trkpt>
      <trkpt lat="43.93616" lon="5.12568">
        <ele>329.9</ele>
        <time>2016-02-21T12:37:01Z</time>
      </trkpt>
      <trkpt lat="43.93624" lon="5.12578">
        <ele>329.8</ele>
        <time>2016-02-21T12:37:07Z</time>
      </trkpt>
      <trkpt lat="43.93632" lon="5.12588">
        <ele>329.8</ele>
        <time>2016-02-21T12:37:14Z</time>
      </trkpt>
      <trkpt lat="43.93641" lon="5.12594">
        <ele>329.8</ele>
        <time>2016-02-21T12:37:21Z</time>
      </trkpt>
      <trkpt lat="43.93649" lon="5.12602">
        <ele>329.9</ele>
        <time>2016-02-21T12:37:27Z</time>
      </trkpt>
      <trkpt lat="43.93659" lon="5.12607">
        <ele>330</ele>
        <time>2016-02-21T12:37:35Z</time>
      </trkpt>
      <trkpt lat="43.93668" lon="5.12612">
        <ele>330.1</ele>
        <time>2016-02-21T12:37:44Z</time>
      </trkpt>
      <trkpt lat="43.93678" lon="5.12616">
        <ele>330.1</ele>
        <time>2016-02-21T12:37:50Z</time>
      </trkpt>
      <trkpt lat="43.93687" lon="5.12619">
        <ele>330.1</ele>
        <time>2016-02-21T12:37:56Z</time>
      </trkpt>
      <trkpt lat="43.93697" lon="5.12619">
        <ele>330</ele>
        <time>2016-02-21T12:38:07Z</time>
      </trkpt>
      <trkpt lat="43.93707" lon="5.1262">
        <ele>330</ele>
        <time>2016-02-21T12:38:14Z</time>
      </trkpt>
      <trkpt lat="43.93718" lon="5.12622">
        <ele>329.9</ele>
        <time>2016-02-21T12:38:22Z</time>
      </trkpt>
      <trkpt lat="43.93728" lon="5.12621">
        <ele>330</ele>
        <time>2016-02-21T12:38:28Z</time>
      </trkpt>
      <trkpt lat="43.93739" lon="5.12626">
        <ele>329.9</ele>
        <time>2016-02-21T12:38:34Z</time>
      </trkpt>
      <trkpt lat="43.93747" lon="5.12633">
        <ele>329.9</ele>
        <time>2016-02-21T12:38:39Z</time>
      </trkpt>
      <trkpt lat="43.93755" lon="5.12643">
        <ele>329.9</ele>
        <time>2016-02-21T12:38:45Z</time>
      </trkpt>
      <trkpt lat="43.93763" lon="5.12649">
        <ele>329.9</ele>
        <time>2016-02-21T12:38:51Z</time>
      </trkpt>
      <trkpt lat="43.93772" lon="5.1265">
        <ele>330</ele>
        <time>2016-02-21T12:38:56Z</time>
      </trkpt>
      <trkpt lat="43.93781" lon="5.12653">
        <ele>330.1</ele>
        <time>2016-02-21T12:39:01Z</time>
      </trkpt>
      <trkpt lat="43.93791" lon="5.12654">
        <ele>330.2</ele>
        <time>2016-02-21T12:39:05Z</time>
      </trkpt>
      <trkpt lat="43.938" lon="5.12653">
        <ele>330.3</ele>
        <time>2016-02-21T12:39:09Z</time>
      </trkpt>
      <trkpt lat="43.93811" lon="5.12655">
        <ele>330.4</ele>
        <time>2016-02-21T12:39:16Z</time>
      </trkpt>
      <trkpt lat="43.93819" lon="5.12662">
        <ele>330.7</ele>
        <time>2016-02-21T12:39:22Z</time>
      </trkpt>
      <trkpt lat="43.93815" lon="5.12676">
        <ele>331.1</ele>
        <time>2016-02-21T12:39:30Z</time>
      </trkpt>
      <trkpt lat="43.93808" lon="5.12684">
        <ele>331.3</ele>
        <time>2016-02-21T12:39:35Z</time>
      </trkpt>
      <trkpt lat="43.938" lon="5.1269">
        <ele>331.4</ele>
        <time>2016-02-21T12:39:39Z</time>
      </trkpt>
      <trkpt lat="43.9379" lon="5.12698">
        <ele>331.6</ele>
        <time>2016-02-21T12:39:44Z</time>
      </trkpt>
      <trkpt lat="43.93782" lon="5.12707">
        <ele>331.7</ele>
        <time>2016-02-21T12:39:49Z</time>
      </trkpt>
      <trkpt lat="43.93773" lon="5.12707">
        <ele>331.9</ele>
        <time>2016-02-21T12:39:55Z</time>
      </trkpt>
      <trkpt lat="43.93763" lon="5.12709">
        <ele>332</ele>
        <time>2016-02-21T12:40:01Z</time>
      </trkpt>
      <trkpt lat="43.93753" lon="5.12713">
        <ele>332.1</ele>
        <time>2016-02-21T12:40:07Z</time>
      </trkpt>
      <trkpt lat="43.93743" lon="5.12715">
        <ele>332</ele>
        <time>2016-02-21T12:40:14Z</time>
      </trkpt>
      <trkpt lat="43.93734" lon="5.12716">
        <ele>331.7</ele>
        <time>2016-02-21T12:40:21Z</time>
      </trkpt>
      <trkpt lat="43.93725" lon="5.12719">
        <ele>331.3</ele>
        <time>2016-02-21T12:40:27Z</time>
      </trkpt>
      <trkpt lat="43.93715" lon="5.12719">
        <ele>330.7</ele>
        <time>2016-02-21T12:40:33Z</time>
      </trkpt>
      <trkpt lat="43.93707" lon="5.12726">
        <ele>330.2</ele>
        <time>2016-02-21T12:40:39Z</time>
      </trkpt>
      <trkpt lat="43.937" lon="5.12735">
        <ele>329.5</ele>
        <time>2016-02-21T12:40:48Z</time>
      </trkpt>
      <trkpt lat="43.93691" lon="5.1274">
        <ele>328.9</ele>
        <time>2016-02-21T12:40:55Z</time>
      </trkpt>
      <trkpt lat="43.9368" lon="5.1274">
        <ele>328.4</ele>
        <time>2016-02-21T12:41:01Z</time>
      </trkpt>
      <trkpt lat="43.93672" lon="5.12735">
        <ele>327.5</ele>
        <time>2016-02-21T12:41:11Z</time>
      </trkpt>
      <trkpt lat="43.93661" lon="5.12736">
        <ele>327.1</ele>
        <time>2016-02-21T12:41:16Z</time>
      </trkpt>
      <trkpt lat="43.93652" lon="5.1274">
        <ele>326.7</ele>
        <time>2016-02-21T12:41:21Z</time>
      </trkpt>
      <trkpt lat="43.93643" lon="5.12743">
        <ele>326.3</ele>
        <time>2016-02-21T12:41:27Z</time>
      </trkpt>
      <trkpt lat="43.93633" lon="5.12747">
        <ele>325.6</ele>
        <time>2016-02-21T12:41:35Z</time>
      </trkpt>
      <trkpt lat="43.93623" lon="5.12751">
        <ele>324.5</ele>
        <time>2016-02-21T12:41:48Z</time>
      </trkpt>
      <trkpt lat="43.93616" lon="5.12744">
        <ele>324.2</ele>
        <time>2016-02-21T12:41:51Z</time>
      </trkpt>
      <trkpt lat="43.93607" lon="5.12736">
        <ele>323.6</ele>
        <time>2016-02-21T12:41:57Z</time>
      </trkpt>
      <trkpt lat="43.93598" lon="5.12728">
        <ele>323.2</ele>
        <time>2016-02-21T12:42:01Z</time>
      </trkpt>
      <trkpt lat="43.9359" lon="5.12719">
        <ele>322.6</ele>
        <time>2016-02-21T12:42:08Z</time>
      </trkpt>
      <trkpt lat="43.9358" lon="5.12713">
        <ele>322.1</ele>
        <time>2016-02-21T12:42:15Z</time>
      </trkpt>
      <trkpt lat="43.93571" lon="5.12708">
        <ele>320.9</ele>
        <time>2016-02-21T12:42:27Z</time>
      </trkpt>
      <trkpt lat="43.9356" lon="5.12708">
        <ele>320</ele>
        <time>2016-02-21T12:42:35Z</time>
      </trkpt>
      <trkpt lat="43.93548" lon="5.12704">
        <ele>319.5</ele>
        <time>2016-02-21T12:42:41Z</time>
      </trkpt>
      <trkpt lat="43.93539" lon="5.12704">
        <ele>319</ele>
        <time>2016-02-21T12:42:45Z</time>
      </trkpt>
      <trkpt lat="43.9353" lon="5.12707">
        <ele>318.4</ele>
        <time>2016-02-21T12:42:52Z</time>
      </trkpt>
      <trkpt lat="43.93526" lon="5.12719">
        <ele>317.6</ele>
        <time>2016-02-21T12:43:01Z</time>
      </trkpt>
      <trkpt lat="43.93532" lon="5.12729">
        <ele>317.1</ele>
        <time>2016-02-21T12:43:08Z</time>
      </trkpt>
      <trkpt lat="43.93537" lon="5.12741">
        <ele>316.6</ele>
        <time>2016-02-21T12:43:16Z</time>
      </trkpt>
      <trkpt lat="43.93541" lon="5.12756">
        <ele>316.3</ele>
        <time>2016-02-21T12:43:23Z</time>
      </trkpt>
      <trkpt lat="43.93545" lon="5.12768">
        <ele>316.2</ele>
        <time>2016-02-21T12:43:29Z</time>
      </trkpt>
      <trkpt lat="43.93552" lon="5.12777">
        <ele>316.1</ele>
        <time>2016-02-21T12:43:36Z</time>
      </trkpt>
      <trkpt lat="43.93561" lon="5.12783">
        <ele>316</ele>
        <time>2016-02-21T12:43:44Z</time>
      </trkpt>
      <trkpt lat="43.93567" lon="5.12797">
        <ele>316</ele>
        <time>2016-02-21T12:43:50Z</time>
      </trkpt>
      <trkpt lat="43.93577" lon="5.12799">
        <ele>316</ele>
        <time>2016-02-21T12:43:56Z</time>
      </trkpt>
      <trkpt lat="43.93587" lon="5.12805">
        <ele>316.2</ele>
        <time>2016-02-21T12:44:03Z</time>
      </trkpt>
      <trkpt lat="43.93596" lon="5.12806">
        <ele>316.5</ele>
        <time>2016-02-21T12:44:09Z</time>
      </trkpt>
      <trkpt lat="43.93601" lon="5.12819">
        <ele>316.9</ele>
        <time>2016-02-21T12:44:16Z</time>
      </trkpt>
      <trkpt lat="43.93609" lon="5.12824">
        <ele>317.1</ele>
        <time>2016-02-21T12:44:21Z</time>
      </trkpt>
      <trkpt lat="43.93619" lon="5.12824">
        <ele>317.2</ele>
        <time>2016-02-21T12:44:25Z</time>
      </trkpt>
      <trkpt lat="43.93629" lon="5.12828">
        <ele>317.4</ele>
        <time>2016-02-21T12:44:32Z</time>
      </trkpt>
      <trkpt lat="43.93639" lon="5.12827">
        <ele>317.6</ele>
        <time>2016-02-21T12:44:37Z</time>
      </trkpt>
      <trkpt lat="43.93648" lon="5.12831">
        <ele>317.7</ele>
        <time>2016-02-21T12:44:43Z</time>
      </trkpt>
      <trkpt lat="43.93657" lon="5.12838">
        <ele>317.8</ele>
        <time>2016-02-21T12:44:49Z</time>
      </trkpt>
      <trkpt lat="43.93665" lon="5.12845">
        <ele>317.9</ele>
        <time>2016-02-21T12:44:55Z</time>
      </trkpt>
      <trkpt lat="43.93673" lon="5.12852">
        <ele>318</ele>
        <time>2016-02-21T12:45:01Z</time>
      </trkpt>
      <trkpt lat="43.93682" lon="5.12858">
        <ele>318.1</ele>
        <time>2016-02-21T12:45:08Z</time>
      </trkpt>
      <trkpt lat="43.9369" lon="5.12868">
        <ele>318.1</ele>
        <time>2016-02-21T12:45:14Z</time>
      </trkpt>
      <trkpt lat="43.93698" lon="5.12878">
        <ele>318.2</ele>
        <time>2016-02-21T12:45:21Z</time>
      </trkpt>
      <trkpt lat="43.93708" lon="5.12882">
        <ele>318.2</ele>
        <time>2016-02-21T12:45:41Z</time>
      </trkpt>
      <trkpt lat="43.93717" lon="5.12884">
        <ele>318.2</ele>
        <time>2016-02-21T12:45:46Z</time>
      </trkpt>
      <trkpt lat="43.93726" lon="5.12886">
        <ele>318.3</ele>
        <time>2016-02-21T12:45:49Z</time>
      </trkpt>
      <trkpt lat="43.93735" lon="5.12892">
        <ele>318.5</ele>
        <time>2016-02-21T12:45:55Z</time>
      </trkpt>
      <trkpt lat="43.93743" lon="5.129">
        <ele>318.8</ele>
        <time>2016-02-21T12:46:01Z</time>
      </trkpt>
      <trkpt lat="43.93751" lon="5.12904">
        <ele>319.2</ele>
        <time>2016-02-21T12:46:06Z</time>
      </trkpt>
      <trkpt lat="43.93759" lon="5.1291">
        <ele>319.5</ele>
        <time>2016-02-21T12:46:12Z</time>
      </trkpt>
      <trkpt lat="43.9377" lon="5.12913">
        <ele>319.9</ele>
        <time>2016-02-21T12:46:18Z</time>
      </trkpt>
      <trkpt lat="43.9378" lon="5.12913">
        <ele>320.1</ele>
        <time>2016-02-21T12:46:22Z</time>
      </trkpt>
      <trkpt lat="43.9379" lon="5.12917">
        <ele>320.3</ele>
        <time>2016-02-21T12:46:26Z</time>
      </trkpt>
      <trkpt lat="43.93798" lon="5.12925">
        <ele>320.7</ele>
        <time>2016-02-21T12:46:31Z</time>
      </trkpt>
      <trkpt lat="43.93807" lon="5.12929">
        <ele>321.3</ele>
        <time>2016-02-21T12:46:38Z</time>
      </trkpt>
      <trkpt lat="43.93817" lon="5.12928">
        <ele>321.8</ele>
        <time>2016-02-21T12:46:45Z</time>
      </trkpt>
      <trkpt lat="43.93828" lon="5.12933">
        <ele>322.3</ele>
        <time>2016-02-21T12:46:52Z</time>
      </trkpt>
      <trkpt lat="43.93836" lon="5.12936">
        <ele>322.7</ele>
        <time>2016-02-21T12:46:58Z</time>
      </trkpt>
      <trkpt lat="43.93845" lon="5.12942">
        <ele>323.1</ele>
        <time>2016-02-21T12:47:03Z</time>
      </trkpt>
      <trkpt lat="43.93854" lon="5.12944">
        <ele>323.5</ele>
        <time>2016-02-21T12:47:08Z</time>
      </trkpt>
      <trkpt lat="43.93864" lon="5.12945">
        <ele>323.8</ele>
        <time>2016-02-21T12:47:13Z</time>
      </trkpt>
      <trkpt lat="43.93874" lon="5.12944">
        <ele>324.3</ele>
        <time>2016-02-21T12:47:18Z</time>
      </trkpt>
      <trkpt lat="43.93884" lon="5.12943">
        <ele>325.1</ele>
        <time>2016-02-21T12:47:26Z</time>
      </trkpt>
      <trkpt lat="43.93893" lon="5.12944">
        <ele>325.6</ele>
        <time>2016-02-21T12:47:33Z</time>
      </trkpt>
      <trkpt lat="43.93903" lon="5.12944">
        <ele>326.2</ele>
        <time>2016-02-21T12:47:44Z</time>
      </trkpt>
      <trkpt lat="43.93912" lon="5.12941">
        <ele>326.6</ele>
        <time>2016-02-21T12:47:50Z</time>
      </trkpt>
      <trkpt lat="43.93922" lon="5.12943">
        <ele>326.9</ele>
        <time>2016-02-21T12:47:56Z</time>
      </trkpt>
      <trkpt lat="43.93931" lon="5.12937">
        <ele>327.2</ele>
        <time>2016-02-21T12:48:01Z</time>
      </trkpt>
      <trkpt lat="43.9394" lon="5.12935">
        <ele>327.6</ele>
        <time>2016-02-21T12:48:08Z</time>
      </trkpt>
      <trkpt lat="43.93949" lon="5.12937">
        <ele>327.9</ele>
        <time>2016-02-21T12:48:13Z</time>
      </trkpt>
      <trkpt lat="43.93958" lon="5.1294">
        <ele>328.1</ele>
        <time>2016-02-21T12:48:18Z</time>
      </trkpt>
      <trkpt lat="43.93968" lon="5.12944">
        <ele>328.4</ele>
        <time>2016-02-21T12:48:23Z</time>
      </trkpt>
      <trkpt lat="43.93978" lon="5.12947">
        <ele>328.7</ele>
        <time>2016-02-21T12:48:28Z</time>
      </trkpt>
      <trkpt lat="43.93988" lon="5.12944">
        <ele>329.4</ele>
        <time>2016-02-21T12:48:38Z</time>
      </trkpt>
      <trkpt lat="43.93999" lon="5.12946">
        <ele>330</ele>
        <time>2016-02-21T12:48:45Z</time>
      </trkpt>
      <trkpt lat="43.94009" lon="5.12946">
        <ele>330.5</ele>
        <time>2016-02-21T12:48:51Z</time>
      </trkpt>
      <trkpt lat="43.94018" lon="5.12943">
        <ele>330.9</ele>
        <time>2016-02-21T12:48:56Z</time>
      </trkpt>
      <trkpt lat="43.94026" lon="5.12952">
        <ele>331.4</ele>
        <time>2016-02-21T12:49:03Z</time>
      </trkpt>
      <trkpt lat="43.94037" lon="5.12959">
        <ele>332.1</ele>
        <time>2016-02-21T12:49:10Z</time>
      </trkpt>
      <trkpt lat="43.94046" lon="5.12963">
        <ele>333</ele>
        <time>2016-02-21T12:49:20Z</time>
      </trkpt>
      <trkpt lat="43.94054" lon="5.12969">
        <ele>333.9</ele>
        <time>2016-02-21T12:49:27Z</time>
      </trkpt>
      <trkpt lat="43.94064" lon="5.1297">
        <ele>334.7</ele>
        <time>2016-02-21T12:49:34Z</time>
      </trkpt>
      <trkpt lat="43.94075" lon="5.12974">
        <ele>335.6</ele>
        <time>2016-02-21T12:49:41Z</time>
      </trkpt>
      <trkpt lat="43.94084" lon="5.12974">
        <ele>336.8</ele>
        <time>2016-02-21T12:49:53Z</time>
      </trkpt>
      <trkpt lat="43.94094" lon="5.12973">
        <ele>337.9</ele>
        <time>2016-02-21T12:50:02Z</time>
      </trkpt>
      <trkpt lat="43.94105" lon="5.12971">
        <ele>338.4</ele>
        <time>2016-02-21T12:50:07Z</time>
      </trkpt>
      <trkpt lat="43.94114" lon="5.12973">
        <ele>339.1</ele>
        <time>2016-02-21T12:50:14Z</time>
      </trkpt>
      <trkpt lat="43.94122" lon="5.12982">
        <ele>339.6</ele>
        <time>2016-02-21T12:50:21Z</time>
      </trkpt>
      <trkpt lat="43.9413" lon="5.12991">
        <ele>339.9</ele>
        <time>2016-02-21T12:50:26Z</time>
      </trkpt>
      <trkpt lat="43.94139" lon="5.13001">
        <ele>340.6</ele>
        <time>2016-02-21T12:50:43Z</time>
      </trkpt>
      <trkpt lat="43.94143" lon="5.13012">
        <ele>340.9</ele>
        <time>2016-02-21T12:51:06Z</time>
      </trkpt>
      <trkpt lat="43.94148" lon="5.13024">
        <ele>341</ele>
        <time>2016-02-21T12:51:14Z</time>
      </trkpt>
      <trkpt lat="43.94152" lon="5.13037">
        <ele>341</ele>
        <time>2016-02-21T12:51:20Z</time>
      </trkpt>
      <trkpt lat="43.94158" lon="5.13049">
        <ele>341.2</ele>
        <time>2016-02-21T12:51:29Z</time>
      </trkpt>
      <trkpt lat="43.94163" lon="5.13061">
        <ele>341.3</ele>
        <time>2016-02-21T12:51:36Z</time>
      </trkpt>
      <trkpt lat="43.94157" lon="5.13072">
        <ele>343.1</ele>
        <time>2016-02-21T12:52:42Z</time>
      </trkpt>
      <trkpt lat="43.94155" lon="5.13085">
        <ele>343.2</ele>
        <time>2016-02-21T12:53:41Z</time>
      </trkpt>
      <trkpt lat="43.94145" lon="5.13086">
        <ele>343.3</ele>
        <time>2016-02-21T12:54:02Z</time>
      </trkpt>
      <trkpt lat="43.94136" lon="5.13084">
        <ele>343.4</ele>
        <time>2016-02-21T12:54:13Z</time>
      </trkpt>
      <trkpt lat="43.94148" lon="5.131">
        <ele>343</ele>
        <time>2016-02-21T12:54:44Z</time>
      </trkpt>
      <trkpt lat="43.9415" lon="5.13101">
        <ele>344.1</ele>
        <time>2016-02-21T12:55:31Z</time>
      </trkpt>
      <trkpt lat="43.9408" lon="5.1307">
        <ele>292.3</ele>
        <time>2016-02-21T14:17:45Z</time>
      </trkpt>
      <trkpt lat="43.9407" lon="5.13069">
        <ele>292.3</ele>
        <time>2016-02-21T14:17:50Z</time>
      </trkpt>
      <trkpt lat="43.94061" lon="5.13064">
        <ele>292.3</ele>
        <time>2016-02-21T14:17:57Z</time>
      </trkpt>
      <trkpt lat="43.94103" lon="5.13063">
        <ele>292</ele>
        <time>2016-02-21T14:18:05Z</time>
      </trkpt>
      <trkpt lat="43.94117" lon="5.13063">
        <ele>292.3</ele>
        <time>2016-02-21T14:18:10Z</time>
      </trkpt>
      <trkpt lat="43.94124" lon="5.13052">
        <ele>292</ele>
        <time>2016-02-21T14:18:49Z</time>
      </trkpt>
      <trkpt lat="43.94129" lon="5.13041">
        <ele>291.8</ele>
        <time>2016-02-21T14:18:53Z</time>
      </trkpt>
      <trkpt lat="43.94137" lon="5.13031">
        <ele>291.8</ele>
        <time>2016-02-21T14:18:58Z</time>
      </trkpt>
      <trkpt lat="43.94146" lon="5.13023">
        <ele>292.1</ele>
        <time>2016-02-21T14:19:03Z</time>
      </trkpt>
      <trkpt lat="43.94154" lon="5.13015">
        <ele>293.3</ele>
        <time>2016-02-21T14:19:11Z</time>
      </trkpt>
      <trkpt lat="43.94165" lon="5.13011">
        <ele>294.2</ele>
        <time>2016-02-21T14:19:16Z</time>
      </trkpt>
      <trkpt lat="43.94176" lon="5.13004">
        <ele>295.4</ele>
        <time>2016-02-21T14:19:22Z</time>
      </trkpt>
      <trkpt lat="43.94186" lon="5.13">
        <ele>296.9</ele>
        <time>2016-02-21T14:19:28Z</time>
      </trkpt>
      <trkpt lat="43.94192" lon="5.1299">
        <ele>299.6</ele>
        <time>2016-02-21T14:19:40Z</time>
      </trkpt>
      <trkpt lat="43.94205" lon="5.12993">
        <ele>300</ele>
        <time>2016-02-21T14:19:45Z</time>
      </trkpt>
      <trkpt lat="43.94206" lon="5.1298">
        <ele>302.5</ele>
        <time>2016-02-21T14:19:52Z</time>
      </trkpt>
      <trkpt lat="43.94206" lon="5.12967">
        <ele>303.2</ele>
        <time>2016-02-21T14:19:55Z</time>
      </trkpt>
      <trkpt lat="43.94208" lon="5.12953">
        <ele>304.4</ele>
        <time>2016-02-21T14:19:59Z</time>
      </trkpt>
      <trkpt lat="43.9421" lon="5.12937">
        <ele>306.4</ele>
        <time>2016-02-21T14:20:05Z</time>
      </trkpt>
      <trkpt lat="43.94208" lon="5.12928">
        <ele>307.8</ele>
        <time>2016-02-21T14:20:09Z</time>
      </trkpt>
      <trkpt lat="43.94206" lon="5.12915">
        <ele>310.5</ele>
        <time>2016-02-21T14:20:16Z</time>
      </trkpt>
      <trkpt lat="43.94206" lon="5.12902">
        <ele>312.3</ele>
        <time>2016-02-21T14:20:23Z</time>
      </trkpt>
      <trkpt lat="43.942" lon="5.12891">
        <ele>313.7</ele>
        <time>2016-02-21T14:20:30Z</time>
      </trkpt>
      <trkpt lat="43.94195" lon="5.1288">
        <ele>315.6</ele>
        <time>2016-02-21T14:20:39Z</time>
      </trkpt>
      <trkpt lat="43.94189" lon="5.12867">
        <ele>317</ele>
        <time>2016-02-21T14:20:46Z</time>
      </trkpt>
      <trkpt lat="43.94181" lon="5.1286">
        <ele>318.6</ele>
        <time>2016-02-21T14:20:54Z</time>
      </trkpt>
      <trkpt lat="43.94174" lon="5.12851">
        <ele>320.3</ele>
        <time>2016-02-21T14:21:02Z</time>
      </trkpt>
      <trkpt lat="43.94169" lon="5.1284">
        <ele>321.4</ele>
        <time>2016-02-21T14:21:07Z</time>
      </trkpt>
      <trkpt lat="43.94161" lon="5.12832">
        <ele>323</ele>
        <time>2016-02-21T14:21:14Z</time>
      </trkpt>
      <trkpt lat="43.94149" lon="5.12827">
        <ele>324.4</ele>
        <time>2016-02-21T14:21:20Z</time>
      </trkpt>
      <trkpt lat="43.94141" lon="5.12822">
        <ele>326</ele>
        <time>2016-02-21T14:21:28Z</time>
      </trkpt>
      <trkpt lat="43.94131" lon="5.12817">
        <ele>327.2</ele>
        <time>2016-02-21T14:21:34Z</time>
      </trkpt>
      <trkpt lat="43.94124" lon="5.12808">
        <ele>328.4</ele>
        <time>2016-02-21T14:21:39Z</time>
      </trkpt>
      <trkpt lat="43.9412" lon="5.12795">
        <ele>331.8</ele>
        <time>2016-02-21T14:21:51Z</time>
      </trkpt>
      <trkpt lat="43.94111" lon="5.12783">
        <ele>334.3</ele>
        <time>2016-02-21T14:22:00Z</time>
      </trkpt>
      <trkpt lat="43.94101" lon="5.1278">
        <ele>335.3</ele>
        <time>2016-02-21T14:22:05Z</time>
      </trkpt>
      <trkpt lat="43.94091" lon="5.12776">
        <ele>336.5</ele>
        <time>2016-02-21T14:22:12Z</time>
      </trkpt>
      <trkpt lat="43.94082" lon="5.12772">
        <ele>337.3</ele>
        <time>2016-02-21T14:22:18Z</time>
      </trkpt>
      <trkpt lat="43.94075" lon="5.12764">
        <ele>338.2</ele>
        <time>2016-02-21T14:22:26Z</time>
      </trkpt>
      <trkpt lat="43.94078" lon="5.12753">
        <ele>338.9</ele>
        <time>2016-02-21T14:22:34Z</time>
      </trkpt>
      <trkpt lat="43.9408" lon="5.1274">
        <ele>339.4</ele>
        <time>2016-02-21T14:22:47Z</time>
      </trkpt>
      <trkpt lat="43.94087" lon="5.1273">
        <ele>339.2</ele>
        <time>2016-02-21T14:23:01Z</time>
      </trkpt>
      <trkpt lat="43.94093" lon="5.12718">
        <ele>338.6</ele>
        <time>2016-02-21T14:23:10Z</time>
      </trkpt>
      <trkpt lat="43.941" lon="5.12708">
        <ele>338</ele>
        <time>2016-02-21T14:23:19Z</time>
      </trkpt>
      <trkpt lat="43.94104" lon="5.12695">
        <ele>337.6</ele>
        <time>2016-02-21T14:23:27Z</time>
      </trkpt>
      <trkpt lat="43.94107" lon="5.12683">
        <ele>337.1</ele>
        <time>2016-02-21T14:23:32Z</time>
      </trkpt>
      <trkpt lat="43.94105" lon="5.1267">
        <ele>336.7</ele>
        <time>2016-02-21T14:23:41Z</time>
      </trkpt>
      <trkpt lat="43.94102" lon="5.12656">
        <ele>336.4</ele>
        <time>2016-02-21T14:23:48Z</time>
      </trkpt>
      <trkpt lat="43.941" lon="5.12643">
        <ele>336.1</ele>
        <time>2016-02-21T14:23:55Z</time>
      </trkpt>
      <trkpt lat="43.94096" lon="5.1263">
        <ele>336</ele>
        <time>2016-02-21T14:24:01Z</time>
      </trkpt>
      <trkpt lat="43.94095" lon="5.12617">
        <ele>335.8</ele>
        <time>2016-02-21T14:24:09Z</time>
      </trkpt>
      <trkpt lat="43.94092" lon="5.12604">
        <ele>335.5</ele>
        <time>2016-02-21T14:24:16Z</time>
      </trkpt>
      <trkpt lat="43.94093" lon="5.12591">
        <ele>335.3</ele>
        <time>2016-02-21T14:24:24Z</time>
      </trkpt>
      <trkpt lat="43.94095" lon="5.12577">
        <ele>335</ele>
        <time>2016-02-21T14:24:31Z</time>
      </trkpt>
      <trkpt lat="43.94095" lon="5.12562">
        <ele>334.7</ele>
        <time>2016-02-21T14:24:37Z</time>
      </trkpt>
      <trkpt lat="43.94096" lon="5.12548">
        <ele>334.4</ele>
        <time>2016-02-21T14:24:43Z</time>
      </trkpt>
      <trkpt lat="43.94095" lon="5.12535">
        <ele>334.2</ele>
        <time>2016-02-21T14:24:50Z</time>
      </trkpt>
      <trkpt lat="43.9409" lon="5.12524">
        <ele>334</ele>
        <time>2016-02-21T14:24:56Z</time>
      </trkpt>
      <trkpt lat="43.94085" lon="5.12512">
        <ele>334</ele>
        <time>2016-02-21T14:25:02Z</time>
      </trkpt>
      <trkpt lat="43.9408" lon="5.125">
        <ele>334</ele>
        <time>2016-02-21T14:25:07Z</time>
      </trkpt>
      <trkpt lat="43.94087" lon="5.1249">
        <ele>334.3</ele>
        <time>2016-02-21T14:25:26Z</time>
      </trkpt>
      <trkpt lat="43.94097" lon="5.12487">
        <ele>334.9</ele>
        <time>2016-02-21T14:25:32Z</time>
      </trkpt>
      <trkpt lat="43.94107" lon="5.12494">
        <ele>335.3</ele>
        <time>2016-02-21T14:25:37Z</time>
      </trkpt>
      <trkpt lat="43.94117" lon="5.125">
        <ele>335.5</ele>
        <time>2016-02-21T14:25:41Z</time>
      </trkpt>
      <trkpt lat="43.94126" lon="5.12504">
        <ele>336.2</ele>
        <time>2016-02-21T14:25:48Z</time>
      </trkpt>
      <trkpt lat="43.94134" lon="5.12509">
        <ele>337</ele>
        <time>2016-02-21T14:25:55Z</time>
      </trkpt>
      <trkpt lat="43.94142" lon="5.12517">
        <ele>338.3</ele>
        <time>2016-02-21T14:26:04Z</time>
      </trkpt>
      <trkpt lat="43.94149" lon="5.12525">
        <ele>339</ele>
        <time>2016-02-21T14:26:10Z</time>
      </trkpt>
      <trkpt lat="43.94158" lon="5.12532">
        <ele>339.8</ele>
        <time>2016-02-21T14:26:16Z</time>
      </trkpt>
      <trkpt lat="43.94158" lon="5.12545">
        <ele>340.7</ele>
        <time>2016-02-21T14:26:23Z</time>
      </trkpt>
      <trkpt lat="43.94158" lon="5.12559">
        <ele>341.6</ele>
        <time>2016-02-21T14:26:30Z</time>
      </trkpt>
      <trkpt lat="43.94158" lon="5.12572">
        <ele>342.1</ele>
        <time>2016-02-21T14:26:34Z</time>
      </trkpt>
      <trkpt lat="43.94158" lon="5.12585">
        <ele>342.9</ele>
        <time>2016-02-21T14:26:40Z</time>
      </trkpt>
      <trkpt lat="43.94158" lon="5.12599">
        <ele>344</ele>
        <time>2016-02-21T14:26:48Z</time>
      </trkpt>
      <trkpt lat="43.94158" lon="5.12612">
        <ele>344.9</ele>
        <time>2016-02-21T14:26:55Z</time>
      </trkpt>
      <trkpt lat="43.94157" lon="5.12628">
        <ele>345.6</ele>
        <time>2016-02-21T14:27:00Z</time>
      </trkpt>
      <trkpt lat="43.94163" lon="5.12639">
        <ele>346.6</ele>
        <time>2016-02-21T14:27:06Z</time>
      </trkpt>
      <trkpt lat="43.94171" lon="5.12647">
        <ele>347.5</ele>
        <time>2016-02-21T14:27:12Z</time>
      </trkpt>
      <trkpt lat="43.94181" lon="5.1265">
        <ele>348.7</ele>
        <time>2016-02-21T14:27:19Z</time>
      </trkpt>
      <trkpt lat="43.94186" lon="5.12637">
        <ele>349.5</ele>
        <time>2016-02-21T14:27:24Z</time>
      </trkpt>
      <trkpt lat="43.94193" lon="5.12625">
        <ele>350.3</ele>
        <time>2016-02-21T14:27:29Z</time>
      </trkpt>
      <trkpt lat="43.94196" lon="5.12613">
        <ele>351.1</ele>
        <time>2016-02-21T14:27:34Z</time>
      </trkpt>
      <trkpt lat="43.94199" lon="5.12599">
        <ele>352</ele>
        <time>2016-02-21T14:27:40Z</time>
      </trkpt>
      <trkpt lat="43.94203" lon="5.12585">
        <ele>353</ele>
        <time>2016-02-21T14:27:47Z</time>
      </trkpt>
      <trkpt lat="43.94207" lon="5.12571">
        <ele>354.1</ele>
        <time>2016-02-21T14:27:54Z</time>
      </trkpt>
      <trkpt lat="43.94211" lon="5.1256">
        <ele>354.7</ele>
        <time>2016-02-21T14:27:58Z</time>
      </trkpt>
      <trkpt lat="43.94212" lon="5.12546">
        <ele>356</ele>
        <time>2016-02-21T14:28:06Z</time>
      </trkpt>
      <trkpt lat="43.94217" lon="5.12536">
        <ele>356.8</ele>
        <time>2016-02-21T14:28:12Z</time>
      </trkpt>
      <trkpt lat="43.94225" lon="5.12528">
        <ele>357.8</ele>
        <time>2016-02-21T14:28:20Z</time>
      </trkpt>
      <trkpt lat="43.94231" lon="5.12518">
        <ele>358.6</ele>
        <time>2016-02-21T14:28:26Z</time>
      </trkpt>
      <trkpt lat="43.94237" lon="5.12505">
        <ele>359.9</ele>
        <time>2016-02-21T14:28:34Z</time>
      </trkpt>
      <trkpt lat="43.9424" lon="5.12492">
        <ele>361.1</ele>
        <time>2016-02-21T14:28:42Z</time>
      </trkpt>
      <trkpt lat="43.94238" lon="5.12479">
        <ele>362.1</ele>
        <time>2016-02-21T14:28:49Z</time>
      </trkpt>
      <trkpt lat="43.94238" lon="5.12466">
        <ele>363.6</ele>
        <time>2016-02-21T14:29:00Z</time>
      </trkpt>
      <trkpt lat="43.94235" lon="5.12454">
        <ele>364.9</ele>
        <time>2016-02-21T14:29:11Z</time>
      </trkpt>
      <trkpt lat="43.94235" lon="5.12439">
        <ele>367.7</ele>
        <time>2016-02-21T14:29:35Z</time>
      </trkpt>
      <trkpt lat="43.94241" lon="5.12427">
        <ele>373.2</ele>
        <time>2016-02-21T14:30:23Z</time>
      </trkpt>
      <trkpt lat="43.94251" lon="5.12417">
        <ele>373.6</ele>
        <time>2016-02-21T14:30:27Z</time>
      </trkpt>
      <trkpt lat="43.9426" lon="5.12409">
        <ele>373.9</ele>
        <time>2016-02-21T14:30:30Z</time>
      </trkpt>
      <trkpt lat="43.94269" lon="5.124">
        <ele>374.3</ele>
        <time>2016-02-21T14:30:34Z</time>
      </trkpt>
      <trkpt lat="43.94278" lon="5.12392">
        <ele>374.6</ele>
        <time>2016-02-21T14:30:39Z</time>
      </trkpt>
      <trkpt lat="43.94289" lon="5.12389">
        <ele>374.9</ele>
        <time>2016-02-21T14:30:43Z</time>
      </trkpt>
      <trkpt lat="43.94299" lon="5.1239">
        <ele>375.1</ele>
        <time>2016-02-21T14:30:47Z</time>
      </trkpt>
      <trkpt lat="43.94309" lon="5.1239">
        <ele>375.3</ele>
        <time>2016-02-21T14:30:51Z</time>
      </trkpt>
      <trkpt lat="43.94318" lon="5.12389">
        <ele>375.5</ele>
        <time>2016-02-21T14:30:55Z</time>
      </trkpt>
      <trkpt lat="43.94327" lon="5.12387">
        <ele>375.7</ele>
        <time>2016-02-21T14:30:57Z</time>
      </trkpt>
      <trkpt lat="43.94337" lon="5.12385">
        <ele>375.8</ele>
        <time>2016-02-21T14:31:00Z</time>
      </trkpt>
      <trkpt lat="43.94348" lon="5.12385">
        <ele>376.1</ele>
        <time>2016-02-21T14:31:04Z</time>
      </trkpt>
      <trkpt lat="43.94362" lon="5.12384">
        <ele>376.3</ele>
        <time>2016-02-21T14:31:07Z</time>
      </trkpt>
      <trkpt lat="43.94371" lon="5.12383">
        <ele>376.4</ele>
        <time>2016-02-21T14:31:10Z</time>
      </trkpt>
      <trkpt lat="43.94382" lon="5.12383">
        <ele>376.7</ele>
        <time>2016-02-21T14:31:16Z</time>
      </trkpt>
      <trkpt lat="43.94392" lon="5.12384">
        <ele>377</ele>
        <time>2016-02-21T14:31:21Z</time>
      </trkpt>
      <trkpt lat="43.94402" lon="5.12389">
        <ele>377.3</ele>
        <time>2016-02-21T14:31:26Z</time>
      </trkpt>
      <trkpt lat="43.94413" lon="5.1239">
        <ele>377.5</ele>
        <time>2016-02-21T14:31:29Z</time>
      </trkpt>
      <trkpt lat="43.94424" lon="5.12392">
        <ele>377.9</ele>
        <time>2016-02-21T14:31:33Z</time>
      </trkpt>
      <trkpt lat="43.94434" lon="5.12396">
        <ele>381.8</ele>
        <time>2016-02-21T14:32:45Z</time>
      </trkpt>
      <trkpt lat="43.94442" lon="5.12403">
        <ele>382.2</ele>
        <time>2016-02-21T14:32:52Z</time>
      </trkpt>
      <trkpt lat="43.94451" lon="5.12406">
        <ele>382.6</ele>
        <time>2016-02-21T14:32:58Z</time>
      </trkpt>
      <trkpt lat="43.94459" lon="5.12413">
        <ele>383.3</ele>
        <time>2016-02-21T14:33:05Z</time>
      </trkpt>
      <trkpt lat="43.94468" lon="5.12418">
        <ele>383.8</ele>
        <time>2016-02-21T14:33:11Z</time>
      </trkpt>
      <trkpt lat="43.94477" lon="5.12426">
        <ele>384.3</ele>
        <time>2016-02-21T14:33:16Z</time>
      </trkpt>
      <trkpt lat="43.94486" lon="5.1243">
        <ele>384.9</ele>
        <time>2016-02-21T14:33:23Z</time>
      </trkpt>
      <trkpt lat="43.94496" lon="5.12436">
        <ele>385.7</ele>
        <time>2016-02-21T14:33:30Z</time>
      </trkpt>
      <trkpt lat="43.94505" lon="5.12441">
        <ele>386.3</ele>
        <time>2016-02-21T14:33:38Z</time>
      </trkpt>
      <trkpt lat="43.94514" lon="5.12447">
        <ele>386.9</ele>
        <time>2016-02-21T14:33:46Z</time>
      </trkpt>
      <trkpt lat="43.94523" lon="5.12452">
        <ele>387.5</ele>
        <time>2016-02-21T14:33:53Z</time>
      </trkpt>
      <trkpt lat="43.94532" lon="5.12456">
        <ele>388.3</ele>
        <time>2016-02-21T14:34:00Z</time>
      </trkpt>
      <trkpt lat="43.94542" lon="5.12455">
        <ele>388.9</ele>
        <time>2016-02-21T14:34:06Z</time>
      </trkpt>
      <trkpt lat="43.94551" lon="5.12451">
        <ele>389.7</ele>
        <time>2016-02-21T14:34:13Z</time>
      </trkpt>
      <trkpt lat="43.9456" lon="5.12445">
        <ele>390.4</ele>
        <time>2016-02-21T14:34:20Z</time>
      </trkpt>
      <trkpt lat="43.94569" lon="5.12443">
        <ele>390.8</ele>
        <time>2016-02-21T14:34:25Z</time>
      </trkpt>
      <trkpt lat="43.94578" lon="5.12443">
        <ele>391.5</ele>
        <time>2016-02-21T14:34:32Z</time>
      </trkpt>
      <trkpt lat="43.94588" lon="5.12448">
        <ele>392.3</ele>
        <time>2016-02-21T14:34:39Z</time>
      </trkpt>
      <trkpt lat="43.94598" lon="5.12453">
        <ele>393.2</ele>
        <time>2016-02-21T14:34:46Z</time>
      </trkpt>
      <trkpt lat="43.94607" lon="5.12451">
        <ele>393.8</ele>
        <time>2016-02-21T14:34:52Z</time>
      </trkpt>
      <trkpt lat="43.94615" lon="5.12457">
        <ele>394.7</ele>
        <time>2016-02-21T14:35:02Z</time>
      </trkpt>
      <trkpt lat="43.94622" lon="5.12466">
        <ele>395.3</ele>
        <time>2016-02-21T14:35:09Z</time>
      </trkpt>
      <trkpt lat="43.94625" lon="5.12478">
        <ele>396</ele>
        <time>2016-02-21T14:35:17Z</time>
      </trkpt>
      <trkpt lat="43.94631" lon="5.12488">
        <ele>396.7</ele>
        <time>2016-02-21T14:35:25Z</time>
      </trkpt>
      <trkpt lat="43.94637" lon="5.12499">
        <ele>397.3</ele>
        <time>2016-02-21T14:35:33Z</time>
      </trkpt>
      <trkpt lat="43.94643" lon="5.12511">
        <ele>398</ele>
        <time>2016-02-21T14:35:41Z</time>
      </trkpt>
      <trkpt lat="43.94648" lon="5.12521">
        <ele>398.3</ele>
        <time>2016-02-21T14:35:47Z</time>
      </trkpt>
      <trkpt lat="43.94655" lon="5.12531">
        <ele>398.7</ele>
        <time>2016-02-21T14:35:55Z</time>
      </trkpt>
      <trkpt lat="43.94662" lon="5.12541">
        <ele>399.1</ele>
        <time>2016-02-21T14:36:02Z</time>
      </trkpt>
      <trkpt lat="43.94668" lon="5.12551">
        <ele>399.5</ele>
        <time>2016-02-21T14:36:09Z</time>
      </trkpt>
      <trkpt lat="43.94675" lon="5.1256">
        <ele>399.9</ele>
        <time>2016-02-21T14:36:15Z</time>
      </trkpt>
      <trkpt lat="43.94684" lon="5.12567">
        <ele>400.4</ele>
        <time>2016-02-21T14:36:22Z</time>
      </trkpt>
      <trkpt lat="43.94693" lon="5.12573">
        <ele>400.9</ele>
        <time>2016-02-21T14:36:28Z</time>
      </trkpt>
      <trkpt lat="43.94702" lon="5.1258">
        <ele>401.6</ele>
        <time>2016-02-21T14:36:36Z</time>
      </trkpt>
      <trkpt lat="43.94711" lon="5.12585">
        <ele>402.2</ele>
        <time>2016-02-21T14:36:42Z</time>
      </trkpt>
      <trkpt lat="43.9472" lon="5.1259">
        <ele>402.9</ele>
        <time>2016-02-21T14:36:49Z</time>
      </trkpt>
      <trkpt lat="43.94729" lon="5.12594">
        <ele>403.2</ele>
        <time>2016-02-21T14:36:54Z</time>
      </trkpt>
      <trkpt lat="43.94738" lon="5.12599">
        <ele>403.8</ele>
        <time>2016-02-21T14:37:01Z</time>
      </trkpt>
      <trkpt lat="43.94747" lon="5.12604">
        <ele>404.3</ele>
        <time>2016-02-21T14:37:09Z</time>
      </trkpt>
      <trkpt lat="43.94755" lon="5.12612">
        <ele>404.6</ele>
        <time>2016-02-21T14:37:17Z</time>
      </trkpt>
      <trkpt lat="43.94763" lon="5.1262">
        <ele>404.6</ele>
        <time>2016-02-21T14:37:25Z</time>
      </trkpt>
      <trkpt lat="43.94771" lon="5.12627">
        <ele>404.4</ele>
        <time>2016-02-21T14:37:31Z</time>
      </trkpt>
      <trkpt lat="43.94781" lon="5.12633">
        <ele>403.8</ele>
        <time>2016-02-21T14:37:38Z</time>
      </trkpt>
      <trkpt lat="43.94789" lon="5.1264">
        <ele>403.1</ele>
        <time>2016-02-21T14:37:45Z</time>
      </trkpt>
      <trkpt lat="43.94797" lon="5.12645">
        <ele>402.6</ele>
        <time>2016-02-21T14:37:50Z</time>
      </trkpt>
      <trkpt lat="43.94807" lon="5.12651">
        <ele>402.1</ele>
        <time>2016-02-21T14:37:55Z</time>
      </trkpt>
      <trkpt lat="43.94817" lon="5.1266">
        <ele>401.6</ele>
        <time>2016-02-21T14:37:59Z</time>
      </trkpt>
      <trkpt lat="43.94826" lon="5.12667">
        <ele>401.2</ele>
        <time>2016-02-21T14:38:04Z</time>
      </trkpt>
      <trkpt lat="43.94834" lon="5.12675">
        <ele>400.6</ele>
        <time>2016-02-21T14:38:09Z</time>
      </trkpt>
      <trkpt lat="43.94834" lon="5.12687">
        <ele>400.1</ele>
        <time>2016-02-21T14:38:15Z</time>
      </trkpt>
      <trkpt lat="43.94829" lon="5.12699">
        <ele>399.6</ele>
        <time>2016-02-21T14:38:21Z</time>
      </trkpt>
      <trkpt lat="43.94827" lon="5.12712">
        <ele>399</ele>
        <time>2016-02-21T14:38:28Z</time>
      </trkpt>
      <trkpt lat="43.94826" lon="5.12726">
        <ele>398.4</ele>
        <time>2016-02-21T14:38:35Z</time>
      </trkpt>
      <trkpt lat="43.94826" lon="5.1274">
        <ele>397.4</ele>
        <time>2016-02-21T14:38:41Z</time>
      </trkpt>
      <trkpt lat="43.94826" lon="5.12754">
        <ele>396.8</ele>
        <time>2016-02-21T14:38:47Z</time>
      </trkpt>
      <trkpt lat="43.94829" lon="5.12766">
        <ele>396.2</ele>
        <time>2016-02-21T14:38:53Z</time>
      </trkpt>
      <trkpt lat="43.94836" lon="5.12778">
        <ele>395.6</ele>
        <time>2016-02-21T14:38:59Z</time>
      </trkpt>
      <trkpt lat="43.94845" lon="5.12783">
        <ele>395.3</ele>
        <time>2016-02-21T14:39:03Z</time>
      </trkpt>
      <trkpt lat="43.94854" lon="5.1279">
        <ele>394.8</ele>
        <time>2016-02-21T14:39:10Z</time>
      </trkpt>
      <trkpt lat="43.94864" lon="5.12793">
        <ele>393.9</ele>
        <time>2016-02-21T14:39:17Z</time>
      </trkpt>
      <trkpt lat="43.9486" lon="5.12807">
        <ele>392.9</ele>
        <time>2016-02-21T14:39:27Z</time>
      </trkpt>
      <trkpt lat="43.94861" lon="5.1282">
        <ele>392.6</ele>
        <time>2016-02-21T14:39:33Z</time>
      </trkpt>
      <trkpt lat="43.94863" lon="5.12834">
        <ele>392.4</ele>
        <time>2016-02-21T14:39:38Z</time>
      </trkpt>
      <trkpt lat="43.94871" lon="5.12841">
        <ele>392.1</ele>
        <time>2016-02-21T14:39:44Z</time>
      </trkpt>
      <trkpt lat="43.94882" lon="5.1284">
        <ele>392</ele>
        <time>2016-02-21T14:39:49Z</time>
      </trkpt>
      <trkpt lat="43.94891" lon="5.12834">
        <ele>391.6</ele>
        <time>2016-02-21T14:39:56Z</time>
      </trkpt>
      <trkpt lat="43.94899" lon="5.12825">
        <ele>391</ele>
        <time>2016-02-21T14:40:02Z</time>
      </trkpt>
      <trkpt lat="43.94908" lon="5.12818">
        <ele>390.5</ele>
        <time>2016-02-21T14:40:08Z</time>
      </trkpt>
      <trkpt lat="43.94917" lon="5.12821">
        <ele>390.2</ele>
        <time>2016-02-21T14:40:13Z</time>
      </trkpt>
      <trkpt lat="43.94925" lon="5.12828">
        <ele>389.7</ele>
        <time>2016-02-21T14:40:20Z</time>
      </trkpt>
      <trkpt lat="43.94933" lon="5.12836">
        <ele>389.5</ele>
        <time>2016-02-21T14:40:26Z</time>
      </trkpt>
      <trkpt lat="43.9494" lon="5.12846">
        <ele>389.4</ele>
        <time>2016-02-21T14:40:33Z</time>
      </trkpt>
      <trkpt lat="43.9495" lon="5.1285">
        <ele>389.4</ele>
        <time>2016-02-21T14:40:38Z</time>
      </trkpt>
      <trkpt lat="43.94959" lon="5.12856">
        <ele>389.5</ele>
        <time>2016-02-21T14:40:43Z</time>
      </trkpt>
      <trkpt lat="43.94969" lon="5.1286">
        <ele>389.7</ele>
        <time>2016-02-21T14:40:49Z</time>
      </trkpt>
      <trkpt lat="43.94977" lon="5.12868">
        <ele>390.1</ele>
        <time>2016-02-21T14:40:56Z</time>
      </trkpt>
      <trkpt lat="43.94985" lon="5.12874">
        <ele>390.7</ele>
        <time>2016-02-21T14:41:04Z</time>
      </trkpt>
      <trkpt lat="43.94994" lon="5.12882">
        <ele>391.2</ele>
        <time>2016-02-21T14:41:10Z</time>
      </trkpt>
      <trkpt lat="43.95003" lon="5.12887">
        <ele>391.9</ele>
        <time>2016-02-21T14:41:18Z</time>
      </trkpt>
      <trkpt lat="43.95012" lon="5.1289">
        <ele>392.5</ele>
        <time>2016-02-21T14:41:25Z</time>
      </trkpt>
      <trkpt lat="43.95019" lon="5.12896">
        <ele>393</ele>
        <time>2016-02-21T14:41:31Z</time>
      </trkpt>
      <trkpt lat="43.95029" lon="5.12901">
        <ele>393.6</ele>
        <time>2016-02-21T14:41:39Z</time>
      </trkpt>
      <trkpt lat="43.95037" lon="5.12909">
        <ele>394.2</ele>
        <time>2016-02-21T14:41:47Z</time>
      </trkpt>
      <trkpt lat="43.95047" lon="5.1291">
        <ele>395</ele>
        <time>2016-02-21T14:41:56Z</time>
      </trkpt>
      <trkpt lat="43.95053" lon="5.12899">
        <ele>395.5</ele>
        <time>2016-02-21T14:42:02Z</time>
      </trkpt>
      <trkpt lat="43.95059" lon="5.12889">
        <ele>396.3</ele>
        <time>2016-02-21T14:42:09Z</time>
      </trkpt>
      <trkpt lat="43.95064" lon="5.12878">
        <ele>396.5</ele>
        <time>2016-02-21T14:42:16Z</time>
      </trkpt>
      <trkpt lat="43.95073" lon="5.12874">
        <ele>399</ele>
        <time>2016-02-21T14:42:27Z</time>
      </trkpt>
      <trkpt lat="43.95079" lon="5.12864">
        <ele>401.5</ele>
        <time>2016-02-21T14:42:36Z</time>
      </trkpt>
      <trkpt lat="43.95087" lon="5.12858">
        <ele>402.2</ele>
        <time>2016-02-21T14:42:41Z</time>
      </trkpt>
      <trkpt lat="43.95093" lon="5.12848">
        <ele>402.9</ele>
        <time>2016-02-21T14:42:48Z</time>
      </trkpt>
      <trkpt lat="43.95099" lon="5.12836">
        <ele>404.1</ele>
        <time>2016-02-21T14:42:55Z</time>
      </trkpt>
      <trkpt lat="43.95104" lon="5.12825">
        <ele>405.4</ele>
        <time>2016-02-21T14:43:04Z</time>
      </trkpt>
      <trkpt lat="43.951" lon="5.12809">
        <ele>406.6</ele>
        <time>2016-02-21T14:43:12Z</time>
      </trkpt>
      <trkpt lat="43.95097" lon="5.12797">
        <ele>407.4</ele>
        <time>2016-02-21T14:43:19Z</time>
      </trkpt>
      <trkpt lat="43.95101" lon="5.12785">
        <ele>408.4</ele>
        <time>2016-02-21T14:43:27Z</time>
      </trkpt>
      <trkpt lat="43.95097" lon="5.12773">
        <ele>410</ele>
        <time>2016-02-21T14:43:40Z</time>
      </trkpt>
      <trkpt lat="43.95094" lon="5.1276">
        <ele>411.1</ele>
        <time>2016-02-21T14:43:47Z</time>
      </trkpt>
      <trkpt lat="43.95094" lon="5.12743">
        <ele>411.3</ele>
        <time>2016-02-21T14:43:49Z</time>
      </trkpt>
      <trkpt lat="43.95096" lon="5.12727">
        <ele>411.7</ele>
        <time>2016-02-21T14:43:52Z</time>
      </trkpt>
      <trkpt lat="43.95099" lon="5.12712">
        <ele>412.2</ele>
        <time>2016-02-21T14:43:55Z</time>
      </trkpt>
      <trkpt lat="43.95109" lon="5.12715">
        <ele>413.2</ele>
        <time>2016-02-21T14:44:01Z</time>
      </trkpt>
      <trkpt lat="43.95112" lon="5.12728">
        <ele>414.6</ele>
        <time>2016-02-21T14:44:10Z</time>
      </trkpt>
      <trkpt lat="43.95115" lon="5.12741">
        <ele>415.9</ele>
        <time>2016-02-21T14:44:18Z</time>
      </trkpt>
      <trkpt lat="43.95118" lon="5.12754">
        <ele>417</ele>
        <time>2016-02-21T14:44:25Z</time>
      </trkpt>
      <trkpt lat="43.95122" lon="5.12766">
        <ele>417.8</ele>
        <time>2016-02-21T14:44:31Z</time>
      </trkpt>
      <trkpt lat="43.95126" lon="5.12779">
        <ele>418.4</ele>
        <time>2016-02-21T14:44:36Z</time>
      </trkpt>
      <trkpt lat="43.95134" lon="5.12788">
        <ele>419.5</ele>
        <time>2016-02-21T14:44:43Z</time>
      </trkpt>
      <trkpt lat="43.9514" lon="5.12797">
        <ele>420.5</ele>
        <time>2016-02-21T14:44:50Z</time>
      </trkpt>
      <trkpt lat="43.95143" lon="5.12809">
        <ele>421.7</ele>
        <time>2016-02-21T14:44:58Z</time>
      </trkpt>
      <trkpt lat="43.95151" lon="5.12816">
        <ele>423</ele>
        <time>2016-02-21T14:45:06Z</time>
      </trkpt>
      <trkpt lat="43.95144" lon="5.12808">
        <ele>426.1</ele>
        <time>2016-02-21T14:45:23Z</time>
      </trkpt>
      <trkpt lat="43.95135" lon="5.12803">
        <ele>426.9</ele>
        <time>2016-02-21T14:45:29Z</time>
      </trkpt>
      <trkpt lat="43.9513" lon="5.12791">
        <ele>427.7</ele>
        <time>2016-02-21T14:45:36Z</time>
      </trkpt>
      <trkpt lat="43.95132" lon="5.12777">
        <ele>428.6</ele>
        <time>2016-02-21T14:45:44Z</time>
      </trkpt>
      <trkpt lat="43.95131" lon="5.12765">
        <ele>429.4</ele>
        <time>2016-02-21T14:45:51Z</time>
      </trkpt>
      <trkpt lat="43.95133" lon="5.12752">
        <ele>430.2</ele>
        <time>2016-02-21T14:45:57Z</time>
      </trkpt>
      <trkpt lat="43.95137" lon="5.1274">
        <ele>431.1</ele>
        <time>2016-02-21T14:46:04Z</time>
      </trkpt>
      <trkpt lat="43.9514" lon="5.12727">
        <ele>431.9</ele>
        <time>2016-02-21T14:46:10Z</time>
      </trkpt>
      <trkpt lat="43.95145" lon="5.12716">
        <ele>432.9</ele>
        <time>2016-02-21T14:46:17Z</time>
      </trkpt>
      <trkpt lat="43.95153" lon="5.12706">
        <ele>433.9</ele>
        <time>2016-02-21T14:46:25Z</time>
      </trkpt>
      <trkpt lat="43.95164" lon="5.12704">
        <ele>434.4</ele>
        <time>2016-02-21T14:46:29Z</time>
      </trkpt>
      <trkpt lat="43.95173" lon="5.12704">
        <ele>434.9</ele>
        <time>2016-02-21T14:46:32Z</time>
      </trkpt>
      <trkpt lat="43.95182" lon="5.127">
        <ele>436</ele>
        <time>2016-02-21T14:46:38Z</time>
      </trkpt>
      <trkpt lat="43.95192" lon="5.12696">
        <ele>437.4</ele>
        <time>2016-02-21T14:46:45Z</time>
      </trkpt>
      <trkpt lat="43.95203" lon="5.12698">
        <ele>438.6</ele>
        <time>2016-02-21T14:46:51Z</time>
      </trkpt>
      <trkpt lat="43.95212" lon="5.12697">
        <ele>440</ele>
        <time>2016-02-21T14:46:59Z</time>
      </trkpt>
      <trkpt lat="43.95222" lon="5.12698">
        <ele>441.3</ele>
        <time>2016-02-21T14:47:07Z</time>
      </trkpt>
      <trkpt lat="43.95232" lon="5.12698">
        <ele>442.5</ele>
        <time>2016-02-21T14:47:15Z</time>
      </trkpt>
      <trkpt lat="43.95241" lon="5.12697">
        <ele>443.7</ele>
        <time>2016-02-21T14:47:22Z</time>
      </trkpt>
      <trkpt lat="43.95251" lon="5.12689">
        <ele>444.4</ele>
        <time>2016-02-21T14:47:27Z</time>
      </trkpt>
      <trkpt lat="43.95261" lon="5.1269">
        <ele>445.1</ele>
        <time>2016-02-21T14:47:32Z</time>
      </trkpt>
      <trkpt lat="43.9527" lon="5.12689">
        <ele>446.3</ele>
        <time>2016-02-21T14:47:39Z</time>
      </trkpt>
      <trkpt lat="43.9528" lon="5.12691">
        <ele>447.3</ele>
        <time>2016-02-21T14:47:46Z</time>
      </trkpt>
      <trkpt lat="43.95288" lon="5.12694">
        <ele>448.3</ele>
        <time>2016-02-21T14:47:53Z</time>
      </trkpt>
      <trkpt lat="43.95298" lon="5.12696">
        <ele>449.4</ele>
        <time>2016-02-21T14:48:01Z</time>
      </trkpt>
      <trkpt lat="43.95308" lon="5.12699">
        <ele>450.2</ele>
        <time>2016-02-21T14:48:07Z</time>
      </trkpt>
      <trkpt lat="43.95316" lon="5.12702">
        <ele>451.2</ele>
        <time>2016-02-21T14:48:15Z</time>
      </trkpt>
      <trkpt lat="43.95325" lon="5.12706">
        <ele>452.2</ele>
        <time>2016-02-21T14:48:23Z</time>
      </trkpt>
      <trkpt lat="43.95335" lon="5.1271">
        <ele>453.2</ele>
        <time>2016-02-21T14:48:30Z</time>
      </trkpt>
      <trkpt lat="43.95343" lon="5.12716">
        <ele>454.1</ele>
        <time>2016-02-21T14:48:38Z</time>
      </trkpt>
      <trkpt lat="43.95353" lon="5.12718">
        <ele>455.2</ele>
        <time>2016-02-21T14:48:46Z</time>
      </trkpt>
      <trkpt lat="43.95361" lon="5.12725">
        <ele>456.1</ele>
        <time>2016-02-21T14:48:53Z</time>
      </trkpt>
      <trkpt lat="43.95371" lon="5.1273">
        <ele>457</ele>
        <time>2016-02-21T14:49:00Z</time>
      </trkpt>
      <trkpt lat="43.95377" lon="5.12739">
        <ele>457.8</ele>
        <time>2016-02-21T14:49:06Z</time>
      </trkpt>
      <trkpt lat="43.95384" lon="5.12749">
        <ele>458.6</ele>
        <time>2016-02-21T14:49:13Z</time>
      </trkpt>
      <trkpt lat="43.95379" lon="5.1276">
        <ele>459.1</ele>
        <time>2016-02-21T14:49:18Z</time>
      </trkpt>
      <trkpt lat="43.95385" lon="5.1277">
        <ele>459.6</ele>
        <time>2016-02-21T14:49:23Z</time>
      </trkpt>
      <trkpt lat="43.95391" lon="5.12781">
        <ele>460.5</ele>
        <time>2016-02-21T14:49:30Z</time>
      </trkpt>
      <trkpt lat="43.95397" lon="5.12792">
        <ele>461.1</ele>
        <time>2016-02-21T14:49:36Z</time>
      </trkpt>
      <trkpt lat="43.95404" lon="5.12802">
        <ele>461.7</ele>
        <time>2016-02-21T14:49:42Z</time>
      </trkpt>
      <trkpt lat="43.9541" lon="5.12814">
        <ele>462.4</ele>
        <time>2016-02-21T14:49:48Z</time>
      </trkpt>
      <trkpt lat="43.95413" lon="5.12826">
        <ele>463.4</ele>
        <time>2016-02-21T14:49:57Z</time>
      </trkpt>
      <trkpt lat="43.95416" lon="5.12841">
        <ele>464.3</ele>
        <time>2016-02-21T14:50:07Z</time>
      </trkpt>
      <trkpt lat="43.95418" lon="5.12856">
        <ele>464.5</ele>
        <time>2016-02-21T14:50:12Z</time>
      </trkpt>
      <trkpt lat="43.95422" lon="5.12867">
        <ele>464.7</ele>
        <time>2016-02-21T14:50:16Z</time>
      </trkpt>
      <trkpt lat="43.95429" lon="5.12879">
        <ele>464.9</ele>
        <time>2016-02-21T14:50:21Z</time>
      </trkpt>
      <trkpt lat="43.95436" lon="5.12888">
        <ele>465.1</ele>
        <time>2016-02-21T14:50:24Z</time>
      </trkpt>
      <trkpt lat="43.95443" lon="5.12898">
        <ele>465.2</ele>
        <time>2016-02-21T14:50:27Z</time>
      </trkpt>
      <trkpt lat="43.95449" lon="5.1291">
        <ele>465.4</ele>
        <time>2016-02-21T14:50:32Z</time>
      </trkpt>
      <trkpt lat="43.95454" lon="5.12922">
        <ele>465.6</ele>
        <time>2016-02-21T14:50:37Z</time>
      </trkpt>
      <trkpt lat="43.9546" lon="5.12932">
        <ele>465.5</ele>
        <time>2016-02-21T14:50:42Z</time>
      </trkpt>
      <trkpt lat="43.95462" lon="5.12945">
        <ele>465.2</ele>
        <time>2016-02-21T14:50:47Z</time>
      </trkpt>
      <trkpt lat="43.95465" lon="5.12957">
        <ele>465.1</ele>
        <time>2016-02-21T14:50:53Z</time>
      </trkpt>
      <trkpt lat="43.95468" lon="5.12971">
        <ele>465</ele>
        <time>2016-02-21T14:50:58Z</time>
      </trkpt>
      <trkpt lat="43.95467" lon="5.12985">
        <ele>465</ele>
        <time>2016-02-21T14:51:05Z</time>
      </trkpt>
      <trkpt lat="43.95468" lon="5.13">
        <ele>465.1</ele>
        <time>2016-02-21T14:51:11Z</time>
      </trkpt>
      <trkpt lat="43.95469" lon="5.13014">
        <ele>465</ele>
        <time>2016-02-21T14:51:17Z</time>
      </trkpt>
      <trkpt lat="43.9548" lon="5.13014">
        <ele>464.7</ele>
        <time>2016-02-21T14:51:26Z</time>
      </trkpt>
      <trkpt lat="43.95486" lon="5.13003">
        <ele>464.4</ele>
        <time>2016-02-21T14:51:29Z</time>
      </trkpt>
      <trkpt lat="43.95489" lon="5.12987">
        <ele>464.1</ele>
        <time>2016-02-21T14:51:32Z</time>
      </trkpt>
      <trkpt lat="43.95488" lon="5.12973">
        <ele>463.8</ele>
        <time>2016-02-21T14:51:36Z</time>
      </trkpt>
      <trkpt lat="43.95489" lon="5.12959">
        <ele>463.4</ele>
        <time>2016-02-21T14:51:40Z</time>
      </trkpt>
      <trkpt lat="43.95489" lon="5.12946">
        <ele>463.1</ele>
        <time>2016-02-21T14:51:43Z</time>
      </trkpt>
      <trkpt lat="43.9549" lon="5.12933">
        <ele>462.8</ele>
        <time>2016-02-21T14:51:47Z</time>
      </trkpt>
      <trkpt lat="43.9549" lon="5.1292">
        <ele>462.3</ele>
        <time>2016-02-21T14:51:52Z</time>
      </trkpt>
      <trkpt lat="43.95496" lon="5.12909">
        <ele>462</ele>
        <time>2016-02-21T14:51:57Z</time>
      </trkpt>
      <trkpt lat="43.95502" lon="5.12898">
        <ele>461.7</ele>
        <time>2016-02-21T14:52:02Z</time>
      </trkpt>
      <trkpt lat="43.95502" lon="5.12886">
        <ele>461.6</ele>
        <time>2016-02-21T14:52:08Z</time>
      </trkpt>
      <trkpt lat="43.95499" lon="5.12873">
        <ele>461.5</ele>
        <time>2016-02-21T14:52:14Z</time>
      </trkpt>
      <trkpt lat="43.95499" lon="5.12861">
        <ele>461.5</ele>
        <time>2016-02-21T14:52:20Z</time>
      </trkpt>
      <trkpt lat="43.955" lon="5.12847">
        <ele>461.5</ele>
        <time>2016-02-21T14:52:28Z</time>
      </trkpt>
      <trkpt lat="43.95502" lon="5.12834">
        <ele>461.4</ele>
        <time>2016-02-21T14:52:36Z</time>
      </trkpt>
      <trkpt lat="43.95504" lon="5.12821">
        <ele>461</ele>
        <time>2016-02-21T14:52:45Z</time>
      </trkpt>
      <trkpt lat="43.95506" lon="5.12808">
        <ele>460.7</ele>
        <time>2016-02-21T14:52:51Z</time>
      </trkpt>
      <trkpt lat="43.9551" lon="5.12795">
        <ele>460.5</ele>
        <time>2016-02-21T14:52:57Z</time>
      </trkpt>
      <trkpt lat="43.95514" lon="5.12782">
        <ele>460.4</ele>
        <time>2016-02-21T14:53:04Z</time>
      </trkpt>
      <trkpt lat="43.95518" lon="5.12769">
        <ele>460.4</ele>
        <time>2016-02-21T14:53:10Z</time>
      </trkpt>
      <trkpt lat="43.95522" lon="5.12758">
        <ele>460.6</ele>
        <time>2016-02-21T14:53:15Z</time>
      </trkpt>
      <trkpt lat="43.95526" lon="5.12746">
        <ele>461</ele>
        <time>2016-02-21T14:53:23Z</time>
      </trkpt>
      <trkpt lat="43.95529" lon="5.12733">
        <ele>461.9</ele>
        <time>2016-02-21T14:53:33Z</time>
      </trkpt>
      <trkpt lat="43.95532" lon="5.12714">
        <ele>466</ele>
        <time>2016-02-21T14:54:11Z</time>
      </trkpt>
      <trkpt lat="43.95532" lon="5.12698">
        <ele>466.4</ele>
        <time>2016-02-21T14:54:14Z</time>
      </trkpt>
      <trkpt lat="43.95535" lon="5.12685">
        <ele>466.6</ele>
        <time>2016-02-21T14:54:16Z</time>
      </trkpt>
      <trkpt lat="43.95541" lon="5.12672">
        <ele>467</ele>
        <time>2016-02-21T14:54:19Z</time>
      </trkpt>
      <trkpt lat="43.95542" lon="5.12655">
        <ele>467.5</ele>
        <time>2016-02-21T14:54:22Z</time>
      </trkpt>
      <trkpt lat="43.9554" lon="5.12641">
        <ele>468.3</ele>
        <time>2016-02-21T14:54:28Z</time>
      </trkpt>
      <trkpt lat="43.95539" lon="5.12627">
        <ele>469.2</ele>
        <time>2016-02-21T14:54:35Z</time>
      </trkpt>
      <trkpt lat="43.95538" lon="5.12615">
        <ele>469.9</ele>
        <time>2016-02-21T14:54:41Z</time>
      </trkpt>
      <trkpt lat="43.95537" lon="5.12602">
        <ele>470.8</ele>
        <time>2016-02-21T14:54:47Z</time>
      </trkpt>
      <trkpt lat="43.95535" lon="5.12588">
        <ele>471.5</ele>
        <time>2016-02-21T14:54:53Z</time>
      </trkpt>
      <trkpt lat="43.95536" lon="5.12574">
        <ele>472.1</ele>
        <time>2016-02-21T14:54:57Z</time>
      </trkpt>
      <trkpt lat="43.95539" lon="5.12561">
        <ele>472.7</ele>
        <time>2016-02-21T14:55:02Z</time>
      </trkpt>
      <trkpt lat="43.95542" lon="5.12549">
        <ele>473.4</ele>
        <time>2016-02-21T14:55:08Z</time>
      </trkpt>
      <trkpt lat="43.95544" lon="5.12536">
        <ele>474.1</ele>
        <time>2016-02-21T14:55:15Z</time>
      </trkpt>
      <trkpt lat="43.95552" lon="5.12529">
        <ele>476</ele>
        <time>2016-02-21T14:55:39Z</time>
      </trkpt>
      <trkpt lat="43.95555" lon="5.12541">
        <ele>477.1</ele>
        <time>2016-02-21T14:56:04Z</time>
      </trkpt>
      <trkpt lat="43.9556" lon="5.12551">
        <ele>477.5</ele>
        <time>2016-02-21T14:56:11Z</time>
      </trkpt>
      <trkpt lat="43.95566" lon="5.12562">
        <ele>478</ele>
        <time>2016-02-21T14:56:16Z</time>
      </trkpt>
      <trkpt lat="43.95572" lon="5.12573">
        <ele>478.4</ele>
        <time>2016-02-21T14:56:21Z</time>
      </trkpt>
      <trkpt lat="43.95578" lon="5.12586">
        <ele>479</ele>
        <time>2016-02-21T14:56:27Z</time>
      </trkpt>
      <trkpt lat="43.95582" lon="5.12598">
        <ele>479.7</ele>
        <time>2016-02-21T14:56:34Z</time>
      </trkpt>
      <trkpt lat="43.95586" lon="5.1261">
        <ele>480.1</ele>
        <time>2016-02-21T14:56:39Z</time>
      </trkpt>
      <trkpt lat="43.9559" lon="5.12622">
        <ele>480.7</ele>
        <time>2016-02-21T14:56:44Z</time>
      </trkpt>
      <trkpt lat="43.95594" lon="5.12635">
        <ele>481.3</ele>
        <time>2016-02-21T14:56:49Z</time>
      </trkpt>
      <trkpt lat="43.956" lon="5.12646">
        <ele>482.1</ele>
        <time>2016-02-21T14:56:55Z</time>
      </trkpt>
      <trkpt lat="43.95602" lon="5.12659">
        <ele>482.8</ele>
        <time>2016-02-21T14:57:01Z</time>
      </trkpt>
      <trkpt lat="43.95604" lon="5.12672">
        <ele>483.5</ele>
        <time>2016-02-21T14:57:07Z</time>
      </trkpt>
      <trkpt lat="43.95607" lon="5.12684">
        <ele>483.9</ele>
        <time>2016-02-21T14:57:11Z</time>
      </trkpt>
      <trkpt lat="43.95609" lon="5.12696">
        <ele>484.7</ele>
        <time>2016-02-21T14:57:16Z</time>
      </trkpt>
      <trkpt lat="43.95612" lon="5.12709">
        <ele>485.5</ele>
        <time>2016-02-21T14:57:21Z</time>
      </trkpt>
      <trkpt lat="43.95614" lon="5.12723">
        <ele>486.3</ele>
        <time>2016-02-21T14:57:26Z</time>
      </trkpt>
      <trkpt lat="43.95618" lon="5.12738">
        <ele>487.2</ele>
        <time>2016-02-21T14:57:30Z</time>
      </trkpt>
      <trkpt lat="43.95624" lon="5.12749">
        <ele>488.1</ele>
        <time>2016-02-21T14:57:34Z</time>
      </trkpt>
      <trkpt lat="43.95632" lon="5.12756">
        <ele>489</ele>
        <time>2016-02-21T14:57:38Z</time>
      </trkpt>
      <trkpt lat="43.95643" lon="5.1276">
        <ele>490.1</ele>
        <time>2016-02-21T14:57:42Z</time>
      </trkpt>
      <trkpt lat="43.95652" lon="5.12765">
        <ele>491.6</ele>
        <time>2016-02-21T14:57:48Z</time>
      </trkpt>
      <trkpt lat="43.95661" lon="5.12768">
        <ele>492.9</ele>
        <time>2016-02-21T14:57:54Z</time>
      </trkpt>
      <trkpt lat="43.9567" lon="5.12772">
        <ele>493.9</ele>
        <time>2016-02-21T14:58:00Z</time>
      </trkpt>
      <trkpt lat="43.95679" lon="5.1278">
        <ele>495</ele>
        <time>2016-02-21T14:58:06Z</time>
      </trkpt>
      <trkpt lat="43.95688" lon="5.12786">
        <ele>495.8</ele>
        <time>2016-02-21T14:58:11Z</time>
      </trkpt>
      <trkpt lat="43.95696" lon="5.12791">
        <ele>496.7</ele>
        <time>2016-02-21T14:58:17Z</time>
      </trkpt>
      <trkpt lat="43.95703" lon="5.12801">
        <ele>497.4</ele>
        <time>2016-02-21T14:58:23Z</time>
      </trkpt>
      <trkpt lat="43.95709" lon="5.12811">
        <ele>498.3</ele>
        <time>2016-02-21T14:58:29Z</time>
      </trkpt>
      <trkpt lat="43.95715" lon="5.12821">
        <ele>499.9</ele>
        <time>2016-02-21T14:58:40Z</time>
      </trkpt>
      <trkpt lat="43.95724" lon="5.12828">
        <ele>500.7</ele>
        <time>2016-02-21T14:58:47Z</time>
      </trkpt>
      <trkpt lat="43.95733" lon="5.1283">
        <ele>501.6</ele>
        <time>2016-02-21T14:58:55Z</time>
      </trkpt>
      <trkpt lat="43.95742" lon="5.12832">
        <ele>502.4</ele>
        <time>2016-02-21T14:59:02Z</time>
      </trkpt>
      <trkpt lat="43.95753" lon="5.12836">
        <ele>503.3</ele>
        <time>2016-02-21T14:59:10Z</time>
      </trkpt>
      <trkpt lat="43.95762" lon="5.12836">
        <ele>504.1</ele>
        <time>2016-02-21T14:59:17Z</time>
      </trkpt>
      <trkpt lat="43.95771" lon="5.1284">
        <ele>505</ele>
        <time>2016-02-21T14:59:25Z</time>
      </trkpt>
      <trkpt lat="43.95779" lon="5.12846">
        <ele>505.7</ele>
        <time>2016-02-21T14:59:32Z</time>
      </trkpt>
      <trkpt lat="43.95789" lon="5.1285">
        <ele>506.6</ele>
        <time>2016-02-21T14:59:40Z</time>
      </trkpt>
      <trkpt lat="43.95797" lon="5.12857">
        <ele>507.1</ele>
        <time>2016-02-21T14:59:45Z</time>
      </trkpt>
      <trkpt lat="43.95804" lon="5.12866">
        <ele>508.1</ele>
        <time>2016-02-21T14:59:52Z</time>
      </trkpt>
      <trkpt lat="43.95811" lon="5.12875">
        <ele>508.9</ele>
        <time>2016-02-21T14:59:59Z</time>
      </trkpt>
      <trkpt lat="43.95819" lon="5.12884">
        <ele>510.1</ele>
        <time>2016-02-21T15:00:07Z</time>
      </trkpt>
      <trkpt lat="43.95827" lon="5.12889">
        <ele>511.2</ele>
        <time>2016-02-21T15:00:15Z</time>
      </trkpt>
      <trkpt lat="43.95837" lon="5.12887">
        <ele>512</ele>
        <time>2016-02-21T15:00:21Z</time>
      </trkpt>
      <trkpt lat="43.95846" lon="5.1289">
        <ele>512.6</ele>
        <time>2016-02-21T15:00:26Z</time>
      </trkpt>
      <trkpt lat="43.95855" lon="5.12894">
        <ele>513.1</ele>
        <time>2016-02-21T15:00:32Z</time>
      </trkpt>
      <trkpt lat="43.95864" lon="5.12896">
        <ele>513.7</ele>
        <time>2016-02-21T15:00:39Z</time>
      </trkpt>
      <trkpt lat="43.95875" lon="5.12898">
        <ele>514.2</ele>
        <time>2016-02-21T15:00:46Z</time>
      </trkpt>
      <trkpt lat="43.95884" lon="5.129">
        <ele>514.6</ele>
        <time>2016-02-21T15:00:51Z</time>
      </trkpt>
      <trkpt lat="43.95894" lon="5.12899">
        <ele>515.3</ele>
        <time>2016-02-21T15:01:01Z</time>
      </trkpt>
      <trkpt lat="43.95904" lon="5.12903">
        <ele>515.8</ele>
        <time>2016-02-21T15:01:09Z</time>
      </trkpt>
      <trkpt lat="43.95914" lon="5.12905">
        <ele>516.3</ele>
        <time>2016-02-21T15:01:17Z</time>
      </trkpt>
      <trkpt lat="43.95924" lon="5.12908">
        <ele>516.6</ele>
        <time>2016-02-21T15:01:24Z</time>
      </trkpt>
      <trkpt lat="43.95933" lon="5.12912">
        <ele>516.9</ele>
        <time>2016-02-21T15:01:31Z</time>
      </trkpt>
      <trkpt lat="43.9594" lon="5.1292">
        <ele>517.2</ele>
        <time>2016-02-21T15:01:38Z</time>
      </trkpt>
      <trkpt lat="43.95945" lon="5.1293">
        <ele>517.9</ele>
        <time>2016-02-21T15:01:45Z</time>
      </trkpt>
      <trkpt lat="43.95953" lon="5.12939">
        <ele>518.7</ele>
        <time>2016-02-21T15:01:52Z</time>
      </trkpt>
      <trkpt lat="43.95962" lon="5.12947">
        <ele>519.4</ele>
        <time>2016-02-21T15:02:00Z</time>
      </trkpt>
      <trkpt lat="43.95972" lon="5.1295">
        <ele>519.8</ele>
        <time>2016-02-21T15:02:06Z</time>
      </trkpt>
      <trkpt lat="43.95982" lon="5.12952">
        <ele>520.6</ele>
        <time>2016-02-21T15:02:14Z</time>
      </trkpt>
      <trkpt lat="43.9599" lon="5.12959">
        <ele>521.2</ele>
        <time>2016-02-21T15:02:23Z</time>
      </trkpt>
      <trkpt lat="43.95999" lon="5.12964">
        <ele>521.5</ele>
        <time>2016-02-21T15:02:30Z</time>
      </trkpt>
      <trkpt lat="43.96006" lon="5.12973">
        <ele>520.8</ele>
        <time>2016-02-21T15:05:14Z</time>
      </trkpt>
      <trkpt lat="43.96016" lon="5.12981">
        <ele>520.6</ele>
        <time>2016-02-21T15:05:18Z</time>
      </trkpt>
      <trkpt lat="43.96025" lon="5.12988">
        <ele>520.4</ele>
        <time>2016-02-21T15:05:23Z</time>
      </trkpt>
      <trkpt lat="43.96031" lon="5.12998">
        <ele>520.1</ele>
        <time>2016-02-21T15:05:29Z</time>
      </trkpt>
      <trkpt lat="43.96037" lon="5.13009">
        <ele>519.6</ele>
        <time>2016-02-21T15:05:35Z</time>
      </trkpt>
      <trkpt lat="43.96038" lon="5.13023">
        <ele>518.8</ele>
        <time>2016-02-21T15:05:42Z</time>
      </trkpt>
      <trkpt lat="43.96032" lon="5.13034">
        <ele>518</ele>
        <time>2016-02-21T15:05:49Z</time>
      </trkpt>
      <trkpt lat="43.96028" lon="5.13047">
        <ele>517</ele>
        <time>2016-02-21T15:05:57Z</time>
      </trkpt>
      <trkpt lat="43.96025" lon="5.13059">
        <ele>516.4</ele>
        <time>2016-02-21T15:06:03Z</time>
      </trkpt>
      <trkpt lat="43.96021" lon="5.13071">
        <ele>515.6</ele>
        <time>2016-02-21T15:06:09Z</time>
      </trkpt>
      <trkpt lat="43.96018" lon="5.13084">
        <ele>514.8</ele>
        <time>2016-02-21T15:06:16Z</time>
      </trkpt>
      <trkpt lat="43.96019" lon="5.13097">
        <ele>514.1</ele>
        <time>2016-02-21T15:06:22Z</time>
      </trkpt>
      <trkpt lat="43.96015" lon="5.13109">
        <ele>513.2</ele>
        <time>2016-02-21T15:06:28Z</time>
      </trkpt>
      <trkpt lat="43.96011" lon="5.13122">
        <ele>512.3</ele>
        <time>2016-02-21T15:06:35Z</time>
      </trkpt>
      <trkpt lat="43.96006" lon="5.13133">
        <ele>511.5</ele>
        <time>2016-02-21T15:06:41Z</time>
      </trkpt>
      <trkpt lat="43.95998" lon="5.13141">
        <ele>510.9</ele>
        <time>2016-02-21T15:06:47Z</time>
      </trkpt>
      <trkpt lat="43.95989" lon="5.13148">
        <ele>510.4</ele>
        <time>2016-02-21T15:06:53Z</time>
      </trkpt>
      <trkpt lat="43.95981" lon="5.13158">
        <ele>509.9</ele>
        <time>2016-02-21T15:06:58Z</time>
      </trkpt>
      <trkpt lat="43.95973" lon="5.13167">
        <ele>509.6</ele>
        <time>2016-02-21T15:07:04Z</time>
      </trkpt>
      <trkpt lat="43.95967" lon="5.13176">
        <ele>509.3</ele>
        <time>2016-02-21T15:07:10Z</time>
      </trkpt>
      <trkpt lat="43.95961" lon="5.13187">
        <ele>509.2</ele>
        <time>2016-02-21T15:07:17Z</time>
      </trkpt>
      <trkpt lat="43.95957" lon="5.13198">
        <ele>509.1</ele>
        <time>2016-02-21T15:07:25Z</time>
      </trkpt>
      <trkpt lat="43.95951" lon="5.13208">
        <ele>509.4</ele>
        <time>2016-02-21T15:07:34Z</time>
      </trkpt>
      <trkpt lat="43.95943" lon="5.13217">
        <ele>509.9</ele>
        <time>2016-02-21T15:07:42Z</time>
      </trkpt>
      <trkpt lat="43.95936" lon="5.13226">
        <ele>510.6</ele>
        <time>2016-02-21T15:07:50Z</time>
      </trkpt>
      <trkpt lat="43.95928" lon="5.13233">
        <ele>511.3</ele>
        <time>2016-02-21T15:07:57Z</time>
      </trkpt>
      <trkpt lat="43.95919" lon="5.13234">
        <ele>512.1</ele>
        <time>2016-02-21T15:08:04Z</time>
      </trkpt>
      <trkpt lat="43.95909" lon="5.13236">
        <ele>513</ele>
        <time>2016-02-21T15:08:12Z</time>
      </trkpt>
      <trkpt lat="43.95899" lon="5.13237">
        <ele>513.6</ele>
        <time>2016-02-21T15:08:18Z</time>
      </trkpt>
      <trkpt lat="43.9589" lon="5.1324">
        <ele>514.4</ele>
        <time>2016-02-21T15:08:25Z</time>
      </trkpt>
      <trkpt lat="43.9588" lon="5.13238">
        <ele>515.1</ele>
        <time>2016-02-21T15:08:32Z</time>
      </trkpt>
      <trkpt lat="43.95871" lon="5.13236">
        <ele>515.7</ele>
        <time>2016-02-21T15:08:39Z</time>
      </trkpt>
      <trkpt lat="43.95861" lon="5.13235">
        <ele>516.3</ele>
        <time>2016-02-21T15:08:47Z</time>
      </trkpt>
      <trkpt lat="43.95851" lon="5.13232">
        <ele>516.9</ele>
        <time>2016-02-21T15:08:55Z</time>
      </trkpt>
      <trkpt lat="43.95842" lon="5.13231">
        <ele>517.3</ele>
        <time>2016-02-21T15:09:01Z</time>
      </trkpt>
      <trkpt lat="43.95832" lon="5.1323">
        <ele>518</ele>
        <time>2016-02-21T15:09:10Z</time>
      </trkpt>
      <trkpt lat="43.95823" lon="5.13228">
        <ele>518.4</ele>
        <time>2016-02-21T15:09:18Z</time>
      </trkpt>
      <trkpt lat="43.95813" lon="5.13224">
        <ele>518.9</ele>
        <time>2016-02-21T15:09:28Z</time>
      </trkpt>
      <trkpt lat="43.95813" lon="5.13237">
        <ele>519.2</ele>
        <time>2016-02-21T15:09:40Z</time>
      </trkpt>
      <trkpt lat="43.95817" lon="5.1325">
        <ele>519.3</ele>
        <time>2016-02-21T15:09:48Z</time>
      </trkpt>
      <trkpt lat="43.95824" lon="5.13262">
        <ele>519</ele>
        <time>2016-02-21T15:09:56Z</time>
      </trkpt>
      <trkpt lat="43.9583" lon="5.13274">
        <ele>518.7</ele>
        <time>2016-02-21T15:10:01Z</time>
      </trkpt>
      <trkpt lat="43.95835" lon="5.13286">
        <ele>518.4</ele>
        <time>2016-02-21T15:10:06Z</time>
      </trkpt>
      <trkpt lat="43.95841" lon="5.13295">
        <ele>517.8</ele>
        <time>2016-02-21T15:10:13Z</time>
      </trkpt>
      <trkpt lat="43.95845" lon="5.13308">
        <ele>517</ele>
        <time>2016-02-21T15:10:20Z</time>
      </trkpt>
      <trkpt lat="43.95851" lon="5.13319">
        <ele>516</ele>
        <time>2016-02-21T15:10:28Z</time>
      </trkpt>
      <trkpt lat="43.95854" lon="5.13331">
        <ele>515.4</ele>
        <time>2016-02-21T15:10:33Z</time>
      </trkpt>
      <trkpt lat="43.95861" lon="5.1334">
        <ele>514.5</ele>
        <time>2016-02-21T15:10:39Z</time>
      </trkpt>
      <trkpt lat="43.95866" lon="5.13351">
        <ele>513.5</ele>
        <time>2016-02-21T15:10:46Z</time>
      </trkpt>
      <trkpt lat="43.9587" lon="5.13363">
        <ele>512.7</ele>
        <time>2016-02-21T15:10:52Z</time>
      </trkpt>
      <trkpt lat="43.95874" lon="5.13376">
        <ele>511.7</ele>
        <time>2016-02-21T15:11:00Z</time>
      </trkpt>
      <trkpt lat="43.95875" lon="5.13389">
        <ele>511.1</ele>
        <time>2016-02-21T15:11:05Z</time>
      </trkpt>
      <trkpt lat="43.95872" lon="5.13402">
        <ele>510.4</ele>
        <time>2016-02-21T15:11:11Z</time>
      </trkpt>
      <trkpt lat="43.9587" lon="5.13415">
        <ele>509.9</ele>
        <time>2016-02-21T15:11:16Z</time>
      </trkpt>
      <trkpt lat="43.95871" lon="5.13429">
        <ele>509.2</ele>
        <time>2016-02-21T15:11:22Z</time>
      </trkpt>
      <trkpt lat="43.95875" lon="5.13441">
        <ele>508.1</ele>
        <time>2016-02-21T15:11:30Z</time>
      </trkpt>
      <trkpt lat="43.95881" lon="5.1345">
        <ele>506.7</ele>
        <time>2016-02-21T15:11:38Z</time>
      </trkpt>
      <trkpt lat="43.95889" lon="5.13458">
        <ele>505.4</ele>
        <time>2016-02-21T15:11:48Z</time>
      </trkpt>
      <trkpt lat="43.95897" lon="5.13464">
        <ele>504.8</ele>
        <time>2016-02-21T15:11:53Z</time>
      </trkpt>
      <trkpt lat="43.95905" lon="5.13473">
        <ele>503.8</ele>
        <time>2016-02-21T15:12:00Z</time>
      </trkpt>
      <trkpt lat="43.95914" lon="5.13481">
        <ele>502.8</ele>
        <time>2016-02-21T15:12:07Z</time>
      </trkpt>
      <trkpt lat="43.95921" lon="5.13488">
        <ele>501.8</ele>
        <time>2016-02-21T15:12:12Z</time>
      </trkpt>
      <trkpt lat="43.95929" lon="5.13495">
        <ele>501.1</ele>
        <time>2016-02-21T15:12:17Z</time>
      </trkpt>
      <trkpt lat="43.95938" lon="5.13504">
        <ele>500.1</ele>
        <time>2016-02-21T15:12:23Z</time>
      </trkpt>
      <trkpt lat="43.95946" lon="5.13511">
        <ele>499.2</ele>
        <time>2016-02-21T15:12:28Z</time>
      </trkpt>
      <trkpt lat="43.95949" lon="5.13524">
        <ele>497.9</ele>
        <time>2016-02-21T15:12:36Z</time>
      </trkpt>
      <trkpt lat="43.95956" lon="5.13533">
        <ele>497</ele>
        <time>2016-02-21T15:12:42Z</time>
      </trkpt>
      <trkpt lat="43.95963" lon="5.13542">
        <ele>496.2</ele>
        <time>2016-02-21T15:12:48Z</time>
      </trkpt>
      <trkpt lat="43.95969" lon="5.13553">
        <ele>495.3</ele>
        <time>2016-02-21T15:12:54Z</time>
      </trkpt>
      <trkpt lat="43.95973" lon="5.13564">
        <ele>494.5</ele>
        <time>2016-02-21T15:12:59Z</time>
      </trkpt>
      <trkpt lat="43.95977" lon="5.13578">
        <ele>493.2</ele>
        <time>2016-02-21T15:13:05Z</time>
      </trkpt>
      <trkpt lat="43.95984" lon="5.13588">
        <ele>491.9</ele>
        <time>2016-02-21T15:13:12Z</time>
      </trkpt>
      <trkpt lat="43.95992" lon="5.13595">
        <ele>490.9</ele>
        <time>2016-02-21T15:13:21Z</time>
      </trkpt>
      <trkpt lat="43.95999" lon="5.13605">
        <ele>489.9</ele>
        <time>2016-02-21T15:13:32Z</time>
      </trkpt>
      <trkpt lat="43.96007" lon="5.13612">
        <ele>489.2</ele>
        <time>2016-02-21T15:13:41Z</time>
      </trkpt>
      <trkpt lat="43.96016" lon="5.13616">
        <ele>488.7</ele>
        <time>2016-02-21T15:13:47Z</time>
      </trkpt>
      <trkpt lat="43.96026" lon="5.1362">
        <ele>488.2</ele>
        <time>2016-02-21T15:13:53Z</time>
      </trkpt>
      <trkpt lat="43.96035" lon="5.13624">
        <ele>487.7</ele>
        <time>2016-02-21T15:13:59Z</time>
      </trkpt>
      <trkpt lat="43.96044" lon="5.13629">
        <ele>487.2</ele>
        <time>2016-02-21T15:14:04Z</time>
      </trkpt>
      <trkpt lat="43.96053" lon="5.13634">
        <ele>486.4</ele>
        <time>2016-02-21T15:14:11Z</time>
      </trkpt>
      <trkpt lat="43.96062" lon="5.1364">
        <ele>485.7</ele>
        <time>2016-02-21T15:14:18Z</time>
      </trkpt>
      <trkpt lat="43.96071" lon="5.13646">
        <ele>484.6</ele>
        <time>2016-02-21T15:14:27Z</time>
      </trkpt>
      <trkpt lat="43.96079" lon="5.13655">
        <ele>483.4</ele>
        <time>2016-02-21T15:14:36Z</time>
      </trkpt>
      <trkpt lat="43.96088" lon="5.13661">
        <ele>482.4</ele>
        <time>2016-02-21T15:14:42Z</time>
      </trkpt>
      <trkpt lat="43.96097" lon="5.13667">
        <ele>481.3</ele>
        <time>2016-02-21T15:14:49Z</time>
      </trkpt>
      <trkpt lat="43.96106" lon="5.13668">
        <ele>479.4</ele>
        <time>2016-02-21T15:15:22Z</time>
      </trkpt>
      <trkpt lat="43.96115" lon="5.1366">
        <ele>479.4</ele>
        <time>2016-02-21T15:15:32Z</time>
      </trkpt>
      <trkpt lat="43.96124" lon="5.13657">
        <ele>480.1</ele>
        <time>2016-02-21T15:15:38Z</time>
      </trkpt>
      <trkpt lat="43.96133" lon="5.13657">
        <ele>481</ele>
        <time>2016-02-21T15:15:44Z</time>
      </trkpt>
      <trkpt lat="43.96143" lon="5.13652">
        <ele>482.3</ele>
        <time>2016-02-21T15:15:51Z</time>
      </trkpt>
      <trkpt lat="43.96153" lon="5.1365">
        <ele>483.4</ele>
        <time>2016-02-21T15:15:56Z</time>
      </trkpt>
      <trkpt lat="43.96163" lon="5.13649">
        <ele>484.3</ele>
        <time>2016-02-21T15:16:00Z</time>
      </trkpt>
      <trkpt lat="43.96173" lon="5.13648">
        <ele>485.9</ele>
        <time>2016-02-21T15:16:08Z</time>
      </trkpt>
      <trkpt lat="43.96182" lon="5.13644">
        <ele>487.1</ele>
        <time>2016-02-21T15:16:15Z</time>
      </trkpt>
      <trkpt lat="43.96192" lon="5.13642">
        <ele>488.2</ele>
        <time>2016-02-21T15:16:23Z</time>
      </trkpt>
      <trkpt lat="43.96201" lon="5.13639">
        <ele>488.8</ele>
        <time>2016-02-21T15:16:30Z</time>
      </trkpt>
      <trkpt lat="43.96211" lon="5.13638">
        <ele>489.3</ele>
        <time>2016-02-21T15:16:37Z</time>
      </trkpt>
      <trkpt lat="43.96221" lon="5.13639">
        <ele>489.7</ele>
        <time>2016-02-21T15:16:45Z</time>
      </trkpt>
      <trkpt lat="43.96231" lon="5.13635">
        <ele>489.9</ele>
        <time>2016-02-21T15:16:51Z</time>
      </trkpt>
      <trkpt lat="43.96242" lon="5.13632">
        <ele>489.9</ele>
        <time>2016-02-21T15:16:54Z</time>
      </trkpt>
      <trkpt lat="43.96252" lon="5.1363">
        <ele>489.9</ele>
        <time>2016-02-21T15:16:56Z</time>
      </trkpt>
      <trkpt lat="43.96263" lon="5.13628">
        <ele>490</ele>
        <time>2016-02-21T15:16:58Z</time>
      </trkpt>
      <trkpt lat="43.96272" lon="5.13624">
        <ele>490</ele>
        <time>2016-02-21T15:17:00Z</time>
      </trkpt>
      <trkpt lat="43.96281" lon="5.1362">
        <ele>490</ele>
        <time>2016-02-21T15:17:02Z</time>
      </trkpt>
      <trkpt lat="43.96291" lon="5.13617">
        <ele>490</ele>
        <time>2016-02-21T15:17:04Z</time>
      </trkpt>
      <trkpt lat="43.96302" lon="5.13615">
        <ele>490</ele>
        <time>2016-02-21T15:17:06Z</time>
      </trkpt>
      <trkpt lat="43.96313" lon="5.13613">
        <ele>490</ele>
        <time>2016-02-21T15:17:08Z</time>
      </trkpt>
      <trkpt lat="43.96325" lon="5.13609">
        <ele>490</ele>
        <time>2016-02-21T15:17:10Z</time>
      </trkpt>
      <trkpt lat="43.96337" lon="5.13606">
        <ele>490</ele>
        <time>2016-02-21T15:17:12Z</time>
      </trkpt>
      <trkpt lat="43.96348" lon="5.13603">
        <ele>490</ele>
        <time>2016-02-21T15:17:14Z</time>
      </trkpt>
      <trkpt lat="43.96359" lon="5.13598">
        <ele>489.8</ele>
        <time>2016-02-21T15:17:16Z</time>
      </trkpt>
      <trkpt lat="43.96368" lon="5.13595">
        <ele>489.6</ele>
        <time>2016-02-21T15:17:18Z</time>
      </trkpt>
      <trkpt lat="43.96377" lon="5.1359">
        <ele>489.5</ele>
        <time>2016-02-21T15:17:20Z</time>
      </trkpt>
      <trkpt lat="43.96388" lon="5.13586">
        <ele>489.4</ele>
        <time>2016-02-21T15:17:22Z</time>
      </trkpt>
      <trkpt lat="43.96397" lon="5.13583">
        <ele>489.1</ele>
        <time>2016-02-21T15:17:47Z</time>
      </trkpt>
      <trkpt lat="43.96408" lon="5.13578">
        <ele>488.8</ele>
        <time>2016-02-21T15:18:40Z</time>
      </trkpt>
      <trkpt lat="43.96418" lon="5.13573">
        <ele>488.8</ele>
        <time>2016-02-21T15:18:43Z</time>
      </trkpt>
      <trkpt lat="43.96427" lon="5.13569">
        <ele>488.8</ele>
        <time>2016-02-21T15:18:49Z</time>
      </trkpt>
      <trkpt lat="43.96438" lon="5.13563">
        <ele>488.7</ele>
        <time>2016-02-21T15:18:55Z</time>
      </trkpt>
      <trkpt lat="43.96451" lon="5.13558">
        <ele>488.7</ele>
        <time>2016-02-21T15:18:58Z</time>
      </trkpt>
      <trkpt lat="43.9646" lon="5.13555">
        <ele>488.7</ele>
        <time>2016-02-21T15:19:00Z</time>
      </trkpt>
      <trkpt lat="43.9647" lon="5.13549">
        <ele>488.7</ele>
        <time>2016-02-21T15:19:02Z</time>
      </trkpt>
      <trkpt lat="43.9648" lon="5.13542">
        <ele>488.8</ele>
        <time>2016-02-21T15:19:04Z</time>
      </trkpt>
      <trkpt lat="43.96489" lon="5.13536">
        <ele>488.9</ele>
        <time>2016-02-21T15:19:06Z</time>
      </trkpt>
      <trkpt lat="43.965" lon="5.13526">
        <ele>489.1</ele>
        <time>2016-02-21T15:19:08Z</time>
      </trkpt>
      <trkpt lat="43.96509" lon="5.13516">
        <ele>489.3</ele>
        <time>2016-02-21T15:19:10Z</time>
      </trkpt>
      <trkpt lat="43.96519" lon="5.1351">
        <ele>489.5</ele>
        <time>2016-02-21T15:19:12Z</time>
      </trkpt>
      <trkpt lat="43.96527" lon="5.13503">
        <ele>490</ele>
        <time>2016-02-21T15:19:17Z</time>
      </trkpt>
      <trkpt lat="43.96533" lon="5.13493">
        <ele>490.4</ele>
        <time>2016-02-21T15:19:23Z</time>
      </trkpt>
      <trkpt lat="43.96543" lon="5.13486">
        <ele>490.4</ele>
        <time>2016-02-21T15:19:30Z</time>
      </trkpt>
      <trkpt lat="43.96551" lon="5.1348">
        <ele>490</ele>
        <time>2016-02-21T15:19:37Z</time>
      </trkpt>
      <trkpt lat="43.9656" lon="5.13476">
        <ele>487.9</ele>
        <time>2016-02-21T15:20:27Z</time>
      </trkpt>
      <trkpt lat="43.96568" lon="5.13465">
        <ele>487.3</ele>
        <time>2016-02-21T15:20:32Z</time>
      </trkpt>
      <trkpt lat="43.96572" lon="5.13454">
        <ele>487.1</ele>
        <time>2016-02-21T15:20:34Z</time>
      </trkpt>
      <trkpt lat="43.96579" lon="5.13444">
        <ele>486.2</ele>
        <time>2016-02-21T15:20:40Z</time>
      </trkpt>
      <trkpt lat="43.96584" lon="5.13433">
        <ele>485.1</ele>
        <time>2016-02-21T15:20:48Z</time>
      </trkpt>
      <trkpt lat="43.96584" lon="5.1342">
        <ele>483.7</ele>
        <time>2016-02-21T15:20:58Z</time>
      </trkpt>
      <trkpt lat="43.96585" lon="5.13407">
        <ele>482.5</ele>
        <time>2016-02-21T15:21:06Z</time>
      </trkpt>
      <trkpt lat="43.96585" lon="5.13394">
        <ele>480.4</ele>
        <time>2016-02-21T15:21:17Z</time>
      </trkpt>
      <trkpt lat="43.96582" lon="5.13382">
        <ele>478.3</ele>
        <time>2016-02-21T15:21:27Z</time>
      </trkpt>
      <trkpt lat="43.96583" lon="5.13369">
        <ele>476.5</ele>
        <time>2016-02-21T15:21:35Z</time>
      </trkpt>
      <trkpt lat="43.96583" lon="5.13357">
        <ele>475.4</ele>
        <time>2016-02-21T15:21:40Z</time>
      </trkpt>
      <trkpt lat="43.96587" lon="5.13345">
        <ele>473.3</ele>
        <time>2016-02-21T15:21:49Z</time>
      </trkpt>
      <trkpt lat="43.96589" lon="5.13332">
        <ele>470.2</ele>
        <time>2016-02-21T15:22:11Z</time>
      </trkpt>
      <trkpt lat="43.96592" lon="5.13319">
        <ele>469.3</ele>
        <time>2016-02-21T15:22:18Z</time>
      </trkpt>
      <trkpt lat="43.96594" lon="5.13306">
        <ele>468.3</ele>
        <time>2016-02-21T15:22:24Z</time>
      </trkpt>
      <trkpt lat="43.96597" lon="5.13293">
        <ele>467.1</ele>
        <time>2016-02-21T15:22:31Z</time>
      </trkpt>
      <trkpt lat="43.96603" lon="5.13283">
        <ele>466.1</ele>
        <time>2016-02-21T15:22:38Z</time>
      </trkpt>
      <trkpt lat="43.96611" lon="5.13275">
        <ele>465.1</ele>
        <time>2016-02-21T15:22:45Z</time>
      </trkpt>
      <trkpt lat="43.96619" lon="5.13266">
        <ele>464.1</ele>
        <time>2016-02-21T15:22:52Z</time>
      </trkpt>
      <trkpt lat="43.96626" lon="5.13257">
        <ele>462.9</ele>
        <time>2016-02-21T15:23:02Z</time>
      </trkpt>
      <trkpt lat="43.96632" lon="5.13248">
        <ele>462</ele>
        <time>2016-02-21T15:23:09Z</time>
      </trkpt>
      <trkpt lat="43.96641" lon="5.13244">
        <ele>461.3</ele>
        <time>2016-02-21T15:23:14Z</time>
      </trkpt>
      <trkpt lat="43.96648" lon="5.13235">
        <ele>460.3</ele>
        <time>2016-02-21T15:23:21Z</time>
      </trkpt>
      <trkpt lat="43.96656" lon="5.13228">
        <ele>459.6</ele>
        <time>2016-02-21T15:23:26Z</time>
      </trkpt>
      <trkpt lat="43.96657" lon="5.13215">
        <ele>458.6</ele>
        <time>2016-02-21T15:23:33Z</time>
      </trkpt>
      <trkpt lat="43.96656" lon="5.13201">
        <ele>457.3</ele>
        <time>2016-02-21T15:23:40Z</time>
      </trkpt>
      <trkpt lat="43.96654" lon="5.13188">
        <ele>456.6</ele>
        <time>2016-02-21T15:23:45Z</time>
      </trkpt>
      <trkpt lat="43.96652" lon="5.13174">
        <ele>455.7</ele>
        <time>2016-02-21T15:23:51Z</time>
      </trkpt>
      <trkpt lat="43.96651" lon="5.13162">
        <ele>455</ele>
        <time>2016-02-21T15:23:56Z</time>
      </trkpt>
      <trkpt lat="43.96649" lon="5.13149">
        <ele>454</ele>
        <time>2016-02-21T15:24:02Z</time>
      </trkpt>
      <trkpt lat="43.96643" lon="5.13139">
        <ele>452.1</ele>
        <time>2016-02-21T15:24:13Z</time>
      </trkpt>
      <trkpt lat="43.96637" lon="5.1313">
        <ele>450.8</ele>
        <time>2016-02-21T15:24:20Z</time>
      </trkpt>
      <trkpt lat="43.96629" lon="5.13122">
        <ele>449.4</ele>
        <time>2016-02-21T15:24:28Z</time>
      </trkpt>
      <trkpt lat="43.96621" lon="5.13117">
        <ele>448.2</ele>
        <time>2016-02-21T15:24:36Z</time>
      </trkpt>
      <trkpt lat="43.96612" lon="5.13104">
        <ele>446.6</ele>
        <time>2016-02-21T15:24:47Z</time>
      </trkpt>
      <trkpt lat="43.96604" lon="5.13099">
        <ele>445.4</ele>
        <time>2016-02-21T15:24:56Z</time>
      </trkpt>
      <trkpt lat="43.96594" lon="5.13099">
        <ele>443.8</ele>
        <time>2016-02-21T15:25:07Z</time>
      </trkpt>
      <trkpt lat="43.96585" lon="5.13094">
        <ele>442.8</ele>
        <time>2016-02-21T15:25:12Z</time>
      </trkpt>
      <trkpt lat="43.96574" lon="5.13093">
        <ele>442.1</ele>
        <time>2016-02-21T15:25:16Z</time>
      </trkpt>
      <trkpt lat="43.96565" lon="5.13091">
        <ele>441.6</ele>
        <time>2016-02-21T15:25:20Z</time>
      </trkpt>
      <trkpt lat="43.96556" lon="5.13085">
        <ele>441.2</ele>
        <time>2016-02-21T15:25:25Z</time>
      </trkpt>
      <trkpt lat="43.96548" lon="5.13076">
        <ele>440.6</ele>
        <time>2016-02-21T15:25:31Z</time>
      </trkpt>
      <trkpt lat="43.9654" lon="5.13068">
        <ele>439.9</ele>
        <time>2016-02-21T15:25:39Z</time>
      </trkpt>
      <trkpt lat="43.96542" lon="5.13054">
        <ele>439.1</ele>
        <time>2016-02-21T15:25:46Z</time>
      </trkpt>
      <trkpt lat="43.9655" lon="5.13047">
        <ele>438.3</ele>
        <time>2016-02-21T15:25:52Z</time>
      </trkpt>
      <trkpt lat="43.96559" lon="5.13043">
        <ele>437.2</ele>
        <time>2016-02-21T15:26:01Z</time>
      </trkpt>
      <trkpt lat="43.96567" lon="5.13037">
        <ele>434.2</ele>
        <time>2016-02-21T15:26:47Z</time>
      </trkpt>
      <trkpt lat="43.96566" lon="5.13024">
        <ele>433.1</ele>
        <time>2016-02-21T15:26:58Z</time>
      </trkpt>
      <trkpt lat="43.96563" lon="5.1301">
        <ele>432.2</ele>
        <time>2016-02-21T15:27:07Z</time>
      </trkpt>
      <trkpt lat="43.96566" lon="5.12997">
        <ele>430.8</ele>
        <time>2016-02-21T15:27:16Z</time>
      </trkpt>
      <trkpt lat="43.96567" lon="5.12984">
        <ele>429.2</ele>
        <time>2016-02-21T15:27:24Z</time>
      </trkpt>
      <trkpt lat="43.96564" lon="5.12971">
        <ele>426.9</ele>
        <time>2016-02-21T15:27:36Z</time>
      </trkpt>
      <trkpt lat="43.96572" lon="5.12963">
        <ele>424.9</ele>
        <time>2016-02-21T15:27:47Z</time>
      </trkpt>
      <trkpt lat="43.96578" lon="5.12953">
        <ele>423.1</ele>
        <time>2016-02-21T15:27:56Z</time>
      </trkpt>
      <trkpt lat="43.96573" lon="5.12943">
        <ele>421.5</ele>
        <time>2016-02-21T15:28:05Z</time>
      </trkpt>
      <trkpt lat="43.96562" lon="5.12941">
        <ele>420.2</ele>
        <time>2016-02-21T15:28:12Z</time>
      </trkpt>
      <trkpt lat="43.96559" lon="5.12929">
        <ele>418.5</ele>
        <time>2016-02-21T15:28:21Z</time>
      </trkpt>
      <trkpt lat="43.96561" lon="5.12915">
        <ele>417.1</ele>
        <time>2016-02-21T15:28:28Z</time>
      </trkpt>
      <trkpt lat="43.96564" lon="5.12903">
        <ele>415.8</ele>
        <time>2016-02-21T15:28:35Z</time>
      </trkpt>
      <trkpt lat="43.96571" lon="5.12891">
        <ele>415</ele>
        <time>2016-02-21T15:28:40Z</time>
      </trkpt>
      <trkpt lat="43.9658" lon="5.12884">
        <ele>414.4</ele>
        <time>2016-02-21T15:28:45Z</time>
      </trkpt>
      <trkpt lat="43.96588" lon="5.12876">
        <ele>413.6</ele>
        <time>2016-02-21T15:28:51Z</time>
      </trkpt>
      <trkpt lat="43.96596" lon="5.12869">
        <ele>412.9</ele>
        <time>2016-02-21T15:28:58Z</time>
      </trkpt>
      <trkpt lat="43.96602" lon="5.1286">
        <ele>412.2</ele>
        <time>2016-02-21T15:29:07Z</time>
      </trkpt>
      <trkpt lat="43.96609" lon="5.12849">
        <ele>411.5</ele>
        <time>2016-02-21T15:29:15Z</time>
      </trkpt>
      <trkpt lat="43.96619" lon="5.1284">
        <ele>411.2</ele>
        <time>2016-02-21T15:29:20Z</time>
      </trkpt>
      <trkpt lat="43.96628" lon="5.12836">
        <ele>411</ele>
        <time>2016-02-21T15:29:25Z</time>
      </trkpt>
      <trkpt lat="43.96638" lon="5.12833">
        <ele>410.6</ele>
        <time>2016-02-21T15:29:31Z</time>
      </trkpt>
      <trkpt lat="43.96647" lon="5.12829">
        <ele>410</ele>
        <time>2016-02-21T15:29:38Z</time>
      </trkpt>
      <trkpt lat="43.96656" lon="5.12825">
        <ele>409.3</ele>
        <time>2016-02-21T15:29:44Z</time>
      </trkpt>
      <trkpt lat="43.96664" lon="5.12817">
        <ele>408.7</ele>
        <time>2016-02-21T15:29:50Z</time>
      </trkpt>
      <trkpt lat="43.96673" lon="5.12809">
        <ele>407.9</ele>
        <time>2016-02-21T15:29:57Z</time>
      </trkpt>
      <trkpt lat="43.96682" lon="5.12805">
        <ele>407.1</ele>
        <time>2016-02-21T15:30:03Z</time>
      </trkpt>
      <trkpt lat="43.96691" lon="5.128">
        <ele>406.2</ele>
        <time>2016-02-21T15:30:09Z</time>
      </trkpt>
      <trkpt lat="43.96702" lon="5.12796">
        <ele>405.4</ele>
        <time>2016-02-21T15:30:15Z</time>
      </trkpt>
      <trkpt lat="43.9671" lon="5.1279">
        <ele>404.8</ele>
        <time>2016-02-21T15:30:19Z</time>
      </trkpt>
      <trkpt lat="43.96717" lon="5.1278">
        <ele>403.7</ele>
        <time>2016-02-21T15:30:27Z</time>
      </trkpt>
      <trkpt lat="43.96726" lon="5.12774">
        <ele>402.9</ele>
        <time>2016-02-21T15:30:33Z</time>
      </trkpt>
      <trkpt lat="43.96734" lon="5.12768">
        <ele>402</ele>
        <time>2016-02-21T15:30:39Z</time>
      </trkpt>
      <trkpt lat="43.96745" lon="5.12763">
        <ele>400.9</ele>
        <time>2016-02-21T15:30:46Z</time>
      </trkpt>
      <trkpt lat="43.96753" lon="5.12755">
        <ele>399.8</ele>
        <time>2016-02-21T15:30:53Z</time>
      </trkpt>
      <trkpt lat="43.96758" lon="5.12744">
        <ele>398.5</ele>
        <time>2016-02-21T15:31:01Z</time>
      </trkpt>
      <trkpt lat="43.96766" lon="5.12737">
        <ele>397.5</ele>
        <time>2016-02-21T15:31:08Z</time>
      </trkpt>
      <trkpt lat="43.96772" lon="5.12727">
        <ele>395</ele>
        <time>2016-02-21T15:31:39Z</time>
      </trkpt>
      <trkpt lat="43.96776" lon="5.12715">
        <ele>393.4</ele>
        <time>2016-02-21T15:32:10Z</time>
      </trkpt>
      <trkpt lat="43.96784" lon="5.1271">
        <ele>392.7</ele>
        <time>2016-02-21T15:32:17Z</time>
      </trkpt>
      <trkpt lat="43.96794" lon="5.12703">
        <ele>391.8</ele>
        <time>2016-02-21T15:32:24Z</time>
      </trkpt>
      <trkpt lat="43.96801" lon="5.12695">
        <ele>390.7</ele>
        <time>2016-02-21T15:32:32Z</time>
      </trkpt>
      <trkpt lat="43.96808" lon="5.12684">
        <ele>389.6</ele>
        <time>2016-02-21T15:32:39Z</time>
      </trkpt>
      <trkpt lat="43.96815" lon="5.12675">
        <ele>388.9</ele>
        <time>2016-02-21T15:32:44Z</time>
      </trkpt>
      <trkpt lat="43.9682" lon="5.12664">
        <ele>388</ele>
        <time>2016-02-21T15:32:50Z</time>
      </trkpt>
      <trkpt lat="43.96826" lon="5.12652">
        <ele>386.8</ele>
        <time>2016-02-21T15:32:57Z</time>
      </trkpt>
      <trkpt lat="43.9683" lon="5.12641">
        <ele>385.7</ele>
        <time>2016-02-21T15:33:03Z</time>
      </trkpt>
      <trkpt lat="43.96837" lon="5.12631">
        <ele>384.2</ele>
        <time>2016-02-21T15:33:10Z</time>
      </trkpt>
      <trkpt lat="43.96844" lon="5.12623">
        <ele>383.3</ele>
        <time>2016-02-21T15:33:16Z</time>
      </trkpt>
      <trkpt lat="43.9685" lon="5.12613">
        <ele>382.2</ele>
        <time>2016-02-21T15:33:24Z</time>
      </trkpt>
      <trkpt lat="43.96856" lon="5.12602">
        <ele>381.1</ele>
        <time>2016-02-21T15:33:32Z</time>
      </trkpt>
      <trkpt lat="43.96856" lon="5.12587">
        <ele>380.1</ele>
        <time>2016-02-21T15:33:39Z</time>
      </trkpt>
      <trkpt lat="43.96855" lon="5.12575">
        <ele>379.5</ele>
        <time>2016-02-21T15:33:43Z</time>
      </trkpt>
      <trkpt lat="43.96851" lon="5.12562">
        <ele>378.6</ele>
        <time>2016-02-21T15:33:50Z</time>
      </trkpt>
      <trkpt lat="43.96847" lon="5.1255">
        <ele>377.2</ele>
        <time>2016-02-21T15:33:58Z</time>
      </trkpt>
      <trkpt lat="43.96849" lon="5.12536">
        <ele>376</ele>
        <time>2016-02-21T15:34:06Z</time>
      </trkpt>
      <trkpt lat="43.96852" lon="5.12522">
        <ele>374.7</ele>
        <time>2016-02-21T15:34:13Z</time>
      </trkpt>
      <trkpt lat="43.96855" lon="5.12509">
        <ele>374</ele>
        <time>2016-02-21T15:34:18Z</time>
      </trkpt>
      <trkpt lat="43.96857" lon="5.12494">
        <ele>373.2</ele>
        <time>2016-02-21T15:34:23Z</time>
      </trkpt>
      <trkpt lat="43.96855" lon="5.12481">
        <ele>372.5</ele>
        <time>2016-02-21T15:34:27Z</time>
      </trkpt>
      <trkpt lat="43.96851" lon="5.1247">
        <ele>371.5</ele>
        <time>2016-02-21T15:34:34Z</time>
      </trkpt>
      <trkpt lat="43.96858" lon="5.1246">
        <ele>369.5</ele>
        <time>2016-02-21T15:35:25Z</time>
      </trkpt>
      <trkpt lat="43.96866" lon="5.12454">
        <ele>368.9</ele>
        <time>2016-02-21T15:35:31Z</time>
      </trkpt>
      <trkpt lat="43.96874" lon="5.12447">
        <ele>368.3</ele>
        <time>2016-02-21T15:35:38Z</time>
      </trkpt>
      <trkpt lat="43.96878" lon="5.12435">
        <ele>367.8</ele>
        <time>2016-02-21T15:35:49Z</time>
      </trkpt>
      <trkpt lat="43.96884" lon="5.12423">
        <ele>367.3</ele>
        <time>2016-02-21T15:35:58Z</time>
      </trkpt>
      <trkpt lat="43.96891" lon="5.12414">
        <ele>366</ele>
        <time>2016-02-21T15:36:09Z</time>
      </trkpt>
      <trkpt lat="43.96897" lon="5.12405">
        <ele>364.9</ele>
        <time>2016-02-21T15:36:20Z</time>
      </trkpt>
      <trkpt lat="43.96903" lon="5.12394">
        <ele>363.8</ele>
        <time>2016-02-21T15:36:31Z</time>
      </trkpt>
      <trkpt lat="43.96909" lon="5.12385">
        <ele>363.1</ele>
        <time>2016-02-21T15:36:37Z</time>
      </trkpt>
      <trkpt lat="43.96914" lon="5.12372">
        <ele>362.6</ele>
        <time>2016-02-21T15:36:43Z</time>
      </trkpt>
      <trkpt lat="43.96921" lon="5.12364">
        <ele>362.1</ele>
        <time>2016-02-21T15:36:49Z</time>
      </trkpt>
      <trkpt lat="43.96929" lon="5.12358">
        <ele>361.7</ele>
        <time>2016-02-21T15:36:58Z</time>
      </trkpt>
      <trkpt lat="43.96936" lon="5.12348">
        <ele>361.4</ele>
        <time>2016-02-21T15:37:06Z</time>
      </trkpt>
      <trkpt lat="43.96941" lon="5.12337">
        <ele>361.1</ele>
        <time>2016-02-21T15:37:10Z</time>
      </trkpt>
      <trkpt lat="43.96947" lon="5.12325">
        <ele>360.8</ele>
        <time>2016-02-21T15:37:14Z</time>
      </trkpt>
      <trkpt lat="43.96951" lon="5.12312">
        <ele>360.5</ele>
        <time>2016-02-21T15:37:18Z</time>
      </trkpt>
      <trkpt lat="43.96954" lon="5.123">
        <ele>360.2</ele>
        <time>2016-02-21T15:37:22Z</time>
      </trkpt>
      <trkpt lat="43.96957" lon="5.12288">
        <ele>359.7</ele>
        <time>2016-02-21T15:37:29Z</time>
      </trkpt>
      <trkpt lat="43.96954" lon="5.12275">
        <ele>358.7</ele>
        <time>2016-02-21T15:37:37Z</time>
      </trkpt>
      <trkpt lat="43.96949" lon="5.12262">
        <ele>358</ele>
        <time>2016-02-21T15:37:41Z</time>
      </trkpt>
      <trkpt lat="43.96947" lon="5.12249">
        <ele>357</ele>
        <time>2016-02-21T15:37:52Z</time>
      </trkpt>
      <trkpt lat="43.96946" lon="5.12234">
        <ele>357</ele>
        <time>2016-02-21T15:38:02Z</time>
      </trkpt>
      <trkpt lat="43.96947" lon="5.1222">
        <ele>357.1</ele>
        <time>2016-02-21T15:38:11Z</time>
      </trkpt>
      <trkpt lat="43.9695" lon="5.12207">
        <ele>357.1</ele>
        <time>2016-02-21T15:38:17Z</time>
      </trkpt>
      <trkpt lat="43.96954" lon="5.12196">
        <ele>357.1</ele>
        <time>2016-02-21T15:38:24Z</time>
      </trkpt>
      <trkpt lat="43.96957" lon="5.12184">
        <ele>357</ele>
        <time>2016-02-21T15:38:31Z</time>
      </trkpt>
      <trkpt lat="43.96962" lon="5.12172">
        <ele>356.9</ele>
        <time>2016-02-21T15:38:39Z</time>
      </trkpt>
      <trkpt lat="43.96969" lon="5.12159">
        <ele>356.6</ele>
        <time>2016-02-21T15:38:46Z</time>
      </trkpt>
      <trkpt lat="43.96977" lon="5.12149">
        <ele>356.2</ele>
        <time>2016-02-21T15:38:51Z</time>
      </trkpt>
      <trkpt lat="43.96981" lon="5.12138">
        <ele>355.7</ele>
        <time>2016-02-21T15:38:59Z</time>
      </trkpt>
      <trkpt lat="43.96985" lon="5.12126">
        <ele>355.4</ele>
        <time>2016-02-21T15:39:06Z</time>
      </trkpt>
      <trkpt lat="43.96988" lon="5.12115">
        <ele>355.2</ele>
        <time>2016-02-21T15:39:12Z</time>
      </trkpt>
      <trkpt lat="43.96993" lon="5.12103">
        <ele>354.7</ele>
        <time>2016-02-21T15:39:20Z</time>
      </trkpt>
      <trkpt lat="43.96999" lon="5.12091">
        <ele>354.1</ele>
        <time>2016-02-21T15:39:26Z</time>
      </trkpt>
      <trkpt lat="43.97007" lon="5.12086">
        <ele>353.7</ele>
        <time>2016-02-21T15:39:32Z</time>
      </trkpt>
      <trkpt lat="43.97015" lon="5.12079">
        <ele>353.2</ele>
        <time>2016-02-21T15:39:39Z</time>
      </trkpt>
      <trkpt lat="43.97022" lon="5.12071">
        <ele>352.9</ele>
        <time>2016-02-21T15:39:45Z</time>
      </trkpt>
      <trkpt lat="43.97019" lon="5.12058">
        <ele>352.3</ele>
        <time>2016-02-21T15:39:56Z</time>
      </trkpt>
      <trkpt lat="43.97026" lon="5.12048">
        <ele>352</ele>
        <time>2016-02-21T15:40:05Z</time>
      </trkpt>
      <trkpt lat="43.9703" lon="5.12036">
        <ele>351.8</ele>
        <time>2016-02-21T15:40:13Z</time>
      </trkpt>
      <trkpt lat="43.97036" lon="5.12026">
        <ele>350.8</ele>
        <time>2016-02-21T15:40:35Z</time>
      </trkpt>
      <trkpt lat="43.97039" lon="5.12014">
        <ele>350</ele>
        <time>2016-02-21T15:40:50Z</time>
      </trkpt>
      <trkpt lat="43.97039" lon="5.11999">
        <ele>348.3</ele>
        <time>2016-02-21T15:41:08Z</time>
      </trkpt>
      <trkpt lat="43.97043" lon="5.11987">
        <ele>346.8</ele>
        <time>2016-02-21T15:41:18Z</time>
      </trkpt>
      <trkpt lat="43.97044" lon="5.11973">
        <ele>345.3</ele>
        <time>2016-02-21T15:41:26Z</time>
      </trkpt>
      <trkpt lat="43.97054" lon="5.11969">
        <ele>343.7</ele>
        <time>2016-02-21T15:41:34Z</time>
      </trkpt>
      <trkpt lat="43.97061" lon="5.1196">
        <ele>341.8</ele>
        <time>2016-02-21T15:41:42Z</time>
      </trkpt>
      <trkpt lat="43.97064" lon="5.11947">
        <ele>340.6</ele>
        <time>2016-02-21T15:41:50Z</time>
      </trkpt>
      <trkpt lat="43.97064" lon="5.11933">
        <ele>339.7</ele>
        <time>2016-02-21T15:41:57Z</time>
      </trkpt>
      <trkpt lat="43.97062" lon="5.1192">
        <ele>338.4</ele>
        <time>2016-02-21T15:42:19Z</time>
      </trkpt>
      <trkpt lat="43.97063" lon="5.11907">
        <ele>337.9</ele>
        <time>2016-02-21T15:42:25Z</time>
      </trkpt>
      <trkpt lat="43.97061" lon="5.11894">
        <ele>337.2</ele>
        <time>2016-02-21T15:42:30Z</time>
      </trkpt>
      <trkpt lat="43.97063" lon="5.1188">
        <ele>336.5</ele>
        <time>2016-02-21T15:42:36Z</time>
      </trkpt>
      <trkpt lat="43.97063" lon="5.11866">
        <ele>335.5</ele>
        <time>2016-02-21T15:42:42Z</time>
      </trkpt>
      <trkpt lat="43.97063" lon="5.11853">
        <ele>334.7</ele>
        <time>2016-02-21T15:42:48Z</time>
      </trkpt>
      <trkpt lat="43.9706" lon="5.1184">
        <ele>334.2</ele>
        <time>2016-02-21T15:42:53Z</time>
      </trkpt>
      <trkpt lat="43.97057" lon="5.11827">
        <ele>333.5</ele>
        <time>2016-02-21T15:43:20Z</time>
      </trkpt>
      <trkpt lat="43.97047" lon="5.11826">
        <ele>333.6</ele>
        <time>2016-02-21T15:43:24Z</time>
      </trkpt>
      <trkpt lat="43.97038" lon="5.11822">
        <ele>334</ele>
        <time>2016-02-21T15:43:31Z</time>
      </trkpt>
      <trkpt lat="43.97029" lon="5.11817">
        <ele>334.2</ele>
        <time>2016-02-21T15:43:37Z</time>
      </trkpt>
      <trkpt lat="43.97017" lon="5.11811">
        <ele>334.3</ele>
        <time>2016-02-21T15:43:42Z</time>
      </trkpt>
      <trkpt lat="43.97008" lon="5.11806">
        <ele>334.4</ele>
        <time>2016-02-21T15:43:44Z</time>
      </trkpt>
      <trkpt lat="43.96997" lon="5.118">
        <ele>334.5</ele>
        <time>2016-02-21T15:43:47Z</time>
      </trkpt>
      <trkpt lat="43.96986" lon="5.11796">
        <ele>334.6</ele>
        <time>2016-02-21T15:43:50Z</time>
      </trkpt>
      <trkpt lat="43.96972" lon="5.11791">
        <ele>335.5</ele>
        <time>2016-02-21T15:43:53Z</time>
      </trkpt>
      <trkpt lat="43.96961" lon="5.11789">
        <ele>336</ele>
        <time>2016-02-21T15:43:55Z</time>
      </trkpt>
      <trkpt lat="43.96948" lon="5.11788">
        <ele>336.9</ele>
        <time>2016-02-21T15:43:58Z</time>
      </trkpt>
      <trkpt lat="43.96936" lon="5.11787">
        <ele>337.7</ele>
        <time>2016-02-21T15:44:01Z</time>
      </trkpt>
      <trkpt lat="43.96925" lon="5.11786">
        <ele>338.6</ele>
        <time>2016-02-21T15:44:04Z</time>
      </trkpt>
      <trkpt lat="43.96913" lon="5.11783">
        <ele>339.5</ele>
        <time>2016-02-21T15:44:07Z</time>
      </trkpt>
      <trkpt lat="43.96899" lon="5.11778">
        <ele>340.3</ele>
        <time>2016-02-21T15:44:10Z</time>
      </trkpt>
      <trkpt lat="43.9689" lon="5.11769">
        <ele>340.9</ele>
        <time>2016-02-21T15:44:12Z</time>
      </trkpt>
      <trkpt lat="43.96883" lon="5.1176">
        <ele>341.6</ele>
        <time>2016-02-21T15:44:14Z</time>
      </trkpt>
      <trkpt lat="43.96877" lon="5.1175">
        <ele>343.6</ele>
        <time>2016-02-21T15:44:19Z</time>
      </trkpt>
      <trkpt lat="43.96869" lon="5.11743">
        <ele>346.7</ele>
        <time>2016-02-21T15:44:27Z</time>
      </trkpt>
      <trkpt lat="43.96864" lon="5.11728">
        <ele>348.9</ele>
        <time>2016-02-21T15:44:32Z</time>
      </trkpt>
      <trkpt lat="43.96864" lon="5.11714">
        <ele>350.2</ele>
        <time>2016-02-21T15:44:35Z</time>
      </trkpt>
      <trkpt lat="43.96864" lon="5.11698">
        <ele>351.6</ele>
        <time>2016-02-21T15:44:38Z</time>
      </trkpt>
      <trkpt lat="43.96859" lon="5.11685">
        <ele>353.2</ele>
        <time>2016-02-21T15:44:41Z</time>
      </trkpt>
      <trkpt lat="43.9685" lon="5.11674">
        <ele>355</ele>
        <time>2016-02-21T15:44:44Z</time>
      </trkpt>
      <trkpt lat="43.9684" lon="5.11669">
        <ele>356.9</ele>
        <time>2016-02-21T15:44:47Z</time>
      </trkpt>
      <trkpt lat="43.96832" lon="5.11661">
        <ele>359.8</ele>
        <time>2016-02-21T15:44:51Z</time>
      </trkpt>
      <trkpt lat="43.96823" lon="5.11657">
        <ele>365</ele>
        <time>2016-02-21T15:44:59Z</time>
      </trkpt>
      <trkpt lat="43.96813" lon="5.11657">
        <ele>369.2</ele>
        <time>2016-02-21T15:45:07Z</time>
      </trkpt>
      <trkpt lat="43.96801" lon="5.11665">
        <ele>371.3</ele>
        <time>2016-02-21T15:45:13Z</time>
      </trkpt>
      <trkpt lat="43.96791" lon="5.11669">
        <ele>372.2</ele>
        <time>2016-02-21T15:45:16Z</time>
      </trkpt>
      <trkpt lat="43.96781" lon="5.11674">
        <ele>373.3</ele>
        <time>2016-02-21T15:45:19Z</time>
      </trkpt>
      <trkpt lat="43.96771" lon="5.11679">
        <ele>375</ele>
        <time>2016-02-21T15:45:24Z</time>
      </trkpt>
      <trkpt lat="43.96762" lon="5.11675">
        <ele>376.5</ele>
        <time>2016-02-21T15:45:29Z</time>
      </trkpt>
      <trkpt lat="43.96769" lon="5.11663">
        <ele>378</ele>
        <time>2016-02-21T15:45:35Z</time>
      </trkpt>
      <trkpt lat="43.96775" lon="5.11654">
        <ele>378.7</ele>
        <time>2016-02-21T15:45:38Z</time>
      </trkpt>
      <trkpt lat="43.96781" lon="5.1164">
        <ele>379.7</ele>
        <time>2016-02-21T15:45:42Z</time>
      </trkpt>
      <trkpt lat="43.96788" lon="5.11631">
        <ele>380.7</ele>
        <time>2016-02-21T15:45:46Z</time>
      </trkpt>
      <trkpt lat="43.96794" lon="5.11622">
        <ele>384.1</ele>
        <time>2016-02-21T15:46:07Z</time>
      </trkpt>
      <trkpt lat="43.96803" lon="5.11619">
        <ele>385.3</ele>
        <time>2016-02-21T15:46:34Z</time>
      </trkpt>
      <trkpt lat="43.96812" lon="5.11619">
        <ele>385.5</ele>
        <time>2016-02-21T15:46:43Z</time>
      </trkpt>
      <trkpt lat="43.96817" lon="5.11607">
        <ele>386</ele>
        <time>2016-02-21T15:46:52Z</time>
      </trkpt>
      <trkpt lat="43.96824" lon="5.11597">
        <ele>387.3</ele>
        <time>2016-02-21T15:47:02Z</time>
      </trkpt>
      <trkpt lat="43.96832" lon="5.11589">
        <ele>388.4</ele>
        <time>2016-02-21T15:47:10Z</time>
      </trkpt>
      <trkpt lat="43.96842" lon="5.11585">
        <ele>389</ele>
        <time>2016-02-21T15:47:17Z</time>
      </trkpt>
      <trkpt lat="43.96849" lon="5.11577">
        <ele>389.3</ele>
        <time>2016-02-21T15:47:23Z</time>
      </trkpt>
      <trkpt lat="43.96856" lon="5.11568">
        <ele>389.8</ele>
        <time>2016-02-21T15:47:47Z</time>
      </trkpt>
      <trkpt lat="43.96862" lon="5.11559">
        <ele>389.9</ele>
        <time>2016-02-21T15:47:55Z</time>
      </trkpt>
      <trkpt lat="43.96869" lon="5.11551">
        <ele>389.9</ele>
        <time>2016-02-21T15:48:05Z</time>
      </trkpt>
      <trkpt lat="43.96878" lon="5.11555">
        <ele>389.9</ele>
        <time>2016-02-21T15:48:17Z</time>
      </trkpt>
      <trkpt lat="43.96887" lon="5.11559">
        <ele>389.6</ele>
        <time>2016-02-21T15:48:26Z</time>
      </trkpt>
      <trkpt lat="43.96894" lon="5.11567">
        <ele>389.4</ele>
        <time>2016-02-21T15:48:32Z</time>
      </trkpt>
      <trkpt lat="43.96902" lon="5.11574">
        <ele>388.7</ele>
        <time>2016-02-21T15:48:39Z</time>
      </trkpt>
      <trkpt lat="43.96911" lon="5.11569">
        <ele>388.2</ele>
        <time>2016-02-21T15:48:47Z</time>
      </trkpt>
      <trkpt lat="43.96916" lon="5.11556">
        <ele>387.9</ele>
        <time>2016-02-21T15:48:55Z</time>
      </trkpt>
      <trkpt lat="43.96921" lon="5.11543">
        <ele>387.5</ele>
        <time>2016-02-21T15:49:01Z</time>
      </trkpt>
      <trkpt lat="43.96926" lon="5.11531">
        <ele>387.2</ele>
        <time>2016-02-21T15:49:07Z</time>
      </trkpt>
      <trkpt lat="43.96932" lon="5.11519">
        <ele>386.5</ele>
        <time>2016-02-21T15:49:15Z</time>
      </trkpt>
      <trkpt lat="43.96938" lon="5.11509">
        <ele>386.1</ele>
        <time>2016-02-21T15:49:22Z</time>
      </trkpt>
      <trkpt lat="43.96941" lon="5.11497">
        <ele>385.8</ele>
        <time>2016-02-21T15:49:30Z</time>
      </trkpt>
      <trkpt lat="43.96951" lon="5.11494">
        <ele>384.9</ele>
        <time>2016-02-21T15:49:44Z</time>
      </trkpt>
      <trkpt lat="43.96961" lon="5.11498">
        <ele>384.3</ele>
        <time>2016-02-21T15:49:51Z</time>
      </trkpt>
      <trkpt lat="43.96969" lon="5.11494">
        <ele>383.8</ele>
        <time>2016-02-21T15:50:00Z</time>
      </trkpt>
      <trkpt lat="43.96973" lon="5.11481">
        <ele>383.1</ele>
        <time>2016-02-21T15:50:10Z</time>
      </trkpt>
      <trkpt lat="43.96975" lon="5.11467">
        <ele>382.8</ele>
        <time>2016-02-21T15:50:17Z</time>
      </trkpt>
      <trkpt lat="43.96979" lon="5.11453">
        <ele>382.6</ele>
        <time>2016-02-21T15:50:24Z</time>
      </trkpt>
      <trkpt lat="43.96975" lon="5.1144">
        <ele>382.2</ele>
        <time>2016-02-21T15:50:40Z</time>
      </trkpt>
      <trkpt lat="43.96967" lon="5.11431">
        <ele>382</ele>
        <time>2016-02-21T15:50:48Z</time>
      </trkpt>
      <trkpt lat="43.96961" lon="5.11416">
        <ele>381.9</ele>
        <time>2016-02-21T15:50:54Z</time>
      </trkpt>
      <trkpt lat="43.96952" lon="5.11408">
        <ele>381.8</ele>
        <time>2016-02-21T15:51:01Z</time>
      </trkpt>
      <trkpt lat="43.96951" lon="5.11395">
        <ele>381.7</ele>
        <time>2016-02-21T15:51:09Z</time>
      </trkpt>
      <trkpt lat="43.96956" lon="5.11384">
        <ele>381.6</ele>
        <time>2016-02-21T15:51:14Z</time>
      </trkpt>
      <trkpt lat="43.96961" lon="5.11373">
        <ele>381.5</ele>
        <time>2016-02-21T15:51:22Z</time>
      </trkpt>
      <trkpt lat="43.96965" lon="5.11358">
        <ele>381.1</ele>
        <time>2016-02-21T15:51:30Z</time>
      </trkpt>
      <trkpt lat="43.96969" lon="5.11346">
        <ele>380.6</ele>
        <time>2016-02-21T15:51:36Z</time>
      </trkpt>
      <trkpt lat="43.96974" lon="5.11335">
        <ele>379.6</ele>
        <time>2016-02-21T15:51:45Z</time>
      </trkpt>
      <trkpt lat="43.96979" lon="5.11323">
        <ele>378.9</ele>
        <time>2016-02-21T15:51:51Z</time>
      </trkpt>
      <trkpt lat="43.96984" lon="5.11312">
        <ele>378.3</ele>
        <time>2016-02-21T15:51:56Z</time>
      </trkpt>
      <trkpt lat="43.96991" lon="5.11304">
        <ele>377.8</ele>
        <time>2016-02-21T15:52:01Z</time>
      </trkpt>
      <trkpt lat="43.96999" lon="5.11295">
        <ele>377.3</ele>
        <time>2016-02-21T15:52:07Z</time>
      </trkpt>
      <trkpt lat="43.97007" lon="5.11285">
        <ele>376.9</ele>
        <time>2016-02-21T15:52:14Z</time>
      </trkpt>
      <trkpt lat="43.97015" lon="5.11278">
        <ele>376.6</ele>
        <time>2016-02-21T15:52:20Z</time>
      </trkpt>
      <trkpt lat="43.97023" lon="5.11271">
        <ele>376.3</ele>
        <time>2016-02-21T15:52:26Z</time>
      </trkpt>
      <trkpt lat="43.97032" lon="5.11264">
        <ele>376.1</ele>
        <time>2016-02-21T15:52:31Z</time>
      </trkpt>
      <trkpt lat="43.9704" lon="5.11258">
        <ele>375.7</ele>
        <time>2016-02-21T15:52:38Z</time>
      </trkpt>
      <trkpt lat="43.97048" lon="5.11252">
        <ele>375.5</ele>
        <time>2016-02-21T15:52:45Z</time>
      </trkpt>
      <trkpt lat="43.97056" lon="5.11246">
        <ele>375.3</ele>
        <time>2016-02-21T15:52:53Z</time>
      </trkpt>
      <trkpt lat="43.97066" lon="5.1124">
        <ele>374.9</ele>
        <time>2016-02-21T15:53:00Z</time>
      </trkpt>
      <trkpt lat="43.97074" lon="5.11236">
        <ele>374.6</ele>
        <time>2016-02-21T15:53:05Z</time>
      </trkpt>
      <trkpt lat="43.97084" lon="5.11232">
        <ele>374.4</ele>
        <time>2016-02-21T15:53:10Z</time>
      </trkpt>
      <trkpt lat="43.97092" lon="5.11227">
        <ele>374</ele>
        <time>2016-02-21T15:53:16Z</time>
      </trkpt>
      <trkpt lat="43.97101" lon="5.11223">
        <ele>373.4</ele>
        <time>2016-02-21T15:53:22Z</time>
      </trkpt>
      <trkpt lat="43.9711" lon="5.1122">
        <ele>373</ele>
        <time>2016-02-21T15:53:27Z</time>
      </trkpt>
      <trkpt lat="43.97118" lon="5.11215">
        <ele>372.7</ele>
        <time>2016-02-21T15:53:33Z</time>
      </trkpt>
      <trkpt lat="43.97128" lon="5.11209">
        <ele>372.3</ele>
        <time>2016-02-21T15:53:39Z</time>
      </trkpt>
      <trkpt lat="43.97138" lon="5.11206">
        <ele>372</ele>
        <time>2016-02-21T15:53:45Z</time>
      </trkpt>
      <trkpt lat="43.97147" lon="5.11204">
        <ele>371.7</ele>
        <time>2016-02-21T15:53:51Z</time>
      </trkpt>
      <trkpt lat="43.97156" lon="5.11201">
        <ele>371.5</ele>
        <time>2016-02-21T15:53:57Z</time>
      </trkpt>
      <trkpt lat="43.97165" lon="5.11195">
        <ele>371.3</ele>
        <time>2016-02-21T15:54:02Z</time>
      </trkpt>
      <trkpt lat="43.97173" lon="5.11188">
        <ele>371.2</ele>
        <time>2016-02-21T15:54:08Z</time>
      </trkpt>
      <trkpt lat="43.97171" lon="5.11176">
        <ele>371.2</ele>
        <time>2016-02-21T15:54:19Z</time>
      </trkpt>
      <trkpt lat="43.97162" lon="5.11172">
        <ele>372.1</ele>
        <time>2016-02-21T15:54:29Z</time>
      </trkpt>
      <trkpt lat="43.97153" lon="5.11171">
        <ele>373.5</ele>
        <time>2016-02-21T15:54:40Z</time>
      </trkpt>
      <trkpt lat="43.97143" lon="5.11165">
        <ele>374.4</ele>
        <time>2016-02-21T15:54:46Z</time>
      </trkpt>
      <trkpt lat="43.97135" lon="5.11158">
        <ele>375.4</ele>
        <time>2016-02-21T15:54:53Z</time>
      </trkpt>
      <trkpt lat="43.97128" lon="5.11148">
        <ele>376.7</ele>
        <time>2016-02-21T15:55:03Z</time>
      </trkpt>
      <trkpt lat="43.97122" lon="5.11138">
        <ele>377.9</ele>
        <time>2016-02-21T15:55:13Z</time>
      </trkpt>
      <trkpt lat="43.97117" lon="5.11127">
        <ele>379.2</ele>
        <time>2016-02-21T15:55:24Z</time>
      </trkpt>
      <trkpt lat="43.97111" lon="5.11117">
        <ele>380.3</ele>
        <time>2016-02-21T15:55:33Z</time>
      </trkpt>
      <trkpt lat="43.97105" lon="5.11105">
        <ele>381.4</ele>
        <time>2016-02-21T15:55:43Z</time>
      </trkpt>
      <trkpt lat="43.97099" lon="5.11095">
        <ele>382.1</ele>
        <time>2016-02-21T15:55:51Z</time>
      </trkpt>
      <trkpt lat="43.9709" lon="5.11091">
        <ele>382.7</ele>
        <time>2016-02-21T15:55:58Z</time>
      </trkpt>
      <trkpt lat="43.97081" lon="5.11087">
        <ele>383.4</ele>
        <time>2016-02-21T15:56:05Z</time>
      </trkpt>
      <trkpt lat="43.97071" lon="5.11083">
        <ele>384.1</ele>
        <time>2016-02-21T15:56:12Z</time>
      </trkpt>
      <trkpt lat="43.97063" lon="5.11076">
        <ele>384.8</ele>
        <time>2016-02-21T15:56:18Z</time>
      </trkpt>
      <trkpt lat="43.97054" lon="5.11071">
        <ele>385.7</ele>
        <time>2016-02-21T15:56:27Z</time>
      </trkpt>
      <trkpt lat="43.97045" lon="5.11067">
        <ele>386.3</ele>
        <time>2016-02-21T15:56:34Z</time>
      </trkpt>
      <trkpt lat="43.97035" lon="5.11064">
        <ele>387</ele>
        <time>2016-02-21T15:56:43Z</time>
      </trkpt>
      <trkpt lat="43.97024" lon="5.1106">
        <ele>388.1</ele>
        <time>2016-02-21T15:56:55Z</time>
      </trkpt>
      <trkpt lat="43.97014" lon="5.11058">
        <ele>388.8</ele>
        <time>2016-02-21T15:57:02Z</time>
      </trkpt>
      <trkpt lat="43.97004" lon="5.11058">
        <ele>389.4</ele>
        <time>2016-02-21T15:57:10Z</time>
      </trkpt>
      <trkpt lat="43.96994" lon="5.11053">
        <ele>389.9</ele>
        <time>2016-02-21T15:57:17Z</time>
      </trkpt>
      <trkpt lat="43.96986" lon="5.11049">
        <ele>390.2</ele>
        <time>2016-02-21T15:57:23Z</time>
      </trkpt>
      <trkpt lat="43.96976" lon="5.11046">
        <ele>390.7</ele>
        <time>2016-02-21T15:57:29Z</time>
      </trkpt>
      <trkpt lat="43.96967" lon="5.1104">
        <ele>391.2</ele>
        <time>2016-02-21T15:57:37Z</time>
      </trkpt>
      <trkpt lat="43.96957" lon="5.11037">
        <ele>391.6</ele>
        <time>2016-02-21T15:57:44Z</time>
      </trkpt>
      <trkpt lat="43.96947" lon="5.1104">
        <ele>392.1</ele>
        <time>2016-02-21T15:57:52Z</time>
      </trkpt>
      <trkpt lat="43.96938" lon="5.11042">
        <ele>392.8</ele>
        <time>2016-02-21T15:58:00Z</time>
      </trkpt>
      <trkpt lat="43.96928" lon="5.11042">
        <ele>393.4</ele>
        <time>2016-02-21T15:58:07Z</time>
      </trkpt>
      <trkpt lat="43.96918" lon="5.11038">
        <ele>393.9</ele>
        <time>2016-02-21T15:58:12Z</time>
      </trkpt>
      <trkpt lat="43.9691" lon="5.11028">
        <ele>394.4</ele>
        <time>2016-02-21T15:58:19Z</time>
      </trkpt>
      <trkpt lat="43.96903" lon="5.11021">
        <ele>394.6</ele>
        <time>2016-02-21T15:58:22Z</time>
      </trkpt>
      <trkpt lat="43.96895" lon="5.11015">
        <ele>395</ele>
        <time>2016-02-21T15:58:28Z</time>
      </trkpt>
      <trkpt lat="43.96886" lon="5.11009">
        <ele>395.3</ele>
        <time>2016-02-21T15:58:33Z</time>
      </trkpt>
      <trkpt lat="43.96878" lon="5.11002">
        <ele>395.6</ele>
        <time>2016-02-21T15:58:43Z</time>
      </trkpt>
      <trkpt lat="43.9687" lon="5.10995">
        <ele>395.8</ele>
        <time>2016-02-21T15:58:53Z</time>
      </trkpt>
      <trkpt lat="43.96861" lon="5.10989">
        <ele>395.9</ele>
        <time>2016-02-21T15:59:00Z</time>
      </trkpt>
      <trkpt lat="43.96851" lon="5.10984">
        <ele>395.9</ele>
        <time>2016-02-21T15:59:08Z</time>
      </trkpt>
      <trkpt lat="43.96841" lon="5.1098">
        <ele>396</ele>
        <time>2016-02-21T15:59:15Z</time>
      </trkpt>
      <trkpt lat="43.96833" lon="5.10973">
        <ele>395.6</ele>
        <time>2016-02-21T15:59:22Z</time>
      </trkpt>
      <trkpt lat="43.96823" lon="5.10972">
        <ele>395</ele>
        <time>2016-02-21T15:59:31Z</time>
      </trkpt>
      <trkpt lat="43.96813" lon="5.10971">
        <ele>394.5</ele>
        <time>2016-02-21T15:59:40Z</time>
      </trkpt>
      <trkpt lat="43.96803" lon="5.10971">
        <ele>394.3</ele>
        <time>2016-02-21T15:59:47Z</time>
      </trkpt>
      <trkpt lat="43.96794" lon="5.10973">
        <ele>394.1</ele>
        <time>2016-02-21T15:59:55Z</time>
      </trkpt>
      <trkpt lat="43.96785" lon="5.10975">
        <ele>394.1</ele>
        <time>2016-02-21T16:00:00Z</time>
      </trkpt>
      <trkpt lat="43.96776" lon="5.10978">
        <ele>394.2</ele>
        <time>2016-02-21T16:00:07Z</time>
      </trkpt>
      <trkpt lat="43.96766" lon="5.1098">
        <ele>394.2</ele>
        <time>2016-02-21T16:00:12Z</time>
      </trkpt>
      <trkpt lat="43.96756" lon="5.10982">
        <ele>394.2</ele>
        <time>2016-02-21T16:00:16Z</time>
      </trkpt>
      <trkpt lat="43.96746" lon="5.10981">
        <ele>394.1</ele>
        <time>2016-02-21T16:00:20Z</time>
      </trkpt>
      <trkpt lat="43.96737" lon="5.1098">
        <ele>394.1</ele>
        <time>2016-02-21T16:00:26Z</time>
      </trkpt>
      <trkpt lat="43.96728" lon="5.10982">
        <ele>394</ele>
        <time>2016-02-21T16:00:30Z</time>
      </trkpt>
      <trkpt lat="43.96719" lon="5.10981">
        <ele>394</ele>
        <time>2016-02-21T16:00:38Z</time>
      </trkpt>
      <trkpt lat="43.96708" lon="5.10981">
        <ele>393.9</ele>
        <time>2016-02-21T16:00:46Z</time>
      </trkpt>
      <trkpt lat="43.96698" lon="5.10982">
        <ele>393.9</ele>
        <time>2016-02-21T16:00:53Z</time>
      </trkpt>
      <trkpt lat="43.96688" lon="5.10981">
        <ele>393.9</ele>
        <time>2016-02-21T16:01:00Z</time>
      </trkpt>
      <trkpt lat="43.96678" lon="5.10982">
        <ele>393.9</ele>
        <time>2016-02-21T16:01:06Z</time>
      </trkpt>
      <trkpt lat="43.96666" lon="5.10983">
        <ele>393.9</ele>
        <time>2016-02-21T16:01:14Z</time>
      </trkpt>
      <trkpt lat="43.96657" lon="5.10983">
        <ele>393.9</ele>
        <time>2016-02-21T16:01:22Z</time>
      </trkpt>
      <trkpt lat="43.96647" lon="5.10984">
        <ele>393.9</ele>
        <time>2016-02-21T16:01:31Z</time>
      </trkpt>
      <trkpt lat="43.96642" lon="5.10973">
        <ele>393.7</ele>
        <time>2016-02-21T16:01:46Z</time>
      </trkpt>
      <trkpt lat="43.96649" lon="5.10965">
        <ele>393.4</ele>
        <time>2016-02-21T16:01:52Z</time>
      </trkpt>
      <trkpt lat="43.96655" lon="5.10953">
        <ele>392.8</ele>
        <time>2016-02-21T16:02:00Z</time>
      </trkpt>
      <trkpt lat="43.96659" lon="5.10941">
        <ele>392.4</ele>
        <time>2016-02-21T16:02:05Z</time>
      </trkpt>
      <trkpt lat="43.96666" lon="5.10933">
        <ele>391.8</ele>
        <time>2016-02-21T16:02:13Z</time>
      </trkpt>
      <trkpt lat="43.96665" lon="5.1092">
        <ele>390.9</ele>
        <time>2016-02-21T16:02:22Z</time>
      </trkpt>
      <trkpt lat="43.96667" lon="5.10906">
        <ele>390.3</ele>
        <time>2016-02-21T16:02:27Z</time>
      </trkpt>
      <trkpt lat="43.96664" lon="5.10893">
        <ele>389.5</ele>
        <time>2016-02-21T16:02:35Z</time>
      </trkpt>
      <trkpt lat="43.96663" lon="5.10879">
        <ele>389</ele>
        <time>2016-02-21T16:02:43Z</time>
      </trkpt>
      <trkpt lat="43.9666" lon="5.10867">
        <ele>388.4</ele>
        <time>2016-02-21T16:02:52Z</time>
      </trkpt>
      <trkpt lat="43.96658" lon="5.10853">
        <ele>387.6</ele>
        <time>2016-02-21T16:03:01Z</time>
      </trkpt>
      <trkpt lat="43.96659" lon="5.1084">
        <ele>386.7</ele>
        <time>2016-02-21T16:03:09Z</time>
      </trkpt>
      <trkpt lat="43.96662" lon="5.10827">
        <ele>385.5</ele>
        <time>2016-02-21T16:03:20Z</time>
      </trkpt>
      <trkpt lat="43.96665" lon="5.10815">
        <ele>384.6</ele>
        <time>2016-02-21T16:03:27Z</time>
      </trkpt>
      <trkpt lat="43.96663" lon="5.10802">
        <ele>383.6</ele>
        <time>2016-02-21T16:03:34Z</time>
      </trkpt>
      <trkpt lat="43.9666" lon="5.1079">
        <ele>382.5</ele>
        <time>2016-02-21T16:03:43Z</time>
      </trkpt>
      <trkpt lat="43.96661" lon="5.10775">
        <ele>381.4</ele>
        <time>2016-02-21T16:03:51Z</time>
      </trkpt>
      <trkpt lat="43.96663" lon="5.10762">
        <ele>380.6</ele>
        <time>2016-02-21T16:03:57Z</time>
      </trkpt>
      <trkpt lat="43.96664" lon="5.10748">
        <ele>380.3</ele>
        <time>2016-02-21T16:04:00Z</time>
      </trkpt>
      <trkpt lat="43.96665" lon="5.10734">
        <ele>379.8</ele>
        <time>2016-02-21T16:04:06Z</time>
      </trkpt>
      <trkpt lat="43.96671" lon="5.10723">
        <ele>379.1</ele>
        <time>2016-02-21T16:04:14Z</time>
      </trkpt>
      <trkpt lat="43.96675" lon="5.1071">
        <ele>378.7</ele>
        <time>2016-02-21T16:04:20Z</time>
      </trkpt>
      <trkpt lat="43.96684" lon="5.10705">
        <ele>378.4</ele>
        <time>2016-02-21T16:04:25Z</time>
      </trkpt>
      <trkpt lat="43.9669" lon="5.10694">
        <ele>378.2</ele>
        <time>2016-02-21T16:04:31Z</time>
      </trkpt>
      <trkpt lat="43.96696" lon="5.10683">
        <ele>377.9</ele>
        <time>2016-02-21T16:04:38Z</time>
      </trkpt>
      <trkpt lat="43.96695" lon="5.1067">
        <ele>377.6</ele>
        <time>2016-02-21T16:04:48Z</time>
      </trkpt>
      <trkpt lat="43.96697" lon="5.10658">
        <ele>377.4</ele>
        <time>2016-02-21T16:04:54Z</time>
      </trkpt>
      <trkpt lat="43.967" lon="5.10645">
        <ele>377.3</ele>
        <time>2016-02-21T16:05:00Z</time>
      </trkpt>
      <trkpt lat="43.96703" lon="5.1063">
        <ele>377.1</ele>
        <time>2016-02-21T16:05:07Z</time>
      </trkpt>
      <trkpt lat="43.96702" lon="5.10616">
        <ele>376.8</ele>
        <time>2016-02-21T16:05:14Z</time>
      </trkpt>
      <trkpt lat="43.96699" lon="5.10604">
        <ele>376.5</ele>
        <time>2016-02-21T16:05:21Z</time>
      </trkpt>
      <trkpt lat="43.96698" lon="5.10591">
        <ele>376.3</ele>
        <time>2016-02-21T16:05:26Z</time>
      </trkpt>
      <trkpt lat="43.96693" lon="5.1058">
        <ele>376</ele>
        <time>2016-02-21T16:05:31Z</time>
      </trkpt>
      <trkpt lat="43.96689" lon="5.10568">
        <ele>375.6</ele>
        <time>2016-02-21T16:05:36Z</time>
      </trkpt>
      <trkpt lat="43.96689" lon="5.10555">
        <ele>375.3</ele>
        <time>2016-02-21T16:05:41Z</time>
      </trkpt>
      <trkpt lat="43.96687" lon="5.10542">
        <ele>374.8</ele>
        <time>2016-02-21T16:05:50Z</time>
      </trkpt>
      <trkpt lat="43.96682" lon="5.1053">
        <ele>374.4</ele>
        <time>2016-02-21T16:05:57Z</time>
      </trkpt>
      <trkpt lat="43.96673" lon="5.10521">
        <ele>373.9</ele>
        <time>2016-02-21T16:06:03Z</time>
      </trkpt>
      <trkpt lat="43.96665" lon="5.10511">
        <ele>373.5</ele>
        <time>2016-02-21T16:06:08Z</time>
      </trkpt>
      <trkpt lat="43.96659" lon="5.10502">
        <ele>373</ele>
        <time>2016-02-21T16:06:15Z</time>
      </trkpt>
      <trkpt lat="43.96651" lon="5.10494">
        <ele>372.5</ele>
        <time>2016-02-21T16:06:23Z</time>
      </trkpt>
      <trkpt lat="43.96641" lon="5.10489">
        <ele>371.7</ele>
        <time>2016-02-21T16:06:31Z</time>
      </trkpt>
      <trkpt lat="43.96632" lon="5.10483">
        <ele>370.8</ele>
        <time>2016-02-21T16:06:39Z</time>
      </trkpt>
      <trkpt lat="43.96623" lon="5.10479">
        <ele>369.8</ele>
        <time>2016-02-21T16:06:47Z</time>
      </trkpt>
      <trkpt lat="43.96614" lon="5.10479">
        <ele>368.8</ele>
        <time>2016-02-21T16:06:55Z</time>
      </trkpt>
      <trkpt lat="43.96605" lon="5.10471">
        <ele>367.6</ele>
        <time>2016-02-21T16:07:05Z</time>
      </trkpt>
      <trkpt lat="43.96598" lon="5.10464">
        <ele>366.5</ele>
        <time>2016-02-21T16:07:13Z</time>
      </trkpt>
      <trkpt lat="43.96591" lon="5.10455">
        <ele>365.7</ele>
        <time>2016-02-21T16:07:18Z</time>
      </trkpt>
      <trkpt lat="43.96586" lon="5.10444">
        <ele>365</ele>
        <time>2016-02-21T16:07:24Z</time>
      </trkpt>
      <trkpt lat="43.96581" lon="5.10433">
        <ele>364.5</ele>
        <time>2016-02-21T16:07:30Z</time>
      </trkpt>
      <trkpt lat="43.96575" lon="5.10423">
        <ele>364.1</ele>
        <time>2016-02-21T16:07:35Z</time>
      </trkpt>
      <trkpt lat="43.9657" lon="5.10411">
        <ele>363.7</ele>
        <time>2016-02-21T16:07:41Z</time>
      </trkpt>
      <trkpt lat="43.9656" lon="5.10403">
        <ele>362.8</ele>
        <time>2016-02-21T16:08:07Z</time>
      </trkpt>
      <trkpt lat="43.96554" lon="5.10391">
        <ele>362.2</ele>
        <time>2016-02-21T16:08:36Z</time>
      </trkpt>
      <trkpt lat="43.96545" lon="5.10385">
        <ele>360.2</ele>
        <time>2016-02-21T16:10:10Z</time>
      </trkpt>
      <trkpt lat="43.96536" lon="5.10382">
        <ele>359.7</ele>
        <time>2016-02-21T16:10:16Z</time>
      </trkpt>
      <trkpt lat="43.96527" lon="5.10379">
        <ele>358.5</ele>
        <time>2016-02-21T16:10:25Z</time>
      </trkpt>
      <trkpt lat="43.96518" lon="5.10375">
        <ele>357.5</ele>
        <time>2016-02-21T16:10:32Z</time>
      </trkpt>
      <trkpt lat="43.96509" lon="5.10371">
        <ele>356.9</ele>
        <time>2016-02-21T16:10:39Z</time>
      </trkpt>
      <trkpt lat="43.96502" lon="5.10362">
        <ele>356.5</ele>
        <time>2016-02-21T16:10:48Z</time>
      </trkpt>
      <trkpt lat="43.96493" lon="5.10354">
        <ele>356.4</ele>
        <time>2016-02-21T16:10:55Z</time>
      </trkpt>
      <trkpt lat="43.96485" lon="5.10348">
        <ele>356.2</ele>
        <time>2016-02-21T16:11:01Z</time>
      </trkpt>
      <trkpt lat="43.96476" lon="5.1034">
        <ele>355.9</ele>
        <time>2016-02-21T16:11:09Z</time>
      </trkpt>
      <trkpt lat="43.96468" lon="5.10331">
        <ele>355.8</ele>
        <time>2016-02-21T16:11:17Z</time>
      </trkpt>
      <trkpt lat="43.9646" lon="5.10327">
        <ele>355.8</ele>
        <time>2016-02-21T16:11:23Z</time>
      </trkpt>
      <trkpt lat="43.96451" lon="5.10324">
        <ele>355.8</ele>
        <time>2016-02-21T16:11:29Z</time>
      </trkpt>
      <trkpt lat="43.96444" lon="5.10315">
        <ele>355.7</ele>
        <time>2016-02-21T16:11:34Z</time>
      </trkpt>
      <trkpt lat="43.96437" lon="5.10305">
        <ele>355.6</ele>
        <time>2016-02-21T16:11:40Z</time>
      </trkpt>
      <trkpt lat="43.96428" lon="5.103">
        <ele>355.2</ele>
        <time>2016-02-21T16:11:47Z</time>
      </trkpt>
      <trkpt lat="43.96421" lon="5.10291">
        <ele>354.3</ele>
        <time>2016-02-21T16:11:57Z</time>
      </trkpt>
      <trkpt lat="43.96412" lon="5.10297">
        <ele>352.9</ele>
        <time>2016-02-21T16:12:07Z</time>
      </trkpt>
      <trkpt lat="43.96409" lon="5.1031">
        <ele>351.6</ele>
        <time>2016-02-21T16:12:15Z</time>
      </trkpt>
      <trkpt lat="43.964" lon="5.10309">
        <ele>350.7</ele>
        <time>2016-02-21T16:12:21Z</time>
      </trkpt>
      <trkpt lat="43.96392" lon="5.10303">
        <ele>349.9</ele>
        <time>2016-02-21T16:12:28Z</time>
      </trkpt>
      <trkpt lat="43.96384" lon="5.10295">
        <ele>348.9</ele>
        <time>2016-02-21T16:12:35Z</time>
      </trkpt>
      <trkpt lat="43.96376" lon="5.10287">
        <ele>347.7</ele>
        <time>2016-02-21T16:12:43Z</time>
      </trkpt>
      <trkpt lat="43.96369" lon="5.10277">
        <ele>346.5</ele>
        <time>2016-02-21T16:12:50Z</time>
      </trkpt>
      <trkpt lat="43.96363" lon="5.10266">
        <ele>344.8</ele>
        <time>2016-02-21T16:12:58Z</time>
      </trkpt>
      <trkpt lat="43.96356" lon="5.10256">
        <ele>343.6</ele>
        <time>2016-02-21T16:13:06Z</time>
      </trkpt>
      <trkpt lat="43.9635" lon="5.10248">
        <ele>342.8</ele>
        <time>2016-02-21T16:13:13Z</time>
      </trkpt>
      <trkpt lat="43.96342" lon="5.10241">
        <ele>342</ele>
        <time>2016-02-21T16:13:20Z</time>
      </trkpt>
      <trkpt lat="43.9634" lon="5.10228">
        <ele>340.7</ele>
        <time>2016-02-21T16:13:31Z</time>
      </trkpt>
      <trkpt lat="43.96333" lon="5.10218">
        <ele>339.4</ele>
        <time>2016-02-21T16:13:41Z</time>
      </trkpt>
      <trkpt lat="43.96325" lon="5.10209">
        <ele>338.4</ele>
        <time>2016-02-21T16:13:48Z</time>
      </trkpt>
      <trkpt lat="43.96321" lon="5.10196">
        <ele>337.7</ele>
        <time>2016-02-21T16:13:53Z</time>
      </trkpt>
      <trkpt lat="43.96313" lon="5.10189">
        <ele>336.8</ele>
        <time>2016-02-21T16:13:59Z</time>
      </trkpt>
      <trkpt lat="43.96305" lon="5.1018">
        <ele>336</ele>
        <time>2016-02-21T16:14:06Z</time>
      </trkpt>
      <trkpt lat="43.96301" lon="5.10168">
        <ele>334.8</ele>
        <time>2016-02-21T16:14:16Z</time>
      </trkpt>
      <trkpt lat="43.96297" lon="5.10155">
        <ele>333.8</ele>
        <time>2016-02-21T16:14:22Z</time>
      </trkpt>
      <trkpt lat="43.96292" lon="5.10142">
        <ele>333</ele>
        <time>2016-02-21T16:14:28Z</time>
      </trkpt>
      <trkpt lat="43.96289" lon="5.1013">
        <ele>331.9</ele>
        <time>2016-02-21T16:14:36Z</time>
      </trkpt>
      <trkpt lat="43.96287" lon="5.10115">
        <ele>331.1</ele>
        <time>2016-02-21T16:14:43Z</time>
      </trkpt>
      <trkpt lat="43.96291" lon="5.10104">
        <ele>330</ele>
        <time>2016-02-21T16:14:52Z</time>
      </trkpt>
      <trkpt lat="43.96298" lon="5.10095">
        <ele>328.6</ele>
        <time>2016-02-21T16:15:01Z</time>
      </trkpt>
      <trkpt lat="43.96304" lon="5.10085">
        <ele>327</ele>
        <time>2016-02-21T16:15:12Z</time>
      </trkpt>
      <trkpt lat="43.96313" lon="5.10082">
        <ele>325.4</ele>
        <time>2016-02-21T16:15:35Z</time>
      </trkpt>
      <trkpt lat="43.96323" lon="5.10077">
        <ele>325.2</ele>
        <time>2016-02-21T16:15:41Z</time>
      </trkpt>
      <trkpt lat="43.96332" lon="5.1007">
        <ele>324.8</ele>
        <time>2016-02-21T16:15:47Z</time>
      </trkpt>
      <trkpt lat="43.96341" lon="5.10064">
        <ele>324.3</ele>
        <time>2016-02-21T16:15:55Z</time>
      </trkpt>
      <trkpt lat="43.9635" lon="5.10057">
        <ele>323.3</ele>
        <time>2016-02-21T16:16:07Z</time>
      </trkpt>
      <trkpt lat="43.96359" lon="5.1005">
        <ele>322.8</ele>
        <time>2016-02-21T16:16:16Z</time>
      </trkpt>
      <trkpt lat="43.96365" lon="5.10041">
        <ele>322.6</ele>
        <time>2016-02-21T16:16:21Z</time>
      </trkpt>
      <trkpt lat="43.96372" lon="5.10033">
        <ele>322.3</ele>
        <time>2016-02-21T16:16:27Z</time>
      </trkpt>
      <trkpt lat="43.96382" lon="5.10035">
        <ele>321.8</ele>
        <time>2016-02-21T16:16:34Z</time>
      </trkpt>
      <trkpt lat="43.96392" lon="5.10032">
        <ele>320.8</ele>
        <time>2016-02-21T16:16:44Z</time>
      </trkpt>
      <trkpt lat="43.964" lon="5.10025">
        <ele>320.3</ele>
        <time>2016-02-21T16:16:50Z</time>
      </trkpt>
      <trkpt lat="43.96408" lon="5.10015">
        <ele>319.8</ele>
        <time>2016-02-21T16:16:57Z</time>
      </trkpt>
      <trkpt lat="43.96416" lon="5.10007">
        <ele>319.3</ele>
        <time>2016-02-21T16:17:03Z</time>
      </trkpt>
      <trkpt lat="43.96422" lon="5.09997">
        <ele>318.9</ele>
        <time>2016-02-21T16:17:08Z</time>
      </trkpt>
      <trkpt lat="43.96428" lon="5.09985">
        <ele>318.5</ele>
        <time>2016-02-21T16:17:14Z</time>
      </trkpt>
      <trkpt lat="43.96432" lon="5.09974">
        <ele>318.1</ele>
        <time>2016-02-21T16:17:19Z</time>
      </trkpt>
      <trkpt lat="43.96436" lon="5.09962">
        <ele>317.6</ele>
        <time>2016-02-21T16:17:26Z</time>
      </trkpt>
      <trkpt lat="43.96441" lon="5.09951">
        <ele>317.2</ele>
        <time>2016-02-21T16:17:31Z</time>
      </trkpt>
      <trkpt lat="43.96446" lon="5.09939">
        <ele>316.8</ele>
        <time>2016-02-21T16:17:37Z</time>
      </trkpt>
      <trkpt lat="43.96436" lon="5.09935">
        <ele>315.3</ele>
        <time>2016-02-21T16:17:50Z</time>
      </trkpt>
      <trkpt lat="43.96427" lon="5.09933">
        <ele>314.1</ele>
        <time>2016-02-21T16:17:57Z</time>
      </trkpt>
      <trkpt lat="43.9642" lon="5.09924">
        <ele>311.7</ele>
        <time>2016-02-21T16:18:10Z</time>
      </trkpt>
      <trkpt lat="43.96425" lon="5.0991">
        <ele>310</ele>
        <time>2016-02-21T16:18:20Z</time>
      </trkpt>
      <trkpt lat="43.96433" lon="5.09903">
        <ele>309.3</ele>
        <time>2016-02-21T16:18:25Z</time>
      </trkpt>
      <trkpt lat="43.96441" lon="5.09895">
        <ele>308.7</ele>
        <time>2016-02-21T16:18:31Z</time>
      </trkpt>
      <trkpt lat="43.9645" lon="5.0989">
        <ele>308.2</ele>
        <time>2016-02-21T16:18:37Z</time>
      </trkpt>
      <trkpt lat="43.96458" lon="5.09885">
        <ele>307.7</ele>
        <time>2016-02-21T16:18:42Z</time>
      </trkpt>
      <trkpt lat="43.96468" lon="5.09889">
        <ele>307</ele>
        <time>2016-02-21T16:18:47Z</time>
      </trkpt>
      <trkpt lat="43.96473" lon="5.099">
        <ele>306</ele>
        <time>2016-02-21T16:18:55Z</time>
      </trkpt>
      <trkpt lat="43.96482" lon="5.09892">
        <ele>304.3</ele>
        <time>2016-02-21T16:19:05Z</time>
      </trkpt>
      <trkpt lat="43.96484" lon="5.09879">
        <ele>303.4</ele>
        <time>2016-02-21T16:19:10Z</time>
      </trkpt>
      <trkpt lat="43.96483" lon="5.09865">
        <ele>302.3</ele>
        <time>2016-02-21T16:19:16Z</time>
      </trkpt>
      <trkpt lat="43.96484" lon="5.09851">
        <ele>301.2</ele>
        <time>2016-02-21T16:19:22Z</time>
      </trkpt>
      <trkpt lat="43.96482" lon="5.09835">
        <ele>299.7</ele>
        <time>2016-02-21T16:19:29Z</time>
      </trkpt>
      <trkpt lat="43.9648" lon="5.09823">
        <ele>298.5</ele>
        <time>2016-02-21T16:19:35Z</time>
      </trkpt>
      <trkpt lat="43.96479" lon="5.09807">
        <ele>297.6</ele>
        <time>2016-02-21T16:19:39Z</time>
      </trkpt>
      <trkpt lat="43.96483" lon="5.09793">
        <ele>296.4</ele>
        <time>2016-02-21T16:19:44Z</time>
      </trkpt>
      <trkpt lat="43.96491" lon="5.09781">
        <ele>295.6</ele>
        <time>2016-02-21T16:19:48Z</time>
      </trkpt>
      <trkpt lat="43.96495" lon="5.09769">
        <ele>294.6</ele>
        <time>2016-02-21T16:19:53Z</time>
      </trkpt>
      <trkpt lat="43.96503" lon="5.09761">
        <ele>293</ele>
        <time>2016-02-21T16:20:00Z</time>
      </trkpt>
      <trkpt lat="43.96511" lon="5.09753">
        <ele>290.3</ele>
        <time>2016-02-21T16:20:11Z</time>
      </trkpt>
      <trkpt lat="43.9652" lon="5.09757">
        <ele>288.1</ele>
        <time>2016-02-21T16:20:22Z</time>
      </trkpt>
      <trkpt lat="43.96528" lon="5.09751">
        <ele>286</ele>
        <time>2016-02-21T16:20:31Z</time>
      </trkpt>
      <trkpt lat="43.9653" lon="5.09737">
        <ele>284.2</ele>
        <time>2016-02-21T16:20:38Z</time>
      </trkpt>
      <trkpt lat="43.9654" lon="5.09733">
        <ele>282.9</ele>
        <time>2016-02-21T16:20:43Z</time>
      </trkpt>
      <trkpt lat="43.96541" lon="5.0972">
        <ele>280.7</ele>
        <time>2016-02-21T16:20:51Z</time>
      </trkpt>
      <trkpt lat="43.9654" lon="5.09707">
        <ele>278.6</ele>
        <time>2016-02-21T16:20:59Z</time>
      </trkpt>
      <trkpt lat="43.9654" lon="5.09693">
        <ele>277</ele>
        <time>2016-02-21T16:21:06Z</time>
      </trkpt>
      <trkpt lat="43.96536" lon="5.09681">
        <ele>275.8</ele>
        <time>2016-02-21T16:21:12Z</time>
      </trkpt>
      <trkpt lat="43.9653" lon="5.09669">
        <ele>274.6</ele>
        <time>2016-02-21T16:21:18Z</time>
      </trkpt>
      <trkpt lat="43.96524" lon="5.09657">
        <ele>273.5</ele>
        <time>2016-02-21T16:21:25Z</time>
      </trkpt>
      <trkpt lat="43.9652" lon="5.09645">
        <ele>272.3</ele>
        <time>2016-02-21T16:21:32Z</time>
      </trkpt>
      <trkpt lat="43.96513" lon="5.09637">
        <ele>271.1</ele>
        <time>2016-02-21T16:21:39Z</time>
      </trkpt>
      <trkpt lat="43.96504" lon="5.09629">
        <ele>269.2</ele>
        <time>2016-02-21T16:21:49Z</time>
      </trkpt>
      <trkpt lat="43.96496" lon="5.09624">
        <ele>267.1</ele>
        <time>2016-02-21T16:21:59Z</time>
      </trkpt>
      <trkpt lat="43.96489" lon="5.09614">
        <ele>265.6</ele>
        <time>2016-02-21T16:22:06Z</time>
      </trkpt>
      <trkpt lat="43.96482" lon="5.09604">
        <ele>263.8</ele>
        <time>2016-02-21T16:22:13Z</time>
      </trkpt>
      <trkpt lat="43.96477" lon="5.09591">
        <ele>262.8</ele>
        <time>2016-02-21T16:22:17Z</time>
      </trkpt>
      <trkpt lat="43.96472" lon="5.09578">
        <ele>261.7</ele>
        <time>2016-02-21T16:22:22Z</time>
      </trkpt>
      <trkpt lat="43.96468" lon="5.09565">
        <ele>260.6</ele>
        <time>2016-02-21T16:22:27Z</time>
      </trkpt>
      <trkpt lat="43.96465" lon="5.09551">
        <ele>259.5</ele>
        <time>2016-02-21T16:22:33Z</time>
      </trkpt>
      <trkpt lat="43.96462" lon="5.09539">
        <ele>258.7</ele>
        <time>2016-02-21T16:22:38Z</time>
      </trkpt>
      <trkpt lat="43.96457" lon="5.09526">
        <ele>257.6</ele>
        <time>2016-02-21T16:22:44Z</time>
      </trkpt>
      <trkpt lat="43.96453" lon="5.09514">
        <ele>255.8</ele>
        <time>2016-02-21T16:22:54Z</time>
      </trkpt>
      <trkpt lat="43.96444" lon="5.09512">
        <ele>254.6</ele>
        <time>2016-02-21T16:23:02Z</time>
      </trkpt>
      <trkpt lat="43.96437" lon="5.09501">
        <ele>253.5</ele>
        <time>2016-02-21T16:23:08Z</time>
      </trkpt>
      <trkpt lat="43.96437" lon="5.09486">
        <ele>252.2</ele>
        <time>2016-02-21T16:23:15Z</time>
      </trkpt>
      <trkpt lat="43.96446" lon="5.09479">
        <ele>251.1</ele>
        <time>2016-02-21T16:23:21Z</time>
      </trkpt>
      <trkpt lat="43.96456" lon="5.09478">
        <ele>250.2</ele>
        <time>2016-02-21T16:23:27Z</time>
      </trkpt>
      <trkpt lat="43.96464" lon="5.09481">
        <ele>249.3</ele>
        <time>2016-02-21T16:23:32Z</time>
      </trkpt>
      <trkpt lat="43.96474" lon="5.09483">
        <ele>248.2</ele>
        <time>2016-02-21T16:23:40Z</time>
      </trkpt>
      <trkpt lat="43.96483" lon="5.09486">
        <ele>247.6</ele>
        <time>2016-02-21T16:23:46Z</time>
      </trkpt>
      <trkpt lat="43.96492" lon="5.09481">
        <ele>246.8</ele>
        <time>2016-02-21T16:23:54Z</time>
      </trkpt>
      <trkpt lat="43.965" lon="5.09473">
        <ele>246.1</ele>
        <time>2016-02-21T16:24:01Z</time>
      </trkpt>
      <trkpt lat="43.96508" lon="5.09467">
        <ele>245.4</ele>
        <time>2016-02-21T16:24:07Z</time>
      </trkpt>
      <trkpt lat="43.96516" lon="5.09462">
        <ele>244.7</ele>
        <time>2016-02-21T16:24:11Z</time>
      </trkpt>
      <trkpt lat="43.96526" lon="5.0946">
        <ele>243.6</ele>
        <time>2016-02-21T16:24:17Z</time>
      </trkpt>
      <trkpt lat="43.96536" lon="5.09455">
        <ele>242.5</ele>
        <time>2016-02-21T16:24:24Z</time>
      </trkpt>
      <trkpt lat="43.96546" lon="5.09451">
        <ele>241.7</ele>
        <time>2016-02-21T16:24:30Z</time>
      </trkpt>
      <trkpt lat="43.96556" lon="5.09447">
        <ele>241.3</ele>
        <time>2016-02-21T16:24:35Z</time>
      </trkpt>
      <trkpt lat="43.96565" lon="5.09444">
        <ele>241.3</ele>
        <time>2016-02-21T16:24:40Z</time>
      </trkpt>
      <trkpt lat="43.96573" lon="5.09438">
        <ele>241.9</ele>
        <time>2016-02-21T16:24:45Z</time>
      </trkpt>
      <trkpt lat="43.96583" lon="5.09438">
        <ele>243</ele>
        <time>2016-02-21T16:24:52Z</time>
      </trkpt>
      <trkpt lat="43.96593" lon="5.0944">
        <ele>244.1</ele>
        <time>2016-02-21T16:24:57Z</time>
      </trkpt>
      <trkpt lat="43.96602" lon="5.09443">
        <ele>245.2</ele>
        <time>2016-02-21T16:25:02Z</time>
      </trkpt>
      <trkpt lat="43.96611" lon="5.09442">
        <ele>246.5</ele>
        <time>2016-02-21T16:25:08Z</time>
      </trkpt>
      <trkpt lat="43.96623" lon="5.09436">
        <ele>247.5</ele>
        <time>2016-02-21T16:25:12Z</time>
      </trkpt>
      <trkpt lat="43.96633" lon="5.0943">
        <ele>248.7</ele>
        <time>2016-02-21T16:25:17Z</time>
      </trkpt>
      <trkpt lat="43.96629" lon="5.09418">
        <ele>251.1</ele>
        <time>2016-02-21T16:25:27Z</time>
      </trkpt>
      <trkpt lat="43.96624" lon="5.09405">
        <ele>252.6</ele>
        <time>2016-02-21T16:25:34Z</time>
      </trkpt>
      <trkpt lat="43.96632" lon="5.09398">
        <ele>254.3</ele>
        <time>2016-02-21T16:25:43Z</time>
      </trkpt>
      <trkpt lat="43.96642" lon="5.09397">
        <ele>255</ele>
        <time>2016-02-21T16:25:50Z</time>
      </trkpt>
      <trkpt lat="43.96651" lon="5.09397">
        <ele>255.3</ele>
        <time>2016-02-21T16:25:56Z</time>
      </trkpt>
      <trkpt lat="43.9666" lon="5.09393">
        <ele>255.3</ele>
        <time>2016-02-21T16:26:02Z</time>
      </trkpt>
      <trkpt lat="43.96669" lon="5.09386">
        <ele>255.1</ele>
        <time>2016-02-21T16:26:10Z</time>
      </trkpt>
      <trkpt lat="43.96674" lon="5.09375">
        <ele>254.9</ele>
        <time>2016-02-21T16:26:20Z</time>
      </trkpt>
      <trkpt lat="43.9668" lon="5.09365">
        <ele>255</ele>
        <time>2016-02-21T16:26:24Z</time>
      </trkpt>
      <trkpt lat="43.96686" lon="5.09355">
        <ele>255.4</ele>
        <time>2016-02-21T16:26:29Z</time>
      </trkpt>
      <trkpt lat="43.96692" lon="5.09344">
        <ele>256.3</ele>
        <time>2016-02-21T16:26:36Z</time>
      </trkpt>
      <trkpt lat="43.967" lon="5.09335">
        <ele>257.2</ele>
        <time>2016-02-21T16:26:42Z</time>
      </trkpt>
      <trkpt lat="43.96706" lon="5.09325">
        <ele>257.8</ele>
        <time>2016-02-21T16:26:46Z</time>
      </trkpt>
      <trkpt lat="43.96712" lon="5.09314">
        <ele>258.7</ele>
        <time>2016-02-21T16:26:51Z</time>
      </trkpt>
      <trkpt lat="43.96718" lon="5.09303">
        <ele>259.8</ele>
        <time>2016-02-21T16:26:58Z</time>
      </trkpt>
      <trkpt lat="43.96722" lon="5.09289">
        <ele>260.5</ele>
        <time>2016-02-21T16:27:04Z</time>
      </trkpt>
      <trkpt lat="43.96714" lon="5.0928">
        <ele>261.8</ele>
        <time>2016-02-21T16:27:11Z</time>
      </trkpt>
      <trkpt lat="43.96705" lon="5.09276">
        <ele>262.8</ele>
        <time>2016-02-21T16:27:19Z</time>
      </trkpt>
      <trkpt lat="43.96695" lon="5.0927">
        <ele>263.2</ele>
        <time>2016-02-21T16:27:24Z</time>
      </trkpt>
      <trkpt lat="43.96685" lon="5.09265">
        <ele>263.6</ele>
        <time>2016-02-21T16:27:29Z</time>
      </trkpt>
      <trkpt lat="43.96676" lon="5.0926">
        <ele>263.8</ele>
        <time>2016-02-21T16:27:34Z</time>
      </trkpt>
      <trkpt lat="43.96666" lon="5.09259">
        <ele>264</ele>
        <time>2016-02-21T16:27:39Z</time>
      </trkpt>
      <trkpt lat="43.96658" lon="5.09252">
        <ele>264.2</ele>
        <time>2016-02-21T16:27:45Z</time>
      </trkpt>
      <trkpt lat="43.96651" lon="5.09243">
        <ele>264.3</ele>
        <time>2016-02-21T16:27:51Z</time>
      </trkpt>
      <trkpt lat="43.96645" lon="5.09233">
        <ele>264.2</ele>
        <time>2016-02-21T16:28:00Z</time>
      </trkpt>
      <trkpt lat="43.9664" lon="5.09222">
        <ele>264.2</ele>
        <time>2016-02-21T16:28:05Z</time>
      </trkpt>
      <trkpt lat="43.9663" lon="5.09225">
        <ele>262</ele>
        <time>2016-02-21T16:28:45Z</time>
      </trkpt>
      <trkpt lat="43.96622" lon="5.09218">
        <ele>261.8</ele>
        <time>2016-02-21T16:28:51Z</time>
      </trkpt>
      <trkpt lat="43.96615" lon="5.09211">
        <ele>261.6</ele>
        <time>2016-02-21T16:28:58Z</time>
      </trkpt>
      <trkpt lat="43.96606" lon="5.09206">
        <ele>261.2</ele>
        <time>2016-02-21T16:29:06Z</time>
      </trkpt>
      <trkpt lat="43.96597" lon="5.09202">
        <ele>260.6</ele>
        <time>2016-02-21T16:29:14Z</time>
      </trkpt>
      <trkpt lat="43.96587" lon="5.09203">
        <ele>260</ele>
        <time>2016-02-21T16:29:23Z</time>
      </trkpt>
      <trkpt lat="43.96578" lon="5.09201">
        <ele>259.5</ele>
        <time>2016-02-21T16:29:31Z</time>
      </trkpt>
      <trkpt lat="43.96569" lon="5.09197">
        <ele>259.2</ele>
        <time>2016-02-21T16:29:38Z</time>
      </trkpt>
      <trkpt lat="43.96561" lon="5.09189">
        <ele>258.5</ele>
        <time>2016-02-21T16:29:46Z</time>
      </trkpt>
      <trkpt lat="43.9655" lon="5.09187">
        <ele>258.1</ele>
        <time>2016-02-21T16:29:53Z</time>
      </trkpt>
      <trkpt lat="43.96543" lon="5.09178">
        <ele>257.7</ele>
        <time>2016-02-21T16:30:02Z</time>
      </trkpt>
      <trkpt lat="43.96535" lon="5.09171">
        <ele>257.4</ele>
        <time>2016-02-21T16:30:10Z</time>
      </trkpt>
      <trkpt lat="43.96528" lon="5.09162">
        <ele>257.2</ele>
        <time>2016-02-21T16:30:16Z</time>
      </trkpt>
      <trkpt lat="43.96521" lon="5.09154">
        <ele>257.1</ele>
        <time>2016-02-21T16:30:24Z</time>
      </trkpt>
      <trkpt lat="43.96515" lon="5.09144">
        <ele>257.1</ele>
        <time>2016-02-21T16:30:31Z</time>
      </trkpt>
      <trkpt lat="43.96506" lon="5.09141">
        <ele>257</ele>
        <time>2016-02-21T16:30:38Z</time>
      </trkpt>
      <trkpt lat="43.96498" lon="5.09136">
        <ele>257</ele>
        <time>2016-02-21T16:30:46Z</time>
      </trkpt>
      <trkpt lat="43.96489" lon="5.09128">
        <ele>257</ele>
        <time>2016-02-21T16:30:54Z</time>
      </trkpt>
      <trkpt lat="43.96482" lon="5.0912">
        <ele>257</ele>
        <time>2016-02-21T16:31:01Z</time>
      </trkpt>
      <trkpt lat="43.96474" lon="5.09112">
        <ele>256.9</ele>
        <time>2016-02-21T16:31:09Z</time>
      </trkpt>
      <trkpt lat="43.96466" lon="5.09104">
        <ele>256.8</ele>
        <time>2016-02-21T16:31:16Z</time>
      </trkpt>
      <trkpt lat="43.96459" lon="5.09097">
        <ele>256.7</ele>
        <time>2016-02-21T16:31:22Z</time>
      </trkpt>
      <trkpt lat="43.9645" lon="5.09091">
        <ele>256.6</ele>
        <time>2016-02-21T16:31:28Z</time>
      </trkpt>
      <trkpt lat="43.96443" lon="5.09084">
        <ele>256.5</ele>
        <time>2016-02-21T16:31:34Z</time>
      </trkpt>
      <trkpt lat="43.96436" lon="5.09075">
        <ele>256.3</ele>
        <time>2016-02-21T16:31:41Z</time>
      </trkpt>
      <trkpt lat="43.96427" lon="5.09067">
        <ele>256.1</ele>
        <time>2016-02-21T16:31:50Z</time>
      </trkpt>
      <trkpt lat="43.96423" lon="5.09056">
        <ele>256</ele>
        <time>2016-02-21T16:31:59Z</time>
      </trkpt>
      <trkpt lat="43.96415" lon="5.09048">
        <ele>255.9</ele>
        <time>2016-02-21T16:32:07Z</time>
      </trkpt>
      <trkpt lat="43.96409" lon="5.09039">
        <ele>255.9</ele>
        <time>2016-02-21T16:32:14Z</time>
      </trkpt>
      <trkpt lat="43.96401" lon="5.09032">
        <ele>255.9</ele>
        <time>2016-02-21T16:32:23Z</time>
      </trkpt>
      <trkpt lat="43.96392" lon="5.09027">
        <ele>255.8</ele>
        <time>2016-02-21T16:32:30Z</time>
      </trkpt>
      <trkpt lat="43.96382" lon="5.09027">
        <ele>256</ele>
        <time>2016-02-21T16:32:35Z</time>
      </trkpt>
      <trkpt lat="43.96379" lon="5.09027">
        <ele>256</ele>
        <time>2016-02-21T16:32:47Z</time>
      </trkpt>
    </trkseg>
  </trk>
</gpx>